<?xml version="1.0" encoding="UTF-8" standalone="no" ?>
<gpx xmlns="http://www.topografix.com/GPX/1/1" xmlns:xsi="http://www.w3.org/2001/XMLSchema-instance" xsi:schemaLocation="http://www.topografix.com/GPX/1/1 http://www.topografix.com/GPX/1/1/gpx.xsd" version="1.1" creator="VisuGPX - https://www.visugpx.com">
  <metadata>
    <name>12/07/2020 10:09:08</name>
  </metadata>
  <trk>
    <name><![CDATA[12/07/2020 10:09:08]]></name>
    <trkseg>
      <trkpt lat="45.0738" lon="5.56054">
        <ele>1035.4000244141</ele>
        <time>2020-07-12T08:09:08Z</time>
      </trkpt>
      <trkpt lat="45.07382" lon="5.56086">
        <ele>1030.4000244141</ele>
        <time>2020-07-12T08:09:18Z</time>
      </trkpt>
      <trkpt lat="45.07396" lon="5.56145">
        <ele>1035</ele>
        <time>2020-07-12T08:09:28Z</time>
      </trkpt>
      <trkpt lat="45.07402" lon="5.56184">
        <ele>1042.4000244141</ele>
        <time>2020-07-12T08:09:41Z</time>
      </trkpt>
      <trkpt lat="45.07401" lon="5.5619">
        <ele>1042.8000488281</ele>
        <time>2020-07-12T08:09:43Z</time>
      </trkpt>
      <trkpt lat="45.07401" lon="5.56192">
        <ele>1043.8000488281</ele>
        <time>2020-07-12T08:09:44Z</time>
      </trkpt>
      <trkpt lat="45.07401" lon="5.56195">
        <ele>1044.4000244141</ele>
        <time>2020-07-12T08:09:45Z</time>
      </trkpt>
      <trkpt lat="45.074" lon="5.56203">
        <ele>1045.5999755859</ele>
        <time>2020-07-12T08:09:48Z</time>
      </trkpt>
      <trkpt lat="45.074" lon="5.56213">
        <ele>1046.8000488281</ele>
        <time>2020-07-12T08:09:51Z</time>
      </trkpt>
      <trkpt lat="45.07401" lon="5.5622">
        <ele>1047.5999755859</ele>
        <time>2020-07-12T08:09:53Z</time>
      </trkpt>
      <trkpt lat="45.07401" lon="5.56224">
        <ele>1048</ele>
        <time>2020-07-12T08:09:55Z</time>
      </trkpt>
      <trkpt lat="45.074" lon="5.56223">
        <ele>1044.1999511719</ele>
        <time>2020-07-12T08:10:12Z</time>
      </trkpt>
      <trkpt lat="45.07399" lon="5.56228">
        <ele>1044.1999511719</ele>
        <time>2020-07-12T08:10:15Z</time>
      </trkpt>
      <trkpt lat="45.07396" lon="5.56287">
        <ele>1043.8000488281</ele>
        <time>2020-07-12T08:10:28Z</time>
      </trkpt>
      <trkpt lat="45.07394" lon="5.56314">
        <ele>1044.4000244141</ele>
        <time>2020-07-12T08:10:34Z</time>
      </trkpt>
      <trkpt lat="45.07393" lon="5.56334">
        <ele>1045</ele>
        <time>2020-07-12T08:10:39Z</time>
      </trkpt>
      <trkpt lat="45.07392" lon="5.56337">
        <ele>1045</ele>
        <time>2020-07-12T08:10:40Z</time>
      </trkpt>
      <trkpt lat="45.07391" lon="5.56341">
        <ele>1045.1999511719</ele>
        <time>2020-07-12T08:10:41Z</time>
      </trkpt>
      <trkpt lat="45.0739" lon="5.56345">
        <ele>1045.4000244141</ele>
        <time>2020-07-12T08:10:42Z</time>
      </trkpt>
      <trkpt lat="45.07389" lon="5.56348">
        <ele>1045.4000244141</ele>
        <time>2020-07-12T08:10:43Z</time>
      </trkpt>
      <trkpt lat="45.07387" lon="5.56351">
        <ele>1045.1999511719</ele>
        <time>2020-07-12T08:10:44Z</time>
      </trkpt>
      <trkpt lat="45.07384" lon="5.56357">
        <ele>1045.1999511719</ele>
        <time>2020-07-12T08:10:46Z</time>
      </trkpt>
      <trkpt lat="45.07372" lon="5.56368">
        <ele>1045</ele>
        <time>2020-07-12T08:10:51Z</time>
      </trkpt>
      <trkpt lat="45.07365" lon="5.56371">
        <ele>1044.5999755859</ele>
        <time>2020-07-12T08:10:54Z</time>
      </trkpt>
      <trkpt lat="45.07362" lon="5.56372">
        <ele>1044.4000244141</ele>
        <time>2020-07-12T08:10:55Z</time>
      </trkpt>
      <trkpt lat="45.07359" lon="5.56373">
        <ele>1044</ele>
        <time>2020-07-12T08:10:56Z</time>
      </trkpt>
      <trkpt lat="45.07313" lon="5.5639">
        <ele>1040.5999755859</ele>
        <time>2020-07-12T08:11:04Z</time>
      </trkpt>
      <trkpt lat="45.07301" lon="5.56397">
        <ele>1039.4000244141</ele>
        <time>2020-07-12T08:11:06Z</time>
      </trkpt>
      <trkpt lat="45.07297" lon="5.56401">
        <ele>1039.1999511719</ele>
        <time>2020-07-12T08:11:07Z</time>
      </trkpt>
      <trkpt lat="45.07293" lon="5.56405">
        <ele>1038.8000488281</ele>
        <time>2020-07-12T08:11:08Z</time>
      </trkpt>
      <trkpt lat="45.0729" lon="5.56409">
        <ele>1038.4000244141</ele>
        <time>2020-07-12T08:11:09Z</time>
      </trkpt>
      <trkpt lat="45.07289" lon="5.56414">
        <ele>1037.8000488281</ele>
        <time>2020-07-12T08:11:10Z</time>
      </trkpt>
      <trkpt lat="45.07289" lon="5.56419">
        <ele>1037.1999511719</ele>
        <time>2020-07-12T08:11:11Z</time>
      </trkpt>
      <trkpt lat="45.07293" lon="5.56426">
        <ele>1036.1999511719</ele>
        <time>2020-07-12T08:11:13Z</time>
      </trkpt>
      <trkpt lat="45.07297" lon="5.56426">
        <ele>1035.4000244141</ele>
        <time>2020-07-12T08:11:14Z</time>
      </trkpt>
      <trkpt lat="45.07309" lon="5.56426">
        <ele>1033.5999755859</ele>
        <time>2020-07-12T08:11:17Z</time>
      </trkpt>
      <trkpt lat="45.07316" lon="5.56426">
        <ele>1032</ele>
        <time>2020-07-12T08:11:20Z</time>
      </trkpt>
      <trkpt lat="45.07319" lon="5.56426">
        <ele>1031.4000244141</ele>
        <time>2020-07-12T08:11:22Z</time>
      </trkpt>
      <trkpt lat="45.0732" lon="5.56426">
        <ele>1030.5999755859</ele>
        <time>2020-07-12T08:11:24Z</time>
      </trkpt>
      <trkpt lat="45.07321" lon="5.56426">
        <ele>1031.4000244141</ele>
        <time>2020-07-12T08:11:26Z</time>
      </trkpt>
      <trkpt lat="45.07321" lon="5.56426">
        <ele>1031.5999755859</ele>
        <time>2020-07-12T08:11:27Z</time>
      </trkpt>
      <trkpt lat="45.07321" lon="5.56426">
        <ele>1031.5999755859</ele>
        <time>2020-07-12T08:11:29Z</time>
      </trkpt>
      <trkpt lat="45.07322" lon="5.56425">
        <ele>1031.5999755859</ele>
        <time>2020-07-12T08:11:37Z</time>
      </trkpt>
      <trkpt lat="45.07322" lon="5.56424">
        <ele>1031.5999755859</ele>
        <time>2020-07-12T08:11:46Z</time>
      </trkpt>
      <trkpt lat="45.07323" lon="5.56425">
        <ele>1031.4000244141</ele>
        <time>2020-07-12T08:12:09Z</time>
      </trkpt>
      <trkpt lat="45.07324" lon="5.56425">
        <ele>1031.4000244141</ele>
        <time>2020-07-12T08:12:22Z</time>
      </trkpt>
      <trkpt lat="45.07325" lon="5.56427">
        <ele>1031.4000244141</ele>
        <time>2020-07-12T08:12:30Z</time>
      </trkpt>
      <trkpt lat="45.07356" lon="5.56474">
        <ele>1033.8000488281</ele>
        <time>2020-07-12T08:13:00Z</time>
      </trkpt>
      <trkpt lat="45.0736" lon="5.56478">
        <ele>1034.1999511719</ele>
        <time>2020-07-12T08:13:03Z</time>
      </trkpt>
      <trkpt lat="45.07366" lon="5.56487">
        <ele>1035</ele>
        <time>2020-07-12T08:13:10Z</time>
      </trkpt>
      <trkpt lat="45.07371" lon="5.56493">
        <ele>1035.8000488281</ele>
        <time>2020-07-12T08:13:15Z</time>
      </trkpt>
      <trkpt lat="45.07379" lon="5.56526">
        <ele>1039.1999511719</ele>
        <time>2020-07-12T08:13:38Z</time>
      </trkpt>
      <trkpt lat="45.07368" lon="5.56529">
        <ele>1040.5999755859</ele>
        <time>2020-07-12T08:13:48Z</time>
      </trkpt>
      <trkpt lat="45.07361" lon="5.56531">
        <ele>1041.5999755859</ele>
        <time>2020-07-12T08:13:54Z</time>
      </trkpt>
      <trkpt lat="45.07355" lon="5.56534">
        <ele>1042.4000244141</ele>
        <time>2020-07-12T08:13:59Z</time>
      </trkpt>
      <trkpt lat="45.07351" lon="5.56536">
        <ele>1043.1999511719</ele>
        <time>2020-07-12T08:14:03Z</time>
      </trkpt>
      <trkpt lat="45.07343" lon="5.56541">
        <ele>1044.4000244141</ele>
        <time>2020-07-12T08:14:10Z</time>
      </trkpt>
      <trkpt lat="45.07337" lon="5.56546">
        <ele>1045</ele>
        <time>2020-07-12T08:14:16Z</time>
      </trkpt>
      <trkpt lat="45.07327" lon="5.56553">
        <ele>1045.8000488281</ele>
        <time>2020-07-12T08:14:24Z</time>
      </trkpt>
      <trkpt lat="45.0732" lon="5.56558">
        <ele>1046.1999511719</ele>
        <time>2020-07-12T08:14:30Z</time>
      </trkpt>
      <trkpt lat="45.07312" lon="5.56565">
        <ele>1046.5999755859</ele>
        <time>2020-07-12T08:14:36Z</time>
      </trkpt>
      <trkpt lat="45.07308" lon="5.56568">
        <ele>1047.1999511719</ele>
        <time>2020-07-12T08:14:39Z</time>
      </trkpt>
      <trkpt lat="45.07301" lon="5.56572">
        <ele>1047.8000488281</ele>
        <time>2020-07-12T08:14:44Z</time>
      </trkpt>
      <trkpt lat="45.073" lon="5.56573">
        <ele>1048</ele>
        <time>2020-07-12T08:14:45Z</time>
      </trkpt>
      <trkpt lat="45.07282" lon="5.56576">
        <ele>1049.8000488281</ele>
        <time>2020-07-12T08:14:57Z</time>
      </trkpt>
      <trkpt lat="45.07273" lon="5.5658">
        <ele>1050</ele>
        <time>2020-07-12T08:15:03Z</time>
      </trkpt>
      <trkpt lat="45.07271" lon="5.56581">
        <ele>1050.1999511719</ele>
        <time>2020-07-12T08:15:04Z</time>
      </trkpt>
      <trkpt lat="45.07267" lon="5.56583">
        <ele>1050.4000244141</ele>
        <time>2020-07-12T08:15:07Z</time>
      </trkpt>
      <trkpt lat="45.07256" lon="5.56589">
        <ele>1051.5999755859</ele>
        <time>2020-07-12T08:15:14Z</time>
      </trkpt>
      <trkpt lat="45.07253" lon="5.56591">
        <ele>1051.8000488281</ele>
        <time>2020-07-12T08:15:16Z</time>
      </trkpt>
      <trkpt lat="45.0724" lon="5.56598">
        <ele>1052.4000244141</ele>
        <time>2020-07-12T08:15:26Z</time>
      </trkpt>
      <trkpt lat="45.07232" lon="5.566">
        <ele>1052.8000488281</ele>
        <time>2020-07-12T08:15:31Z</time>
      </trkpt>
      <trkpt lat="45.07229" lon="5.56601">
        <ele>1053.1999511719</ele>
        <time>2020-07-12T08:15:33Z</time>
      </trkpt>
      <trkpt lat="45.07221" lon="5.56603">
        <ele>1053.5999755859</ele>
        <time>2020-07-12T08:15:38Z</time>
      </trkpt>
      <trkpt lat="45.07216" lon="5.56604">
        <ele>1054</ele>
        <time>2020-07-12T08:15:41Z</time>
      </trkpt>
      <trkpt lat="45.07171" lon="5.56604">
        <ele>1058.1999511719</ele>
        <time>2020-07-12T08:16:12Z</time>
      </trkpt>
      <trkpt lat="45.07126" lon="5.56617">
        <ele>1061.4000244141</ele>
        <time>2020-07-12T08:16:42Z</time>
      </trkpt>
      <trkpt lat="45.07082" lon="5.56623">
        <ele>1064.1999511719</ele>
        <time>2020-07-12T08:17:11Z</time>
      </trkpt>
      <trkpt lat="45.07068" lon="5.56627">
        <ele>1065.4000244141</ele>
        <time>2020-07-12T08:17:20Z</time>
      </trkpt>
      <trkpt lat="45.07045" lon="5.56632">
        <ele>1067.5999755859</ele>
        <time>2020-07-12T08:17:34Z</time>
      </trkpt>
      <trkpt lat="45.07037" lon="5.56633">
        <ele>1068.4000244141</ele>
        <time>2020-07-12T08:17:39Z</time>
      </trkpt>
      <trkpt lat="45.0703" lon="5.56633">
        <ele>1068.4000244141</ele>
        <time>2020-07-12T08:17:43Z</time>
      </trkpt>
      <trkpt lat="45.07011" lon="5.56635">
        <ele>1069.8000488281</ele>
        <time>2020-07-12T08:17:54Z</time>
      </trkpt>
      <trkpt lat="45.07006" lon="5.56636">
        <ele>1071</ele>
        <time>2020-07-12T08:17:57Z</time>
      </trkpt>
      <trkpt lat="45.0699" lon="5.56638">
        <ele>1072.4000244141</ele>
        <time>2020-07-12T08:18:06Z</time>
      </trkpt>
      <trkpt lat="45.06964" lon="5.56642">
        <ele>1073.5999755859</ele>
        <time>2020-07-12T08:18:21Z</time>
      </trkpt>
      <trkpt lat="45.06947" lon="5.56644">
        <ele>1074.1999511719</ele>
        <time>2020-07-12T08:18:31Z</time>
      </trkpt>
      <trkpt lat="45.0694" lon="5.56644">
        <ele>1075.4000244141</ele>
        <time>2020-07-12T08:18:35Z</time>
      </trkpt>
      <trkpt lat="45.06938" lon="5.56643">
        <ele>1075.5999755859</ele>
        <time>2020-07-12T08:18:36Z</time>
      </trkpt>
      <trkpt lat="45.06936" lon="5.56643">
        <ele>1076.4000244141</ele>
        <time>2020-07-12T08:18:37Z</time>
      </trkpt>
      <trkpt lat="45.06934" lon="5.56642">
        <ele>1077</ele>
        <time>2020-07-12T08:18:38Z</time>
      </trkpt>
      <trkpt lat="45.0692" lon="5.56645">
        <ele>1081</ele>
        <time>2020-07-12T08:18:46Z</time>
      </trkpt>
      <trkpt lat="45.06904" lon="5.56651">
        <ele>1086.4000244141</ele>
        <time>2020-07-12T08:18:56Z</time>
      </trkpt>
      <trkpt lat="45.06894" lon="5.56655">
        <ele>1088.4000244141</ele>
        <time>2020-07-12T08:19:02Z</time>
      </trkpt>
      <trkpt lat="45.06887" lon="5.56657">
        <ele>1088.1999511719</ele>
        <time>2020-07-12T08:19:06Z</time>
      </trkpt>
      <trkpt lat="45.06886" lon="5.56657">
        <ele>1088.4000244141</ele>
        <time>2020-07-12T08:19:07Z</time>
      </trkpt>
      <trkpt lat="45.06882" lon="5.56658">
        <ele>1088.4000244141</ele>
        <time>2020-07-12T08:19:09Z</time>
      </trkpt>
      <trkpt lat="45.06878" lon="5.56659">
        <ele>1087.4000244141</ele>
        <time>2020-07-12T08:19:12Z</time>
      </trkpt>
      <trkpt lat="45.06868" lon="5.56661">
        <ele>1090.1999511719</ele>
        <time>2020-07-12T08:19:21Z</time>
      </trkpt>
      <trkpt lat="45.06866" lon="5.56665">
        <ele>1089.5999755859</ele>
        <time>2020-07-12T08:19:25Z</time>
      </trkpt>
      <trkpt lat="45.06847" lon="5.56684">
        <ele>1088.1999511719</ele>
        <time>2020-07-12T08:19:37Z</time>
      </trkpt>
      <trkpt lat="45.06844" lon="5.56685">
        <ele>1088</ele>
        <time>2020-07-12T08:19:38Z</time>
      </trkpt>
      <trkpt lat="45.06839" lon="5.56686">
        <ele>1087.8000488281</ele>
        <time>2020-07-12T08:19:40Z</time>
      </trkpt>
      <trkpt lat="45.06823" lon="5.56687">
        <ele>1087.4000244141</ele>
        <time>2020-07-12T08:19:46Z</time>
      </trkpt>
      <trkpt lat="45.06821" lon="5.56688">
        <ele>1087.5999755859</ele>
        <time>2020-07-12T08:19:47Z</time>
      </trkpt>
      <trkpt lat="45.06818" lon="5.56688">
        <ele>1087.5999755859</ele>
        <time>2020-07-12T08:19:48Z</time>
      </trkpt>
      <trkpt lat="45.06809" lon="5.5669">
        <ele>1086.4000244141</ele>
        <time>2020-07-12T08:19:52Z</time>
      </trkpt>
      <trkpt lat="45.068" lon="5.56692">
        <ele>1085.4000244141</ele>
        <time>2020-07-12T08:19:56Z</time>
      </trkpt>
      <trkpt lat="45.06789" lon="5.56696">
        <ele>1084.4000244141</ele>
        <time>2020-07-12T08:20:01Z</time>
      </trkpt>
      <trkpt lat="45.06776" lon="5.56693">
        <ele>1084.5999755859</ele>
        <time>2020-07-12T08:20:09Z</time>
      </trkpt>
      <trkpt lat="45.06772" lon="5.56692">
        <ele>1086.1999511719</ele>
        <time>2020-07-12T08:20:12Z</time>
      </trkpt>
      <trkpt lat="45.06768" lon="5.56691">
        <ele>1087.1999511719</ele>
        <time>2020-07-12T08:20:15Z</time>
      </trkpt>
      <trkpt lat="45.06764" lon="5.5669">
        <ele>1088.1999511719</ele>
        <time>2020-07-12T08:20:18Z</time>
      </trkpt>
      <trkpt lat="45.06758" lon="5.56688">
        <ele>1089.1999511719</ele>
        <time>2020-07-12T08:20:23Z</time>
      </trkpt>
      <trkpt lat="45.06744" lon="5.56688">
        <ele>1091.1999511719</ele>
        <time>2020-07-12T08:20:34Z</time>
      </trkpt>
      <trkpt lat="45.06741" lon="5.56688">
        <ele>1091.5999755859</ele>
        <time>2020-07-12T08:20:36Z</time>
      </trkpt>
      <trkpt lat="45.06739" lon="5.56688">
        <ele>1092</ele>
        <time>2020-07-12T08:20:38Z</time>
      </trkpt>
      <trkpt lat="45.06734" lon="5.56683">
        <ele>1092.8000488281</ele>
        <time>2020-07-12T08:20:43Z</time>
      </trkpt>
      <trkpt lat="45.06734" lon="5.56674">
        <ele>1094.4000244141</ele>
        <time>2020-07-12T08:20:49Z</time>
      </trkpt>
      <trkpt lat="45.06735" lon="5.5667">
        <ele>1095.1999511719</ele>
        <time>2020-07-12T08:20:52Z</time>
      </trkpt>
      <trkpt lat="45.06732" lon="5.56662">
        <ele>1096.5999755859</ele>
        <time>2020-07-12T08:20:58Z</time>
      </trkpt>
      <trkpt lat="45.0672" lon="5.56661">
        <ele>1095.5999755859</ele>
        <time>2020-07-12T08:21:08Z</time>
      </trkpt>
      <trkpt lat="45.06716" lon="5.56661">
        <ele>1095.4000244141</ele>
        <time>2020-07-12T08:21:11Z</time>
      </trkpt>
      <trkpt lat="45.06714" lon="5.5666">
        <ele>1096.1999511719</ele>
        <time>2020-07-12T08:21:13Z</time>
      </trkpt>
      <trkpt lat="45.06706" lon="5.5666">
        <ele>1099</ele>
        <time>2020-07-12T08:21:19Z</time>
      </trkpt>
      <trkpt lat="45.06698" lon="5.56662">
        <ele>1099.4000244141</ele>
        <time>2020-07-12T08:21:24Z</time>
      </trkpt>
      <trkpt lat="45.06689" lon="5.56664">
        <ele>1099.1999511719</ele>
        <time>2020-07-12T08:21:32Z</time>
      </trkpt>
      <trkpt lat="45.06682" lon="5.56668">
        <ele>1099.4000244141</ele>
        <time>2020-07-12T08:21:38Z</time>
      </trkpt>
      <trkpt lat="45.06638" lon="5.56683">
        <ele>1106.4000244141</ele>
        <time>2020-07-12T08:22:17Z</time>
      </trkpt>
      <trkpt lat="45.06594" lon="5.56689">
        <ele>1116.8000488281</ele>
        <time>2020-07-12T08:22:59Z</time>
      </trkpt>
      <trkpt lat="45.0658" lon="5.56675">
        <ele>1121</ele>
        <time>2020-07-12T08:23:15Z</time>
      </trkpt>
      <trkpt lat="45.0657" lon="5.56665">
        <ele>1123</ele>
        <time>2020-07-12T08:23:28Z</time>
      </trkpt>
      <trkpt lat="45.0656" lon="5.56658">
        <ele>1120.8000488281</ele>
        <time>2020-07-12T08:23:39Z</time>
      </trkpt>
      <trkpt lat="45.06559" lon="5.56657">
        <ele>1121.1999511719</ele>
        <time>2020-07-12T08:23:40Z</time>
      </trkpt>
      <trkpt lat="45.06557" lon="5.56657">
        <ele>1122</ele>
        <time>2020-07-12T08:23:42Z</time>
      </trkpt>
      <trkpt lat="45.06556" lon="5.56656">
        <ele>1122.4000244141</ele>
        <time>2020-07-12T08:23:43Z</time>
      </trkpt>
      <trkpt lat="45.06555" lon="5.56655">
        <ele>1123.1999511719</ele>
        <time>2020-07-12T08:23:44Z</time>
      </trkpt>
      <trkpt lat="45.06554" lon="5.56655">
        <ele>1123.8000488281</ele>
        <time>2020-07-12T08:23:45Z</time>
      </trkpt>
      <trkpt lat="45.06551" lon="5.56653">
        <ele>1127.5999755859</ele>
        <time>2020-07-12T08:23:49Z</time>
      </trkpt>
      <trkpt lat="45.0655" lon="5.56653">
        <ele>1128</ele>
        <time>2020-07-12T08:23:50Z</time>
      </trkpt>
      <trkpt lat="45.06549" lon="5.56653">
        <ele>1128.4000244141</ele>
        <time>2020-07-12T08:23:51Z</time>
      </trkpt>
      <trkpt lat="45.06545" lon="5.56652">
        <ele>1129.5999755859</ele>
        <time>2020-07-12T08:23:55Z</time>
      </trkpt>
      <trkpt lat="45.06543" lon="5.56652">
        <ele>1129.1999511719</ele>
        <time>2020-07-12T08:23:57Z</time>
      </trkpt>
      <trkpt lat="45.0651" lon="5.56641">
        <ele>1131.1999511719</ele>
        <time>2020-07-12T08:24:24Z</time>
      </trkpt>
      <trkpt lat="45.06502" lon="5.56639">
        <ele>1131.8000488281</ele>
        <time>2020-07-12T08:24:30Z</time>
      </trkpt>
      <trkpt lat="45.06492" lon="5.56637">
        <ele>1132.1999511719</ele>
        <time>2020-07-12T08:24:37Z</time>
      </trkpt>
      <trkpt lat="45.06483" lon="5.56633">
        <ele>1133</ele>
        <time>2020-07-12T08:24:44Z</time>
      </trkpt>
      <trkpt lat="45.06475" lon="5.56629">
        <ele>1134.4000244141</ele>
        <time>2020-07-12T08:24:50Z</time>
      </trkpt>
      <trkpt lat="45.06469" lon="5.56627">
        <ele>1136.1999511719</ele>
        <time>2020-07-12T08:25:03Z</time>
      </trkpt>
      <trkpt lat="45.06468" lon="5.56628">
        <ele>1136.5999755859</ele>
        <time>2020-07-12T08:25:13Z</time>
      </trkpt>
      <trkpt lat="45.06468" lon="5.56626">
        <ele>1133</ele>
        <time>2020-07-12T08:25:36Z</time>
      </trkpt>
      <trkpt lat="45.06468" lon="5.56626">
        <ele>1132.1999511719</ele>
        <time>2020-07-12T08:25:49Z</time>
      </trkpt>
      <trkpt lat="45.06466" lon="5.56625">
        <ele>1131.5999755859</ele>
        <time>2020-07-12T08:26:23Z</time>
      </trkpt>
      <trkpt lat="45.06466" lon="5.56625">
        <ele>1131.5999755859</ele>
        <time>2020-07-12T08:26:24Z</time>
      </trkpt>
      <trkpt lat="45.06466" lon="5.56626">
        <ele>1131.8000488281</ele>
        <time>2020-07-12T08:26:34Z</time>
      </trkpt>
      <trkpt lat="45.06466" lon="5.56625">
        <ele>1131.8000488281</ele>
        <time>2020-07-12T08:26:40Z</time>
      </trkpt>
      <trkpt lat="45.06466" lon="5.56625">
        <ele>1131.8000488281</ele>
        <time>2020-07-12T08:26:46Z</time>
      </trkpt>
      <trkpt lat="45.06467" lon="5.56625">
        <ele>1132.1999511719</ele>
        <time>2020-07-12T08:26:52Z</time>
      </trkpt>
      <trkpt lat="45.06466" lon="5.56626">
        <ele>1132.4000244141</ele>
        <time>2020-07-12T08:26:56Z</time>
      </trkpt>
      <trkpt lat="45.06467" lon="5.56627">
        <ele>1133.8000488281</ele>
        <time>2020-07-12T08:27:01Z</time>
      </trkpt>
      <trkpt lat="45.06468" lon="5.56627">
        <ele>1135.4000244141</ele>
        <time>2020-07-12T08:27:08Z</time>
      </trkpt>
      <trkpt lat="45.06469" lon="5.56625">
        <ele>1139.8000488281</ele>
        <time>2020-07-12T08:27:39Z</time>
      </trkpt>
      <trkpt lat="45.06466" lon="5.56623">
        <ele>1139.5999755859</ele>
        <time>2020-07-12T08:27:40Z</time>
      </trkpt>
      <trkpt lat="45.06456" lon="5.56624">
        <ele>1138.8000488281</ele>
        <time>2020-07-12T08:27:48Z</time>
      </trkpt>
      <trkpt lat="45.06454" lon="5.56626">
        <ele>1138.1999511719</ele>
        <time>2020-07-12T08:27:49Z</time>
      </trkpt>
      <trkpt lat="45.06453" lon="5.56626">
        <ele>1138.5999755859</ele>
        <time>2020-07-12T08:27:53Z</time>
      </trkpt>
      <trkpt lat="45.0645" lon="5.56627">
        <ele>1138</ele>
        <time>2020-07-12T08:27:57Z</time>
      </trkpt>
      <trkpt lat="45.06448" lon="5.56627">
        <ele>1137.4000244141</ele>
        <time>2020-07-12T08:27:58Z</time>
      </trkpt>
      <trkpt lat="45.06447" lon="5.56627">
        <ele>1136.8000488281</ele>
        <time>2020-07-12T08:27:59Z</time>
      </trkpt>
      <trkpt lat="45.06442" lon="5.56628">
        <ele>1136</ele>
        <time>2020-07-12T08:28:01Z</time>
      </trkpt>
      <trkpt lat="45.0644" lon="5.56629">
        <ele>1135.5999755859</ele>
        <time>2020-07-12T08:28:02Z</time>
      </trkpt>
      <trkpt lat="45.06396" lon="5.56638">
        <ele>1128.5999755859</ele>
        <time>2020-07-12T08:28:22Z</time>
      </trkpt>
      <trkpt lat="45.06389" lon="5.56641">
        <ele>1128.1999511719</ele>
        <time>2020-07-12T08:28:26Z</time>
      </trkpt>
      <trkpt lat="45.06388" lon="5.56643">
        <ele>1128</ele>
        <time>2020-07-12T08:28:27Z</time>
      </trkpt>
      <trkpt lat="45.06384" lon="5.56646">
        <ele>1127.5999755859</ele>
        <time>2020-07-12T08:28:29Z</time>
      </trkpt>
      <trkpt lat="45.06375" lon="5.56654">
        <ele>1125.5999755859</ele>
        <time>2020-07-12T08:28:33Z</time>
      </trkpt>
      <trkpt lat="45.06371" lon="5.56659">
        <ele>1124.4000244141</ele>
        <time>2020-07-12T08:28:35Z</time>
      </trkpt>
      <trkpt lat="45.06369" lon="5.56661">
        <ele>1124</ele>
        <time>2020-07-12T08:28:36Z</time>
      </trkpt>
      <trkpt lat="45.06365" lon="5.56666">
        <ele>1123.1999511719</ele>
        <time>2020-07-12T08:28:38Z</time>
      </trkpt>
      <trkpt lat="45.06362" lon="5.5667">
        <ele>1122.5999755859</ele>
        <time>2020-07-12T08:28:40Z</time>
      </trkpt>
      <trkpt lat="45.06358" lon="5.56674">
        <ele>1121.1999511719</ele>
        <time>2020-07-12T08:28:41Z</time>
      </trkpt>
      <trkpt lat="45.06356" lon="5.56675">
        <ele>1120.8000488281</ele>
        <time>2020-07-12T08:28:43Z</time>
      </trkpt>
      <trkpt lat="45.06354" lon="5.56677">
        <ele>1120.5999755859</ele>
        <time>2020-07-12T08:28:44Z</time>
      </trkpt>
      <trkpt lat="45.06347" lon="5.56679">
        <ele>1119.1999511719</ele>
        <time>2020-07-12T08:28:47Z</time>
      </trkpt>
      <trkpt lat="45.06338" lon="5.56685">
        <ele>1116.5999755859</ele>
        <time>2020-07-12T08:28:51Z</time>
      </trkpt>
      <trkpt lat="45.06335" lon="5.56686">
        <ele>1116.1999511719</ele>
        <time>2020-07-12T08:28:52Z</time>
      </trkpt>
      <trkpt lat="45.06333" lon="5.56687">
        <ele>1115.8000488281</ele>
        <time>2020-07-12T08:28:53Z</time>
      </trkpt>
      <trkpt lat="45.0632" lon="5.56691">
        <ele>1113</ele>
        <time>2020-07-12T08:28:59Z</time>
      </trkpt>
      <trkpt lat="45.06316" lon="5.5669">
        <ele>1111.4000244141</ele>
        <time>2020-07-12T08:29:01Z</time>
      </trkpt>
      <trkpt lat="45.06314" lon="5.56689">
        <ele>1111</ele>
        <time>2020-07-12T08:29:02Z</time>
      </trkpt>
      <trkpt lat="45.06309" lon="5.56687">
        <ele>1110.1999511719</ele>
        <time>2020-07-12T08:29:04Z</time>
      </trkpt>
      <trkpt lat="45.06305" lon="5.56685">
        <ele>1110</ele>
        <time>2020-07-12T08:29:06Z</time>
      </trkpt>
      <trkpt lat="45.06282" lon="5.56674">
        <ele>1106.5999755859</ele>
        <time>2020-07-12T08:29:19Z</time>
      </trkpt>
      <trkpt lat="45.0628" lon="5.56673">
        <ele>1106.5999755859</ele>
        <time>2020-07-12T08:29:20Z</time>
      </trkpt>
      <trkpt lat="45.06278" lon="5.56672">
        <ele>1106.4000244141</ele>
        <time>2020-07-12T08:29:21Z</time>
      </trkpt>
      <trkpt lat="45.06275" lon="5.56669">
        <ele>1106.5999755859</ele>
        <time>2020-07-12T08:29:23Z</time>
      </trkpt>
      <trkpt lat="45.06269" lon="5.56663">
        <ele>1106</ele>
        <time>2020-07-12T08:29:27Z</time>
      </trkpt>
      <trkpt lat="45.06259" lon="5.56656">
        <ele>1109.4000244141</ele>
        <time>2020-07-12T08:29:35Z</time>
      </trkpt>
      <trkpt lat="45.06254" lon="5.56659">
        <ele>1115</ele>
        <time>2020-07-12T08:29:49Z</time>
      </trkpt>
      <trkpt lat="45.06254" lon="5.56659">
        <ele>1116.4000244141</ele>
        <time>2020-07-12T08:30:05Z</time>
      </trkpt>
      <trkpt lat="45.0625" lon="5.5666">
        <ele>1116</ele>
        <time>2020-07-12T08:30:13Z</time>
      </trkpt>
      <trkpt lat="45.06222" lon="5.56709">
        <ele>1109.1999511719</ele>
        <time>2020-07-12T08:30:37Z</time>
      </trkpt>
      <trkpt lat="45.06198" lon="5.56732">
        <ele>1106.8000488281</ele>
        <time>2020-07-12T08:30:51Z</time>
      </trkpt>
      <trkpt lat="45.06181" lon="5.56735">
        <ele>1113.1999511719</ele>
        <time>2020-07-12T08:31:14Z</time>
      </trkpt>
      <trkpt lat="45.0618" lon="5.56735">
        <ele>1112.8000488281</ele>
        <time>2020-07-12T08:31:15Z</time>
      </trkpt>
      <trkpt lat="45.06179" lon="5.56734">
        <ele>1112.5999755859</ele>
        <time>2020-07-12T08:31:17Z</time>
      </trkpt>
      <trkpt lat="45.06175" lon="5.5673">
        <ele>1116.1999511719</ele>
        <time>2020-07-12T08:31:27Z</time>
      </trkpt>
      <trkpt lat="45.06176" lon="5.56728">
        <ele>1117.8000488281</ele>
        <time>2020-07-12T08:31:32Z</time>
      </trkpt>
      <trkpt lat="45.06178" lon="5.56725">
        <ele>1117.4000244141</ele>
        <time>2020-07-12T08:31:35Z</time>
      </trkpt>
      <trkpt lat="45.06204" lon="5.56673">
        <ele>1113.4000244141</ele>
        <time>2020-07-12T08:31:54Z</time>
      </trkpt>
      <trkpt lat="45.06224" lon="5.56616">
        <ele>1113.1999511719</ele>
        <time>2020-07-12T08:32:09Z</time>
      </trkpt>
      <trkpt lat="45.06234" lon="5.56599">
        <ele>1120.5999755859</ele>
        <time>2020-07-12T08:32:15Z</time>
      </trkpt>
      <trkpt lat="45.06257" lon="5.56545">
        <ele>1125</ele>
        <time>2020-07-12T08:32:40Z</time>
      </trkpt>
      <trkpt lat="45.06256" lon="5.56479">
        <ele>1113.5999755859</ele>
        <time>2020-07-12T08:32:58Z</time>
      </trkpt>
      <trkpt lat="45.06254" lon="5.56411">
        <ele>1108.8000488281</ele>
        <time>2020-07-12T08:33:11Z</time>
      </trkpt>
      <trkpt lat="45.06264" lon="5.56345">
        <ele>1111</ele>
        <time>2020-07-12T08:33:27Z</time>
      </trkpt>
      <trkpt lat="45.06277" lon="5.56281">
        <ele>1095.8000488281</ele>
        <time>2020-07-12T08:33:42Z</time>
      </trkpt>
      <trkpt lat="45.06291" lon="5.56217">
        <ele>1096.1999511719</ele>
        <time>2020-07-12T08:33:53Z</time>
      </trkpt>
      <trkpt lat="45.06305" lon="5.56154">
        <ele>1093.1999511719</ele>
        <time>2020-07-12T08:34:04Z</time>
      </trkpt>
      <trkpt lat="45.06303" lon="5.56107">
        <ele>1084.4000244141</ele>
        <time>2020-07-12T08:34:11Z</time>
      </trkpt>
      <trkpt lat="45.06291" lon="5.56057">
        <ele>1074.1999511719</ele>
        <time>2020-07-12T08:34:19Z</time>
      </trkpt>
      <trkpt lat="45.06288" lon="5.56046">
        <ele>1076</ele>
        <time>2020-07-12T08:34:46Z</time>
      </trkpt>
      <trkpt lat="45.06287" lon="5.56044">
        <ele>1077.5999755859</ele>
        <time>2020-07-12T08:34:53Z</time>
      </trkpt>
      <trkpt lat="45.06287" lon="5.56042">
        <ele>1078</ele>
        <time>2020-07-12T08:35:13Z</time>
      </trkpt>
      <trkpt lat="45.06288" lon="5.5604">
        <ele>1079</ele>
        <time>2020-07-12T08:35:17Z</time>
      </trkpt>
      <trkpt lat="45.06288" lon="5.5604">
        <ele>1079.8000488281</ele>
        <time>2020-07-12T08:35:21Z</time>
      </trkpt>
      <trkpt lat="45.06287" lon="5.56038">
        <ele>1080.1999511719</ele>
        <time>2020-07-12T08:35:24Z</time>
      </trkpt>
      <trkpt lat="45.06286" lon="5.56037">
        <ele>1080.8000488281</ele>
        <time>2020-07-12T08:35:26Z</time>
      </trkpt>
      <trkpt lat="45.06286" lon="5.56035">
        <ele>1081.4000244141</ele>
        <time>2020-07-12T08:35:29Z</time>
      </trkpt>
      <trkpt lat="45.06286" lon="5.56035">
        <ele>1081.1999511719</ele>
        <time>2020-07-12T08:35:32Z</time>
      </trkpt>
      <trkpt lat="45.06285" lon="5.56034">
        <ele>1082.1999511719</ele>
        <time>2020-07-12T08:35:36Z</time>
      </trkpt>
      <trkpt lat="45.06285" lon="5.56034">
        <ele>1082.5999755859</ele>
        <time>2020-07-12T08:35:40Z</time>
      </trkpt>
      <trkpt lat="45.06285" lon="5.56034">
        <ele>1082.5999755859</ele>
        <time>2020-07-12T08:35:44Z</time>
      </trkpt>
      <trkpt lat="45.06286" lon="5.56033">
        <ele>1082.1999511719</ele>
        <time>2020-07-12T08:35:46Z</time>
      </trkpt>
      <trkpt lat="45.06287" lon="5.56028">
        <ele>1081</ele>
        <time>2020-07-12T08:35:48Z</time>
      </trkpt>
      <trkpt lat="45.06291" lon="5.56001">
        <ele>1079.4000244141</ele>
        <time>2020-07-12T08:35:54Z</time>
      </trkpt>
      <trkpt lat="45.06296" lon="5.55969">
        <ele>1079</ele>
        <time>2020-07-12T08:36:00Z</time>
      </trkpt>
      <trkpt lat="45.06298" lon="5.55957">
        <ele>1078.1999511719</ele>
        <time>2020-07-12T08:36:01Z</time>
      </trkpt>
      <trkpt lat="45.06301" lon="5.55916">
        <ele>1078.1999511719</ele>
        <time>2020-07-12T08:36:08Z</time>
      </trkpt>
      <trkpt lat="45.06298" lon="5.55887">
        <ele>1076.1999511719</ele>
        <time>2020-07-12T08:36:14Z</time>
      </trkpt>
      <trkpt lat="45.06294" lon="5.55868">
        <ele>1076.4000244141</ele>
        <time>2020-07-12T08:36:41Z</time>
      </trkpt>
      <trkpt lat="45.06279" lon="5.55806">
        <ele>1077.8000488281</ele>
        <time>2020-07-12T08:36:59Z</time>
      </trkpt>
      <trkpt lat="45.0627" lon="5.55741">
        <ele>1078.1999511719</ele>
        <time>2020-07-12T08:37:15Z</time>
      </trkpt>
      <trkpt lat="45.06262" lon="5.55723">
        <ele>1075.5999755859</ele>
        <time>2020-07-12T08:37:19Z</time>
      </trkpt>
      <trkpt lat="45.0623" lon="5.55674">
        <ele>1067.1999511719</ele>
        <time>2020-07-12T08:37:27Z</time>
      </trkpt>
      <trkpt lat="45.06201" lon="5.55622">
        <ele>1062.5999755859</ele>
        <time>2020-07-12T08:37:34Z</time>
      </trkpt>
      <trkpt lat="45.06172" lon="5.55572">
        <ele>1061.1999511719</ele>
        <time>2020-07-12T08:37:43Z</time>
      </trkpt>
      <trkpt lat="45.06145" lon="5.55563">
        <ele>1058</ele>
        <time>2020-07-12T08:37:52Z</time>
      </trkpt>
      <trkpt lat="45.06131" lon="5.55579">
        <ele>1055.5999755859</ele>
        <time>2020-07-12T08:37:55Z</time>
      </trkpt>
      <trkpt lat="45.06121" lon="5.55594">
        <ele>1054.1999511719</ele>
        <time>2020-07-12T08:37:57Z</time>
      </trkpt>
      <trkpt lat="45.06115" lon="5.55602">
        <ele>1054</ele>
        <time>2020-07-12T08:37:58Z</time>
      </trkpt>
      <trkpt lat="45.06108" lon="5.55611">
        <ele>1053.8000488281</ele>
        <time>2020-07-12T08:37:59Z</time>
      </trkpt>
      <trkpt lat="45.06102" lon="5.55619">
        <ele>1053.5999755859</ele>
        <time>2020-07-12T08:38:00Z</time>
      </trkpt>
      <trkpt lat="45.06096" lon="5.55627">
        <ele>1053.4000244141</ele>
        <time>2020-07-12T08:38:01Z</time>
      </trkpt>
      <trkpt lat="45.06082" lon="5.5564">
        <ele>1053.1999511719</ele>
        <time>2020-07-12T08:38:03Z</time>
      </trkpt>
      <trkpt lat="45.06067" lon="5.55647">
        <ele>1053</ele>
        <time>2020-07-12T08:38:05Z</time>
      </trkpt>
      <trkpt lat="45.06059" lon="5.55648">
        <ele>1053.4000244141</ele>
        <time>2020-07-12T08:38:06Z</time>
      </trkpt>
      <trkpt lat="45.06052" lon="5.55646">
        <ele>1054.1999511719</ele>
        <time>2020-07-12T08:38:07Z</time>
      </trkpt>
      <trkpt lat="45.06041" lon="5.5564">
        <ele>1055.8000488281</ele>
        <time>2020-07-12T08:38:09Z</time>
      </trkpt>
      <trkpt lat="45.06019" lon="5.55617">
        <ele>1060.5999755859</ele>
        <time>2020-07-12T08:38:18Z</time>
      </trkpt>
      <trkpt lat="45.05994" lon="5.55592">
        <ele>1063.8000488281</ele>
        <time>2020-07-12T08:38:31Z</time>
      </trkpt>
      <trkpt lat="45.05982" lon="5.5559">
        <ele>1064.5999755859</ele>
        <time>2020-07-12T08:38:37Z</time>
      </trkpt>
      <trkpt lat="45.05966" lon="5.5558">
        <ele>1065.1999511719</ele>
        <time>2020-07-12T08:38:45Z</time>
      </trkpt>
      <trkpt lat="45.0596" lon="5.55567">
        <ele>1065.8000488281</ele>
        <time>2020-07-12T08:38:50Z</time>
      </trkpt>
      <trkpt lat="45.05955" lon="5.55557">
        <ele>1065.1999511719</ele>
        <time>2020-07-12T08:38:54Z</time>
      </trkpt>
      <trkpt lat="45.05948" lon="5.55549">
        <ele>1065.1999511719</ele>
        <time>2020-07-12T08:38:58Z</time>
      </trkpt>
      <trkpt lat="45.05944" lon="5.55541">
        <ele>1065.5999755859</ele>
        <time>2020-07-12T08:39:01Z</time>
      </trkpt>
      <trkpt lat="45.0594" lon="5.55533">
        <ele>1066.1999511719</ele>
        <time>2020-07-12T08:39:04Z</time>
      </trkpt>
      <trkpt lat="45.05934" lon="5.5552">
        <ele>1066.1999511719</ele>
        <time>2020-07-12T08:39:09Z</time>
      </trkpt>
      <trkpt lat="45.05924" lon="5.55497">
        <ele>1066</ele>
        <time>2020-07-12T08:39:18Z</time>
      </trkpt>
      <trkpt lat="45.05918" lon="5.55489">
        <ele>1066.1999511719</ele>
        <time>2020-07-12T08:39:24Z</time>
      </trkpt>
      <trkpt lat="45.05916" lon="5.55489">
        <ele>1066.4000244141</ele>
        <time>2020-07-12T08:39:27Z</time>
      </trkpt>
      <trkpt lat="45.05912" lon="5.55493">
        <ele>1065.8000488281</ele>
        <time>2020-07-12T08:39:32Z</time>
      </trkpt>
      <trkpt lat="45.05915" lon="5.55508">
        <ele>1065.8000488281</ele>
        <time>2020-07-12T08:39:40Z</time>
      </trkpt>
      <trkpt lat="45.05917" lon="5.55515">
        <ele>1067.1999511719</ele>
        <time>2020-07-12T08:39:44Z</time>
      </trkpt>
      <trkpt lat="45.05918" lon="5.55523">
        <ele>1068</ele>
        <time>2020-07-12T08:39:49Z</time>
      </trkpt>
      <trkpt lat="45.05915" lon="5.55539">
        <ele>1070.1999511719</ele>
        <time>2020-07-12T08:39:59Z</time>
      </trkpt>
      <trkpt lat="45.05898" lon="5.55548">
        <ele>1080</ele>
        <time>2020-07-12T08:40:21Z</time>
      </trkpt>
      <trkpt lat="45.05898" lon="5.55547">
        <ele>1082.8000488281</ele>
        <time>2020-07-12T08:40:49Z</time>
      </trkpt>
      <trkpt lat="45.05856" lon="5.55569">
        <ele>1074.1999511719</ele>
        <time>2020-07-12T08:41:14Z</time>
      </trkpt>
      <trkpt lat="45.05839" lon="5.5558">
        <ele>1073.4000244141</ele>
        <time>2020-07-12T08:41:24Z</time>
      </trkpt>
      <trkpt lat="45.05836" lon="5.55583">
        <ele>1073.8000488281</ele>
        <time>2020-07-12T08:41:25Z</time>
      </trkpt>
      <trkpt lat="45.05836" lon="5.55583">
        <ele>1073.8000488281</ele>
        <time>2020-07-12T08:41:26Z</time>
      </trkpt>
      <trkpt lat="45.05828" lon="5.55589">
        <ele>1073.8000488281</ele>
        <time>2020-07-12T08:41:31Z</time>
      </trkpt>
      <trkpt lat="45.05824" lon="5.55591">
        <ele>1074</ele>
        <time>2020-07-12T08:41:33Z</time>
      </trkpt>
      <trkpt lat="45.05809" lon="5.55604">
        <ele>1074.8000488281</ele>
        <time>2020-07-12T08:41:41Z</time>
      </trkpt>
      <trkpt lat="45.05805" lon="5.55607">
        <ele>1075.4000244141</ele>
        <time>2020-07-12T08:41:43Z</time>
      </trkpt>
      <trkpt lat="45.05803" lon="5.55608">
        <ele>1075.5999755859</ele>
        <time>2020-07-12T08:41:44Z</time>
      </trkpt>
      <trkpt lat="45.05801" lon="5.55609">
        <ele>1075.8000488281</ele>
        <time>2020-07-12T08:41:45Z</time>
      </trkpt>
      <trkpt lat="45.0579" lon="5.55617">
        <ele>1077.5999755859</ele>
        <time>2020-07-12T08:41:51Z</time>
      </trkpt>
      <trkpt lat="45.05773" lon="5.55624">
        <ele>1078.8000488281</ele>
        <time>2020-07-12T08:42:00Z</time>
      </trkpt>
      <trkpt lat="45.05762" lon="5.55623">
        <ele>1079.1999511719</ele>
        <time>2020-07-12T08:42:05Z</time>
      </trkpt>
      <trkpt lat="45.05749" lon="5.55624">
        <ele>1078.8000488281</ele>
        <time>2020-07-12T08:42:09Z</time>
      </trkpt>
      <trkpt lat="45.05743" lon="5.55625">
        <ele>1078.5999755859</ele>
        <time>2020-07-12T08:42:11Z</time>
      </trkpt>
      <trkpt lat="45.05731" lon="5.5563">
        <ele>1078.4000244141</ele>
        <time>2020-07-12T08:42:17Z</time>
      </trkpt>
      <trkpt lat="45.05725" lon="5.55633">
        <ele>1077.1999511719</ele>
        <time>2020-07-12T08:42:20Z</time>
      </trkpt>
      <trkpt lat="45.05723" lon="5.55634">
        <ele>1076.8000488281</ele>
        <time>2020-07-12T08:42:21Z</time>
      </trkpt>
      <trkpt lat="45.05706" lon="5.5564">
        <ele>1074.8000488281</ele>
        <time>2020-07-12T08:42:31Z</time>
      </trkpt>
      <trkpt lat="45.05702" lon="5.55641">
        <ele>1074</ele>
        <time>2020-07-12T08:42:33Z</time>
      </trkpt>
      <trkpt lat="45.05694" lon="5.55641">
        <ele>1074.1999511719</ele>
        <time>2020-07-12T08:42:37Z</time>
      </trkpt>
      <trkpt lat="45.05679" lon="5.55642">
        <ele>1078.5999755859</ele>
        <time>2020-07-12T08:42:45Z</time>
      </trkpt>
      <trkpt lat="45.05661" lon="5.55642">
        <ele>1087.1999511719</ele>
        <time>2020-07-12T08:42:55Z</time>
      </trkpt>
      <trkpt lat="45.05649" lon="5.55634">
        <ele>1090.1999511719</ele>
        <time>2020-07-12T08:43:02Z</time>
      </trkpt>
      <trkpt lat="45.05614" lon="5.55591">
        <ele>1095.1999511719</ele>
        <time>2020-07-12T08:43:30Z</time>
      </trkpt>
      <trkpt lat="45.05609" lon="5.5559">
        <ele>1096</ele>
        <time>2020-07-12T08:43:34Z</time>
      </trkpt>
      <trkpt lat="45.05598" lon="5.55587">
        <ele>1091</ele>
        <time>2020-07-12T08:43:42Z</time>
      </trkpt>
      <trkpt lat="45.05588" lon="5.55577">
        <ele>1087.4000244141</ele>
        <time>2020-07-12T08:43:50Z</time>
      </trkpt>
      <trkpt lat="45.05578" lon="5.55565">
        <ele>1090.1999511719</ele>
        <time>2020-07-12T08:44:03Z</time>
      </trkpt>
      <trkpt lat="45.05572" lon="5.5556">
        <ele>1093.4000244141</ele>
        <time>2020-07-12T08:44:10Z</time>
      </trkpt>
      <trkpt lat="45.05568" lon="5.5556">
        <ele>1095.1999511719</ele>
        <time>2020-07-12T08:44:13Z</time>
      </trkpt>
      <trkpt lat="45.05551" lon="5.55548">
        <ele>1103.8000488281</ele>
        <time>2020-07-12T08:44:28Z</time>
      </trkpt>
      <trkpt lat="45.05549" lon="5.55545">
        <ele>1103.8000488281</ele>
        <time>2020-07-12T08:44:30Z</time>
      </trkpt>
      <trkpt lat="45.05547" lon="5.55544">
        <ele>1103.8000488281</ele>
        <time>2020-07-12T08:44:31Z</time>
      </trkpt>
      <trkpt lat="45.05546" lon="5.55542">
        <ele>1103.5999755859</ele>
        <time>2020-07-12T08:44:32Z</time>
      </trkpt>
      <trkpt lat="45.05543" lon="5.55539">
        <ele>1103.1999511719</ele>
        <time>2020-07-12T08:44:34Z</time>
      </trkpt>
      <trkpt lat="45.05542" lon="5.55538">
        <ele>1103.5999755859</ele>
        <time>2020-07-12T08:44:35Z</time>
      </trkpt>
      <trkpt lat="45.05541" lon="5.55537">
        <ele>1103.8000488281</ele>
        <time>2020-07-12T08:44:36Z</time>
      </trkpt>
      <trkpt lat="45.05538" lon="5.55535">
        <ele>1103.5999755859</ele>
        <time>2020-07-12T08:44:38Z</time>
      </trkpt>
      <trkpt lat="45.05538" lon="5.55534">
        <ele>1103.4000244141</ele>
        <time>2020-07-12T08:44:39Z</time>
      </trkpt>
      <trkpt lat="45.05535" lon="5.55531">
        <ele>1102.1999511719</ele>
        <time>2020-07-12T08:44:41Z</time>
      </trkpt>
      <trkpt lat="45.05534" lon="5.5553">
        <ele>1101.5999755859</ele>
        <time>2020-07-12T08:44:42Z</time>
      </trkpt>
      <trkpt lat="45.05532" lon="5.55528">
        <ele>1101.4000244141</ele>
        <time>2020-07-12T08:44:44Z</time>
      </trkpt>
      <trkpt lat="45.05517" lon="5.55516">
        <ele>1106.4000244141</ele>
        <time>2020-07-12T08:45:02Z</time>
      </trkpt>
      <trkpt lat="45.05506" lon="5.55506">
        <ele>1111.5999755859</ele>
        <time>2020-07-12T08:45:13Z</time>
      </trkpt>
      <trkpt lat="45.055" lon="5.55498">
        <ele>1111.1999511719</ele>
        <time>2020-07-12T08:45:19Z</time>
      </trkpt>
      <trkpt lat="45.05496" lon="5.55491">
        <ele>1112.8000488281</ele>
        <time>2020-07-12T08:45:25Z</time>
      </trkpt>
      <trkpt lat="45.05488" lon="5.55484">
        <ele>1115.5999755859</ele>
        <time>2020-07-12T08:45:34Z</time>
      </trkpt>
      <trkpt lat="45.05483" lon="5.5548">
        <ele>1118</ele>
        <time>2020-07-12T08:45:41Z</time>
      </trkpt>
      <trkpt lat="45.0548" lon="5.55476">
        <ele>1118.5999755859</ele>
        <time>2020-07-12T08:45:45Z</time>
      </trkpt>
      <trkpt lat="45.05471" lon="5.55468">
        <ele>1113.8000488281</ele>
        <time>2020-07-12T08:45:53Z</time>
      </trkpt>
      <trkpt lat="45.05461" lon="5.55456">
        <ele>1111.4000244141</ele>
        <time>2020-07-12T08:46:05Z</time>
      </trkpt>
      <trkpt lat="45.05454" lon="5.55445">
        <ele>1111.1999511719</ele>
        <time>2020-07-12T08:46:14Z</time>
      </trkpt>
      <trkpt lat="45.05452" lon="5.55441">
        <ele>1112</ele>
        <time>2020-07-12T08:46:16Z</time>
      </trkpt>
      <trkpt lat="45.05446" lon="5.55428">
        <ele>1115.4000244141</ele>
        <time>2020-07-12T08:46:24Z</time>
      </trkpt>
      <trkpt lat="45.05442" lon="5.55424">
        <ele>1117</ele>
        <time>2020-07-12T08:46:28Z</time>
      </trkpt>
      <trkpt lat="45.05438" lon="5.5542">
        <ele>1115</ele>
        <time>2020-07-12T08:46:36Z</time>
      </trkpt>
      <trkpt lat="45.05439" lon="5.55418">
        <ele>1114.5999755859</ele>
        <time>2020-07-12T08:46:53Z</time>
      </trkpt>
      <trkpt lat="45.05439" lon="5.55418">
        <ele>1114.8000488281</ele>
        <time>2020-07-12T08:46:54Z</time>
      </trkpt>
      <trkpt lat="45.05439" lon="5.55418">
        <ele>1114.8000488281</ele>
        <time>2020-07-12T08:46:55Z</time>
      </trkpt>
      <trkpt lat="45.05438" lon="5.55418">
        <ele>1114.5999755859</ele>
        <time>2020-07-12T08:46:56Z</time>
      </trkpt>
      <trkpt lat="45.05438" lon="5.55418">
        <ele>1114.5999755859</ele>
        <time>2020-07-12T08:46:57Z</time>
      </trkpt>
      <trkpt lat="45.05438" lon="5.55419">
        <ele>1114.5999755859</ele>
        <time>2020-07-12T08:46:58Z</time>
      </trkpt>
      <trkpt lat="45.05438" lon="5.55418">
        <ele>1114.4000244141</ele>
        <time>2020-07-12T08:46:59Z</time>
      </trkpt>
      <trkpt lat="45.05438" lon="5.55419">
        <ele>1113.8000488281</ele>
        <time>2020-07-12T08:47:03Z</time>
      </trkpt>
      <trkpt lat="45.05439" lon="5.55419">
        <ele>1114</ele>
        <time>2020-07-12T08:47:05Z</time>
      </trkpt>
      <trkpt lat="45.05439" lon="5.5542">
        <ele>1113.1999511719</ele>
        <time>2020-07-12T08:47:11Z</time>
      </trkpt>
      <trkpt lat="45.05439" lon="5.55419">
        <ele>1113.5999755859</ele>
        <time>2020-07-12T08:47:21Z</time>
      </trkpt>
      <trkpt lat="45.05439" lon="5.55419">
        <ele>1113</ele>
        <time>2020-07-12T08:47:25Z</time>
      </trkpt>
      <trkpt lat="45.05438" lon="5.55418">
        <ele>1112.5999755859</ele>
        <time>2020-07-12T08:47:28Z</time>
      </trkpt>
      <trkpt lat="45.05438" lon="5.55418">
        <ele>1113.1999511719</ele>
        <time>2020-07-12T08:47:31Z</time>
      </trkpt>
      <trkpt lat="45.05438" lon="5.55418">
        <ele>1112.8000488281</ele>
        <time>2020-07-12T08:47:34Z</time>
      </trkpt>
      <trkpt lat="45.05437" lon="5.55418">
        <ele>1113.5999755859</ele>
        <time>2020-07-12T08:47:42Z</time>
      </trkpt>
      <trkpt lat="45.05437" lon="5.55418">
        <ele>1114</ele>
        <time>2020-07-12T08:47:45Z</time>
      </trkpt>
      <trkpt lat="45.05437" lon="5.55418">
        <ele>1114</ele>
        <time>2020-07-12T08:47:48Z</time>
      </trkpt>
      <trkpt lat="45.05437" lon="5.55418">
        <ele>1114</ele>
        <time>2020-07-12T08:47:59Z</time>
      </trkpt>
      <trkpt lat="45.05437" lon="5.55418">
        <ele>1114.5999755859</ele>
        <time>2020-07-12T08:48:04Z</time>
      </trkpt>
      <trkpt lat="45.05436" lon="5.55416">
        <ele>1114.1999511719</ele>
        <time>2020-07-12T08:48:33Z</time>
      </trkpt>
      <trkpt lat="45.05435" lon="5.55417">
        <ele>1114.1999511719</ele>
        <time>2020-07-12T08:48:45Z</time>
      </trkpt>
      <trkpt lat="45.05436" lon="5.55417">
        <ele>1113</ele>
        <time>2020-07-12T08:48:54Z</time>
      </trkpt>
      <trkpt lat="45.05434" lon="5.55415">
        <ele>1112.1999511719</ele>
        <time>2020-07-12T08:49:06Z</time>
      </trkpt>
      <trkpt lat="45.05434" lon="5.55413">
        <ele>1111.5999755859</ele>
        <time>2020-07-12T08:49:07Z</time>
      </trkpt>
      <trkpt lat="45.05429" lon="5.55404">
        <ele>1112.1999511719</ele>
        <time>2020-07-12T08:49:13Z</time>
      </trkpt>
      <trkpt lat="45.05427" lon="5.554">
        <ele>1112.5999755859</ele>
        <time>2020-07-12T08:49:15Z</time>
      </trkpt>
      <trkpt lat="45.05426" lon="5.55398">
        <ele>1112.8000488281</ele>
        <time>2020-07-12T08:49:16Z</time>
      </trkpt>
      <trkpt lat="45.05425" lon="5.55397">
        <ele>1113</ele>
        <time>2020-07-12T08:49:17Z</time>
      </trkpt>
      <trkpt lat="45.05425" lon="5.55395">
        <ele>1113.4000244141</ele>
        <time>2020-07-12T08:49:18Z</time>
      </trkpt>
      <trkpt lat="45.05414" lon="5.55381">
        <ele>1115.8000488281</ele>
        <time>2020-07-12T08:49:28Z</time>
      </trkpt>
      <trkpt lat="45.05406" lon="5.55364">
        <ele>1120.1999511719</ele>
        <time>2020-07-12T08:49:38Z</time>
      </trkpt>
      <trkpt lat="45.05405" lon="5.55362">
        <ele>1121</ele>
        <time>2020-07-12T08:49:39Z</time>
      </trkpt>
      <trkpt lat="45.05404" lon="5.55361">
        <ele>1121.8000488281</ele>
        <time>2020-07-12T08:49:40Z</time>
      </trkpt>
      <trkpt lat="45.05402" lon="5.5536">
        <ele>1122.1999511719</ele>
        <time>2020-07-12T08:49:41Z</time>
      </trkpt>
      <trkpt lat="45.05402" lon="5.55359">
        <ele>1122.8000488281</ele>
        <time>2020-07-12T08:49:42Z</time>
      </trkpt>
      <trkpt lat="45.05401" lon="5.55358">
        <ele>1123.5999755859</ele>
        <time>2020-07-12T08:49:43Z</time>
      </trkpt>
      <trkpt lat="45.054" lon="5.55357">
        <ele>1124</ele>
        <time>2020-07-12T08:49:44Z</time>
      </trkpt>
      <trkpt lat="45.05398" lon="5.55357">
        <ele>1124.1999511719</ele>
        <time>2020-07-12T08:49:45Z</time>
      </trkpt>
      <trkpt lat="45.05394" lon="5.55354">
        <ele>1125.8000488281</ele>
        <time>2020-07-12T08:49:49Z</time>
      </trkpt>
      <trkpt lat="45.05389" lon="5.55349">
        <ele>1127.1999511719</ele>
        <time>2020-07-12T08:49:54Z</time>
      </trkpt>
      <trkpt lat="45.05387" lon="5.55348">
        <ele>1127.4000244141</ele>
        <time>2020-07-12T08:49:55Z</time>
      </trkpt>
      <trkpt lat="45.05383" lon="5.55346">
        <ele>1128.1999511719</ele>
        <time>2020-07-12T08:49:59Z</time>
      </trkpt>
      <trkpt lat="45.05381" lon="5.55344">
        <ele>1128.5999755859</ele>
        <time>2020-07-12T08:50:01Z</time>
      </trkpt>
      <trkpt lat="45.05378" lon="5.55343">
        <ele>1129.4000244141</ele>
        <time>2020-07-12T08:50:03Z</time>
      </trkpt>
      <trkpt lat="45.05367" lon="5.55337">
        <ele>1132.8000488281</ele>
        <time>2020-07-12T08:50:12Z</time>
      </trkpt>
      <trkpt lat="45.05361" lon="5.55333">
        <ele>1132.5999755859</ele>
        <time>2020-07-12T08:50:16Z</time>
      </trkpt>
      <trkpt lat="45.05359" lon="5.55332">
        <ele>1133</ele>
        <time>2020-07-12T08:50:17Z</time>
      </trkpt>
      <trkpt lat="45.05353" lon="5.55328">
        <ele>1132.1999511719</ele>
        <time>2020-07-12T08:50:22Z</time>
      </trkpt>
      <trkpt lat="45.05351" lon="5.55327">
        <ele>1132.1999511719</ele>
        <time>2020-07-12T08:50:24Z</time>
      </trkpt>
      <trkpt lat="45.05349" lon="5.55326">
        <ele>1132</ele>
        <time>2020-07-12T08:50:25Z</time>
      </trkpt>
      <trkpt lat="45.05347" lon="5.55325">
        <ele>1131.8000488281</ele>
        <time>2020-07-12T08:50:26Z</time>
      </trkpt>
      <trkpt lat="45.05343" lon="5.55322">
        <ele>1130.8000488281</ele>
        <time>2020-07-12T08:50:29Z</time>
      </trkpt>
      <trkpt lat="45.0534" lon="5.55321">
        <ele>1130.1999511719</ele>
        <time>2020-07-12T08:50:31Z</time>
      </trkpt>
      <trkpt lat="45.05338" lon="5.5532">
        <ele>1130</ele>
        <time>2020-07-12T08:50:32Z</time>
      </trkpt>
      <trkpt lat="45.05333" lon="5.55318">
        <ele>1130</ele>
        <time>2020-07-12T08:50:35Z</time>
      </trkpt>
      <trkpt lat="45.05332" lon="5.55318">
        <ele>1130.4000244141</ele>
        <time>2020-07-12T08:50:36Z</time>
      </trkpt>
      <trkpt lat="45.05329" lon="5.55317">
        <ele>1130.4000244141</ele>
        <time>2020-07-12T08:50:38Z</time>
      </trkpt>
      <trkpt lat="45.05322" lon="5.55315">
        <ele>1130.4000244141</ele>
        <time>2020-07-12T08:50:43Z</time>
      </trkpt>
      <trkpt lat="45.05316" lon="5.55315">
        <ele>1130.4000244141</ele>
        <time>2020-07-12T08:50:47Z</time>
      </trkpt>
      <trkpt lat="45.05269" lon="5.55296">
        <ele>1124.8000488281</ele>
        <time>2020-07-12T08:51:00Z</time>
      </trkpt>
      <trkpt lat="45.05237" lon="5.55289">
        <ele>1121.4000244141</ele>
        <time>2020-07-12T08:51:04Z</time>
      </trkpt>
      <trkpt lat="45.05201" lon="5.55295">
        <ele>1118.5999755859</ele>
        <time>2020-07-12T08:51:09Z</time>
      </trkpt>
      <trkpt lat="45.05187" lon="5.55292">
        <ele>1117.1999511719</ele>
        <time>2020-07-12T08:51:11Z</time>
      </trkpt>
      <trkpt lat="45.05177" lon="5.55283">
        <ele>1116</ele>
        <time>2020-07-12T08:51:13Z</time>
      </trkpt>
      <trkpt lat="45.05161" lon="5.55266">
        <ele>1115.1999511719</ele>
        <time>2020-07-12T08:51:19Z</time>
      </trkpt>
      <trkpt lat="45.0512" lon="5.55239">
        <ele>1113.4000244141</ele>
        <time>2020-07-12T08:51:29Z</time>
      </trkpt>
      <trkpt lat="45.05092" lon="5.55219">
        <ele>1115.5999755859</ele>
        <time>2020-07-12T08:51:37Z</time>
      </trkpt>
      <trkpt lat="45.05078" lon="5.55209">
        <ele>1118.1999511719</ele>
        <time>2020-07-12T08:51:46Z</time>
      </trkpt>
      <trkpt lat="45.05073" lon="5.55203">
        <ele>1118.5999755859</ele>
        <time>2020-07-12T08:51:49Z</time>
      </trkpt>
      <trkpt lat="45.05066" lon="5.55194">
        <ele>1119</ele>
        <time>2020-07-12T08:51:54Z</time>
      </trkpt>
      <trkpt lat="45.05061" lon="5.5519">
        <ele>1119.5999755859</ele>
        <time>2020-07-12T08:51:57Z</time>
      </trkpt>
      <trkpt lat="45.05053" lon="5.55187">
        <ele>1120.4000244141</ele>
        <time>2020-07-12T08:52:01Z</time>
      </trkpt>
      <trkpt lat="45.05008" lon="5.55193">
        <ele>1126.4000244141</ele>
        <time>2020-07-12T08:52:25Z</time>
      </trkpt>
      <trkpt lat="45.04962" lon="5.55202">
        <ele>1128.4000244141</ele>
        <time>2020-07-12T08:52:46Z</time>
      </trkpt>
      <trkpt lat="45.04952" lon="5.55203">
        <ele>1128.5999755859</ele>
        <time>2020-07-12T08:52:50Z</time>
      </trkpt>
      <trkpt lat="45.04938" lon="5.55204">
        <ele>1129.4000244141</ele>
        <time>2020-07-12T08:52:55Z</time>
      </trkpt>
      <trkpt lat="45.04935" lon="5.55205">
        <ele>1129.5999755859</ele>
        <time>2020-07-12T08:52:56Z</time>
      </trkpt>
      <trkpt lat="45.0493" lon="5.55205">
        <ele>1129.8000488281</ele>
        <time>2020-07-12T08:52:58Z</time>
      </trkpt>
      <trkpt lat="45.04928" lon="5.55204">
        <ele>1130.1999511719</ele>
        <time>2020-07-12T08:52:59Z</time>
      </trkpt>
      <trkpt lat="45.04925" lon="5.55205">
        <ele>1130.1999511719</ele>
        <time>2020-07-12T08:53:00Z</time>
      </trkpt>
      <trkpt lat="45.0492" lon="5.55206">
        <ele>1130.5999755859</ele>
        <time>2020-07-12T08:53:01Z</time>
      </trkpt>
      <trkpt lat="45.04912" lon="5.55206">
        <ele>1131.5999755859</ele>
        <time>2020-07-12T08:53:05Z</time>
      </trkpt>
      <trkpt lat="45.04906" lon="5.55207">
        <ele>1132</ele>
        <time>2020-07-12T08:53:07Z</time>
      </trkpt>
      <trkpt lat="45.04901" lon="5.55207">
        <ele>1132.4000244141</ele>
        <time>2020-07-12T08:53:08Z</time>
      </trkpt>
      <trkpt lat="45.04901" lon="5.55207">
        <ele>1132.4000244141</ele>
        <time>2020-07-12T08:53:09Z</time>
      </trkpt>
      <trkpt lat="45.0489" lon="5.55206">
        <ele>1133</ele>
        <time>2020-07-12T08:53:13Z</time>
      </trkpt>
      <trkpt lat="45.04882" lon="5.55205">
        <ele>1133.1999511719</ele>
        <time>2020-07-12T08:53:16Z</time>
      </trkpt>
      <trkpt lat="45.04876" lon="5.55205">
        <ele>1133.5999755859</ele>
        <time>2020-07-12T08:53:18Z</time>
      </trkpt>
      <trkpt lat="45.04873" lon="5.55205">
        <ele>1133.5999755859</ele>
        <time>2020-07-12T08:53:19Z</time>
      </trkpt>
      <trkpt lat="45.0487" lon="5.55205">
        <ele>1133.4000244141</ele>
        <time>2020-07-12T08:53:20Z</time>
      </trkpt>
      <trkpt lat="45.04845" lon="5.5522">
        <ele>1134.4000244141</ele>
        <time>2020-07-12T08:53:31Z</time>
      </trkpt>
      <trkpt lat="45.04845" lon="5.5522">
        <ele>1134.8000488281</ele>
        <time>2020-07-12T08:53:34Z</time>
      </trkpt>
      <trkpt lat="45.04845" lon="5.5522">
        <ele>1135.1999511719</ele>
        <time>2020-07-12T08:53:36Z</time>
      </trkpt>
      <trkpt lat="45.04845" lon="5.5522">
        <ele>1135.4000244141</ele>
        <time>2020-07-12T08:53:38Z</time>
      </trkpt>
      <trkpt lat="45.04845" lon="5.55221">
        <ele>1136.1999511719</ele>
        <time>2020-07-12T08:53:46Z</time>
      </trkpt>
      <trkpt lat="45.04845" lon="5.55221">
        <ele>1136.4000244141</ele>
        <time>2020-07-12T08:53:48Z</time>
      </trkpt>
      <trkpt lat="45.04845" lon="5.55221">
        <ele>1136.4000244141</ele>
        <time>2020-07-12T08:53:50Z</time>
      </trkpt>
      <trkpt lat="45.04845" lon="5.55221">
        <ele>1136.5999755859</ele>
        <time>2020-07-12T08:53:54Z</time>
      </trkpt>
      <trkpt lat="45.04845" lon="5.55221">
        <ele>1136.5999755859</ele>
        <time>2020-07-12T08:53:58Z</time>
      </trkpt>
      <trkpt lat="45.04845" lon="5.55221">
        <ele>1136.5999755859</ele>
        <time>2020-07-12T08:53:59Z</time>
      </trkpt>
      <trkpt lat="45.04845" lon="5.55221">
        <ele>1136.5999755859</ele>
        <time>2020-07-12T08:54:00Z</time>
      </trkpt>
      <trkpt lat="45.04845" lon="5.55221">
        <ele>1136.4000244141</ele>
        <time>2020-07-12T08:54:03Z</time>
      </trkpt>
      <trkpt lat="45.04845" lon="5.55221">
        <ele>1136.1999511719</ele>
        <time>2020-07-12T08:54:09Z</time>
      </trkpt>
      <trkpt lat="45.04845" lon="5.5522">
        <ele>1136.4000244141</ele>
        <time>2020-07-12T08:54:26Z</time>
      </trkpt>
      <trkpt lat="45.04845" lon="5.5522">
        <ele>1136.5999755859</ele>
        <time>2020-07-12T08:54:33Z</time>
      </trkpt>
      <trkpt lat="45.04845" lon="5.5522">
        <ele>1136</ele>
        <time>2020-07-12T08:54:59Z</time>
      </trkpt>
      <trkpt lat="45.04845" lon="5.5522">
        <ele>1136.1999511719</ele>
        <time>2020-07-12T08:55:05Z</time>
      </trkpt>
      <trkpt lat="45.04845" lon="5.5522">
        <ele>1136.1999511719</ele>
        <time>2020-07-12T08:55:11Z</time>
      </trkpt>
      <trkpt lat="45.04845" lon="5.5522">
        <ele>1136.1999511719</ele>
        <time>2020-07-12T08:55:17Z</time>
      </trkpt>
      <trkpt lat="45.04845" lon="5.5522">
        <ele>1136.1999511719</ele>
        <time>2020-07-12T08:55:18Z</time>
      </trkpt>
      <trkpt lat="45.04845" lon="5.5522">
        <ele>1136.1999511719</ele>
        <time>2020-07-12T08:55:19Z</time>
      </trkpt>
      <trkpt lat="45.04845" lon="5.5522">
        <ele>1136</ele>
        <time>2020-07-12T08:55:25Z</time>
      </trkpt>
      <trkpt lat="45.04844" lon="5.55222">
        <ele>1136</ele>
        <time>2020-07-12T08:55:33Z</time>
      </trkpt>
      <trkpt lat="45.04824" lon="5.55288">
        <ele>1131</ele>
        <time>2020-07-12T08:55:44Z</time>
      </trkpt>
      <trkpt lat="45.04817" lon="5.55344">
        <ele>1128.4000244141</ele>
        <time>2020-07-12T08:55:49Z</time>
      </trkpt>
      <trkpt lat="45.04812" lon="5.55412">
        <ele>1124.1999511719</ele>
        <time>2020-07-12T08:55:55Z</time>
      </trkpt>
      <trkpt lat="45.04812" lon="5.55423">
        <ele>1123.5999755859</ele>
        <time>2020-07-12T08:55:56Z</time>
      </trkpt>
      <trkpt lat="45.04815" lon="5.5545">
        <ele>1122.8000488281</ele>
        <time>2020-07-12T08:55:59Z</time>
      </trkpt>
      <trkpt lat="45.04816" lon="5.55457">
        <ele>1122.8000488281</ele>
        <time>2020-07-12T08:56:00Z</time>
      </trkpt>
      <trkpt lat="45.04817" lon="5.55474">
        <ele>1122.8000488281</ele>
        <time>2020-07-12T08:56:03Z</time>
      </trkpt>
      <trkpt lat="45.04818" lon="5.55479">
        <ele>1123</ele>
        <time>2020-07-12T08:56:04Z</time>
      </trkpt>
      <trkpt lat="45.04819" lon="5.55483">
        <ele>1123</ele>
        <time>2020-07-12T08:56:05Z</time>
      </trkpt>
      <trkpt lat="45.04822" lon="5.5551">
        <ele>1124</ele>
        <time>2020-07-12T08:56:14Z</time>
      </trkpt>
      <trkpt lat="45.04819" lon="5.55517">
        <ele>1122.8000488281</ele>
        <time>2020-07-12T08:56:17Z</time>
      </trkpt>
      <trkpt lat="45.04817" lon="5.55523">
        <ele>1122.8000488281</ele>
        <time>2020-07-12T08:56:19Z</time>
      </trkpt>
      <trkpt lat="45.04813" lon="5.55533">
        <ele>1124</ele>
        <time>2020-07-12T08:56:23Z</time>
      </trkpt>
      <trkpt lat="45.04803" lon="5.55543">
        <ele>1124.1999511719</ele>
        <time>2020-07-12T08:56:27Z</time>
      </trkpt>
      <trkpt lat="45.04798" lon="5.55547">
        <ele>1124.4000244141</ele>
        <time>2020-07-12T08:56:29Z</time>
      </trkpt>
      <trkpt lat="45.04757" lon="5.55545">
        <ele>1126.4000244141</ele>
        <time>2020-07-12T08:56:43Z</time>
      </trkpt>
      <trkpt lat="45.04753" lon="5.5554">
        <ele>1126.5999755859</ele>
        <time>2020-07-12T08:56:45Z</time>
      </trkpt>
      <trkpt lat="45.04751" lon="5.55538">
        <ele>1126.8000488281</ele>
        <time>2020-07-12T08:56:46Z</time>
      </trkpt>
      <trkpt lat="45.04748" lon="5.55533">
        <ele>1127</ele>
        <time>2020-07-12T08:56:48Z</time>
      </trkpt>
      <trkpt lat="45.04744" lon="5.55528">
        <ele>1127.1999511719</ele>
        <time>2020-07-12T08:56:50Z</time>
      </trkpt>
      <trkpt lat="45.04737" lon="5.55521">
        <ele>1127.5999755859</ele>
        <time>2020-07-12T08:56:54Z</time>
      </trkpt>
      <trkpt lat="45.04733" lon="5.55516">
        <ele>1127.8000488281</ele>
        <time>2020-07-12T08:56:57Z</time>
      </trkpt>
      <trkpt lat="45.04731" lon="5.55512">
        <ele>1127.5999755859</ele>
        <time>2020-07-12T08:56:59Z</time>
      </trkpt>
      <trkpt lat="45.04725" lon="5.555">
        <ele>1126.8000488281</ele>
        <time>2020-07-12T08:57:03Z</time>
      </trkpt>
      <trkpt lat="45.04717" lon="5.55484">
        <ele>1125.1999511719</ele>
        <time>2020-07-12T08:57:08Z</time>
      </trkpt>
      <trkpt lat="45.04713" lon="5.55477">
        <ele>1124.4000244141</ele>
        <time>2020-07-12T08:57:10Z</time>
      </trkpt>
      <trkpt lat="45.04711" lon="5.55473">
        <ele>1124</ele>
        <time>2020-07-12T08:57:11Z</time>
      </trkpt>
      <trkpt lat="45.04709" lon="5.55469">
        <ele>1124.1999511719</ele>
        <time>2020-07-12T08:57:12Z</time>
      </trkpt>
      <trkpt lat="45.04705" lon="5.55462">
        <ele>1123.8000488281</ele>
        <time>2020-07-12T08:57:14Z</time>
      </trkpt>
      <trkpt lat="45.04703" lon="5.55458">
        <ele>1123.4000244141</ele>
        <time>2020-07-12T08:57:15Z</time>
      </trkpt>
      <trkpt lat="45.0469" lon="5.55449">
        <ele>1123</ele>
        <time>2020-07-12T08:57:20Z</time>
      </trkpt>
      <trkpt lat="45.04687" lon="5.55448">
        <ele>1122.5999755859</ele>
        <time>2020-07-12T08:57:21Z</time>
      </trkpt>
      <trkpt lat="45.04679" lon="5.55446">
        <ele>1121.8000488281</ele>
        <time>2020-07-12T08:57:24Z</time>
      </trkpt>
      <trkpt lat="45.04676" lon="5.55448">
        <ele>1121.5999755859</ele>
        <time>2020-07-12T08:57:25Z</time>
      </trkpt>
      <trkpt lat="45.04672" lon="5.55454">
        <ele>1121.4000244141</ele>
        <time>2020-07-12T08:57:27Z</time>
      </trkpt>
      <trkpt lat="45.04671" lon="5.55457">
        <ele>1121.1999511719</ele>
        <time>2020-07-12T08:57:28Z</time>
      </trkpt>
      <trkpt lat="45.04669" lon="5.55466">
        <ele>1121.1999511719</ele>
        <time>2020-07-12T08:57:30Z</time>
      </trkpt>
      <trkpt lat="45.04668" lon="5.55476">
        <ele>1121</ele>
        <time>2020-07-12T08:57:32Z</time>
      </trkpt>
      <trkpt lat="45.04665" lon="5.55487">
        <ele>1120.5999755859</ele>
        <time>2020-07-12T08:57:34Z</time>
      </trkpt>
      <trkpt lat="45.0466" lon="5.55499">
        <ele>1120.1999511719</ele>
        <time>2020-07-12T08:57:36Z</time>
      </trkpt>
      <trkpt lat="45.04649" lon="5.55515">
        <ele>1119.5999755859</ele>
        <time>2020-07-12T08:57:39Z</time>
      </trkpt>
      <trkpt lat="45.04645" lon="5.55519">
        <ele>1119.4000244141</ele>
        <time>2020-07-12T08:57:40Z</time>
      </trkpt>
      <trkpt lat="45.04641" lon="5.55523">
        <ele>1119.8000488281</ele>
        <time>2020-07-12T08:57:41Z</time>
      </trkpt>
      <trkpt lat="45.04635" lon="5.5553">
        <ele>1120.8000488281</ele>
        <time>2020-07-12T08:57:43Z</time>
      </trkpt>
      <trkpt lat="45.04591" lon="5.55546">
        <ele>1123.5999755859</ele>
        <time>2020-07-12T08:58:07Z</time>
      </trkpt>
      <trkpt lat="45.04579" lon="5.55554">
        <ele>1122.5999755859</ele>
        <time>2020-07-12T08:58:10Z</time>
      </trkpt>
      <trkpt lat="45.0457" lon="5.55564">
        <ele>1121.5999755859</ele>
        <time>2020-07-12T08:58:12Z</time>
      </trkpt>
      <trkpt lat="45.04549" lon="5.55625">
        <ele>1118.4000244141</ele>
        <time>2020-07-12T08:58:19Z</time>
      </trkpt>
      <trkpt lat="45.04544" lon="5.55654">
        <ele>1118.5999755859</ele>
        <time>2020-07-12T08:58:22Z</time>
      </trkpt>
      <trkpt lat="45.04538" lon="5.5569">
        <ele>1117.4000244141</ele>
        <time>2020-07-12T08:58:26Z</time>
      </trkpt>
      <trkpt lat="45.04535" lon="5.55707">
        <ele>1116.1999511719</ele>
        <time>2020-07-12T08:58:27Z</time>
      </trkpt>
      <trkpt lat="45.04523" lon="5.55745">
        <ele>1112.5999755859</ele>
        <time>2020-07-12T08:58:33Z</time>
      </trkpt>
      <trkpt lat="45.04503" lon="5.55784">
        <ele>1111.1999511719</ele>
        <time>2020-07-12T08:58:40Z</time>
      </trkpt>
      <trkpt lat="45.04501" lon="5.55789">
        <ele>1111.1999511719</ele>
        <time>2020-07-12T08:58:41Z</time>
      </trkpt>
      <trkpt lat="45.04499" lon="5.55795">
        <ele>1112.1999511719</ele>
        <time>2020-07-12T08:58:42Z</time>
      </trkpt>
      <trkpt lat="45.04492" lon="5.55812">
        <ele>1114.1999511719</ele>
        <time>2020-07-12T08:58:45Z</time>
      </trkpt>
      <trkpt lat="45.0449" lon="5.55817">
        <ele>1114.8000488281</ele>
        <time>2020-07-12T08:58:46Z</time>
      </trkpt>
      <trkpt lat="45.04488" lon="5.55821">
        <ele>1115.1999511719</ele>
        <time>2020-07-12T08:58:47Z</time>
      </trkpt>
      <trkpt lat="45.04463" lon="5.55846">
        <ele>1122.1999511719</ele>
        <time>2020-07-12T08:58:59Z</time>
      </trkpt>
      <trkpt lat="45.04435" lon="5.55806">
        <ele>1126.8000488281</ele>
        <time>2020-07-12T08:59:14Z</time>
      </trkpt>
      <trkpt lat="45.04431" lon="5.55803">
        <ele>1127.1999511719</ele>
        <time>2020-07-12T08:59:16Z</time>
      </trkpt>
      <trkpt lat="45.04429" lon="5.55801">
        <ele>1127.4000244141</ele>
        <time>2020-07-12T08:59:17Z</time>
      </trkpt>
      <trkpt lat="45.04422" lon="5.55791">
        <ele>1128</ele>
        <time>2020-07-12T08:59:22Z</time>
      </trkpt>
      <trkpt lat="45.04419" lon="5.55787">
        <ele>1127.1999511719</ele>
        <time>2020-07-12T08:59:24Z</time>
      </trkpt>
      <trkpt lat="45.04415" lon="5.55778">
        <ele>1127</ele>
        <time>2020-07-12T08:59:28Z</time>
      </trkpt>
      <trkpt lat="45.04401" lon="5.55731">
        <ele>1127.5999755859</ele>
        <time>2020-07-12T08:59:49Z</time>
      </trkpt>
      <trkpt lat="45.044" lon="5.55726">
        <ele>1129.8000488281</ele>
        <time>2020-07-12T08:59:51Z</time>
      </trkpt>
      <trkpt lat="45.044" lon="5.55724">
        <ele>1130.1999511719</ele>
        <time>2020-07-12T08:59:52Z</time>
      </trkpt>
      <trkpt lat="45.04394" lon="5.55707">
        <ele>1133.5999755859</ele>
        <time>2020-07-12T08:59:59Z</time>
      </trkpt>
      <trkpt lat="45.04388" lon="5.55687">
        <ele>1138</ele>
        <time>2020-07-12T09:00:07Z</time>
      </trkpt>
      <trkpt lat="45.04385" lon="5.55681">
        <ele>1140</ele>
        <time>2020-07-12T09:00:10Z</time>
      </trkpt>
      <trkpt lat="45.04363" lon="5.55648">
        <ele>1139.4000244141</ele>
        <time>2020-07-12T09:00:31Z</time>
      </trkpt>
      <trkpt lat="45.04359" lon="5.5564">
        <ele>1140.1999511719</ele>
        <time>2020-07-12T09:00:37Z</time>
      </trkpt>
      <trkpt lat="45.04355" lon="5.5563">
        <ele>1140.5999755859</ele>
        <time>2020-07-12T09:00:43Z</time>
      </trkpt>
      <trkpt lat="45.04351" lon="5.5562">
        <ele>1143.8000488281</ele>
        <time>2020-07-12T09:00:51Z</time>
      </trkpt>
      <trkpt lat="45.0435" lon="5.55619">
        <ele>1144</ele>
        <time>2020-07-12T09:00:52Z</time>
      </trkpt>
      <trkpt lat="45.04345" lon="5.55611">
        <ele>1145.4000244141</ele>
        <time>2020-07-12T09:00:59Z</time>
      </trkpt>
      <trkpt lat="45.04332" lon="5.55587">
        <ele>1145.4000244141</ele>
        <time>2020-07-12T09:01:19Z</time>
      </trkpt>
      <trkpt lat="45.04326" lon="5.55575">
        <ele>1145.4000244141</ele>
        <time>2020-07-12T09:01:27Z</time>
      </trkpt>
      <trkpt lat="45.04321" lon="5.5556">
        <ele>1147.4000244141</ele>
        <time>2020-07-12T09:01:38Z</time>
      </trkpt>
      <trkpt lat="45.04316" lon="5.5555">
        <ele>1147.1999511719</ele>
        <time>2020-07-12T09:01:45Z</time>
      </trkpt>
      <trkpt lat="45.04315" lon="5.55548">
        <ele>1147.4000244141</ele>
        <time>2020-07-12T09:01:47Z</time>
      </trkpt>
      <trkpt lat="45.04299" lon="5.55519">
        <ele>1150.1999511719</ele>
        <time>2020-07-12T09:02:04Z</time>
      </trkpt>
      <trkpt lat="45.0428" lon="5.55474">
        <ele>1157.1999511719</ele>
        <time>2020-07-12T09:02:35Z</time>
      </trkpt>
      <trkpt lat="45.0428" lon="5.5547">
        <ele>1158.5999755859</ele>
        <time>2020-07-12T09:03:10Z</time>
      </trkpt>
      <trkpt lat="45.0428" lon="5.5547">
        <ele>1158.8000488281</ele>
        <time>2020-07-12T09:03:15Z</time>
      </trkpt>
      <trkpt lat="45.04279" lon="5.5547">
        <ele>1158.8000488281</ele>
        <time>2020-07-12T09:03:25Z</time>
      </trkpt>
      <trkpt lat="45.0428" lon="5.55468">
        <ele>1159.8000488281</ele>
        <time>2020-07-12T09:03:32Z</time>
      </trkpt>
      <trkpt lat="45.0428" lon="5.55467">
        <ele>1160.5999755859</ele>
        <time>2020-07-12T09:03:37Z</time>
      </trkpt>
      <trkpt lat="45.0428" lon="5.55467">
        <ele>1160.8000488281</ele>
        <time>2020-07-12T09:03:43Z</time>
      </trkpt>
      <trkpt lat="45.04279" lon="5.55467">
        <ele>1160.4000244141</ele>
        <time>2020-07-12T09:04:01Z</time>
      </trkpt>
      <trkpt lat="45.0428" lon="5.55468">
        <ele>1160.5999755859</ele>
        <time>2020-07-12T09:04:24Z</time>
      </trkpt>
      <trkpt lat="45.0428" lon="5.55467">
        <ele>1160.8000488281</ele>
        <time>2020-07-12T09:04:36Z</time>
      </trkpt>
      <trkpt lat="45.04279" lon="5.55466">
        <ele>1161</ele>
        <time>2020-07-12T09:05:11Z</time>
      </trkpt>
      <trkpt lat="45.04278" lon="5.55462">
        <ele>1160</ele>
        <time>2020-07-12T09:05:22Z</time>
      </trkpt>
      <trkpt lat="45.04261" lon="5.55431">
        <ele>1152.4000244141</ele>
        <time>2020-07-12T09:05:37Z</time>
      </trkpt>
      <trkpt lat="45.04257" lon="5.55424">
        <ele>1153.1999511719</ele>
        <time>2020-07-12T09:05:40Z</time>
      </trkpt>
      <trkpt lat="45.04256" lon="5.55421">
        <ele>1153.5999755859</ele>
        <time>2020-07-12T09:05:41Z</time>
      </trkpt>
      <trkpt lat="45.04254" lon="5.55417">
        <ele>1153.1999511719</ele>
        <time>2020-07-12T09:05:43Z</time>
      </trkpt>
      <trkpt lat="45.04251" lon="5.55414">
        <ele>1152.5999755859</ele>
        <time>2020-07-12T09:05:45Z</time>
      </trkpt>
      <trkpt lat="45.04249" lon="5.5541">
        <ele>1152.4000244141</ele>
        <time>2020-07-12T09:05:47Z</time>
      </trkpt>
      <trkpt lat="45.04248" lon="5.55409">
        <ele>1151.5999755859</ele>
        <time>2020-07-12T09:05:48Z</time>
      </trkpt>
      <trkpt lat="45.04245" lon="5.55406">
        <ele>1150.4000244141</ele>
        <time>2020-07-12T09:05:50Z</time>
      </trkpt>
      <trkpt lat="45.04238" lon="5.55392">
        <ele>1148.4000244141</ele>
        <time>2020-07-12T09:05:57Z</time>
      </trkpt>
      <trkpt lat="45.04234" lon="5.55382">
        <ele>1145</ele>
        <time>2020-07-12T09:06:00Z</time>
      </trkpt>
      <trkpt lat="45.04221" lon="5.55356">
        <ele>1141.5999755859</ele>
        <time>2020-07-12T09:06:04Z</time>
      </trkpt>
      <trkpt lat="45.04204" lon="5.55314">
        <ele>1142</ele>
        <time>2020-07-12T09:06:09Z</time>
      </trkpt>
      <trkpt lat="45.04181" lon="5.55271">
        <ele>1138.8000488281</ele>
        <time>2020-07-12T09:06:16Z</time>
      </trkpt>
      <trkpt lat="45.04152" lon="5.55229">
        <ele>1133.8000488281</ele>
        <time>2020-07-12T09:06:27Z</time>
      </trkpt>
      <trkpt lat="45.0415" lon="5.55224">
        <ele>1133</ele>
        <time>2020-07-12T09:06:28Z</time>
      </trkpt>
      <trkpt lat="45.04146" lon="5.5521">
        <ele>1130.8000488281</ele>
        <time>2020-07-12T09:06:30Z</time>
      </trkpt>
      <trkpt lat="45.04145" lon="5.55193">
        <ele>1128.4000244141</ele>
        <time>2020-07-12T09:06:32Z</time>
      </trkpt>
      <trkpt lat="45.04148" lon="5.55178">
        <ele>1127</ele>
        <time>2020-07-12T09:06:34Z</time>
      </trkpt>
      <trkpt lat="45.04152" lon="5.55162">
        <ele>1126.8000488281</ele>
        <time>2020-07-12T09:06:36Z</time>
      </trkpt>
      <trkpt lat="45.04154" lon="5.55148">
        <ele>1125</ele>
        <time>2020-07-12T09:06:38Z</time>
      </trkpt>
      <trkpt lat="45.0414" lon="5.55113">
        <ele>1119.5999755859</ele>
        <time>2020-07-12T09:06:44Z</time>
      </trkpt>
      <trkpt lat="45.04137" lon="5.55092">
        <ele>1121.1999511719</ele>
        <time>2020-07-12T09:06:46Z</time>
      </trkpt>
      <trkpt lat="45.04136" lon="5.55069">
        <ele>1123.5999755859</ele>
        <time>2020-07-12T09:06:48Z</time>
      </trkpt>
      <trkpt lat="45.04141" lon="5.55052">
        <ele>1125.1999511719</ele>
        <time>2020-07-12T09:06:50Z</time>
      </trkpt>
      <trkpt lat="45.04151" lon="5.55031">
        <ele>1125</ele>
        <time>2020-07-12T09:06:53Z</time>
      </trkpt>
      <trkpt lat="45.04186" lon="5.54989">
        <ele>1124.8000488281</ele>
        <time>2020-07-12T09:07:01Z</time>
      </trkpt>
      <trkpt lat="45.0421" lon="5.54961">
        <ele>1125.1999511719</ele>
        <time>2020-07-12T09:07:08Z</time>
      </trkpt>
      <trkpt lat="45.04242" lon="5.54913">
        <ele>1126.4000244141</ele>
        <time>2020-07-12T09:07:18Z</time>
      </trkpt>
      <trkpt lat="45.04256" lon="5.54888">
        <ele>1128.4000244141</ele>
        <time>2020-07-12T09:07:26Z</time>
      </trkpt>
      <trkpt lat="45.04266" lon="5.54874">
        <ele>1127.1999511719</ele>
        <time>2020-07-12T09:07:29Z</time>
      </trkpt>
      <trkpt lat="45.04273" lon="5.54854">
        <ele>1123.5999755859</ele>
        <time>2020-07-12T09:07:34Z</time>
      </trkpt>
      <trkpt lat="45.04273" lon="5.54851">
        <ele>1123.4000244141</ele>
        <time>2020-07-12T09:07:35Z</time>
      </trkpt>
      <trkpt lat="45.04272" lon="5.54844">
        <ele>1123.1999511719</ele>
        <time>2020-07-12T09:07:38Z</time>
      </trkpt>
      <trkpt lat="45.0427" lon="5.54841">
        <ele>1123.5999755859</ele>
        <time>2020-07-12T09:07:39Z</time>
      </trkpt>
      <trkpt lat="45.04268" lon="5.54836">
        <ele>1124.4000244141</ele>
        <time>2020-07-12T09:07:40Z</time>
      </trkpt>
      <trkpt lat="45.04268" lon="5.54836">
        <ele>1124.4000244141</ele>
        <time>2020-07-12T09:07:41Z</time>
      </trkpt>
      <trkpt lat="45.04266" lon="5.54834">
        <ele>1123.4000244141</ele>
        <time>2020-07-12T09:07:50Z</time>
      </trkpt>
      <trkpt lat="45.04266" lon="5.54833">
        <ele>1122.5999755859</ele>
        <time>2020-07-12T09:07:56Z</time>
      </trkpt>
      <trkpt lat="45.04266" lon="5.54833">
        <ele>1122.4000244141</ele>
        <time>2020-07-12T09:07:57Z</time>
      </trkpt>
      <trkpt lat="45.04266" lon="5.54833">
        <ele>1122.5999755859</ele>
        <time>2020-07-12T09:07:58Z</time>
      </trkpt>
      <trkpt lat="45.04266" lon="5.54833">
        <ele>1122.8000488281</ele>
        <time>2020-07-12T09:08:01Z</time>
      </trkpt>
      <trkpt lat="45.04266" lon="5.54833">
        <ele>1122.5999755859</ele>
        <time>2020-07-12T09:08:02Z</time>
      </trkpt>
      <trkpt lat="45.04266" lon="5.54833">
        <ele>1122.5999755859</ele>
        <time>2020-07-12T09:08:04Z</time>
      </trkpt>
      <trkpt lat="45.04266" lon="5.54833">
        <ele>1122.5999755859</ele>
        <time>2020-07-12T09:08:05Z</time>
      </trkpt>
      <trkpt lat="45.04266" lon="5.54832">
        <ele>1122.1999511719</ele>
        <time>2020-07-12T09:08:08Z</time>
      </trkpt>
      <trkpt lat="45.04266" lon="5.54831">
        <ele>1121.5999755859</ele>
        <time>2020-07-12T09:08:10Z</time>
      </trkpt>
      <trkpt lat="45.04265" lon="5.5483">
        <ele>1122.4000244141</ele>
        <time>2020-07-12T09:08:12Z</time>
      </trkpt>
      <trkpt lat="45.04262" lon="5.54829">
        <ele>1122.1999511719</ele>
        <time>2020-07-12T09:08:14Z</time>
      </trkpt>
      <trkpt lat="45.04256" lon="5.54827">
        <ele>1123</ele>
        <time>2020-07-12T09:08:19Z</time>
      </trkpt>
      <trkpt lat="45.04255" lon="5.54827">
        <ele>1123</ele>
        <time>2020-07-12T09:08:20Z</time>
      </trkpt>
      <trkpt lat="45.04255" lon="5.54828">
        <ele>1123.4000244141</ele>
        <time>2020-07-12T09:08:21Z</time>
      </trkpt>
      <trkpt lat="45.04254" lon="5.5483">
        <ele>1125.8000488281</ele>
        <time>2020-07-12T09:08:28Z</time>
      </trkpt>
      <trkpt lat="45.04254" lon="5.5483">
        <ele>1126.1999511719</ele>
        <time>2020-07-12T09:08:33Z</time>
      </trkpt>
      <trkpt lat="45.04255" lon="5.54829">
        <ele>1126.8000488281</ele>
        <time>2020-07-12T09:08:39Z</time>
      </trkpt>
      <trkpt lat="45.04256" lon="5.5483">
        <ele>1128.4000244141</ele>
        <time>2020-07-12T09:08:44Z</time>
      </trkpt>
      <trkpt lat="45.04256" lon="5.5483">
        <ele>1128.8000488281</ele>
        <time>2020-07-12T09:08:46Z</time>
      </trkpt>
      <trkpt lat="45.04256" lon="5.54831">
        <ele>1128.8000488281</ele>
        <time>2020-07-12T09:08:47Z</time>
      </trkpt>
      <trkpt lat="45.04256" lon="5.54828">
        <ele>1128.8000488281</ele>
        <time>2020-07-12T09:09:00Z</time>
      </trkpt>
      <trkpt lat="45.04256" lon="5.54828">
        <ele>1129</ele>
        <time>2020-07-12T09:09:06Z</time>
      </trkpt>
      <trkpt lat="45.04251" lon="5.54825">
        <ele>1129.4000244141</ele>
        <time>2020-07-12T09:09:12Z</time>
      </trkpt>
      <trkpt lat="45.04245" lon="5.54821">
        <ele>1128.5999755859</ele>
        <time>2020-07-12T09:09:15Z</time>
      </trkpt>
      <trkpt lat="45.04238" lon="5.54818">
        <ele>1128.1999511719</ele>
        <time>2020-07-12T09:09:18Z</time>
      </trkpt>
      <trkpt lat="45.04234" lon="5.54816">
        <ele>1128.1999511719</ele>
        <time>2020-07-12T09:09:20Z</time>
      </trkpt>
      <trkpt lat="45.04205" lon="5.54814">
        <ele>1124.8000488281</ele>
        <time>2020-07-12T09:09:28Z</time>
      </trkpt>
      <trkpt lat="45.04195" lon="5.54818">
        <ele>1124.4000244141</ele>
        <time>2020-07-12T09:09:30Z</time>
      </trkpt>
      <trkpt lat="45.04186" lon="5.54819">
        <ele>1123.4000244141</ele>
        <time>2020-07-12T09:09:32Z</time>
      </trkpt>
      <trkpt lat="45.04177" lon="5.54814">
        <ele>1121.8000488281</ele>
        <time>2020-07-12T09:09:34Z</time>
      </trkpt>
      <trkpt lat="45.04172" lon="5.54802">
        <ele>1119</ele>
        <time>2020-07-12T09:09:36Z</time>
      </trkpt>
      <trkpt lat="45.04172" lon="5.54747">
        <ele>1107.8000488281</ele>
        <time>2020-07-12T09:09:41Z</time>
      </trkpt>
      <trkpt lat="45.04176" lon="5.54713">
        <ele>1101.1999511719</ele>
        <time>2020-07-12T09:09:44Z</time>
      </trkpt>
      <trkpt lat="45.04185" lon="5.5468">
        <ele>1099.8000488281</ele>
        <time>2020-07-12T09:09:47Z</time>
      </trkpt>
      <trkpt lat="45.04208" lon="5.54645">
        <ele>1093.4000244141</ele>
        <time>2020-07-12T09:09:51Z</time>
      </trkpt>
      <trkpt lat="45.04243" lon="5.54595">
        <ele>1085.4000244141</ele>
        <time>2020-07-12T09:09:57Z</time>
      </trkpt>
      <trkpt lat="45.04263" lon="5.54531">
        <ele>1077.5999755859</ele>
        <time>2020-07-12T09:10:03Z</time>
      </trkpt>
      <trkpt lat="45.04265" lon="5.54501">
        <ele>1070.8000488281</ele>
        <time>2020-07-12T09:10:06Z</time>
      </trkpt>
      <trkpt lat="45.04262" lon="5.54483">
        <ele>1065.4000244141</ele>
        <time>2020-07-12T09:10:08Z</time>
      </trkpt>
      <trkpt lat="45.04258" lon="5.54473">
        <ele>1063</ele>
        <time>2020-07-12T09:10:09Z</time>
      </trkpt>
      <trkpt lat="45.04251" lon="5.54442">
        <ele>1057.5999755859</ele>
        <time>2020-07-12T09:10:12Z</time>
      </trkpt>
      <trkpt lat="45.04245" lon="5.54408">
        <ele>1051.1999511719</ele>
        <time>2020-07-12T09:10:15Z</time>
      </trkpt>
      <trkpt lat="45.04238" lon="5.54383">
        <ele>1047.4000244141</ele>
        <time>2020-07-12T09:10:17Z</time>
      </trkpt>
      <trkpt lat="45.04234" lon="5.54369">
        <ele>1045.4000244141</ele>
        <time>2020-07-12T09:10:18Z</time>
      </trkpt>
      <trkpt lat="45.04226" lon="5.54336">
        <ele>1049.8000488281</ele>
        <time>2020-07-12T09:10:20Z</time>
      </trkpt>
      <trkpt lat="45.04221" lon="5.54322">
        <ele>1049</ele>
        <time>2020-07-12T09:10:21Z</time>
      </trkpt>
      <trkpt lat="45.04212" lon="5.54287">
        <ele>1046.5999755859</ele>
        <time>2020-07-12T09:10:24Z</time>
      </trkpt>
      <trkpt lat="45.04208" lon="5.54273">
        <ele>1044.8000488281</ele>
        <time>2020-07-12T09:10:26Z</time>
      </trkpt>
      <trkpt lat="45.04204" lon="5.54264">
        <ele>1046</ele>
        <time>2020-07-12T09:10:28Z</time>
      </trkpt>
      <trkpt lat="45.04201" lon="5.5425">
        <ele>1048</ele>
        <time>2020-07-12T09:10:32Z</time>
      </trkpt>
      <trkpt lat="45.04201" lon="5.54243">
        <ele>1048.5999755859</ele>
        <time>2020-07-12T09:10:34Z</time>
      </trkpt>
      <trkpt lat="45.04186" lon="5.54208">
        <ele>1054.5999755859</ele>
        <time>2020-07-12T09:10:41Z</time>
      </trkpt>
      <trkpt lat="45.04177" lon="5.542">
        <ele>1055.5999755859</ele>
        <time>2020-07-12T09:10:43Z</time>
      </trkpt>
      <trkpt lat="45.04161" lon="5.54183">
        <ele>1061.4000244141</ele>
        <time>2020-07-12T09:10:46Z</time>
      </trkpt>
      <trkpt lat="45.04154" lon="5.54171">
        <ele>1064.1999511719</ele>
        <time>2020-07-12T09:10:48Z</time>
      </trkpt>
      <trkpt lat="45.04151" lon="5.54165">
        <ele>1064.8000488281</ele>
        <time>2020-07-12T09:10:49Z</time>
      </trkpt>
      <trkpt lat="45.04145" lon="5.5415">
        <ele>1065.4000244141</ele>
        <time>2020-07-12T09:10:52Z</time>
      </trkpt>
      <trkpt lat="45.04144" lon="5.54131">
        <ele>1065.8000488281</ele>
        <time>2020-07-12T09:10:57Z</time>
      </trkpt>
      <trkpt lat="45.04144" lon="5.54121">
        <ele>1066</ele>
        <time>2020-07-12T09:11:00Z</time>
      </trkpt>
      <trkpt lat="45.04146" lon="5.54068">
        <ele>1067.1999511719</ele>
        <time>2020-07-12T09:11:16Z</time>
      </trkpt>
      <trkpt lat="45.04145" lon="5.54041">
        <ele>1067.1999511719</ele>
        <time>2020-07-12T09:11:23Z</time>
      </trkpt>
      <trkpt lat="45.04144" lon="5.54033">
        <ele>1067.4000244141</ele>
        <time>2020-07-12T09:11:24Z</time>
      </trkpt>
      <trkpt lat="45.04144" lon="5.54033">
        <ele>1067.4000244141</ele>
        <time>2020-07-12T09:11:25Z</time>
      </trkpt>
      <trkpt lat="45.04138" lon="5.54014">
        <ele>1068.8000488281</ele>
        <time>2020-07-12T09:11:29Z</time>
      </trkpt>
      <trkpt lat="45.04131" lon="5.53999">
        <ele>1068.5999755859</ele>
        <time>2020-07-12T09:11:33Z</time>
      </trkpt>
      <trkpt lat="45.04123" lon="5.53963">
        <ele>1068.1999511719</ele>
        <time>2020-07-12T09:11:40Z</time>
      </trkpt>
      <trkpt lat="45.04117" lon="5.53912">
        <ele>1069.1999511719</ele>
        <time>2020-07-12T09:11:52Z</time>
      </trkpt>
      <trkpt lat="45.04095" lon="5.5387">
        <ele>1070.5999755859</ele>
        <time>2020-07-12T09:12:07Z</time>
      </trkpt>
      <trkpt lat="45.04078" lon="5.53858">
        <ele>1070.1999511719</ele>
        <time>2020-07-12T09:12:14Z</time>
      </trkpt>
      <trkpt lat="45.04036" lon="5.53832">
        <ele>1072.5999755859</ele>
        <time>2020-07-12T09:12:30Z</time>
      </trkpt>
      <trkpt lat="45.03992" lon="5.53806">
        <ele>1073.8000488281</ele>
        <time>2020-07-12T09:12:42Z</time>
      </trkpt>
      <trkpt lat="45.03983" lon="5.53796">
        <ele>1073.5999755859</ele>
        <time>2020-07-12T09:12:45Z</time>
      </trkpt>
      <trkpt lat="45.03962" lon="5.5377">
        <ele>1072.8000488281</ele>
        <time>2020-07-12T09:12:52Z</time>
      </trkpt>
      <trkpt lat="45.03935" lon="5.5374">
        <ele>1073.4000244141</ele>
        <time>2020-07-12T09:12:57Z</time>
      </trkpt>
      <trkpt lat="45.0391" lon="5.5372">
        <ele>1073.8000488281</ele>
        <time>2020-07-12T09:13:02Z</time>
      </trkpt>
      <trkpt lat="45.03892" lon="5.53698">
        <ele>1074.4000244141</ele>
        <time>2020-07-12T09:13:07Z</time>
      </trkpt>
      <trkpt lat="45.03862" lon="5.53661">
        <ele>1073</ele>
        <time>2020-07-12T09:13:17Z</time>
      </trkpt>
      <trkpt lat="45.03824" lon="5.5362">
        <ele>1073.1999511719</ele>
        <time>2020-07-12T09:13:29Z</time>
      </trkpt>
      <trkpt lat="45.03786" lon="5.53578">
        <ele>1075.4000244141</ele>
        <time>2020-07-12T09:13:40Z</time>
      </trkpt>
      <trkpt lat="45.03765" lon="5.53559">
        <ele>1076.5999755859</ele>
        <time>2020-07-12T09:13:45Z</time>
      </trkpt>
      <trkpt lat="45.03756" lon="5.53551">
        <ele>1077.4000244141</ele>
        <time>2020-07-12T09:13:47Z</time>
      </trkpt>
      <trkpt lat="45.03733" lon="5.53534">
        <ele>1078.4000244141</ele>
        <time>2020-07-12T09:13:52Z</time>
      </trkpt>
      <trkpt lat="45.03708" lon="5.53511">
        <ele>1080.5999755859</ele>
        <time>2020-07-12T09:13:58Z</time>
      </trkpt>
      <trkpt lat="45.03674" lon="5.53464">
        <ele>1083.1999511719</ele>
        <time>2020-07-12T09:14:08Z</time>
      </trkpt>
      <trkpt lat="45.03666" lon="5.53448">
        <ele>1083.4000244141</ele>
        <time>2020-07-12T09:14:11Z</time>
      </trkpt>
      <trkpt lat="45.03661" lon="5.53437">
        <ele>1083.8000488281</ele>
        <time>2020-07-12T09:14:13Z</time>
      </trkpt>
      <trkpt lat="45.03648" lon="5.53414">
        <ele>1083.8000488281</ele>
        <time>2020-07-12T09:14:17Z</time>
      </trkpt>
      <trkpt lat="45.03642" lon="5.53402">
        <ele>1084</ele>
        <time>2020-07-12T09:14:19Z</time>
      </trkpt>
      <trkpt lat="45.03634" lon="5.53394">
        <ele>1084.1999511719</ele>
        <time>2020-07-12T09:14:21Z</time>
      </trkpt>
      <trkpt lat="45.03612" lon="5.53382">
        <ele>1084.4000244141</ele>
        <time>2020-07-12T09:14:26Z</time>
      </trkpt>
      <trkpt lat="45.03563" lon="5.5337">
        <ele>1085.4000244141</ele>
        <time>2020-07-12T09:14:36Z</time>
      </trkpt>
      <trkpt lat="45.03541" lon="5.53364">
        <ele>1085.8000488281</ele>
        <time>2020-07-12T09:14:40Z</time>
      </trkpt>
      <trkpt lat="45.03495" lon="5.53353">
        <ele>1086.5999755859</ele>
        <time>2020-07-12T09:14:49Z</time>
      </trkpt>
      <trkpt lat="45.03476" lon="5.53345">
        <ele>1087.1999511719</ele>
        <time>2020-07-12T09:14:53Z</time>
      </trkpt>
      <trkpt lat="45.03447" lon="5.53326">
        <ele>1088.4000244141</ele>
        <time>2020-07-12T09:15:00Z</time>
      </trkpt>
      <trkpt lat="45.03429" lon="5.53309">
        <ele>1088.8000488281</ele>
        <time>2020-07-12T09:15:05Z</time>
      </trkpt>
      <trkpt lat="45.03404" lon="5.53288">
        <ele>1089.1999511719</ele>
        <time>2020-07-12T09:15:11Z</time>
      </trkpt>
      <trkpt lat="45.0339" lon="5.5327">
        <ele>1089.8000488281</ele>
        <time>2020-07-12T09:15:15Z</time>
      </trkpt>
      <trkpt lat="45.03361" lon="5.53216">
        <ele>1090.8000488281</ele>
        <time>2020-07-12T09:15:25Z</time>
      </trkpt>
      <trkpt lat="45.03347" lon="5.53176">
        <ele>1091.1999511719</ele>
        <time>2020-07-12T09:15:32Z</time>
      </trkpt>
      <trkpt lat="45.03336" lon="5.53112">
        <ele>1090.5999755859</ele>
        <time>2020-07-12T09:15:43Z</time>
      </trkpt>
      <trkpt lat="45.03331" lon="5.53073">
        <ele>1090.8000488281</ele>
        <time>2020-07-12T09:15:52Z</time>
      </trkpt>
      <trkpt lat="45.03328" lon="5.53043">
        <ele>1091</ele>
        <time>2020-07-12T09:16:02Z</time>
      </trkpt>
      <trkpt lat="45.03328" lon="5.53035">
        <ele>1092</ele>
        <time>2020-07-12T09:16:08Z</time>
      </trkpt>
      <trkpt lat="45.03325" lon="5.53038">
        <ele>1091.8000488281</ele>
        <time>2020-07-12T09:16:19Z</time>
      </trkpt>
      <trkpt lat="45.03331" lon="5.53102">
        <ele>1092.8000488281</ele>
        <time>2020-07-12T09:16:33Z</time>
      </trkpt>
      <trkpt lat="45.03332" lon="5.53119">
        <ele>1093</ele>
        <time>2020-07-12T09:16:37Z</time>
      </trkpt>
      <trkpt lat="45.0333" lon="5.53122">
        <ele>1093.1999511719</ele>
        <time>2020-07-12T09:16:38Z</time>
      </trkpt>
      <trkpt lat="45.03325" lon="5.53126">
        <ele>1093.5999755859</ele>
        <time>2020-07-12T09:16:40Z</time>
      </trkpt>
      <trkpt lat="45.03316" lon="5.53132">
        <ele>1094.4000244141</ele>
        <time>2020-07-12T09:16:44Z</time>
      </trkpt>
      <trkpt lat="45.03304" lon="5.5314">
        <ele>1095.5999755859</ele>
        <time>2020-07-12T09:16:50Z</time>
      </trkpt>
      <trkpt lat="45.03292" lon="5.53147">
        <ele>1096.4000244141</ele>
        <time>2020-07-12T09:16:56Z</time>
      </trkpt>
      <trkpt lat="45.03284" lon="5.53146">
        <ele>1096.5999755859</ele>
        <time>2020-07-12T09:16:59Z</time>
      </trkpt>
      <trkpt lat="45.03275" lon="5.53138">
        <ele>1096.5999755859</ele>
        <time>2020-07-12T09:17:03Z</time>
      </trkpt>
      <trkpt lat="45.03268" lon="5.53126">
        <ele>1095.8000488281</ele>
        <time>2020-07-12T09:17:07Z</time>
      </trkpt>
      <trkpt lat="45.03249" lon="5.53093">
        <ele>1095.8000488281</ele>
        <time>2020-07-12T09:17:18Z</time>
      </trkpt>
      <trkpt lat="45.03231" lon="5.53074">
        <ele>1097.1999511719</ele>
        <time>2020-07-12T09:17:25Z</time>
      </trkpt>
      <trkpt lat="45.03221" lon="5.53067">
        <ele>1098.8000488281</ele>
        <time>2020-07-12T09:17:29Z</time>
      </trkpt>
      <trkpt lat="45.03211" lon="5.53061">
        <ele>1099.1999511719</ele>
        <time>2020-07-12T09:17:33Z</time>
      </trkpt>
      <trkpt lat="45.03204" lon="5.53057">
        <ele>1100</ele>
        <time>2020-07-12T09:17:36Z</time>
      </trkpt>
      <trkpt lat="45.03177" lon="5.53019">
        <ele>1100.8000488281</ele>
        <time>2020-07-12T09:17:53Z</time>
      </trkpt>
      <trkpt lat="45.03178" lon="5.53012">
        <ele>1100.8000488281</ele>
        <time>2020-07-12T09:17:54Z</time>
      </trkpt>
      <trkpt lat="45.03175" lon="5.52999">
        <ele>1100.1999511719</ele>
        <time>2020-07-12T09:17:56Z</time>
      </trkpt>
      <trkpt lat="45.03163" lon="5.52967">
        <ele>1099</ele>
        <time>2020-07-12T09:18:00Z</time>
      </trkpt>
      <trkpt lat="45.03154" lon="5.52953">
        <ele>1098.8000488281</ele>
        <time>2020-07-12T09:18:01Z</time>
      </trkpt>
      <trkpt lat="45.03145" lon="5.52942">
        <ele>1100</ele>
        <time>2020-07-12T09:18:04Z</time>
      </trkpt>
      <trkpt lat="45.03122" lon="5.52919">
        <ele>1099.5999755859</ele>
        <time>2020-07-12T09:18:09Z</time>
      </trkpt>
      <trkpt lat="45.03119" lon="5.52914">
        <ele>1099.8000488281</ele>
        <time>2020-07-12T09:18:10Z</time>
      </trkpt>
      <trkpt lat="45.03112" lon="5.52903">
        <ele>1099.8000488281</ele>
        <time>2020-07-12T09:18:12Z</time>
      </trkpt>
      <trkpt lat="45.03107" lon="5.5289">
        <ele>1100</ele>
        <time>2020-07-12T09:18:14Z</time>
      </trkpt>
      <trkpt lat="45.03102" lon="5.52862">
        <ele>1100</ele>
        <time>2020-07-12T09:18:18Z</time>
      </trkpt>
      <trkpt lat="45.03099" lon="5.52796">
        <ele>1100</ele>
        <time>2020-07-12T09:18:28Z</time>
      </trkpt>
      <trkpt lat="45.03094" lon="5.52766">
        <ele>1101</ele>
        <time>2020-07-12T09:18:33Z</time>
      </trkpt>
      <trkpt lat="45.03089" lon="5.52753">
        <ele>1101.4000244141</ele>
        <time>2020-07-12T09:18:36Z</time>
      </trkpt>
      <trkpt lat="45.03087" lon="5.52751">
        <ele>1101.1999511719</ele>
        <time>2020-07-12T09:18:37Z</time>
      </trkpt>
      <trkpt lat="45.03081" lon="5.52753">
        <ele>1101.1999511719</ele>
        <time>2020-07-12T09:18:39Z</time>
      </trkpt>
      <trkpt lat="45.03079" lon="5.52755">
        <ele>1101.1999511719</ele>
        <time>2020-07-12T09:18:40Z</time>
      </trkpt>
      <trkpt lat="45.03076" lon="5.52757">
        <ele>1101</ele>
        <time>2020-07-12T09:18:41Z</time>
      </trkpt>
      <trkpt lat="45.03065" lon="5.52762">
        <ele>1100.5999755859</ele>
        <time>2020-07-12T09:18:45Z</time>
      </trkpt>
      <trkpt lat="45.03054" lon="5.52764">
        <ele>1100.4000244141</ele>
        <time>2020-07-12T09:18:49Z</time>
      </trkpt>
      <trkpt lat="45.03008" lon="5.52775">
        <ele>1102</ele>
        <time>2020-07-12T09:19:04Z</time>
      </trkpt>
      <trkpt lat="45.02992" lon="5.52778">
        <ele>1102.8000488281</ele>
        <time>2020-07-12T09:19:10Z</time>
      </trkpt>
      <trkpt lat="45.02991" lon="5.52777">
        <ele>1103</ele>
        <time>2020-07-12T09:19:22Z</time>
      </trkpt>
      <trkpt lat="45.02991" lon="5.52777">
        <ele>1103</ele>
        <time>2020-07-12T09:19:26Z</time>
      </trkpt>
      <trkpt lat="45.02991" lon="5.52777">
        <ele>1103</ele>
        <time>2020-07-12T09:19:33Z</time>
      </trkpt>
      <trkpt lat="45.02991" lon="5.52777">
        <ele>1103</ele>
        <time>2020-07-12T09:19:37Z</time>
      </trkpt>
      <trkpt lat="45.02991" lon="5.52777">
        <ele>1103</ele>
        <time>2020-07-12T09:19:43Z</time>
      </trkpt>
      <trkpt lat="45.02991" lon="5.52777">
        <ele>1103</ele>
        <time>2020-07-12T09:19:56Z</time>
      </trkpt>
      <trkpt lat="45.0299" lon="5.52777">
        <ele>1102.8000488281</ele>
        <time>2020-07-12T09:19:58Z</time>
      </trkpt>
      <trkpt lat="45.02972" lon="5.5278">
        <ele>1103.5999755859</ele>
        <time>2020-07-12T09:20:08Z</time>
      </trkpt>
      <trkpt lat="45.02926" lon="5.52779">
        <ele>1105.5999755859</ele>
        <time>2020-07-12T09:20:32Z</time>
      </trkpt>
      <trkpt lat="45.02917" lon="5.52783">
        <ele>1107.1999511719</ele>
        <time>2020-07-12T09:20:39Z</time>
      </trkpt>
      <trkpt lat="45.02906" lon="5.5279">
        <ele>1110</ele>
        <time>2020-07-12T09:20:48Z</time>
      </trkpt>
      <trkpt lat="45.02904" lon="5.52791">
        <ele>1110.8000488281</ele>
        <time>2020-07-12T09:20:49Z</time>
      </trkpt>
      <trkpt lat="45.02893" lon="5.52799">
        <ele>1113.8000488281</ele>
        <time>2020-07-12T09:21:01Z</time>
      </trkpt>
      <trkpt lat="45.02893" lon="5.52817">
        <ele>1116.1999511719</ele>
        <time>2020-07-12T09:21:13Z</time>
      </trkpt>
      <trkpt lat="45.02885" lon="5.52836">
        <ele>1119.4000244141</ele>
        <time>2020-07-12T09:21:27Z</time>
      </trkpt>
      <trkpt lat="45.02883" lon="5.52839">
        <ele>1119.5999755859</ele>
        <time>2020-07-12T09:21:28Z</time>
      </trkpt>
      <trkpt lat="45.02883" lon="5.5284">
        <ele>1119.8000488281</ele>
        <time>2020-07-12T09:21:30Z</time>
      </trkpt>
      <trkpt lat="45.02881" lon="5.52842">
        <ele>1120.4000244141</ele>
        <time>2020-07-12T09:21:31Z</time>
      </trkpt>
      <trkpt lat="45.02881" lon="5.52842">
        <ele>1120.4000244141</ele>
        <time>2020-07-12T09:21:32Z</time>
      </trkpt>
      <trkpt lat="45.02879" lon="5.52847">
        <ele>1120.8000488281</ele>
        <time>2020-07-12T09:21:35Z</time>
      </trkpt>
      <trkpt lat="45.02878" lon="5.5285">
        <ele>1121.1999511719</ele>
        <time>2020-07-12T09:21:36Z</time>
      </trkpt>
      <trkpt lat="45.02877" lon="5.52852">
        <ele>1121.8000488281</ele>
        <time>2020-07-12T09:21:39Z</time>
      </trkpt>
      <trkpt lat="45.02876" lon="5.52855">
        <ele>1122.1999511719</ele>
        <time>2020-07-12T09:21:40Z</time>
      </trkpt>
      <trkpt lat="45.02876" lon="5.52855">
        <ele>1122.1999511719</ele>
        <time>2020-07-12T09:21:41Z</time>
      </trkpt>
      <trkpt lat="45.02876" lon="5.52857">
        <ele>1122.4000244141</ele>
        <time>2020-07-12T09:21:42Z</time>
      </trkpt>
      <trkpt lat="45.02874" lon="5.5286">
        <ele>1122.5999755859</ele>
        <time>2020-07-12T09:21:43Z</time>
      </trkpt>
      <trkpt lat="45.02874" lon="5.5286">
        <ele>1122.5999755859</ele>
        <time>2020-07-12T09:21:44Z</time>
      </trkpt>
      <trkpt lat="45.02873" lon="5.52861">
        <ele>1122.8000488281</ele>
        <time>2020-07-12T09:21:45Z</time>
      </trkpt>
      <trkpt lat="45.02872" lon="5.52863">
        <ele>1123</ele>
        <time>2020-07-12T09:21:46Z</time>
      </trkpt>
      <trkpt lat="45.02872" lon="5.52863">
        <ele>1123</ele>
        <time>2020-07-12T09:21:47Z</time>
      </trkpt>
      <trkpt lat="45.02868" lon="5.52869">
        <ele>1123.8000488281</ele>
        <time>2020-07-12T09:21:52Z</time>
      </trkpt>
      <trkpt lat="45.02862" lon="5.52875">
        <ele>1124.8000488281</ele>
        <time>2020-07-12T09:21:58Z</time>
      </trkpt>
      <trkpt lat="45.02856" lon="5.52892">
        <ele>1126.5999755859</ele>
        <time>2020-07-12T09:22:08Z</time>
      </trkpt>
      <trkpt lat="45.02846" lon="5.52909">
        <ele>1127.5999755859</ele>
        <time>2020-07-12T09:22:18Z</time>
      </trkpt>
      <trkpt lat="45.02839" lon="5.52916">
        <ele>1128.5999755859</ele>
        <time>2020-07-12T09:22:23Z</time>
      </trkpt>
      <trkpt lat="45.02838" lon="5.52918">
        <ele>1128.8000488281</ele>
        <time>2020-07-12T09:22:24Z</time>
      </trkpt>
      <trkpt lat="45.02835" lon="5.5292">
        <ele>1129.1999511719</ele>
        <time>2020-07-12T09:22:25Z</time>
      </trkpt>
      <trkpt lat="45.02831" lon="5.52922">
        <ele>1129.8000488281</ele>
        <time>2020-07-12T09:22:29Z</time>
      </trkpt>
      <trkpt lat="45.02825" lon="5.52929">
        <ele>1130.8000488281</ele>
        <time>2020-07-12T09:22:34Z</time>
      </trkpt>
      <trkpt lat="45.02824" lon="5.52931">
        <ele>1131</ele>
        <time>2020-07-12T09:22:35Z</time>
      </trkpt>
      <trkpt lat="45.02823" lon="5.52934">
        <ele>1131.4000244141</ele>
        <time>2020-07-12T09:22:36Z</time>
      </trkpt>
      <trkpt lat="45.02823" lon="5.52934">
        <ele>1131.4000244141</ele>
        <time>2020-07-12T09:22:37Z</time>
      </trkpt>
      <trkpt lat="45.02822" lon="5.52936">
        <ele>1131.4000244141</ele>
        <time>2020-07-12T09:22:38Z</time>
      </trkpt>
      <trkpt lat="45.0282" lon="5.52938">
        <ele>1132</ele>
        <time>2020-07-12T09:22:39Z</time>
      </trkpt>
      <trkpt lat="45.0282" lon="5.52938">
        <ele>1132</ele>
        <time>2020-07-12T09:22:40Z</time>
      </trkpt>
      <trkpt lat="45.02818" lon="5.52942">
        <ele>1132.1999511719</ele>
        <time>2020-07-12T09:22:41Z</time>
      </trkpt>
      <trkpt lat="45.02818" lon="5.52944">
        <ele>1132.4000244141</ele>
        <time>2020-07-12T09:22:43Z</time>
      </trkpt>
      <trkpt lat="45.02817" lon="5.52946">
        <ele>1132.5999755859</ele>
        <time>2020-07-12T09:22:44Z</time>
      </trkpt>
      <trkpt lat="45.02813" lon="5.52952">
        <ele>1133.5999755859</ele>
        <time>2020-07-12T09:22:48Z</time>
      </trkpt>
      <trkpt lat="45.02808" lon="5.52949">
        <ele>1134.4000244141</ele>
        <time>2020-07-12T09:22:59Z</time>
      </trkpt>
      <trkpt lat="45.02808" lon="5.52949">
        <ele>1134.4000244141</ele>
        <time>2020-07-12T09:23:00Z</time>
      </trkpt>
      <trkpt lat="45.02807" lon="5.52949">
        <ele>1134.4000244141</ele>
        <time>2020-07-12T09:23:02Z</time>
      </trkpt>
      <trkpt lat="45.02807" lon="5.52949">
        <ele>1134.4000244141</ele>
        <time>2020-07-12T09:23:03Z</time>
      </trkpt>
      <trkpt lat="45.02807" lon="5.52949">
        <ele>1134.4000244141</ele>
        <time>2020-07-12T09:23:04Z</time>
      </trkpt>
      <trkpt lat="45.02807" lon="5.52949">
        <ele>1134.4000244141</ele>
        <time>2020-07-12T09:23:05Z</time>
      </trkpt>
      <trkpt lat="45.02807" lon="5.52949">
        <ele>1134.4000244141</ele>
        <time>2020-07-12T09:23:06Z</time>
      </trkpt>
      <trkpt lat="45.02807" lon="5.52949">
        <ele>1134.4000244141</ele>
        <time>2020-07-12T09:23:07Z</time>
      </trkpt>
      <trkpt lat="45.02807" lon="5.52949">
        <ele>1134.4000244141</ele>
        <time>2020-07-12T09:23:12Z</time>
      </trkpt>
      <trkpt lat="45.02807" lon="5.52949">
        <ele>1134.4000244141</ele>
        <time>2020-07-12T09:23:16Z</time>
      </trkpt>
      <trkpt lat="45.02807" lon="5.52949">
        <ele>1134.4000244141</ele>
        <time>2020-07-12T09:23:18Z</time>
      </trkpt>
      <trkpt lat="45.02807" lon="5.52949">
        <ele>1134.4000244141</ele>
        <time>2020-07-12T09:23:25Z</time>
      </trkpt>
      <trkpt lat="45.02807" lon="5.52948">
        <ele>1134.5999755859</ele>
        <time>2020-07-12T09:23:27Z</time>
      </trkpt>
      <trkpt lat="45.02806" lon="5.52949">
        <ele>1135.1999511719</ele>
        <time>2020-07-12T09:23:46Z</time>
      </trkpt>
      <trkpt lat="45.02806" lon="5.52949">
        <ele>1135.1999511719</ele>
        <time>2020-07-12T09:23:56Z</time>
      </trkpt>
      <trkpt lat="45.02806" lon="5.52948">
        <ele>1135.1999511719</ele>
        <time>2020-07-12T09:23:58Z</time>
      </trkpt>
      <trkpt lat="45.02804" lon="5.52944">
        <ele>1135.1999511719</ele>
        <time>2020-07-12T09:24:05Z</time>
      </trkpt>
      <trkpt lat="45.02804" lon="5.52944">
        <ele>1134.8000488281</ele>
        <time>2020-07-12T09:24:13Z</time>
      </trkpt>
      <trkpt lat="45.02805" lon="5.52945">
        <ele>1134.8000488281</ele>
        <time>2020-07-12T09:24:19Z</time>
      </trkpt>
      <trkpt lat="45.02805" lon="5.52945">
        <ele>1134.8000488281</ele>
        <time>2020-07-12T09:24:37Z</time>
      </trkpt>
      <trkpt lat="45.02805" lon="5.52945">
        <ele>1134.8000488281</ele>
        <time>2020-07-12T09:24:44Z</time>
      </trkpt>
      <trkpt lat="45.02805" lon="5.52945">
        <ele>1135</ele>
        <time>2020-07-12T09:24:49Z</time>
      </trkpt>
      <trkpt lat="45.02805" lon="5.52945">
        <ele>1134.8000488281</ele>
        <time>2020-07-12T09:25:08Z</time>
      </trkpt>
      <trkpt lat="45.02805" lon="5.52945">
        <ele>1134.8000488281</ele>
        <time>2020-07-12T09:25:20Z</time>
      </trkpt>
      <trkpt lat="45.02805" lon="5.52946">
        <ele>1134.5999755859</ele>
        <time>2020-07-12T09:25:34Z</time>
      </trkpt>
      <trkpt lat="45.02805" lon="5.52946">
        <ele>1134.5999755859</ele>
        <time>2020-07-12T09:25:35Z</time>
      </trkpt>
      <trkpt lat="45.02805" lon="5.52946">
        <ele>1134.5999755859</ele>
        <time>2020-07-12T09:25:36Z</time>
      </trkpt>
      <trkpt lat="45.02807" lon="5.52947">
        <ele>1134.4000244141</ele>
        <time>2020-07-12T09:26:23Z</time>
      </trkpt>
      <trkpt lat="45.02815" lon="5.52949">
        <ele>1134</ele>
        <time>2020-07-12T09:26:28Z</time>
      </trkpt>
      <trkpt lat="45.02819" lon="5.52943">
        <ele>1133.5999755859</ele>
        <time>2020-07-12T09:26:31Z</time>
      </trkpt>
      <trkpt lat="45.02832" lon="5.52921">
        <ele>1131.8000488281</ele>
        <time>2020-07-12T09:26:38Z</time>
      </trkpt>
      <trkpt lat="45.02836" lon="5.52919">
        <ele>1131.1999511719</ele>
        <time>2020-07-12T09:26:39Z</time>
      </trkpt>
      <trkpt lat="45.02847" lon="5.52908">
        <ele>1128.8000488281</ele>
        <time>2020-07-12T09:26:42Z</time>
      </trkpt>
      <trkpt lat="45.0285" lon="5.52903">
        <ele>1128.4000244141</ele>
        <time>2020-07-12T09:26:43Z</time>
      </trkpt>
      <trkpt lat="45.02856" lon="5.52891">
        <ele>1127.5999755859</ele>
        <time>2020-07-12T09:26:44Z</time>
      </trkpt>
      <trkpt lat="45.02856" lon="5.52891">
        <ele>1127.5999755859</ele>
        <time>2020-07-12T09:26:45Z</time>
      </trkpt>
      <trkpt lat="45.02858" lon="5.52885">
        <ele>1127.4000244141</ele>
        <time>2020-07-12T09:26:46Z</time>
      </trkpt>
      <trkpt lat="45.02864" lon="5.52875">
        <ele>1126.8000488281</ele>
        <time>2020-07-12T09:26:47Z</time>
      </trkpt>
      <trkpt lat="45.02864" lon="5.52875">
        <ele>1126.8000488281</ele>
        <time>2020-07-12T09:26:48Z</time>
      </trkpt>
      <trkpt lat="45.02869" lon="5.52867">
        <ele>1126</ele>
        <time>2020-07-12T09:26:50Z</time>
      </trkpt>
      <trkpt lat="45.02881" lon="5.52846">
        <ele>1124</ele>
        <time>2020-07-12T09:26:55Z</time>
      </trkpt>
      <trkpt lat="45.02884" lon="5.52838">
        <ele>1123</ele>
        <time>2020-07-12T09:26:57Z</time>
      </trkpt>
      <trkpt lat="45.02887" lon="5.52831">
        <ele>1122</ele>
        <time>2020-07-12T09:26:58Z</time>
      </trkpt>
      <trkpt lat="45.0289" lon="5.52823">
        <ele>1121</ele>
        <time>2020-07-12T09:27:01Z</time>
      </trkpt>
      <trkpt lat="45.02893" lon="5.52815">
        <ele>1119.5999755859</ele>
        <time>2020-07-12T09:27:02Z</time>
      </trkpt>
      <trkpt lat="45.02893" lon="5.52815">
        <ele>1119.5999755859</ele>
        <time>2020-07-12T09:27:03Z</time>
      </trkpt>
      <trkpt lat="45.02894" lon="5.52805">
        <ele>1117.8000488281</ele>
        <time>2020-07-12T09:27:05Z</time>
      </trkpt>
      <trkpt lat="45.02897" lon="5.52796">
        <ele>1116.5999755859</ele>
        <time>2020-07-12T09:27:06Z</time>
      </trkpt>
      <trkpt lat="45.02897" lon="5.52796">
        <ele>1116.5999755859</ele>
        <time>2020-07-12T09:27:07Z</time>
      </trkpt>
      <trkpt lat="45.02906" lon="5.52788">
        <ele>1114.8000488281</ele>
        <time>2020-07-12T09:27:10Z</time>
      </trkpt>
      <trkpt lat="45.02916" lon="5.52783">
        <ele>1112.8000488281</ele>
        <time>2020-07-12T09:27:13Z</time>
      </trkpt>
      <trkpt lat="45.02922" lon="5.52781">
        <ele>1111.8000488281</ele>
        <time>2020-07-12T09:27:15Z</time>
      </trkpt>
      <trkpt lat="45.02926" lon="5.5278">
        <ele>1111.4000244141</ele>
        <time>2020-07-12T09:27:16Z</time>
      </trkpt>
      <trkpt lat="45.02927" lon="5.52777">
        <ele>1110.5999755859</ele>
        <time>2020-07-12T09:27:19Z</time>
      </trkpt>
      <trkpt lat="45.02921" lon="5.52756">
        <ele>1111.8000488281</ele>
        <time>2020-07-12T09:27:26Z</time>
      </trkpt>
      <trkpt lat="45.0292" lon="5.52751">
        <ele>1112.1999511719</ele>
        <time>2020-07-12T09:27:28Z</time>
      </trkpt>
      <trkpt lat="45.02917" lon="5.52748">
        <ele>1112.5999755859</ele>
        <time>2020-07-12T09:27:29Z</time>
      </trkpt>
      <trkpt lat="45.02911" lon="5.52742">
        <ele>1112.5999755859</ele>
        <time>2020-07-12T09:27:34Z</time>
      </trkpt>
      <trkpt lat="45.02908" lon="5.52739">
        <ele>1112.8000488281</ele>
        <time>2020-07-12T09:27:35Z</time>
      </trkpt>
      <trkpt lat="45.02902" lon="5.52734">
        <ele>1113.5999755859</ele>
        <time>2020-07-12T09:27:40Z</time>
      </trkpt>
      <trkpt lat="45.0288" lon="5.5271">
        <ele>1115.4000244141</ele>
        <time>2020-07-12T09:27:56Z</time>
      </trkpt>
      <trkpt lat="45.0287" lon="5.52702">
        <ele>1114.5999755859</ele>
        <time>2020-07-12T09:28:00Z</time>
      </trkpt>
      <trkpt lat="45.02832" lon="5.52681">
        <ele>1113.1999511719</ele>
        <time>2020-07-12T09:28:16Z</time>
      </trkpt>
      <trkpt lat="45.02802" lon="5.52635">
        <ele>1114.4000244141</ele>
        <time>2020-07-12T09:28:37Z</time>
      </trkpt>
      <trkpt lat="45.02798" lon="5.52583">
        <ele>1115.8000488281</ele>
        <time>2020-07-12T09:28:53Z</time>
      </trkpt>
      <trkpt lat="45.02798" lon="5.52552">
        <ele>1116.5999755859</ele>
        <time>2020-07-12T09:29:04Z</time>
      </trkpt>
      <trkpt lat="45.02799" lon="5.52546">
        <ele>1116.5999755859</ele>
        <time>2020-07-12T09:29:05Z</time>
      </trkpt>
      <trkpt lat="45.02799" lon="5.52537">
        <ele>1117</ele>
        <time>2020-07-12T09:29:09Z</time>
      </trkpt>
      <trkpt lat="45.02798" lon="5.52529">
        <ele>1117.5999755859</ele>
        <time>2020-07-12T09:29:12Z</time>
      </trkpt>
      <trkpt lat="45.02797" lon="5.52518">
        <ele>1117.5999755859</ele>
        <time>2020-07-12T09:29:16Z</time>
      </trkpt>
      <trkpt lat="45.02797" lon="5.52512">
        <ele>1117.5999755859</ele>
        <time>2020-07-12T09:29:17Z</time>
      </trkpt>
      <trkpt lat="45.02787" lon="5.5245">
        <ele>1117.1999511719</ele>
        <time>2020-07-12T09:29:34Z</time>
      </trkpt>
      <trkpt lat="45.02778" lon="5.52432">
        <ele>1117.4000244141</ele>
        <time>2020-07-12T09:29:40Z</time>
      </trkpt>
      <trkpt lat="45.02759" lon="5.52384">
        <ele>1116.5999755859</ele>
        <time>2020-07-12T09:29:54Z</time>
      </trkpt>
      <trkpt lat="45.02749" lon="5.52361">
        <ele>1117.1999511719</ele>
        <time>2020-07-12T09:30:01Z</time>
      </trkpt>
      <trkpt lat="45.02734" lon="5.52323">
        <ele>1118.1999511719</ele>
        <time>2020-07-12T09:30:10Z</time>
      </trkpt>
      <trkpt lat="45.02719" lon="5.52282">
        <ele>1118.8000488281</ele>
        <time>2020-07-12T09:30:18Z</time>
      </trkpt>
      <trkpt lat="45.02714" lon="5.52265">
        <ele>1118.5999755859</ele>
        <time>2020-07-12T09:30:21Z</time>
      </trkpt>
      <trkpt lat="45.02694" lon="5.5222">
        <ele>1118.5999755859</ele>
        <time>2020-07-12T09:30:33Z</time>
      </trkpt>
      <trkpt lat="45.02679" lon="5.52219">
        <ele>1119.4000244141</ele>
        <time>2020-07-12T09:30:40Z</time>
      </trkpt>
      <trkpt lat="45.0264" lon="5.52184">
        <ele>1122.5999755859</ele>
        <time>2020-07-12T09:30:59Z</time>
      </trkpt>
      <trkpt lat="45.0261" lon="5.52147">
        <ele>1123</ele>
        <time>2020-07-12T09:31:13Z</time>
      </trkpt>
      <trkpt lat="45.0259" lon="5.52131">
        <ele>1123.4000244141</ele>
        <time>2020-07-12T09:31:20Z</time>
      </trkpt>
      <trkpt lat="45.02576" lon="5.52106">
        <ele>1124.1999511719</ele>
        <time>2020-07-12T09:31:28Z</time>
      </trkpt>
      <trkpt lat="45.02602" lon="5.52071">
        <ele>1123.1999511719</ele>
        <time>2020-07-12T09:31:42Z</time>
      </trkpt>
      <trkpt lat="45.02608" lon="5.52061">
        <ele>1122</ele>
        <time>2020-07-12T09:31:47Z</time>
      </trkpt>
      <trkpt lat="45.02604" lon="5.52043">
        <ele>1120.1999511719</ele>
        <time>2020-07-12T09:32:03Z</time>
      </trkpt>
      <trkpt lat="45.02604" lon="5.52043">
        <ele>1120.1999511719</ele>
        <time>2020-07-12T09:32:11Z</time>
      </trkpt>
      <trkpt lat="45.02604" lon="5.52043">
        <ele>1120.1999511719</ele>
        <time>2020-07-12T09:32:20Z</time>
      </trkpt>
      <trkpt lat="45.02604" lon="5.52043">
        <ele>1120.1999511719</ele>
        <time>2020-07-12T09:32:24Z</time>
      </trkpt>
      <trkpt lat="45.02604" lon="5.52043">
        <ele>1120.1999511719</ele>
        <time>2020-07-12T09:32:28Z</time>
      </trkpt>
      <trkpt lat="45.02604" lon="5.52043">
        <ele>1120.1999511719</ele>
        <time>2020-07-12T09:32:29Z</time>
      </trkpt>
      <trkpt lat="45.02604" lon="5.52043">
        <ele>1120.1999511719</ele>
        <time>2020-07-12T09:32:34Z</time>
      </trkpt>
      <trkpt lat="45.02604" lon="5.52043">
        <ele>1120.1999511719</ele>
        <time>2020-07-12T09:32:38Z</time>
      </trkpt>
      <trkpt lat="45.02604" lon="5.52043">
        <ele>1120.1999511719</ele>
        <time>2020-07-12T09:32:41Z</time>
      </trkpt>
      <trkpt lat="45.02603" lon="5.52041">
        <ele>1120.5999755859</ele>
        <time>2020-07-12T09:32:42Z</time>
      </trkpt>
      <trkpt lat="45.02601" lon="5.52039">
        <ele>1120.5999755859</ele>
        <time>2020-07-12T09:32:45Z</time>
      </trkpt>
      <trkpt lat="45.02598" lon="5.52031">
        <ele>1120.5999755859</ele>
        <time>2020-07-12T09:32:50Z</time>
      </trkpt>
      <trkpt lat="45.02596" lon="5.52028">
        <ele>1120.8000488281</ele>
        <time>2020-07-12T09:32:55Z</time>
      </trkpt>
      <trkpt lat="45.02595" lon="5.52026">
        <ele>1120.8000488281</ele>
        <time>2020-07-12T09:32:58Z</time>
      </trkpt>
      <trkpt lat="45.02584" lon="5.52012">
        <ele>1121</ele>
        <time>2020-07-12T09:33:16Z</time>
      </trkpt>
      <trkpt lat="45.02579" lon="5.52003">
        <ele>1121.5999755859</ele>
        <time>2020-07-12T09:33:25Z</time>
      </trkpt>
      <trkpt lat="45.02577" lon="5.52001">
        <ele>1121.5999755859</ele>
        <time>2020-07-12T09:33:27Z</time>
      </trkpt>
      <trkpt lat="45.02576" lon="5.52">
        <ele>1121.5999755859</ele>
        <time>2020-07-12T09:33:28Z</time>
      </trkpt>
      <trkpt lat="45.02576" lon="5.52">
        <ele>1121.5999755859</ele>
        <time>2020-07-12T09:33:29Z</time>
      </trkpt>
      <trkpt lat="45.02568" lon="5.51993">
        <ele>1122.1999511719</ele>
        <time>2020-07-12T09:33:37Z</time>
      </trkpt>
      <trkpt lat="45.02567" lon="5.51992">
        <ele>1122.4000244141</ele>
        <time>2020-07-12T09:33:38Z</time>
      </trkpt>
      <trkpt lat="45.02567" lon="5.51992">
        <ele>1122.4000244141</ele>
        <time>2020-07-12T09:33:39Z</time>
      </trkpt>
      <trkpt lat="45.02565" lon="5.5199">
        <ele>1122.4000244141</ele>
        <time>2020-07-12T09:33:41Z</time>
      </trkpt>
      <trkpt lat="45.02563" lon="5.51989">
        <ele>1122.5999755859</ele>
        <time>2020-07-12T09:33:42Z</time>
      </trkpt>
      <trkpt lat="45.02562" lon="5.51988">
        <ele>1122.5999755859</ele>
        <time>2020-07-12T09:33:44Z</time>
      </trkpt>
      <trkpt lat="45.02561" lon="5.51987">
        <ele>1122.5999755859</ele>
        <time>2020-07-12T09:33:45Z</time>
      </trkpt>
      <trkpt lat="45.02557" lon="5.51984">
        <ele>1123</ele>
        <time>2020-07-12T09:33:52Z</time>
      </trkpt>
      <trkpt lat="45.02553" lon="5.51978">
        <ele>1123.4000244141</ele>
        <time>2020-07-12T09:33:59Z</time>
      </trkpt>
      <trkpt lat="45.02552" lon="5.51978">
        <ele>1123.4000244141</ele>
        <time>2020-07-12T09:34:00Z</time>
      </trkpt>
      <trkpt lat="45.02551" lon="5.51977">
        <ele>1123.4000244141</ele>
        <time>2020-07-12T09:34:01Z</time>
      </trkpt>
      <trkpt lat="45.02539" lon="5.5197">
        <ele>1124.4000244141</ele>
        <time>2020-07-12T09:34:25Z</time>
      </trkpt>
      <trkpt lat="45.02539" lon="5.51969">
        <ele>1124.4000244141</ele>
        <time>2020-07-12T09:34:26Z</time>
      </trkpt>
      <trkpt lat="45.02538" lon="5.51969">
        <ele>1124.1999511719</ele>
        <time>2020-07-12T09:34:28Z</time>
      </trkpt>
      <trkpt lat="45.02534" lon="5.51965">
        <ele>1124.1999511719</ele>
        <time>2020-07-12T09:34:31Z</time>
      </trkpt>
      <trkpt lat="45.02516" lon="5.51936">
        <ele>1124.1999511719</ele>
        <time>2020-07-12T09:34:45Z</time>
      </trkpt>
      <trkpt lat="45.02515" lon="5.51932">
        <ele>1124.1999511719</ele>
        <time>2020-07-12T09:34:46Z</time>
      </trkpt>
      <trkpt lat="45.02515" lon="5.51932">
        <ele>1124.1999511719</ele>
        <time>2020-07-12T09:34:47Z</time>
      </trkpt>
      <trkpt lat="45.02514" lon="5.51931">
        <ele>1124.1999511719</ele>
        <time>2020-07-12T09:34:49Z</time>
      </trkpt>
      <trkpt lat="45.02513" lon="5.51926">
        <ele>1124.4000244141</ele>
        <time>2020-07-12T09:34:55Z</time>
      </trkpt>
      <trkpt lat="45.02511" lon="5.51921">
        <ele>1124.5999755859</ele>
        <time>2020-07-12T09:35:00Z</time>
      </trkpt>
      <trkpt lat="45.02508" lon="5.51917">
        <ele>1124.5999755859</ele>
        <time>2020-07-12T09:35:05Z</time>
      </trkpt>
      <trkpt lat="45.02508" lon="5.51916">
        <ele>1124.5999755859</ele>
        <time>2020-07-12T09:35:06Z</time>
      </trkpt>
      <trkpt lat="45.02508" lon="5.51914">
        <ele>1124.5999755859</ele>
        <time>2020-07-12T09:35:07Z</time>
      </trkpt>
      <trkpt lat="45.02507" lon="5.51909">
        <ele>1124.8000488281</ele>
        <time>2020-07-12T09:35:10Z</time>
      </trkpt>
      <trkpt lat="45.02505" lon="5.519">
        <ele>1125.4000244141</ele>
        <time>2020-07-12T09:35:28Z</time>
      </trkpt>
      <trkpt lat="45.02504" lon="5.51896">
        <ele>1125.5999755859</ele>
        <time>2020-07-12T09:35:29Z</time>
      </trkpt>
      <trkpt lat="45.02469" lon="5.51862">
        <ele>1129.1999511719</ele>
        <time>2020-07-12T09:35:58Z</time>
      </trkpt>
      <trkpt lat="45.02461" lon="5.51862">
        <ele>1130.4000244141</ele>
        <time>2020-07-12T09:36:26Z</time>
      </trkpt>
      <trkpt lat="45.02461" lon="5.51862">
        <ele>1130.4000244141</ele>
        <time>2020-07-12T09:36:29Z</time>
      </trkpt>
      <trkpt lat="45.02461" lon="5.51862">
        <ele>1131.5999755859</ele>
        <time>2020-07-12T09:36:34Z</time>
      </trkpt>
      <trkpt lat="45.02461" lon="5.5186">
        <ele>1131.1999511719</ele>
        <time>2020-07-12T09:36:38Z</time>
      </trkpt>
      <trkpt lat="45.0246" lon="5.51858">
        <ele>1131.1999511719</ele>
        <time>2020-07-12T09:36:39Z</time>
      </trkpt>
      <trkpt lat="45.02455" lon="5.51847">
        <ele>1130.8000488281</ele>
        <time>2020-07-12T09:36:43Z</time>
      </trkpt>
      <trkpt lat="45.02452" lon="5.51833">
        <ele>1130.1999511719</ele>
        <time>2020-07-12T09:36:47Z</time>
      </trkpt>
      <trkpt lat="45.0245" lon="5.51825">
        <ele>1129.8000488281</ele>
        <time>2020-07-12T09:36:48Z</time>
      </trkpt>
      <trkpt lat="45.02444" lon="5.51809">
        <ele>1129.4000244141</ele>
        <time>2020-07-12T09:36:53Z</time>
      </trkpt>
      <trkpt lat="45.02438" lon="5.51791">
        <ele>1129.4000244141</ele>
        <time>2020-07-12T09:36:58Z</time>
      </trkpt>
      <trkpt lat="45.02422" lon="5.51773">
        <ele>1131</ele>
        <time>2020-07-12T09:37:07Z</time>
      </trkpt>
      <trkpt lat="45.02416" lon="5.51769">
        <ele>1132.5999755859</ele>
        <time>2020-07-12T09:37:10Z</time>
      </trkpt>
      <trkpt lat="45.02414" lon="5.51768">
        <ele>1133</ele>
        <time>2020-07-12T09:37:11Z</time>
      </trkpt>
      <trkpt lat="45.0241" lon="5.51766">
        <ele>1133.8000488281</ele>
        <time>2020-07-12T09:37:12Z</time>
      </trkpt>
      <trkpt lat="45.0241" lon="5.51766">
        <ele>1133.8000488281</ele>
        <time>2020-07-12T09:37:13Z</time>
      </trkpt>
      <trkpt lat="45.02409" lon="5.51765">
        <ele>1134</ele>
        <time>2020-07-12T09:37:14Z</time>
      </trkpt>
      <trkpt lat="45.02394" lon="5.5176">
        <ele>1134.8000488281</ele>
        <time>2020-07-12T09:37:21Z</time>
      </trkpt>
      <trkpt lat="45.02392" lon="5.5176">
        <ele>1135</ele>
        <time>2020-07-12T09:37:22Z</time>
      </trkpt>
      <trkpt lat="45.02388" lon="5.51759">
        <ele>1135.4000244141</ele>
        <time>2020-07-12T09:37:23Z</time>
      </trkpt>
      <trkpt lat="45.02388" lon="5.51759">
        <ele>1135.4000244141</ele>
        <time>2020-07-12T09:37:24Z</time>
      </trkpt>
      <trkpt lat="45.02386" lon="5.51758">
        <ele>1135.5999755859</ele>
        <time>2020-07-12T09:37:25Z</time>
      </trkpt>
      <trkpt lat="45.02378" lon="5.51756">
        <ele>1137.1999511719</ele>
        <time>2020-07-12T09:37:29Z</time>
      </trkpt>
      <trkpt lat="45.02374" lon="5.51755">
        <ele>1137.5999755859</ele>
        <time>2020-07-12T09:37:31Z</time>
      </trkpt>
      <trkpt lat="45.0237" lon="5.51755">
        <ele>1138.1999511719</ele>
        <time>2020-07-12T09:37:32Z</time>
      </trkpt>
      <trkpt lat="45.02367" lon="5.51755">
        <ele>1138.5999755859</ele>
        <time>2020-07-12T09:37:34Z</time>
      </trkpt>
      <trkpt lat="45.02363" lon="5.51754">
        <ele>1139.1999511719</ele>
        <time>2020-07-12T09:37:35Z</time>
      </trkpt>
      <trkpt lat="45.02363" lon="5.51754">
        <ele>1139.1999511719</ele>
        <time>2020-07-12T09:37:36Z</time>
      </trkpt>
      <trkpt lat="45.02354" lon="5.51751">
        <ele>1140.1999511719</ele>
        <time>2020-07-12T09:37:41Z</time>
      </trkpt>
      <trkpt lat="45.02351" lon="5.5175">
        <ele>1140.8000488281</ele>
        <time>2020-07-12T09:37:42Z</time>
      </trkpt>
      <trkpt lat="45.02344" lon="5.51747">
        <ele>1141.1999511719</ele>
        <time>2020-07-12T09:37:47Z</time>
      </trkpt>
      <trkpt lat="45.02341" lon="5.51746">
        <ele>1141.5999755859</ele>
        <time>2020-07-12T09:37:48Z</time>
      </trkpt>
      <trkpt lat="45.02333" lon="5.51738">
        <ele>1142.1999511719</ele>
        <time>2020-07-12T09:37:55Z</time>
      </trkpt>
      <trkpt lat="45.02329" lon="5.51731">
        <ele>1143</ele>
        <time>2020-07-12T09:37:59Z</time>
      </trkpt>
      <trkpt lat="45.02327" lon="5.51725">
        <ele>1143.5999755859</ele>
        <time>2020-07-12T09:38:02Z</time>
      </trkpt>
      <trkpt lat="45.02325" lon="5.51721">
        <ele>1144</ele>
        <time>2020-07-12T09:38:03Z</time>
      </trkpt>
      <trkpt lat="45.02325" lon="5.51721">
        <ele>1144</ele>
        <time>2020-07-12T09:38:04Z</time>
      </trkpt>
      <trkpt lat="45.02324" lon="5.51719">
        <ele>1144.1999511719</ele>
        <time>2020-07-12T09:38:05Z</time>
      </trkpt>
      <trkpt lat="45.02322" lon="5.51706">
        <ele>1146.4000244141</ele>
        <time>2020-07-12T09:38:11Z</time>
      </trkpt>
      <trkpt lat="45.02323" lon="5.51702">
        <ele>1147.1999511719</ele>
        <time>2020-07-12T09:38:13Z</time>
      </trkpt>
      <trkpt lat="45.02323" lon="5.51699">
        <ele>1147.8000488281</ele>
        <time>2020-07-12T09:38:14Z</time>
      </trkpt>
      <trkpt lat="45.02323" lon="5.51699">
        <ele>1147.8000488281</ele>
        <time>2020-07-12T09:38:15Z</time>
      </trkpt>
      <trkpt lat="45.02328" lon="5.51682">
        <ele>1151.5999755859</ele>
        <time>2020-07-12T09:38:26Z</time>
      </trkpt>
      <trkpt lat="45.02341" lon="5.51669">
        <ele>1155.1999511719</ele>
        <time>2020-07-12T09:38:39Z</time>
      </trkpt>
      <trkpt lat="45.02345" lon="5.51669">
        <ele>1156.1999511719</ele>
        <time>2020-07-12T09:38:43Z</time>
      </trkpt>
      <trkpt lat="45.02354" lon="5.51667">
        <ele>1156.4000244141</ele>
        <time>2020-07-12T09:38:48Z</time>
      </trkpt>
      <trkpt lat="45.02369" lon="5.51648">
        <ele>1156.5999755859</ele>
        <time>2020-07-12T09:39:00Z</time>
      </trkpt>
      <trkpt lat="45.02364" lon="5.51633">
        <ele>1157.8000488281</ele>
        <time>2020-07-12T09:39:08Z</time>
      </trkpt>
      <trkpt lat="45.02374" lon="5.51611">
        <ele>1159.8000488281</ele>
        <time>2020-07-12T09:39:24Z</time>
      </trkpt>
      <trkpt lat="45.02376" lon="5.51603">
        <ele>1160.8000488281</ele>
        <time>2020-07-12T09:39:29Z</time>
      </trkpt>
      <trkpt lat="45.02376" lon="5.51596">
        <ele>1161.4000244141</ele>
        <time>2020-07-12T09:39:33Z</time>
      </trkpt>
      <trkpt lat="45.02377" lon="5.51593">
        <ele>1161.8000488281</ele>
        <time>2020-07-12T09:39:52Z</time>
      </trkpt>
      <trkpt lat="45.02381" lon="5.51594">
        <ele>1162.1999511719</ele>
        <time>2020-07-12T09:39:55Z</time>
      </trkpt>
      <trkpt lat="45.02395" lon="5.51591">
        <ele>1164.5999755859</ele>
        <time>2020-07-12T09:40:05Z</time>
      </trkpt>
      <trkpt lat="45.024" lon="5.51591">
        <ele>1164.5999755859</ele>
        <time>2020-07-12T09:40:12Z</time>
      </trkpt>
      <trkpt lat="45.02408" lon="5.51593">
        <ele>1165.1999511719</ele>
        <time>2020-07-12T09:40:22Z</time>
      </trkpt>
      <trkpt lat="45.02415" lon="5.51591">
        <ele>1165.5999755859</ele>
        <time>2020-07-12T09:40:28Z</time>
      </trkpt>
      <trkpt lat="45.02417" lon="5.5159">
        <ele>1165.5999755859</ele>
        <time>2020-07-12T09:40:29Z</time>
      </trkpt>
      <trkpt lat="45.02421" lon="5.51587">
        <ele>1165.8000488281</ele>
        <time>2020-07-12T09:40:30Z</time>
      </trkpt>
      <trkpt lat="45.02439" lon="5.51575">
        <ele>1166</ele>
        <time>2020-07-12T09:40:41Z</time>
      </trkpt>
      <trkpt lat="45.02446" lon="5.51571">
        <ele>1166.4000244141</ele>
        <time>2020-07-12T09:40:45Z</time>
      </trkpt>
      <trkpt lat="45.0245" lon="5.51569">
        <ele>1166.5999755859</ele>
        <time>2020-07-12T09:40:48Z</time>
      </trkpt>
      <trkpt lat="45.02474" lon="5.51561">
        <ele>1169.8000488281</ele>
        <time>2020-07-12T09:41:01Z</time>
      </trkpt>
      <trkpt lat="45.02489" lon="5.51557">
        <ele>1171.1999511719</ele>
        <time>2020-07-12T09:41:10Z</time>
      </trkpt>
      <trkpt lat="45.02525" lon="5.5155">
        <ele>1176.4000244141</ele>
        <time>2020-07-12T09:41:32Z</time>
      </trkpt>
      <trkpt lat="45.02528" lon="5.5155">
        <ele>1177</ele>
        <time>2020-07-12T09:41:33Z</time>
      </trkpt>
      <trkpt lat="45.02531" lon="5.51549">
        <ele>1177.5999755859</ele>
        <time>2020-07-12T09:41:36Z</time>
      </trkpt>
      <trkpt lat="45.02538" lon="5.51547">
        <ele>1179</ele>
        <time>2020-07-12T09:41:41Z</time>
      </trkpt>
      <trkpt lat="45.02541" lon="5.51546">
        <ele>1179.1999511719</ele>
        <time>2020-07-12T09:41:43Z</time>
      </trkpt>
      <trkpt lat="45.02573" lon="5.51532">
        <ele>1181.5999755859</ele>
        <time>2020-07-12T09:42:03Z</time>
      </trkpt>
      <trkpt lat="45.02601" lon="5.51522">
        <ele>1183.8000488281</ele>
        <time>2020-07-12T09:42:18Z</time>
      </trkpt>
      <trkpt lat="45.02607" lon="5.5152">
        <ele>1185</ele>
        <time>2020-07-12T09:42:22Z</time>
      </trkpt>
      <trkpt lat="45.02613" lon="5.51517">
        <ele>1186</ele>
        <time>2020-07-12T09:42:27Z</time>
      </trkpt>
      <trkpt lat="45.02635" lon="5.51511">
        <ele>1188.4000244141</ele>
        <time>2020-07-12T09:42:42Z</time>
      </trkpt>
      <trkpt lat="45.02643" lon="5.5151">
        <ele>1188.8000488281</ele>
        <time>2020-07-12T09:42:46Z</time>
      </trkpt>
      <trkpt lat="45.02656" lon="5.51503">
        <ele>1188.1999511719</ele>
        <time>2020-07-12T09:42:52Z</time>
      </trkpt>
      <trkpt lat="45.0266" lon="5.51501">
        <ele>1188.4000244141</ele>
        <time>2020-07-12T09:42:53Z</time>
      </trkpt>
      <trkpt lat="45.02664" lon="5.51497">
        <ele>1188.4000244141</ele>
        <time>2020-07-12T09:42:57Z</time>
      </trkpt>
      <trkpt lat="45.02667" lon="5.51493">
        <ele>1188.5999755859</ele>
        <time>2020-07-12T09:42:58Z</time>
      </trkpt>
      <trkpt lat="45.02667" lon="5.51493">
        <ele>1188.5999755859</ele>
        <time>2020-07-12T09:42:59Z</time>
      </trkpt>
      <trkpt lat="45.0267" lon="5.5149">
        <ele>1189</ele>
        <time>2020-07-12T09:43:01Z</time>
      </trkpt>
      <trkpt lat="45.02675" lon="5.51484">
        <ele>1189.5999755859</ele>
        <time>2020-07-12T09:43:05Z</time>
      </trkpt>
      <trkpt lat="45.0268" lon="5.51473">
        <ele>1190.4000244141</ele>
        <time>2020-07-12T09:43:11Z</time>
      </trkpt>
      <trkpt lat="45.02682" lon="5.51469">
        <ele>1190.4000244141</ele>
        <time>2020-07-12T09:43:12Z</time>
      </trkpt>
      <trkpt lat="45.02682" lon="5.51469">
        <ele>1190.4000244141</ele>
        <time>2020-07-12T09:43:13Z</time>
      </trkpt>
      <trkpt lat="45.02684" lon="5.51464">
        <ele>1190.8000488281</ele>
        <time>2020-07-12T09:43:15Z</time>
      </trkpt>
      <trkpt lat="45.02688" lon="5.51451">
        <ele>1191.4000244141</ele>
        <time>2020-07-12T09:43:21Z</time>
      </trkpt>
      <trkpt lat="45.02697" lon="5.51434">
        <ele>1192.5999755859</ele>
        <time>2020-07-12T09:43:30Z</time>
      </trkpt>
      <trkpt lat="45.027" lon="5.51431">
        <ele>1192.8000488281</ele>
        <time>2020-07-12T09:43:31Z</time>
      </trkpt>
      <trkpt lat="45.027" lon="5.51431">
        <ele>1192.8000488281</ele>
        <time>2020-07-12T09:43:32Z</time>
      </trkpt>
      <trkpt lat="45.02701" lon="5.51429">
        <ele>1192.8000488281</ele>
        <time>2020-07-12T09:43:33Z</time>
      </trkpt>
      <trkpt lat="45.02703" lon="5.51426">
        <ele>1193</ele>
        <time>2020-07-12T09:43:34Z</time>
      </trkpt>
      <trkpt lat="45.02703" lon="5.51426">
        <ele>1193</ele>
        <time>2020-07-12T09:43:35Z</time>
      </trkpt>
      <trkpt lat="45.02704" lon="5.51425">
        <ele>1193</ele>
        <time>2020-07-12T09:43:36Z</time>
      </trkpt>
      <trkpt lat="45.02711" lon="5.5141">
        <ele>1194</ele>
        <time>2020-07-12T09:43:46Z</time>
      </trkpt>
      <trkpt lat="45.02715" lon="5.51404">
        <ele>1194.4000244141</ele>
        <time>2020-07-12T09:43:51Z</time>
      </trkpt>
      <trkpt lat="45.02722" lon="5.51394">
        <ele>1194.8000488281</ele>
        <time>2020-07-12T09:43:57Z</time>
      </trkpt>
      <trkpt lat="45.02728" lon="5.51386">
        <ele>1195</ele>
        <time>2020-07-12T09:44:01Z</time>
      </trkpt>
      <trkpt lat="45.02732" lon="5.51379">
        <ele>1195.4000244141</ele>
        <time>2020-07-12T09:44:05Z</time>
      </trkpt>
      <trkpt lat="45.02736" lon="5.51375">
        <ele>1195.4000244141</ele>
        <time>2020-07-12T09:44:08Z</time>
      </trkpt>
      <trkpt lat="45.02738" lon="5.51371">
        <ele>1195.4000244141</ele>
        <time>2020-07-12T09:44:10Z</time>
      </trkpt>
      <trkpt lat="45.02742" lon="5.51363">
        <ele>1195.8000488281</ele>
        <time>2020-07-12T09:44:15Z</time>
      </trkpt>
      <trkpt lat="45.02746" lon="5.51357">
        <ele>1196.1999511719</ele>
        <time>2020-07-12T09:44:19Z</time>
      </trkpt>
      <trkpt lat="45.02747" lon="5.51356">
        <ele>1196.1999511719</ele>
        <time>2020-07-12T09:44:20Z</time>
      </trkpt>
      <trkpt lat="45.02755" lon="5.51346">
        <ele>1196.5999755859</ele>
        <time>2020-07-12T09:44:28Z</time>
      </trkpt>
      <trkpt lat="45.02762" lon="5.51337">
        <ele>1197</ele>
        <time>2020-07-12T09:44:35Z</time>
      </trkpt>
      <trkpt lat="45.02783" lon="5.51309">
        <ele>1196.8000488281</ele>
        <time>2020-07-12T09:44:45Z</time>
      </trkpt>
      <trkpt lat="45.02792" lon="5.51295">
        <ele>1196.1999511719</ele>
        <time>2020-07-12T09:44:48Z</time>
      </trkpt>
      <trkpt lat="45.02811" lon="5.51254">
        <ele>1195.4000244141</ele>
        <time>2020-07-12T09:44:59Z</time>
      </trkpt>
      <trkpt lat="45.02813" lon="5.51243">
        <ele>1194.8000488281</ele>
        <time>2020-07-12T09:45:02Z</time>
      </trkpt>
      <trkpt lat="45.02826" lon="5.51206">
        <ele>1192.5999755859</ele>
        <time>2020-07-12T09:45:14Z</time>
      </trkpt>
      <trkpt lat="45.0284" lon="5.51188">
        <ele>1191.1999511719</ele>
        <time>2020-07-12T09:45:22Z</time>
      </trkpt>
      <trkpt lat="45.02843" lon="5.51187">
        <ele>1191</ele>
        <time>2020-07-12T09:45:23Z</time>
      </trkpt>
      <trkpt lat="45.02851" lon="5.51182">
        <ele>1190.5999755859</ele>
        <time>2020-07-12T09:45:26Z</time>
      </trkpt>
      <trkpt lat="45.02859" lon="5.51179">
        <ele>1190</ele>
        <time>2020-07-12T09:45:29Z</time>
      </trkpt>
      <trkpt lat="45.02871" lon="5.51173">
        <ele>1189.8000488281</ele>
        <time>2020-07-12T09:45:34Z</time>
      </trkpt>
      <trkpt lat="45.02875" lon="5.51171">
        <ele>1189.5999755859</ele>
        <time>2020-07-12T09:45:36Z</time>
      </trkpt>
      <trkpt lat="45.02879" lon="5.51167">
        <ele>1189.5999755859</ele>
        <time>2020-07-12T09:45:38Z</time>
      </trkpt>
      <trkpt lat="45.02883" lon="5.51164">
        <ele>1189.8000488281</ele>
        <time>2020-07-12T09:45:40Z</time>
      </trkpt>
      <trkpt lat="45.02915" lon="5.51147">
        <ele>1188.4000244141</ele>
        <time>2020-07-12T09:45:56Z</time>
      </trkpt>
      <trkpt lat="45.0292" lon="5.51143">
        <ele>1188</ele>
        <time>2020-07-12T09:45:58Z</time>
      </trkpt>
      <trkpt lat="45.02938" lon="5.51125">
        <ele>1187.1999511719</ele>
        <time>2020-07-12T09:46:06Z</time>
      </trkpt>
      <trkpt lat="45.02942" lon="5.51119">
        <ele>1187.4000244141</ele>
        <time>2020-07-12T09:46:08Z</time>
      </trkpt>
      <trkpt lat="45.02953" lon="5.51103">
        <ele>1188.1999511719</ele>
        <time>2020-07-12T09:46:14Z</time>
      </trkpt>
      <trkpt lat="45.02978" lon="5.51047">
        <ele>1190.5999755859</ele>
        <time>2020-07-12T09:46:34Z</time>
      </trkpt>
      <trkpt lat="45.02991" lon="5.50998">
        <ele>1191.8000488281</ele>
        <time>2020-07-12T09:46:47Z</time>
      </trkpt>
      <trkpt lat="45.02994" lon="5.5099">
        <ele>1192</ele>
        <time>2020-07-12T09:46:49Z</time>
      </trkpt>
      <trkpt lat="45.02995" lon="5.50985">
        <ele>1192.1999511719</ele>
        <time>2020-07-12T09:46:50Z</time>
      </trkpt>
      <trkpt lat="45.02997" lon="5.5098">
        <ele>1192.4000244141</ele>
        <time>2020-07-12T09:46:51Z</time>
      </trkpt>
      <trkpt lat="45.03011" lon="5.50955">
        <ele>1192.4000244141</ele>
        <time>2020-07-12T09:46:58Z</time>
      </trkpt>
      <trkpt lat="45.03033" lon="5.50944">
        <ele>1195</ele>
        <time>2020-07-12T09:47:09Z</time>
      </trkpt>
      <trkpt lat="45.03043" lon="5.50938">
        <ele>1196.1999511719</ele>
        <time>2020-07-12T09:47:14Z</time>
      </trkpt>
      <trkpt lat="45.03049" lon="5.50933">
        <ele>1196.8000488281</ele>
        <time>2020-07-12T09:47:17Z</time>
      </trkpt>
      <trkpt lat="45.03053" lon="5.50929">
        <ele>1197.5999755859</ele>
        <time>2020-07-12T09:47:19Z</time>
      </trkpt>
      <trkpt lat="45.03056" lon="5.50925">
        <ele>1198.4000244141</ele>
        <time>2020-07-12T09:47:21Z</time>
      </trkpt>
      <trkpt lat="45.03057" lon="5.50923">
        <ele>1198.8000488281</ele>
        <time>2020-07-12T09:47:22Z</time>
      </trkpt>
      <trkpt lat="45.0306" lon="5.5092">
        <ele>1199.4000244141</ele>
        <time>2020-07-12T09:47:24Z</time>
      </trkpt>
      <trkpt lat="45.03064" lon="5.50912">
        <ele>1200.5999755859</ele>
        <time>2020-07-12T09:47:28Z</time>
      </trkpt>
      <trkpt lat="45.03067" lon="5.50909">
        <ele>1201</ele>
        <time>2020-07-12T09:47:30Z</time>
      </trkpt>
      <trkpt lat="45.0307" lon="5.50906">
        <ele>1201.4000244141</ele>
        <time>2020-07-12T09:47:32Z</time>
      </trkpt>
      <trkpt lat="45.03077" lon="5.509">
        <ele>1201.4000244141</ele>
        <time>2020-07-12T09:47:36Z</time>
      </trkpt>
      <trkpt lat="45.03095" lon="5.50881">
        <ele>1205.4000244141</ele>
        <time>2020-07-12T09:47:48Z</time>
      </trkpt>
      <trkpt lat="45.0313" lon="5.50853">
        <ele>1208.1999511719</ele>
        <time>2020-07-12T09:48:10Z</time>
      </trkpt>
      <trkpt lat="45.03157" lon="5.50858">
        <ele>1209</ele>
        <time>2020-07-12T09:48:23Z</time>
      </trkpt>
      <trkpt lat="45.03161" lon="5.50854">
        <ele>1210.4000244141</ele>
        <time>2020-07-12T09:48:29Z</time>
      </trkpt>
      <trkpt lat="45.03161" lon="5.50853">
        <ele>1210.8000488281</ele>
        <time>2020-07-12T09:49:03Z</time>
      </trkpt>
      <trkpt lat="45.03161" lon="5.50853">
        <ele>1210.8000488281</ele>
        <time>2020-07-12T09:49:19Z</time>
      </trkpt>
      <trkpt lat="45.03161" lon="5.50853">
        <ele>1210.8000488281</ele>
        <time>2020-07-12T09:49:51Z</time>
      </trkpt>
      <trkpt lat="45.03176" lon="5.50864">
        <ele>1206.8000488281</ele>
        <time>2020-07-12T10:02:26Z</time>
      </trkpt>
      <trkpt lat="45.03172" lon="5.50847">
        <ele>1215</ele>
        <time>2020-07-12T10:02:27Z</time>
      </trkpt>
      <trkpt lat="45.03173" lon="5.50847">
        <ele>1216.8000488281</ele>
        <time>2020-07-12T10:02:29Z</time>
      </trkpt>
      <trkpt lat="45.03175" lon="5.50843">
        <ele>1219.4000244141</ele>
        <time>2020-07-12T10:02:31Z</time>
      </trkpt>
      <trkpt lat="45.03176" lon="5.50836">
        <ele>1221.4000244141</ele>
        <time>2020-07-12T10:02:34Z</time>
      </trkpt>
      <trkpt lat="45.03177" lon="5.50833">
        <ele>1221.1999511719</ele>
        <time>2020-07-12T10:02:35Z</time>
      </trkpt>
      <trkpt lat="45.03178" lon="5.5083">
        <ele>1221</ele>
        <time>2020-07-12T10:02:36Z</time>
      </trkpt>
      <trkpt lat="45.03179" lon="5.50827">
        <ele>1221</ele>
        <time>2020-07-12T10:02:37Z</time>
      </trkpt>
      <trkpt lat="45.03181" lon="5.50817">
        <ele>1219.8000488281</ele>
        <time>2020-07-12T10:02:40Z</time>
      </trkpt>
      <trkpt lat="45.03183" lon="5.50813">
        <ele>1219.1999511719</ele>
        <time>2020-07-12T10:02:41Z</time>
      </trkpt>
      <trkpt lat="45.03184" lon="5.5081">
        <ele>1218.8000488281</ele>
        <time>2020-07-12T10:02:42Z</time>
      </trkpt>
      <trkpt lat="45.03186" lon="5.50803">
        <ele>1218</ele>
        <time>2020-07-12T10:02:44Z</time>
      </trkpt>
      <trkpt lat="45.03189" lon="5.50796">
        <ele>1216.5999755859</ele>
        <time>2020-07-12T10:02:46Z</time>
      </trkpt>
      <trkpt lat="45.03196" lon="5.50786">
        <ele>1214.5999755859</ele>
        <time>2020-07-12T10:02:49Z</time>
      </trkpt>
      <trkpt lat="45.032" lon="5.50782">
        <ele>1213.8000488281</ele>
        <time>2020-07-12T10:02:50Z</time>
      </trkpt>
      <trkpt lat="45.03204" lon="5.50779">
        <ele>1213.1999511719</ele>
        <time>2020-07-12T10:02:51Z</time>
      </trkpt>
      <trkpt lat="45.03212" lon="5.50773">
        <ele>1212.1999511719</ele>
        <time>2020-07-12T10:02:53Z</time>
      </trkpt>
      <trkpt lat="45.03237" lon="5.50763">
        <ele>1212.5999755859</ele>
        <time>2020-07-12T10:03:06Z</time>
      </trkpt>
      <trkpt lat="45.03244" lon="5.50762">
        <ele>1213</ele>
        <time>2020-07-12T10:03:10Z</time>
      </trkpt>
      <trkpt lat="45.03251" lon="5.50761">
        <ele>1212.4000244141</ele>
        <time>2020-07-12T10:03:14Z</time>
      </trkpt>
      <trkpt lat="45.03252" lon="5.50762">
        <ele>1212.1999511719</ele>
        <time>2020-07-12T10:03:15Z</time>
      </trkpt>
      <trkpt lat="45.03262" lon="5.5076">
        <ele>1214.4000244141</ele>
        <time>2020-07-12T10:03:21Z</time>
      </trkpt>
      <trkpt lat="45.03263" lon="5.5076">
        <ele>1214.1999511719</ele>
        <time>2020-07-12T10:03:22Z</time>
      </trkpt>
      <trkpt lat="45.03277" lon="5.50766">
        <ele>1214.8000488281</ele>
        <time>2020-07-12T10:03:30Z</time>
      </trkpt>
      <trkpt lat="45.03285" lon="5.50771">
        <ele>1214</ele>
        <time>2020-07-12T10:03:32Z</time>
      </trkpt>
      <trkpt lat="45.03308" lon="5.50779">
        <ele>1211</ele>
        <time>2020-07-12T10:03:37Z</time>
      </trkpt>
      <trkpt lat="45.03354" lon="5.50772">
        <ele>1202.4000244141</ele>
        <time>2020-07-12T10:03:54Z</time>
      </trkpt>
      <trkpt lat="45.03401" lon="5.50756">
        <ele>1203.8000488281</ele>
        <time>2020-07-12T10:04:13Z</time>
      </trkpt>
      <trkpt lat="45.03418" lon="5.5076">
        <ele>1202.1999511719</ele>
        <time>2020-07-12T10:04:19Z</time>
      </trkpt>
      <trkpt lat="45.03429" lon="5.50769">
        <ele>1201.1999511719</ele>
        <time>2020-07-12T10:04:24Z</time>
      </trkpt>
      <trkpt lat="45.03437" lon="5.50776">
        <ele>1200</ele>
        <time>2020-07-12T10:04:28Z</time>
      </trkpt>
      <trkpt lat="45.03449" lon="5.50794">
        <ele>1198.4000244141</ele>
        <time>2020-07-12T10:04:32Z</time>
      </trkpt>
      <trkpt lat="45.03458" lon="5.50801">
        <ele>1197.4000244141</ele>
        <time>2020-07-12T10:04:34Z</time>
      </trkpt>
      <trkpt lat="45.03462" lon="5.50803">
        <ele>1196.5999755859</ele>
        <time>2020-07-12T10:04:35Z</time>
      </trkpt>
      <trkpt lat="45.03466" lon="5.50804">
        <ele>1196.1999511719</ele>
        <time>2020-07-12T10:04:36Z</time>
      </trkpt>
      <trkpt lat="45.03471" lon="5.50803">
        <ele>1195.5999755859</ele>
        <time>2020-07-12T10:04:37Z</time>
      </trkpt>
      <trkpt lat="45.03475" lon="5.50803">
        <ele>1195</ele>
        <time>2020-07-12T10:04:38Z</time>
      </trkpt>
      <trkpt lat="45.03484" lon="5.50803">
        <ele>1194</ele>
        <time>2020-07-12T10:04:40Z</time>
      </trkpt>
      <trkpt lat="45.03488" lon="5.50803">
        <ele>1193.8000488281</ele>
        <time>2020-07-12T10:04:41Z</time>
      </trkpt>
      <trkpt lat="45.03496" lon="5.50805">
        <ele>1193.1999511719</ele>
        <time>2020-07-12T10:04:43Z</time>
      </trkpt>
      <trkpt lat="45.03503" lon="5.50807">
        <ele>1192</ele>
        <time>2020-07-12T10:04:45Z</time>
      </trkpt>
      <trkpt lat="45.03507" lon="5.50808">
        <ele>1191.1999511719</ele>
        <time>2020-07-12T10:04:46Z</time>
      </trkpt>
      <trkpt lat="45.0351" lon="5.50809">
        <ele>1190.4000244141</ele>
        <time>2020-07-12T10:04:47Z</time>
      </trkpt>
      <trkpt lat="45.03516" lon="5.5081">
        <ele>1188.5999755859</ele>
        <time>2020-07-12T10:04:49Z</time>
      </trkpt>
      <trkpt lat="45.0352" lon="5.50811">
        <ele>1187.8000488281</ele>
        <time>2020-07-12T10:04:50Z</time>
      </trkpt>
      <trkpt lat="45.03526" lon="5.50813">
        <ele>1187.4000244141</ele>
        <time>2020-07-12T10:04:52Z</time>
      </trkpt>
      <trkpt lat="45.03532" lon="5.50814">
        <ele>1186.8000488281</ele>
        <time>2020-07-12T10:04:54Z</time>
      </trkpt>
      <trkpt lat="45.03533" lon="5.50815">
        <ele>1186.5999755859</ele>
        <time>2020-07-12T10:04:55Z</time>
      </trkpt>
      <trkpt lat="45.03536" lon="5.50816">
        <ele>1186.4000244141</ele>
        <time>2020-07-12T10:04:56Z</time>
      </trkpt>
      <trkpt lat="45.03549" lon="5.50818">
        <ele>1186.8000488281</ele>
        <time>2020-07-12T10:05:02Z</time>
      </trkpt>
      <trkpt lat="45.03563" lon="5.50815">
        <ele>1193</ele>
        <time>2020-07-12T10:05:07Z</time>
      </trkpt>
      <trkpt lat="45.03567" lon="5.50814">
        <ele>1195.8000488281</ele>
        <time>2020-07-12T10:05:09Z</time>
      </trkpt>
      <trkpt lat="45.03571" lon="5.50813">
        <ele>1197.5999755859</ele>
        <time>2020-07-12T10:05:11Z</time>
      </trkpt>
      <trkpt lat="45.03573" lon="5.50812">
        <ele>1198</ele>
        <time>2020-07-12T10:05:12Z</time>
      </trkpt>
      <trkpt lat="45.03586" lon="5.5081">
        <ele>1200.5999755859</ele>
        <time>2020-07-12T10:05:17Z</time>
      </trkpt>
      <trkpt lat="45.03631" lon="5.50805">
        <ele>1217.5999755859</ele>
        <time>2020-07-12T10:05:42Z</time>
      </trkpt>
      <trkpt lat="45.03647" lon="5.508">
        <ele>1223</ele>
        <time>2020-07-12T10:05:51Z</time>
      </trkpt>
      <trkpt lat="45.03654" lon="5.508">
        <ele>1224.5999755859</ele>
        <time>2020-07-12T10:05:55Z</time>
      </trkpt>
      <trkpt lat="45.03675" lon="5.50795">
        <ele>1228.8000488281</ele>
        <time>2020-07-12T10:06:08Z</time>
      </trkpt>
      <trkpt lat="45.03677" lon="5.5079">
        <ele>1229</ele>
        <time>2020-07-12T10:06:11Z</time>
      </trkpt>
      <trkpt lat="45.03678" lon="5.50779">
        <ele>1230.1999511719</ele>
        <time>2020-07-12T10:06:15Z</time>
      </trkpt>
      <trkpt lat="45.03682" lon="5.50758">
        <ele>1231.1999511719</ele>
        <time>2020-07-12T10:06:23Z</time>
      </trkpt>
      <trkpt lat="45.03679" lon="5.50748">
        <ele>1232</ele>
        <time>2020-07-12T10:06:27Z</time>
      </trkpt>
      <trkpt lat="45.03679" lon="5.50741">
        <ele>1232.8000488281</ele>
        <time>2020-07-12T10:06:30Z</time>
      </trkpt>
      <trkpt lat="45.0368" lon="5.50739">
        <ele>1233</ele>
        <time>2020-07-12T10:06:31Z</time>
      </trkpt>
      <trkpt lat="45.0368" lon="5.50737">
        <ele>1233.1999511719</ele>
        <time>2020-07-12T10:06:32Z</time>
      </trkpt>
      <trkpt lat="45.03683" lon="5.50723">
        <ele>1233.8000488281</ele>
        <time>2020-07-12T10:06:38Z</time>
      </trkpt>
      <trkpt lat="45.03684" lon="5.5072">
        <ele>1233.8000488281</ele>
        <time>2020-07-12T10:06:39Z</time>
      </trkpt>
      <trkpt lat="45.03685" lon="5.50718">
        <ele>1233.8000488281</ele>
        <time>2020-07-12T10:06:40Z</time>
      </trkpt>
      <trkpt lat="45.03685" lon="5.50707">
        <ele>1234.1999511719</ele>
        <time>2020-07-12T10:06:45Z</time>
      </trkpt>
      <trkpt lat="45.03686" lon="5.50704">
        <ele>1234.4000244141</ele>
        <time>2020-07-12T10:06:47Z</time>
      </trkpt>
      <trkpt lat="45.03689" lon="5.50695">
        <ele>1235</ele>
        <time>2020-07-12T10:06:52Z</time>
      </trkpt>
      <trkpt lat="45.0369" lon="5.50693">
        <ele>1235</ele>
        <time>2020-07-12T10:06:53Z</time>
      </trkpt>
      <trkpt lat="45.03695" lon="5.50688">
        <ele>1235.4000244141</ele>
        <time>2020-07-12T10:06:57Z</time>
      </trkpt>
      <trkpt lat="45.03696" lon="5.50686">
        <ele>1235.4000244141</ele>
        <time>2020-07-12T10:06:58Z</time>
      </trkpt>
      <trkpt lat="45.03701" lon="5.50677">
        <ele>1235.8000488281</ele>
        <time>2020-07-12T10:07:03Z</time>
      </trkpt>
      <trkpt lat="45.03703" lon="5.50672">
        <ele>1236</ele>
        <time>2020-07-12T10:07:05Z</time>
      </trkpt>
      <trkpt lat="45.03705" lon="5.50668">
        <ele>1236</ele>
        <time>2020-07-12T10:07:07Z</time>
      </trkpt>
      <trkpt lat="45.03706" lon="5.50667">
        <ele>1236</ele>
        <time>2020-07-12T10:07:08Z</time>
      </trkpt>
      <trkpt lat="45.03707" lon="5.50665">
        <ele>1235.8000488281</ele>
        <time>2020-07-12T10:07:09Z</time>
      </trkpt>
      <trkpt lat="45.03708" lon="5.50663">
        <ele>1236</ele>
        <time>2020-07-12T10:07:10Z</time>
      </trkpt>
      <trkpt lat="45.0371" lon="5.5066">
        <ele>1235.8000488281</ele>
        <time>2020-07-12T10:07:12Z</time>
      </trkpt>
      <trkpt lat="45.0371" lon="5.50658">
        <ele>1235.8000488281</ele>
        <time>2020-07-12T10:07:13Z</time>
      </trkpt>
      <trkpt lat="45.03719" lon="5.50636">
        <ele>1237</ele>
        <time>2020-07-12T10:07:26Z</time>
      </trkpt>
      <trkpt lat="45.03721" lon="5.50632">
        <ele>1237.4000244141</ele>
        <time>2020-07-12T10:07:33Z</time>
      </trkpt>
      <trkpt lat="45.03723" lon="5.50621">
        <ele>1236.8000488281</ele>
        <time>2020-07-12T10:07:43Z</time>
      </trkpt>
      <trkpt lat="45.03735" lon="5.50571">
        <ele>1233</ele>
        <time>2020-07-12T10:08:01Z</time>
      </trkpt>
      <trkpt lat="45.03738" lon="5.5056">
        <ele>1232.4000244141</ele>
        <time>2020-07-12T10:08:05Z</time>
      </trkpt>
      <trkpt lat="45.0374" lon="5.5055">
        <ele>1232.8000488281</ele>
        <time>2020-07-12T10:08:09Z</time>
      </trkpt>
      <trkpt lat="45.0374" lon="5.50548">
        <ele>1233.4000244141</ele>
        <time>2020-07-12T10:08:10Z</time>
      </trkpt>
      <trkpt lat="45.03739" lon="5.50546">
        <ele>1233.8000488281</ele>
        <time>2020-07-12T10:08:11Z</time>
      </trkpt>
      <trkpt lat="45.03739" lon="5.50542">
        <ele>1234</ele>
        <time>2020-07-12T10:08:13Z</time>
      </trkpt>
      <trkpt lat="45.0374" lon="5.50537">
        <ele>1236</ele>
        <time>2020-07-12T10:08:16Z</time>
      </trkpt>
      <trkpt lat="45.03743" lon="5.50531">
        <ele>1236.5999755859</ele>
        <time>2020-07-12T10:08:20Z</time>
      </trkpt>
      <trkpt lat="45.03748" lon="5.50519">
        <ele>1236.8000488281</ele>
        <time>2020-07-12T10:08:26Z</time>
      </trkpt>
      <trkpt lat="45.0377" lon="5.50486">
        <ele>1238.4000244141</ele>
        <time>2020-07-12T10:08:41Z</time>
      </trkpt>
      <trkpt lat="45.03779" lon="5.50465">
        <ele>1240.8000488281</ele>
        <time>2020-07-12T10:08:50Z</time>
      </trkpt>
      <trkpt lat="45.03785" lon="5.50455">
        <ele>1243.1999511719</ele>
        <time>2020-07-12T10:08:56Z</time>
      </trkpt>
      <trkpt lat="45.03788" lon="5.50452">
        <ele>1244.8000488281</ele>
        <time>2020-07-12T10:09:01Z</time>
      </trkpt>
      <trkpt lat="45.03795" lon="5.50443">
        <ele>1245.5999755859</ele>
        <time>2020-07-12T10:09:08Z</time>
      </trkpt>
      <trkpt lat="45.03796" lon="5.50442">
        <ele>1245.8000488281</ele>
        <time>2020-07-12T10:09:09Z</time>
      </trkpt>
      <trkpt lat="45.038" lon="5.50437">
        <ele>1247.5999755859</ele>
        <time>2020-07-12T10:09:12Z</time>
      </trkpt>
      <trkpt lat="45.03801" lon="5.50434">
        <ele>1247.5999755859</ele>
        <time>2020-07-12T10:09:14Z</time>
      </trkpt>
      <trkpt lat="45.03816" lon="5.50406">
        <ele>1253</ele>
        <time>2020-07-12T10:09:35Z</time>
      </trkpt>
      <trkpt lat="45.03818" lon="5.50403">
        <ele>1252.8000488281</ele>
        <time>2020-07-12T10:09:39Z</time>
      </trkpt>
      <trkpt lat="45.03844" lon="5.50363">
        <ele>1241.8000488281</ele>
        <time>2020-07-12T10:10:02Z</time>
      </trkpt>
      <trkpt lat="45.03846" lon="5.5036">
        <ele>1241</ele>
        <time>2020-07-12T10:10:03Z</time>
      </trkpt>
      <trkpt lat="45.03851" lon="5.50351">
        <ele>1241.1999511719</ele>
        <time>2020-07-12T10:10:06Z</time>
      </trkpt>
      <trkpt lat="45.03858" lon="5.5033">
        <ele>1241.8000488281</ele>
        <time>2020-07-12T10:10:16Z</time>
      </trkpt>
      <trkpt lat="45.03861" lon="5.50326">
        <ele>1243.5999755859</ele>
        <time>2020-07-12T10:10:19Z</time>
      </trkpt>
      <trkpt lat="45.03862" lon="5.50324">
        <ele>1244.4000244141</ele>
        <time>2020-07-12T10:10:20Z</time>
      </trkpt>
      <trkpt lat="45.03864" lon="5.50321">
        <ele>1245</ele>
        <time>2020-07-12T10:10:22Z</time>
      </trkpt>
      <trkpt lat="45.03864" lon="5.50319">
        <ele>1245.1999511719</ele>
        <time>2020-07-12T10:10:23Z</time>
      </trkpt>
      <trkpt lat="45.03865" lon="5.50317">
        <ele>1245.4000244141</ele>
        <time>2020-07-12T10:10:24Z</time>
      </trkpt>
      <trkpt lat="45.0387" lon="5.5031">
        <ele>1246.4000244141</ele>
        <time>2020-07-12T10:10:28Z</time>
      </trkpt>
      <trkpt lat="45.0388" lon="5.50297">
        <ele>1255</ele>
        <time>2020-07-12T10:10:37Z</time>
      </trkpt>
      <trkpt lat="45.03886" lon="5.50292">
        <ele>1257.4000244141</ele>
        <time>2020-07-12T10:10:43Z</time>
      </trkpt>
      <trkpt lat="45.03887" lon="5.5029">
        <ele>1261.4000244141</ele>
        <time>2020-07-12T10:10:48Z</time>
      </trkpt>
      <trkpt lat="45.03888" lon="5.50287">
        <ele>1262.8000488281</ele>
        <time>2020-07-12T10:10:50Z</time>
      </trkpt>
      <trkpt lat="45.0389" lon="5.50283">
        <ele>1263.8000488281</ele>
        <time>2020-07-12T10:10:52Z</time>
      </trkpt>
      <trkpt lat="45.03894" lon="5.50268">
        <ele>1267.1999511719</ele>
        <time>2020-07-12T10:11:02Z</time>
      </trkpt>
      <trkpt lat="45.03895" lon="5.50262">
        <ele>1268</ele>
        <time>2020-07-12T10:11:06Z</time>
      </trkpt>
      <trkpt lat="45.03898" lon="5.50251">
        <ele>1266.8000488281</ele>
        <time>2020-07-12T10:11:13Z</time>
      </trkpt>
      <trkpt lat="45.039" lon="5.50242">
        <ele>1267.8000488281</ele>
        <time>2020-07-12T10:11:20Z</time>
      </trkpt>
      <trkpt lat="45.03897" lon="5.50223">
        <ele>1272</ele>
        <time>2020-07-12T10:11:33Z</time>
      </trkpt>
      <trkpt lat="45.03897" lon="5.50211">
        <ele>1272.4000244141</ele>
        <time>2020-07-12T10:11:41Z</time>
      </trkpt>
      <trkpt lat="45.039" lon="5.50198">
        <ele>1269.8000488281</ele>
        <time>2020-07-12T10:11:49Z</time>
      </trkpt>
      <trkpt lat="45.03903" lon="5.50185">
        <ele>1270.5999755859</ele>
        <time>2020-07-12T10:11:59Z</time>
      </trkpt>
      <trkpt lat="45.03905" lon="5.50179">
        <ele>1271</ele>
        <time>2020-07-12T10:12:04Z</time>
      </trkpt>
      <trkpt lat="45.03907" lon="5.5017">
        <ele>1272.5999755859</ele>
        <time>2020-07-12T10:12:10Z</time>
      </trkpt>
      <trkpt lat="45.03907" lon="5.50162">
        <ele>1279</ele>
        <time>2020-07-12T10:12:21Z</time>
      </trkpt>
      <trkpt lat="45.03906" lon="5.50156">
        <ele>1282.5999755859</ele>
        <time>2020-07-12T10:12:30Z</time>
      </trkpt>
      <trkpt lat="45.03907" lon="5.50152">
        <ele>1283.8000488281</ele>
        <time>2020-07-12T10:12:35Z</time>
      </trkpt>
      <trkpt lat="45.03911" lon="5.50142">
        <ele>1286.8000488281</ele>
        <time>2020-07-12T10:12:49Z</time>
      </trkpt>
      <trkpt lat="45.03917" lon="5.50131">
        <ele>1287</ele>
        <time>2020-07-12T10:13:06Z</time>
      </trkpt>
      <trkpt lat="45.03923" lon="5.50125">
        <ele>1286</ele>
        <time>2020-07-12T10:13:16Z</time>
      </trkpt>
      <trkpt lat="45.03931" lon="5.50125">
        <ele>1285</ele>
        <time>2020-07-12T10:13:54Z</time>
      </trkpt>
      <trkpt lat="45.03948" lon="5.50113">
        <ele>1286.4000244141</ele>
        <time>2020-07-12T10:14:07Z</time>
      </trkpt>
      <trkpt lat="45.03985" lon="5.50089">
        <ele>1275.5999755859</ele>
        <time>2020-07-12T10:14:37Z</time>
      </trkpt>
      <trkpt lat="45.04029" lon="5.50092">
        <ele>1261.8000488281</ele>
        <time>2020-07-12T10:14:56Z</time>
      </trkpt>
      <trkpt lat="45.04076" lon="5.50091">
        <ele>1266.8000488281</ele>
        <time>2020-07-12T10:15:16Z</time>
      </trkpt>
      <trkpt lat="45.04121" lon="5.50084">
        <ele>1270.8000488281</ele>
        <time>2020-07-12T10:15:36Z</time>
      </trkpt>
      <trkpt lat="45.04165" lon="5.50066">
        <ele>1275.5999755859</ele>
        <time>2020-07-12T10:16:11Z</time>
      </trkpt>
      <trkpt lat="45.04166" lon="5.50063">
        <ele>1294.4000244141</ele>
        <time>2020-07-12T10:16:38Z</time>
      </trkpt>
      <trkpt lat="45.04168" lon="5.50062">
        <ele>1296.8000488281</ele>
        <time>2020-07-12T10:16:51Z</time>
      </trkpt>
      <trkpt lat="45.04168" lon="5.50061">
        <ele>1298</ele>
        <time>2020-07-12T10:17:02Z</time>
      </trkpt>
      <trkpt lat="45.04168" lon="5.50059">
        <ele>1296.4000244141</ele>
        <time>2020-07-12T10:17:08Z</time>
      </trkpt>
      <trkpt lat="45.04169" lon="5.50058">
        <ele>1296.5999755859</ele>
        <time>2020-07-12T10:17:10Z</time>
      </trkpt>
      <trkpt lat="45.0417" lon="5.50059">
        <ele>1298</ele>
        <time>2020-07-12T10:17:25Z</time>
      </trkpt>
      <trkpt lat="45.04171" lon="5.50057">
        <ele>1299.5999755859</ele>
        <time>2020-07-12T10:17:36Z</time>
      </trkpt>
      <trkpt lat="45.04172" lon="5.5006">
        <ele>1291</ele>
        <time>2020-07-12T10:18:53Z</time>
      </trkpt>
      <trkpt lat="45.04173" lon="5.50056">
        <ele>1288.8000488281</ele>
        <time>2020-07-12T10:18:55Z</time>
      </trkpt>
      <trkpt lat="45.04173" lon="5.50055">
        <ele>1287.5999755859</ele>
        <time>2020-07-12T10:18:56Z</time>
      </trkpt>
      <trkpt lat="45.04176" lon="5.50053">
        <ele>1285.5999755859</ele>
        <time>2020-07-12T10:18:58Z</time>
      </trkpt>
      <trkpt lat="45.04192" lon="5.50046">
        <ele>1281.1999511719</ele>
        <time>2020-07-12T10:19:06Z</time>
      </trkpt>
      <trkpt lat="45.04196" lon="5.50044">
        <ele>1280.4000244141</ele>
        <time>2020-07-12T10:19:08Z</time>
      </trkpt>
      <trkpt lat="45.04198" lon="5.50043">
        <ele>1279.8000488281</ele>
        <time>2020-07-12T10:19:09Z</time>
      </trkpt>
      <trkpt lat="45.04203" lon="5.50039">
        <ele>1279.4000244141</ele>
        <time>2020-07-12T10:19:11Z</time>
      </trkpt>
      <trkpt lat="45.04206" lon="5.50038">
        <ele>1279.1999511719</ele>
        <time>2020-07-12T10:19:12Z</time>
      </trkpt>
      <trkpt lat="45.0421" lon="5.50034">
        <ele>1279</ele>
        <time>2020-07-12T10:19:14Z</time>
      </trkpt>
      <trkpt lat="45.04212" lon="5.50031">
        <ele>1279</ele>
        <time>2020-07-12T10:19:15Z</time>
      </trkpt>
      <trkpt lat="45.0422" lon="5.50022">
        <ele>1279</ele>
        <time>2020-07-12T10:19:19Z</time>
      </trkpt>
      <trkpt lat="45.04226" lon="5.50014">
        <ele>1279</ele>
        <time>2020-07-12T10:19:22Z</time>
      </trkpt>
      <trkpt lat="45.04227" lon="5.50012">
        <ele>1279</ele>
        <time>2020-07-12T10:19:23Z</time>
      </trkpt>
      <trkpt lat="45.04241" lon="5.4999">
        <ele>1279.4000244141</ele>
        <time>2020-07-12T10:19:31Z</time>
      </trkpt>
      <trkpt lat="45.04243" lon="5.49987">
        <ele>1279</ele>
        <time>2020-07-12T10:19:32Z</time>
      </trkpt>
      <trkpt lat="45.04245" lon="5.49984">
        <ele>1279.1999511719</ele>
        <time>2020-07-12T10:19:33Z</time>
      </trkpt>
      <trkpt lat="45.04247" lon="5.49981">
        <ele>1279.4000244141</ele>
        <time>2020-07-12T10:19:34Z</time>
      </trkpt>
      <trkpt lat="45.04251" lon="5.49976">
        <ele>1280.1999511719</ele>
        <time>2020-07-12T10:19:36Z</time>
      </trkpt>
      <trkpt lat="45.04252" lon="5.49973">
        <ele>1280.8000488281</ele>
        <time>2020-07-12T10:19:37Z</time>
      </trkpt>
      <trkpt lat="45.04254" lon="5.49971">
        <ele>1280.8000488281</ele>
        <time>2020-07-12T10:19:38Z</time>
      </trkpt>
      <trkpt lat="45.04257" lon="5.49966">
        <ele>1281.4000244141</ele>
        <time>2020-07-12T10:19:40Z</time>
      </trkpt>
      <trkpt lat="45.04262" lon="5.4996">
        <ele>1282.8000488281</ele>
        <time>2020-07-12T10:19:43Z</time>
      </trkpt>
      <trkpt lat="45.04267" lon="5.49952">
        <ele>1284.5999755859</ele>
        <time>2020-07-12T10:19:47Z</time>
      </trkpt>
      <trkpt lat="45.04268" lon="5.4995">
        <ele>1284.5999755859</ele>
        <time>2020-07-12T10:19:48Z</time>
      </trkpt>
      <trkpt lat="45.04268" lon="5.49947">
        <ele>1284.5999755859</ele>
        <time>2020-07-12T10:19:49Z</time>
      </trkpt>
      <trkpt lat="45.04268" lon="5.4994">
        <ele>1284.8000488281</ele>
        <time>2020-07-12T10:19:52Z</time>
      </trkpt>
      <trkpt lat="45.04264" lon="5.49925">
        <ele>1284.1999511719</ele>
        <time>2020-07-12T10:20:00Z</time>
      </trkpt>
      <trkpt lat="45.04264" lon="5.49923">
        <ele>1284.1999511719</ele>
        <time>2020-07-12T10:20:02Z</time>
      </trkpt>
      <trkpt lat="45.04264" lon="5.4992">
        <ele>1284.1999511719</ele>
        <time>2020-07-12T10:20:04Z</time>
      </trkpt>
      <trkpt lat="45.04264" lon="5.49919">
        <ele>1284.1999511719</ele>
        <time>2020-07-12T10:20:05Z</time>
      </trkpt>
      <trkpt lat="45.04264" lon="5.49918">
        <ele>1284</ele>
        <time>2020-07-12T10:20:06Z</time>
      </trkpt>
      <trkpt lat="45.04282" lon="5.49884">
        <ele>1289.5999755859</ele>
        <time>2020-07-12T10:20:24Z</time>
      </trkpt>
      <trkpt lat="45.04288" lon="5.4986">
        <ele>1291.8000488281</ele>
        <time>2020-07-12T10:20:33Z</time>
      </trkpt>
      <trkpt lat="45.04286" lon="5.49849">
        <ele>1292.1999511719</ele>
        <time>2020-07-12T10:20:37Z</time>
      </trkpt>
      <trkpt lat="45.04282" lon="5.49839">
        <ele>1291.1999511719</ele>
        <time>2020-07-12T10:20:41Z</time>
      </trkpt>
      <trkpt lat="45.04277" lon="5.49828">
        <ele>1291.8000488281</ele>
        <time>2020-07-12T10:20:46Z</time>
      </trkpt>
      <trkpt lat="45.04269" lon="5.49804">
        <ele>1299.4000244141</ele>
        <time>2020-07-12T10:20:58Z</time>
      </trkpt>
      <trkpt lat="45.04265" lon="5.49795">
        <ele>1303.1999511719</ele>
        <time>2020-07-12T10:21:02Z</time>
      </trkpt>
      <trkpt lat="45.04235" lon="5.49751">
        <ele>1316.8000488281</ele>
        <time>2020-07-12T10:21:28Z</time>
      </trkpt>
      <trkpt lat="45.0423" lon="5.49748">
        <ele>1318.1999511719</ele>
        <time>2020-07-12T10:21:31Z</time>
      </trkpt>
      <trkpt lat="45.04215" lon="5.4974">
        <ele>1318.5999755859</ele>
        <time>2020-07-12T10:21:42Z</time>
      </trkpt>
      <trkpt lat="45.04206" lon="5.49735">
        <ele>1316.1999511719</ele>
        <time>2020-07-12T10:21:48Z</time>
      </trkpt>
      <trkpt lat="45.04185" lon="5.49717">
        <ele>1312</ele>
        <time>2020-07-12T10:22:06Z</time>
      </trkpt>
      <trkpt lat="45.04177" lon="5.49711">
        <ele>1311.4000244141</ele>
        <time>2020-07-12T10:22:12Z</time>
      </trkpt>
      <trkpt lat="45.0417" lon="5.49705">
        <ele>1308.1999511719</ele>
        <time>2020-07-12T10:22:18Z</time>
      </trkpt>
      <trkpt lat="45.04169" lon="5.49705">
        <ele>1308</ele>
        <time>2020-07-12T10:22:19Z</time>
      </trkpt>
      <trkpt lat="45.04166" lon="5.49703">
        <ele>1307.4000244141</ele>
        <time>2020-07-12T10:22:21Z</time>
      </trkpt>
      <trkpt lat="45.0416" lon="5.49699">
        <ele>1305.4000244141</ele>
        <time>2020-07-12T10:22:26Z</time>
      </trkpt>
      <trkpt lat="45.04144" lon="5.49691">
        <ele>1304</ele>
        <time>2020-07-12T10:22:37Z</time>
      </trkpt>
      <trkpt lat="45.04135" lon="5.49689">
        <ele>1305</ele>
        <time>2020-07-12T10:22:43Z</time>
      </trkpt>
      <trkpt lat="45.04115" lon="5.49684">
        <ele>1311</ele>
        <time>2020-07-12T10:22:58Z</time>
      </trkpt>
      <trkpt lat="45.04114" lon="5.49684">
        <ele>1311</ele>
        <time>2020-07-12T10:22:59Z</time>
      </trkpt>
      <trkpt lat="45.04112" lon="5.49683">
        <ele>1311</ele>
        <time>2020-07-12T10:23:00Z</time>
      </trkpt>
      <trkpt lat="45.0411" lon="5.49682">
        <ele>1311.1999511719</ele>
        <time>2020-07-12T10:23:01Z</time>
      </trkpt>
      <trkpt lat="45.04104" lon="5.49681">
        <ele>1312.1999511719</ele>
        <time>2020-07-12T10:23:05Z</time>
      </trkpt>
      <trkpt lat="45.04098" lon="5.4968">
        <ele>1312.4000244141</ele>
        <time>2020-07-12T10:23:09Z</time>
      </trkpt>
      <trkpt lat="45.04084" lon="5.49675">
        <ele>1316.5999755859</ele>
        <time>2020-07-12T10:23:19Z</time>
      </trkpt>
      <trkpt lat="45.0408" lon="5.49673">
        <ele>1318</ele>
        <time>2020-07-12T10:23:22Z</time>
      </trkpt>
      <trkpt lat="45.04073" lon="5.49673">
        <ele>1321</ele>
        <time>2020-07-12T10:23:26Z</time>
      </trkpt>
      <trkpt lat="45.04029" lon="5.49654">
        <ele>1325.8000488281</ele>
        <time>2020-07-12T10:23:55Z</time>
      </trkpt>
      <trkpt lat="45.04009" lon="5.49643">
        <ele>1328.1999511719</ele>
        <time>2020-07-12T10:24:10Z</time>
      </trkpt>
      <trkpt lat="45.03993" lon="5.49638">
        <ele>1329</ele>
        <time>2020-07-12T10:24:22Z</time>
      </trkpt>
      <trkpt lat="45.03958" lon="5.4963">
        <ele>1338.5999755859</ele>
        <time>2020-07-12T10:24:47Z</time>
      </trkpt>
      <trkpt lat="45.03952" lon="5.49627">
        <ele>1338.5999755859</ele>
        <time>2020-07-12T10:24:52Z</time>
      </trkpt>
      <trkpt lat="45.03949" lon="5.49626">
        <ele>1339</ele>
        <time>2020-07-12T10:24:54Z</time>
      </trkpt>
      <trkpt lat="45.03944" lon="5.49626">
        <ele>1339.4000244141</ele>
        <time>2020-07-12T10:24:57Z</time>
      </trkpt>
      <trkpt lat="45.03942" lon="5.49626">
        <ele>1340</ele>
        <time>2020-07-12T10:24:58Z</time>
      </trkpt>
      <trkpt lat="45.03941" lon="5.49625">
        <ele>1340</ele>
        <time>2020-07-12T10:24:59Z</time>
      </trkpt>
      <trkpt lat="45.0394" lon="5.49624">
        <ele>1340</ele>
        <time>2020-07-12T10:25:00Z</time>
      </trkpt>
      <trkpt lat="45.03938" lon="5.49624">
        <ele>1340</ele>
        <time>2020-07-12T10:25:01Z</time>
      </trkpt>
      <trkpt lat="45.03913" lon="5.49608">
        <ele>1343.5999755859</ele>
        <time>2020-07-12T10:25:20Z</time>
      </trkpt>
      <trkpt lat="45.03911" lon="5.49605">
        <ele>1343.8000488281</ele>
        <time>2020-07-12T10:25:22Z</time>
      </trkpt>
      <trkpt lat="45.03908" lon="5.49601">
        <ele>1345</ele>
        <time>2020-07-12T10:25:26Z</time>
      </trkpt>
      <trkpt lat="45.03905" lon="5.49595">
        <ele>1346.5999755859</ele>
        <time>2020-07-12T10:25:30Z</time>
      </trkpt>
      <trkpt lat="45.03906" lon="5.49593">
        <ele>1347.1999511719</ele>
        <time>2020-07-12T10:25:32Z</time>
      </trkpt>
      <trkpt lat="45.03909" lon="5.49589">
        <ele>1348</ele>
        <time>2020-07-12T10:25:35Z</time>
      </trkpt>
      <trkpt lat="45.03913" lon="5.49587">
        <ele>1349.8000488281</ele>
        <time>2020-07-12T10:25:42Z</time>
      </trkpt>
      <trkpt lat="45.03914" lon="5.49587">
        <ele>1350</ele>
        <time>2020-07-12T10:25:43Z</time>
      </trkpt>
      <trkpt lat="45.03915" lon="5.49586">
        <ele>1349.8000488281</ele>
        <time>2020-07-12T10:25:45Z</time>
      </trkpt>
      <trkpt lat="45.03917" lon="5.49585">
        <ele>1350</ele>
        <time>2020-07-12T10:25:47Z</time>
      </trkpt>
      <trkpt lat="45.03919" lon="5.49583">
        <ele>1349.8000488281</ele>
        <time>2020-07-12T10:25:49Z</time>
      </trkpt>
      <trkpt lat="45.03925" lon="5.49579">
        <ele>1347</ele>
        <time>2020-07-12T10:25:57Z</time>
      </trkpt>
      <trkpt lat="45.03926" lon="5.49579">
        <ele>1347.1999511719</ele>
        <time>2020-07-12T10:25:59Z</time>
      </trkpt>
      <trkpt lat="45.03925" lon="5.49578">
        <ele>1347.4000244141</ele>
        <time>2020-07-12T10:26:00Z</time>
      </trkpt>
      <trkpt lat="45.03926" lon="5.49578">
        <ele>1347.8000488281</ele>
        <time>2020-07-12T10:26:01Z</time>
      </trkpt>
      <trkpt lat="45.03927" lon="5.49577">
        <ele>1348</ele>
        <time>2020-07-12T10:26:02Z</time>
      </trkpt>
      <trkpt lat="45.03929" lon="5.49577">
        <ele>1347.5999755859</ele>
        <time>2020-07-12T10:26:05Z</time>
      </trkpt>
      <trkpt lat="45.03931" lon="5.49575">
        <ele>1349</ele>
        <time>2020-07-12T10:26:09Z</time>
      </trkpt>
      <trkpt lat="45.03933" lon="5.49574">
        <ele>1349.5999755859</ele>
        <time>2020-07-12T10:26:11Z</time>
      </trkpt>
      <trkpt lat="45.03933" lon="5.49574">
        <ele>1350.5999755859</ele>
        <time>2020-07-12T10:26:12Z</time>
      </trkpt>
      <trkpt lat="45.03934" lon="5.49573">
        <ele>1351.1999511719</ele>
        <time>2020-07-12T10:26:14Z</time>
      </trkpt>
      <trkpt lat="45.03934" lon="5.49572">
        <ele>1351</ele>
        <time>2020-07-12T10:26:15Z</time>
      </trkpt>
      <trkpt lat="45.03934" lon="5.49572">
        <ele>1350.8000488281</ele>
        <time>2020-07-12T10:26:16Z</time>
      </trkpt>
      <trkpt lat="45.03934" lon="5.49573">
        <ele>1350.4000244141</ele>
        <time>2020-07-12T10:26:17Z</time>
      </trkpt>
      <trkpt lat="45.03934" lon="5.49573">
        <ele>1350.4000244141</ele>
        <time>2020-07-12T10:26:18Z</time>
      </trkpt>
      <trkpt lat="45.03934" lon="5.49573">
        <ele>1350</ele>
        <time>2020-07-12T10:26:20Z</time>
      </trkpt>
      <trkpt lat="45.03934" lon="5.49573">
        <ele>1349.8000488281</ele>
        <time>2020-07-12T10:26:21Z</time>
      </trkpt>
      <trkpt lat="45.03933" lon="5.49573">
        <ele>1351.5999755859</ele>
        <time>2020-07-12T10:26:25Z</time>
      </trkpt>
      <trkpt lat="45.03934" lon="5.49573">
        <ele>1351</ele>
        <time>2020-07-12T10:26:32Z</time>
      </trkpt>
      <trkpt lat="45.03934" lon="5.49573">
        <ele>1351</ele>
        <time>2020-07-12T10:26:34Z</time>
      </trkpt>
      <trkpt lat="45.03934" lon="5.49573">
        <ele>1350.8000488281</ele>
        <time>2020-07-12T10:26:35Z</time>
      </trkpt>
      <trkpt lat="45.03934" lon="5.49574">
        <ele>1348</ele>
        <time>2020-07-12T10:26:43Z</time>
      </trkpt>
      <trkpt lat="45.0393" lon="5.49573">
        <ele>1345.1999511719</ele>
        <time>2020-07-12T10:26:46Z</time>
      </trkpt>
      <trkpt lat="45.03916" lon="5.49579">
        <ele>1336.5999755859</ele>
        <time>2020-07-12T10:26:55Z</time>
      </trkpt>
      <trkpt lat="45.03882" lon="5.49566">
        <ele>1340.8000488281</ele>
        <time>2020-07-12T10:27:16Z</time>
      </trkpt>
      <trkpt lat="45.03881" lon="5.49565">
        <ele>1341.1999511719</ele>
        <time>2020-07-12T10:27:17Z</time>
      </trkpt>
      <trkpt lat="45.03876" lon="5.49563">
        <ele>1343</ele>
        <time>2020-07-12T10:27:20Z</time>
      </trkpt>
      <trkpt lat="45.03868" lon="5.4956">
        <ele>1344.4000244141</ele>
        <time>2020-07-12T10:27:25Z</time>
      </trkpt>
      <trkpt lat="45.03863" lon="5.49557">
        <ele>1345.8000488281</ele>
        <time>2020-07-12T10:27:29Z</time>
      </trkpt>
      <trkpt lat="45.03862" lon="5.49557">
        <ele>1346.1999511719</ele>
        <time>2020-07-12T10:27:30Z</time>
      </trkpt>
      <trkpt lat="45.03861" lon="5.49556">
        <ele>1346.4000244141</ele>
        <time>2020-07-12T10:27:31Z</time>
      </trkpt>
      <trkpt lat="45.03859" lon="5.49556">
        <ele>1347</ele>
        <time>2020-07-12T10:27:32Z</time>
      </trkpt>
      <trkpt lat="45.03857" lon="5.49554">
        <ele>1347.5999755859</ele>
        <time>2020-07-12T10:27:34Z</time>
      </trkpt>
      <trkpt lat="45.03842" lon="5.49545">
        <ele>1351.1999511719</ele>
        <time>2020-07-12T10:27:46Z</time>
      </trkpt>
      <trkpt lat="45.03839" lon="5.49543">
        <ele>1351.5999755859</ele>
        <time>2020-07-12T10:27:48Z</time>
      </trkpt>
      <trkpt lat="45.03828" lon="5.49534">
        <ele>1354.4000244141</ele>
        <time>2020-07-12T10:27:57Z</time>
      </trkpt>
      <trkpt lat="45.03817" lon="5.49473">
        <ele>1368.5999755859</ele>
        <time>2020-07-12T10:28:32Z</time>
      </trkpt>
      <trkpt lat="45.03806" lon="5.49451">
        <ele>1370.5999755859</ele>
        <time>2020-07-12T10:28:45Z</time>
      </trkpt>
      <trkpt lat="45.03799" lon="5.49444">
        <ele>1371.1999511719</ele>
        <time>2020-07-12T10:28:51Z</time>
      </trkpt>
      <trkpt lat="45.03773" lon="5.49452">
        <ele>1374.5999755859</ele>
        <time>2020-07-12T10:29:12Z</time>
      </trkpt>
      <trkpt lat="45.0377" lon="5.49453">
        <ele>1375.1999511719</ele>
        <time>2020-07-12T10:29:14Z</time>
      </trkpt>
      <trkpt lat="45.03748" lon="5.49448">
        <ele>1373.8000488281</ele>
        <time>2020-07-12T10:29:27Z</time>
      </trkpt>
      <trkpt lat="45.03708" lon="5.49416">
        <ele>1376.5999755859</ele>
        <time>2020-07-12T10:29:57Z</time>
      </trkpt>
      <trkpt lat="45.0369" lon="5.49408">
        <ele>1379</ele>
        <time>2020-07-12T10:30:09Z</time>
      </trkpt>
      <trkpt lat="45.03682" lon="5.49404">
        <ele>1380.4000244141</ele>
        <time>2020-07-12T10:30:15Z</time>
      </trkpt>
      <trkpt lat="45.03667" lon="5.49389">
        <ele>1383.5999755859</ele>
        <time>2020-07-12T10:30:35Z</time>
      </trkpt>
      <trkpt lat="45.03666" lon="5.4939">
        <ele>1383.5999755859</ele>
        <time>2020-07-12T10:30:40Z</time>
      </trkpt>
      <trkpt lat="45.03665" lon="5.49389">
        <ele>1385.8000488281</ele>
        <time>2020-07-12T10:30:50Z</time>
      </trkpt>
      <trkpt lat="45.03666" lon="5.49389">
        <ele>1387.1999511719</ele>
        <time>2020-07-12T10:30:57Z</time>
      </trkpt>
      <trkpt lat="45.03667" lon="5.49389">
        <ele>1391.1999511719</ele>
        <time>2020-07-12T10:31:27Z</time>
      </trkpt>
      <trkpt lat="45.03667" lon="5.4939">
        <ele>1391.5999755859</ele>
        <time>2020-07-12T10:31:34Z</time>
      </trkpt>
      <trkpt lat="45.03667" lon="5.4939">
        <ele>1391.5999755859</ele>
        <time>2020-07-12T10:31:35Z</time>
      </trkpt>
      <trkpt lat="45.03667" lon="5.4939">
        <ele>1391.5999755859</ele>
        <time>2020-07-12T10:31:36Z</time>
      </trkpt>
      <trkpt lat="45.03667" lon="5.4939">
        <ele>1391.4000244141</ele>
        <time>2020-07-12T10:31:37Z</time>
      </trkpt>
      <trkpt lat="45.03667" lon="5.49389">
        <ele>1391.4000244141</ele>
        <time>2020-07-12T10:31:38Z</time>
      </trkpt>
      <trkpt lat="45.03667" lon="5.49389">
        <ele>1391.5999755859</ele>
        <time>2020-07-12T10:31:39Z</time>
      </trkpt>
      <trkpt lat="45.03667" lon="5.49389">
        <ele>1391.4000244141</ele>
        <time>2020-07-12T10:31:56Z</time>
      </trkpt>
      <trkpt lat="45.03665" lon="5.49377">
        <ele>1395.1999511719</ele>
        <time>2020-07-12T10:32:24Z</time>
      </trkpt>
      <trkpt lat="45.03667" lon="5.49364">
        <ele>1396.1999511719</ele>
        <time>2020-07-12T10:32:30Z</time>
      </trkpt>
      <trkpt lat="45.03667" lon="5.49362">
        <ele>1396.4000244141</ele>
        <time>2020-07-12T10:32:31Z</time>
      </trkpt>
      <trkpt lat="45.03668" lon="5.4936">
        <ele>1396.5999755859</ele>
        <time>2020-07-12T10:32:32Z</time>
      </trkpt>
      <trkpt lat="45.03669" lon="5.49358">
        <ele>1396.5999755859</ele>
        <time>2020-07-12T10:32:33Z</time>
      </trkpt>
      <trkpt lat="45.0367" lon="5.49356">
        <ele>1396.8000488281</ele>
        <time>2020-07-12T10:32:34Z</time>
      </trkpt>
      <trkpt lat="45.03672" lon="5.49349">
        <ele>1397.4000244141</ele>
        <time>2020-07-12T10:32:37Z</time>
      </trkpt>
      <trkpt lat="45.03679" lon="5.49339">
        <ele>1398.1999511719</ele>
        <time>2020-07-12T10:32:44Z</time>
      </trkpt>
      <trkpt lat="45.03685" lon="5.49334">
        <ele>1399.1999511719</ele>
        <time>2020-07-12T10:32:48Z</time>
      </trkpt>
      <trkpt lat="45.03703" lon="5.49329">
        <ele>1404</ele>
        <time>2020-07-12T10:33:01Z</time>
      </trkpt>
      <trkpt lat="45.03708" lon="5.49328">
        <ele>1403.5999755859</ele>
        <time>2020-07-12T10:33:04Z</time>
      </trkpt>
      <trkpt lat="45.03714" lon="5.49325">
        <ele>1402.8000488281</ele>
        <time>2020-07-12T10:33:08Z</time>
      </trkpt>
      <trkpt lat="45.03728" lon="5.49323">
        <ele>1402.8000488281</ele>
        <time>2020-07-12T10:33:17Z</time>
      </trkpt>
      <trkpt lat="45.03762" lon="5.49309">
        <ele>1403.4000244141</ele>
        <time>2020-07-12T10:33:38Z</time>
      </trkpt>
      <trkpt lat="45.03802" lon="5.49279">
        <ele>1404.5999755859</ele>
        <time>2020-07-12T10:34:00Z</time>
      </trkpt>
      <trkpt lat="45.03806" lon="5.49276">
        <ele>1404.5999755859</ele>
        <time>2020-07-12T10:34:02Z</time>
      </trkpt>
      <trkpt lat="45.03814" lon="5.49269">
        <ele>1405.1999511719</ele>
        <time>2020-07-12T10:34:06Z</time>
      </trkpt>
      <trkpt lat="45.03818" lon="5.49265">
        <ele>1405.1999511719</ele>
        <time>2020-07-12T10:34:08Z</time>
      </trkpt>
      <trkpt lat="45.03822" lon="5.49262">
        <ele>1405.1999511719</ele>
        <time>2020-07-12T10:34:10Z</time>
      </trkpt>
      <trkpt lat="45.03826" lon="5.49259">
        <ele>1405.4000244141</ele>
        <time>2020-07-12T10:34:12Z</time>
      </trkpt>
      <trkpt lat="45.03828" lon="5.49257">
        <ele>1405.1999511719</ele>
        <time>2020-07-12T10:34:13Z</time>
      </trkpt>
      <trkpt lat="45.0383" lon="5.49256">
        <ele>1405.8000488281</ele>
        <time>2020-07-12T10:34:14Z</time>
      </trkpt>
      <trkpt lat="45.03833" lon="5.49255">
        <ele>1406.1999511719</ele>
        <time>2020-07-12T10:34:15Z</time>
      </trkpt>
      <trkpt lat="45.03836" lon="5.49253">
        <ele>1406.1999511719</ele>
        <time>2020-07-12T10:34:17Z</time>
      </trkpt>
      <trkpt lat="45.03838" lon="5.49252">
        <ele>1406.1999511719</ele>
        <time>2020-07-12T10:34:18Z</time>
      </trkpt>
      <trkpt lat="45.0384" lon="5.49251">
        <ele>1406.1999511719</ele>
        <time>2020-07-12T10:34:19Z</time>
      </trkpt>
      <trkpt lat="45.03842" lon="5.49249">
        <ele>1406.5999755859</ele>
        <time>2020-07-12T10:34:20Z</time>
      </trkpt>
      <trkpt lat="45.03844" lon="5.49248">
        <ele>1407</ele>
        <time>2020-07-12T10:34:21Z</time>
      </trkpt>
      <trkpt lat="45.03847" lon="5.49246">
        <ele>1407.5999755859</ele>
        <time>2020-07-12T10:34:23Z</time>
      </trkpt>
      <trkpt lat="45.03891" lon="5.49228">
        <ele>1415</ele>
        <time>2020-07-12T10:34:45Z</time>
      </trkpt>
      <trkpt lat="45.03936" lon="5.49227">
        <ele>1426.4000244141</ele>
        <time>2020-07-12T10:35:09Z</time>
      </trkpt>
      <trkpt lat="45.03939" lon="5.49227">
        <ele>1426.4000244141</ele>
        <time>2020-07-12T10:35:11Z</time>
      </trkpt>
      <trkpt lat="45.03941" lon="5.49227">
        <ele>1426.5999755859</ele>
        <time>2020-07-12T10:35:12Z</time>
      </trkpt>
      <trkpt lat="45.03986" lon="5.49238">
        <ele>1429.1999511719</ele>
        <time>2020-07-12T10:35:36Z</time>
      </trkpt>
      <trkpt lat="45.04021" lon="5.4924">
        <ele>1436</ele>
        <time>2020-07-12T10:35:56Z</time>
      </trkpt>
      <trkpt lat="45.04025" lon="5.4924">
        <ele>1436.1999511719</ele>
        <time>2020-07-12T10:35:58Z</time>
      </trkpt>
      <trkpt lat="45.04035" lon="5.4924">
        <ele>1434.8000488281</ele>
        <time>2020-07-12T10:36:03Z</time>
      </trkpt>
      <trkpt lat="45.04074" lon="5.49238">
        <ele>1434.4000244141</ele>
        <time>2020-07-12T10:36:25Z</time>
      </trkpt>
      <trkpt lat="45.04105" lon="5.49233">
        <ele>1435.8000488281</ele>
        <time>2020-07-12T10:36:42Z</time>
      </trkpt>
      <trkpt lat="45.04116" lon="5.49228">
        <ele>1437.4000244141</ele>
        <time>2020-07-12T10:36:49Z</time>
      </trkpt>
      <trkpt lat="45.04125" lon="5.49225">
        <ele>1437.8000488281</ele>
        <time>2020-07-12T10:36:54Z</time>
      </trkpt>
      <trkpt lat="45.04137" lon="5.4922">
        <ele>1439</ele>
        <time>2020-07-12T10:37:01Z</time>
      </trkpt>
      <trkpt lat="45.04172" lon="5.49199">
        <ele>1438.5999755859</ele>
        <time>2020-07-12T10:37:18Z</time>
      </trkpt>
      <trkpt lat="45.04181" lon="5.49193">
        <ele>1438.8000488281</ele>
        <time>2020-07-12T10:37:22Z</time>
      </trkpt>
      <trkpt lat="45.04187" lon="5.4919">
        <ele>1439.4000244141</ele>
        <time>2020-07-12T10:37:25Z</time>
      </trkpt>
      <trkpt lat="45.04225" lon="5.49185">
        <ele>1441.8000488281</ele>
        <time>2020-07-12T10:37:42Z</time>
      </trkpt>
      <trkpt lat="45.04263" lon="5.49201">
        <ele>1440.8000488281</ele>
        <time>2020-07-12T10:37:59Z</time>
      </trkpt>
      <trkpt lat="45.04267" lon="5.49201">
        <ele>1441.1999511719</ele>
        <time>2020-07-12T10:38:01Z</time>
      </trkpt>
      <trkpt lat="45.04269" lon="5.49201">
        <ele>1441.5999755859</ele>
        <time>2020-07-12T10:38:02Z</time>
      </trkpt>
      <trkpt lat="45.04274" lon="5.49202">
        <ele>1441.5999755859</ele>
        <time>2020-07-12T10:38:04Z</time>
      </trkpt>
      <trkpt lat="45.04276" lon="5.49202">
        <ele>1441.5999755859</ele>
        <time>2020-07-12T10:38:05Z</time>
      </trkpt>
      <trkpt lat="45.04285" lon="5.49202">
        <ele>1442.1999511719</ele>
        <time>2020-07-12T10:38:09Z</time>
      </trkpt>
      <trkpt lat="45.04298" lon="5.49205">
        <ele>1442.4000244141</ele>
        <time>2020-07-12T10:38:16Z</time>
      </trkpt>
      <trkpt lat="45.04344" lon="5.49207">
        <ele>1444.5999755859</ele>
        <time>2020-07-12T10:38:38Z</time>
      </trkpt>
      <trkpt lat="45.04389" lon="5.49208">
        <ele>1450.5999755859</ele>
        <time>2020-07-12T10:38:57Z</time>
      </trkpt>
      <trkpt lat="45.04432" lon="5.49198">
        <ele>1447.1999511719</ele>
        <time>2020-07-12T10:39:14Z</time>
      </trkpt>
      <trkpt lat="45.04437" lon="5.49196">
        <ele>1446.8000488281</ele>
        <time>2020-07-12T10:39:16Z</time>
      </trkpt>
      <trkpt lat="45.04447" lon="5.49196">
        <ele>1447</ele>
        <time>2020-07-12T10:39:19Z</time>
      </trkpt>
      <trkpt lat="45.04473" lon="5.49212">
        <ele>1447.4000244141</ele>
        <time>2020-07-12T10:39:30Z</time>
      </trkpt>
      <trkpt lat="45.04478" lon="5.49219">
        <ele>1447.5999755859</ele>
        <time>2020-07-12T10:39:33Z</time>
      </trkpt>
      <trkpt lat="45.04493" lon="5.49245">
        <ele>1446</ele>
        <time>2020-07-12T10:39:44Z</time>
      </trkpt>
      <trkpt lat="45.04499" lon="5.4925">
        <ele>1452.1999511719</ele>
        <time>2020-07-12T10:40:18Z</time>
      </trkpt>
      <trkpt lat="45.045" lon="5.4925">
        <ele>1452.8000488281</ele>
        <time>2020-07-12T10:40:21Z</time>
      </trkpt>
      <trkpt lat="45.045" lon="5.4925">
        <ele>1454.1999511719</ele>
        <time>2020-07-12T10:40:25Z</time>
      </trkpt>
      <trkpt lat="45.045" lon="5.4925">
        <ele>1454.8000488281</ele>
        <time>2020-07-12T10:40:26Z</time>
      </trkpt>
      <trkpt lat="45.045" lon="5.49251">
        <ele>1455.1999511719</ele>
        <time>2020-07-12T10:40:29Z</time>
      </trkpt>
      <trkpt lat="45.04503" lon="5.49251">
        <ele>1461.4000244141</ele>
        <time>2020-07-12T10:40:46Z</time>
      </trkpt>
      <trkpt lat="45.04506" lon="5.49251">
        <ele>1467.4000244141</ele>
        <time>2020-07-12T10:41:06Z</time>
      </trkpt>
      <trkpt lat="45.04508" lon="5.4925">
        <ele>1469.1999511719</ele>
        <time>2020-07-12T10:41:13Z</time>
      </trkpt>
      <trkpt lat="45.04509" lon="5.4925">
        <ele>1469.8000488281</ele>
        <time>2020-07-12T10:41:26Z</time>
      </trkpt>
      <trkpt lat="45.04508" lon="5.49251">
        <ele>1471.4000244141</ele>
        <time>2020-07-12T10:41:29Z</time>
      </trkpt>
      <trkpt lat="45.04508" lon="5.49251">
        <ele>1472</ele>
        <time>2020-07-12T10:41:31Z</time>
      </trkpt>
      <trkpt lat="45.0451" lon="5.4925">
        <ele>1474.8000488281</ele>
        <time>2020-07-12T10:41:43Z</time>
      </trkpt>
      <trkpt lat="45.0451" lon="5.4925">
        <ele>1476.4000244141</ele>
        <time>2020-07-12T10:41:45Z</time>
      </trkpt>
      <trkpt lat="45.04511" lon="5.4925">
        <ele>1477.1999511719</ele>
        <time>2020-07-12T10:41:46Z</time>
      </trkpt>
      <trkpt lat="45.04511" lon="5.49252">
        <ele>1479.8000488281</ele>
        <time>2020-07-12T10:41:57Z</time>
      </trkpt>
      <trkpt lat="45.04511" lon="5.49253">
        <ele>1479.4000244141</ele>
        <time>2020-07-12T10:41:59Z</time>
      </trkpt>
      <trkpt lat="45.04514" lon="5.49257">
        <ele>1478.8000488281</ele>
        <time>2020-07-12T10:42:03Z</time>
      </trkpt>
      <trkpt lat="45.04516" lon="5.49262">
        <ele>1477.8000488281</ele>
        <time>2020-07-12T10:42:06Z</time>
      </trkpt>
      <trkpt lat="45.04519" lon="5.49268">
        <ele>1476.8000488281</ele>
        <time>2020-07-12T10:42:10Z</time>
      </trkpt>
      <trkpt lat="45.04554" lon="5.49294">
        <ele>1469</ele>
        <time>2020-07-12T10:42:33Z</time>
      </trkpt>
      <trkpt lat="45.04563" lon="5.49294">
        <ele>1467.5999755859</ele>
        <time>2020-07-12T10:42:38Z</time>
      </trkpt>
      <trkpt lat="45.04565" lon="5.49295">
        <ele>1467.5999755859</ele>
        <time>2020-07-12T10:42:39Z</time>
      </trkpt>
      <trkpt lat="45.04583" lon="5.49296">
        <ele>1465.5999755859</ele>
        <time>2020-07-12T10:42:48Z</time>
      </trkpt>
      <trkpt lat="45.04598" lon="5.49295">
        <ele>1462.4000244141</ele>
        <time>2020-07-12T10:42:55Z</time>
      </trkpt>
      <trkpt lat="45.04637" lon="5.49298">
        <ele>1466.1999511719</ele>
        <time>2020-07-12T10:43:14Z</time>
      </trkpt>
      <trkpt lat="45.04649" lon="5.49298">
        <ele>1468.4000244141</ele>
        <time>2020-07-12T10:43:20Z</time>
      </trkpt>
      <trkpt lat="45.04666" lon="5.49297">
        <ele>1469.4000244141</ele>
        <time>2020-07-12T10:43:28Z</time>
      </trkpt>
      <trkpt lat="45.04674" lon="5.49285">
        <ele>1466.8000488281</ele>
        <time>2020-07-12T10:43:35Z</time>
      </trkpt>
      <trkpt lat="45.04658" lon="5.4927">
        <ele>1463.4000244141</ele>
        <time>2020-07-12T10:43:45Z</time>
      </trkpt>
      <trkpt lat="45.04643" lon="5.49258">
        <ele>1463.4000244141</ele>
        <time>2020-07-12T10:43:56Z</time>
      </trkpt>
      <trkpt lat="45.04642" lon="5.49257">
        <ele>1463.1999511719</ele>
        <time>2020-07-12T10:43:57Z</time>
      </trkpt>
      <trkpt lat="45.04641" lon="5.49256">
        <ele>1463.1999511719</ele>
        <time>2020-07-12T10:43:58Z</time>
      </trkpt>
      <trkpt lat="45.04635" lon="5.49241">
        <ele>1467.8000488281</ele>
        <time>2020-07-12T10:44:07Z</time>
      </trkpt>
      <trkpt lat="45.04635" lon="5.49239">
        <ele>1467.4000244141</ele>
        <time>2020-07-12T10:44:08Z</time>
      </trkpt>
      <trkpt lat="45.04635" lon="5.49237">
        <ele>1467.1999511719</ele>
        <time>2020-07-12T10:44:09Z</time>
      </trkpt>
      <trkpt lat="45.04646" lon="5.49202">
        <ele>1476.4000244141</ele>
        <time>2020-07-12T10:44:27Z</time>
      </trkpt>
      <trkpt lat="45.04647" lon="5.49189">
        <ele>1480.4000244141</ele>
        <time>2020-07-12T10:44:33Z</time>
      </trkpt>
      <trkpt lat="45.04643" lon="5.4916">
        <ele>1486.5999755859</ele>
        <time>2020-07-12T10:44:48Z</time>
      </trkpt>
      <trkpt lat="45.0464" lon="5.49151">
        <ele>1488.8000488281</ele>
        <time>2020-07-12T10:44:53Z</time>
      </trkpt>
      <trkpt lat="45.04635" lon="5.49136">
        <ele>1489.8000488281</ele>
        <time>2020-07-12T10:45:01Z</time>
      </trkpt>
      <trkpt lat="45.04621" lon="5.49111">
        <ele>1487.1999511719</ele>
        <time>2020-07-12T10:45:14Z</time>
      </trkpt>
      <trkpt lat="45.04605" lon="5.49089">
        <ele>1487.5999755859</ele>
        <time>2020-07-12T10:45:28Z</time>
      </trkpt>
      <trkpt lat="45.04612" lon="5.49071">
        <ele>1489.4000244141</ele>
        <time>2020-07-12T10:45:39Z</time>
      </trkpt>
      <trkpt lat="45.04656" lon="5.49051">
        <ele>1494.1999511719</ele>
        <time>2020-07-12T10:46:09Z</time>
      </trkpt>
      <trkpt lat="45.04672" lon="5.49027">
        <ele>1494.5999755859</ele>
        <time>2020-07-12T10:46:24Z</time>
      </trkpt>
      <trkpt lat="45.04685" lon="5.49008">
        <ele>1495.5999755859</ele>
        <time>2020-07-12T10:46:36Z</time>
      </trkpt>
      <trkpt lat="45.04686" lon="5.49007">
        <ele>1495.5999755859</ele>
        <time>2020-07-12T10:46:37Z</time>
      </trkpt>
      <trkpt lat="45.04687" lon="5.49005">
        <ele>1495.8000488281</ele>
        <time>2020-07-12T10:46:38Z</time>
      </trkpt>
      <trkpt lat="45.04689" lon="5.49004">
        <ele>1495.8000488281</ele>
        <time>2020-07-12T10:46:39Z</time>
      </trkpt>
      <trkpt lat="45.0469" lon="5.49003">
        <ele>1495.5999755859</ele>
        <time>2020-07-12T10:46:40Z</time>
      </trkpt>
      <trkpt lat="45.04691" lon="5.49002">
        <ele>1495.5999755859</ele>
        <time>2020-07-12T10:46:41Z</time>
      </trkpt>
      <trkpt lat="45.04693" lon="5.48999">
        <ele>1496.4000244141</ele>
        <time>2020-07-12T10:46:43Z</time>
      </trkpt>
      <trkpt lat="45.04695" lon="5.48997">
        <ele>1497.8000488281</ele>
        <time>2020-07-12T10:46:45Z</time>
      </trkpt>
      <trkpt lat="45.04696" lon="5.48995">
        <ele>1498.1999511719</ele>
        <time>2020-07-12T10:46:46Z</time>
      </trkpt>
      <trkpt lat="45.04712" lon="5.48972">
        <ele>1506</ele>
        <time>2020-07-12T10:47:02Z</time>
      </trkpt>
      <trkpt lat="45.04719" lon="5.4896">
        <ele>1512.4000244141</ele>
        <time>2020-07-12T10:47:11Z</time>
      </trkpt>
      <trkpt lat="45.04725" lon="5.48952">
        <ele>1512.4000244141</ele>
        <time>2020-07-12T10:47:16Z</time>
      </trkpt>
      <trkpt lat="45.04758" lon="5.48917">
        <ele>1510</ele>
        <time>2020-07-12T10:47:41Z</time>
      </trkpt>
      <trkpt lat="45.0477" lon="5.48902">
        <ele>1510</ele>
        <time>2020-07-12T10:47:51Z</time>
      </trkpt>
      <trkpt lat="45.04806" lon="5.48863">
        <ele>1513.1999511719</ele>
        <time>2020-07-12T10:48:20Z</time>
      </trkpt>
      <trkpt lat="45.04812" lon="5.48856">
        <ele>1514</ele>
        <time>2020-07-12T10:48:25Z</time>
      </trkpt>
      <trkpt lat="45.04838" lon="5.48822">
        <ele>1523.5999755859</ele>
        <time>2020-07-12T10:48:49Z</time>
      </trkpt>
      <trkpt lat="45.04842" lon="5.48817">
        <ele>1525.1999511719</ele>
        <time>2020-07-12T10:48:53Z</time>
      </trkpt>
      <trkpt lat="45.04856" lon="5.48791">
        <ele>1530.8000488281</ele>
        <time>2020-07-12T10:49:10Z</time>
      </trkpt>
      <trkpt lat="45.04857" lon="5.4879">
        <ele>1530</ele>
        <time>2020-07-12T10:49:21Z</time>
      </trkpt>
      <trkpt lat="45.04858" lon="5.48791">
        <ele>1530</ele>
        <time>2020-07-12T10:49:31Z</time>
      </trkpt>
      <trkpt lat="45.0486" lon="5.48792">
        <ele>1529.4000244141</ele>
        <time>2020-07-12T10:49:39Z</time>
      </trkpt>
      <trkpt lat="45.04859" lon="5.48792">
        <ele>1529.4000244141</ele>
        <time>2020-07-12T10:49:40Z</time>
      </trkpt>
      <trkpt lat="45.04859" lon="5.48792">
        <ele>1529.5999755859</ele>
        <time>2020-07-12T10:49:41Z</time>
      </trkpt>
      <trkpt lat="45.04858" lon="5.48791">
        <ele>1530.5999755859</ele>
        <time>2020-07-12T10:49:50Z</time>
      </trkpt>
      <trkpt lat="45.04858" lon="5.48791">
        <ele>1530.5999755859</ele>
        <time>2020-07-12T10:49:51Z</time>
      </trkpt>
      <trkpt lat="45.04858" lon="5.48791">
        <ele>1530.8000488281</ele>
        <time>2020-07-12T10:49:56Z</time>
      </trkpt>
      <trkpt lat="45.04858" lon="5.48791">
        <ele>1531</ele>
        <time>2020-07-12T10:49:59Z</time>
      </trkpt>
      <trkpt lat="45.04858" lon="5.4879">
        <ele>1531</ele>
        <time>2020-07-12T10:50:01Z</time>
      </trkpt>
      <trkpt lat="45.04857" lon="5.4879">
        <ele>1531</ele>
        <time>2020-07-12T10:50:04Z</time>
      </trkpt>
      <trkpt lat="45.04857" lon="5.4879">
        <ele>1531</ele>
        <time>2020-07-12T10:50:14Z</time>
      </trkpt>
      <trkpt lat="45.04857" lon="5.48788">
        <ele>1531</ele>
        <time>2020-07-12T10:50:20Z</time>
      </trkpt>
      <trkpt lat="45.04856" lon="5.48786">
        <ele>1531.1999511719</ele>
        <time>2020-07-12T10:50:24Z</time>
      </trkpt>
      <trkpt lat="45.04856" lon="5.48786">
        <ele>1531.5999755859</ele>
        <time>2020-07-12T10:50:27Z</time>
      </trkpt>
      <trkpt lat="45.04857" lon="5.48787">
        <ele>1529.1999511719</ele>
        <time>2020-07-12T10:51:03Z</time>
      </trkpt>
      <trkpt lat="45.04858" lon="5.4879">
        <ele>1526.1999511719</ele>
        <time>2020-07-12T10:51:54Z</time>
      </trkpt>
      <trkpt lat="45.04857" lon="5.48789">
        <ele>1525.1999511719</ele>
        <time>2020-07-12T10:52:02Z</time>
      </trkpt>
      <trkpt lat="45.04858" lon="5.48789">
        <ele>1525.8000488281</ele>
        <time>2020-07-12T10:52:08Z</time>
      </trkpt>
      <trkpt lat="45.04858" lon="5.48789">
        <ele>1526</ele>
        <time>2020-07-12T10:52:10Z</time>
      </trkpt>
      <trkpt lat="45.04858" lon="5.48789">
        <ele>1526</ele>
        <time>2020-07-12T10:52:38Z</time>
      </trkpt>
      <trkpt lat="45.04861" lon="5.48784">
        <ele>1525</ele>
        <time>2020-07-12T10:53:10Z</time>
      </trkpt>
      <trkpt lat="45.04863" lon="5.48772">
        <ele>1524.1999511719</ele>
        <time>2020-07-12T10:53:15Z</time>
      </trkpt>
      <trkpt lat="45.04865" lon="5.48757">
        <ele>1522.5999755859</ele>
        <time>2020-07-12T10:53:21Z</time>
      </trkpt>
      <trkpt lat="45.04867" lon="5.48749">
        <ele>1520.8000488281</ele>
        <time>2020-07-12T10:53:26Z</time>
      </trkpt>
      <trkpt lat="45.04868" lon="5.48744">
        <ele>1520.4000244141</ele>
        <time>2020-07-12T10:53:28Z</time>
      </trkpt>
      <trkpt lat="45.04869" lon="5.48741">
        <ele>1520.1999511719</ele>
        <time>2020-07-12T10:53:29Z</time>
      </trkpt>
      <trkpt lat="45.0487" lon="5.48735">
        <ele>1519.8000488281</ele>
        <time>2020-07-12T10:53:31Z</time>
      </trkpt>
      <trkpt lat="45.04872" lon="5.48724">
        <ele>1519.4000244141</ele>
        <time>2020-07-12T10:53:35Z</time>
      </trkpt>
      <trkpt lat="45.04874" lon="5.48716">
        <ele>1519</ele>
        <time>2020-07-12T10:53:38Z</time>
      </trkpt>
      <trkpt lat="45.04875" lon="5.48712">
        <ele>1518.4000244141</ele>
        <time>2020-07-12T10:53:40Z</time>
      </trkpt>
      <trkpt lat="45.04878" lon="5.48705">
        <ele>1518.4000244141</ele>
        <time>2020-07-12T10:53:43Z</time>
      </trkpt>
      <trkpt lat="45.0489" lon="5.48676">
        <ele>1517.4000244141</ele>
        <time>2020-07-12T10:53:53Z</time>
      </trkpt>
      <trkpt lat="45.04893" lon="5.48669">
        <ele>1517</ele>
        <time>2020-07-12T10:53:56Z</time>
      </trkpt>
      <trkpt lat="45.04898" lon="5.48657">
        <ele>1517.1999511719</ele>
        <time>2020-07-12T10:54:02Z</time>
      </trkpt>
      <trkpt lat="45.04902" lon="5.48646">
        <ele>1517.1999511719</ele>
        <time>2020-07-12T10:54:08Z</time>
      </trkpt>
      <trkpt lat="45.04901" lon="5.48645">
        <ele>1517.1999511719</ele>
        <time>2020-07-12T10:54:09Z</time>
      </trkpt>
      <trkpt lat="45.04901" lon="5.48643">
        <ele>1517.1999511719</ele>
        <time>2020-07-12T10:54:10Z</time>
      </trkpt>
      <trkpt lat="45.04901" lon="5.48641">
        <ele>1517</ele>
        <time>2020-07-12T10:54:11Z</time>
      </trkpt>
      <trkpt lat="45.04891" lon="5.48623">
        <ele>1516.8000488281</ele>
        <time>2020-07-12T10:54:19Z</time>
      </trkpt>
      <trkpt lat="45.04889" lon="5.48621">
        <ele>1516.8000488281</ele>
        <time>2020-07-12T10:54:20Z</time>
      </trkpt>
      <trkpt lat="45.04888" lon="5.48619">
        <ele>1516.5999755859</ele>
        <time>2020-07-12T10:54:21Z</time>
      </trkpt>
      <trkpt lat="45.04886" lon="5.48617">
        <ele>1516.4000244141</ele>
        <time>2020-07-12T10:54:22Z</time>
      </trkpt>
      <trkpt lat="45.04884" lon="5.48615">
        <ele>1516.4000244141</ele>
        <time>2020-07-12T10:54:23Z</time>
      </trkpt>
      <trkpt lat="45.04883" lon="5.48613">
        <ele>1516.1999511719</ele>
        <time>2020-07-12T10:54:24Z</time>
      </trkpt>
      <trkpt lat="45.0488" lon="5.48609">
        <ele>1516.1999511719</ele>
        <time>2020-07-12T10:54:26Z</time>
      </trkpt>
      <trkpt lat="45.04879" lon="5.48608">
        <ele>1516.1999511719</ele>
        <time>2020-07-12T10:54:27Z</time>
      </trkpt>
      <trkpt lat="45.04876" lon="5.48605">
        <ele>1516.4000244141</ele>
        <time>2020-07-12T10:54:29Z</time>
      </trkpt>
      <trkpt lat="45.04874" lon="5.48603">
        <ele>1516.1999511719</ele>
        <time>2020-07-12T10:54:30Z</time>
      </trkpt>
      <trkpt lat="45.04872" lon="5.48601">
        <ele>1516.1999511719</ele>
        <time>2020-07-12T10:54:31Z</time>
      </trkpt>
      <trkpt lat="45.04869" lon="5.48597">
        <ele>1515.8000488281</ele>
        <time>2020-07-12T10:54:33Z</time>
      </trkpt>
      <trkpt lat="45.04867" lon="5.48594">
        <ele>1515.8000488281</ele>
        <time>2020-07-12T10:54:34Z</time>
      </trkpt>
      <trkpt lat="45.04865" lon="5.48593">
        <ele>1515.8000488281</ele>
        <time>2020-07-12T10:54:35Z</time>
      </trkpt>
      <trkpt lat="45.04864" lon="5.48592">
        <ele>1515.5999755859</ele>
        <time>2020-07-12T10:54:36Z</time>
      </trkpt>
      <trkpt lat="45.04862" lon="5.4859">
        <ele>1515.5999755859</ele>
        <time>2020-07-12T10:54:37Z</time>
      </trkpt>
      <trkpt lat="45.04861" lon="5.48589">
        <ele>1515.5999755859</ele>
        <time>2020-07-12T10:54:38Z</time>
      </trkpt>
      <trkpt lat="45.04859" lon="5.48588">
        <ele>1515.5999755859</ele>
        <time>2020-07-12T10:54:39Z</time>
      </trkpt>
      <trkpt lat="45.04857" lon="5.48587">
        <ele>1515.4000244141</ele>
        <time>2020-07-12T10:54:40Z</time>
      </trkpt>
      <trkpt lat="45.04855" lon="5.48585">
        <ele>1515.1999511719</ele>
        <time>2020-07-12T10:54:41Z</time>
      </trkpt>
      <trkpt lat="45.04853" lon="5.48584">
        <ele>1515</ele>
        <time>2020-07-12T10:54:42Z</time>
      </trkpt>
      <trkpt lat="45.04851" lon="5.48582">
        <ele>1514.5999755859</ele>
        <time>2020-07-12T10:54:43Z</time>
      </trkpt>
      <trkpt lat="45.04849" lon="5.48581">
        <ele>1514.1999511719</ele>
        <time>2020-07-12T10:54:44Z</time>
      </trkpt>
      <trkpt lat="45.04845" lon="5.48578">
        <ele>1514</ele>
        <time>2020-07-12T10:54:46Z</time>
      </trkpt>
      <trkpt lat="45.04843" lon="5.48577">
        <ele>1514</ele>
        <time>2020-07-12T10:54:47Z</time>
      </trkpt>
      <trkpt lat="45.04841" lon="5.48576">
        <ele>1514</ele>
        <time>2020-07-12T10:54:48Z</time>
      </trkpt>
      <trkpt lat="45.04839" lon="5.48574">
        <ele>1513.8000488281</ele>
        <time>2020-07-12T10:54:49Z</time>
      </trkpt>
      <trkpt lat="45.04837" lon="5.48573">
        <ele>1513.8000488281</ele>
        <time>2020-07-12T10:54:50Z</time>
      </trkpt>
      <trkpt lat="45.04835" lon="5.48571">
        <ele>1513.8000488281</ele>
        <time>2020-07-12T10:54:51Z</time>
      </trkpt>
      <trkpt lat="45.04833" lon="5.4857">
        <ele>1514.1999511719</ele>
        <time>2020-07-12T10:54:52Z</time>
      </trkpt>
      <trkpt lat="45.04827" lon="5.48566">
        <ele>1514.1999511719</ele>
        <time>2020-07-12T10:54:55Z</time>
      </trkpt>
      <trkpt lat="45.04818" lon="5.48561">
        <ele>1515</ele>
        <time>2020-07-12T10:54:59Z</time>
      </trkpt>
      <trkpt lat="45.0481" lon="5.48555">
        <ele>1515.4000244141</ele>
        <time>2020-07-12T10:55:03Z</time>
      </trkpt>
      <trkpt lat="45.04808" lon="5.48554">
        <ele>1515.5999755859</ele>
        <time>2020-07-12T10:55:04Z</time>
      </trkpt>
      <trkpt lat="45.04769" lon="5.48521">
        <ele>1519.5999755859</ele>
        <time>2020-07-12T10:55:24Z</time>
      </trkpt>
      <trkpt lat="45.04747" lon="5.48508">
        <ele>1520.1999511719</ele>
        <time>2020-07-12T10:55:35Z</time>
      </trkpt>
      <trkpt lat="45.0474" lon="5.48503">
        <ele>1520.4000244141</ele>
        <time>2020-07-12T10:55:40Z</time>
      </trkpt>
      <trkpt lat="45.04729" lon="5.48497">
        <ele>1521</ele>
        <time>2020-07-12T10:55:47Z</time>
      </trkpt>
      <trkpt lat="45.04702" lon="5.48482">
        <ele>1522</ele>
        <time>2020-07-12T10:56:02Z</time>
      </trkpt>
      <trkpt lat="45.04679" lon="5.48471">
        <ele>1523.5999755859</ele>
        <time>2020-07-12T10:56:12Z</time>
      </trkpt>
      <trkpt lat="45.04639" lon="5.48442">
        <ele>1526</ele>
        <time>2020-07-12T10:56:31Z</time>
      </trkpt>
      <trkpt lat="45.04624" lon="5.48432">
        <ele>1527</ele>
        <time>2020-07-12T10:56:38Z</time>
      </trkpt>
      <trkpt lat="45.04608" lon="5.48419">
        <ele>1528</ele>
        <time>2020-07-12T10:56:46Z</time>
      </trkpt>
      <trkpt lat="45.04581" lon="5.48403">
        <ele>1527.5999755859</ele>
        <time>2020-07-12T10:56:58Z</time>
      </trkpt>
      <trkpt lat="45.04548" lon="5.4837">
        <ele>1526.1999511719</ele>
        <time>2020-07-12T10:57:15Z</time>
      </trkpt>
      <trkpt lat="45.04545" lon="5.48369">
        <ele>1526.4000244141</ele>
        <time>2020-07-12T10:57:40Z</time>
      </trkpt>
      <trkpt lat="45.04545" lon="5.48369">
        <ele>1526.4000244141</ele>
        <time>2020-07-12T10:57:43Z</time>
      </trkpt>
      <trkpt lat="45.04543" lon="5.48369">
        <ele>1526.8000488281</ele>
        <time>2020-07-12T10:57:48Z</time>
      </trkpt>
      <trkpt lat="45.04542" lon="5.48368">
        <ele>1527.1999511719</ele>
        <time>2020-07-12T10:57:50Z</time>
      </trkpt>
      <trkpt lat="45.04541" lon="5.48367">
        <ele>1527.1999511719</ele>
        <time>2020-07-12T10:57:51Z</time>
      </trkpt>
      <trkpt lat="45.04537" lon="5.48363">
        <ele>1528</ele>
        <time>2020-07-12T10:57:54Z</time>
      </trkpt>
      <trkpt lat="45.04534" lon="5.4836">
        <ele>1528.1999511719</ele>
        <time>2020-07-12T10:57:56Z</time>
      </trkpt>
      <trkpt lat="45.04529" lon="5.48354">
        <ele>1528</ele>
        <time>2020-07-12T10:57:59Z</time>
      </trkpt>
      <trkpt lat="45.04512" lon="5.48318">
        <ele>1527.8000488281</ele>
        <time>2020-07-12T10:58:13Z</time>
      </trkpt>
      <trkpt lat="45.04511" lon="5.48316">
        <ele>1527.8000488281</ele>
        <time>2020-07-12T10:58:14Z</time>
      </trkpt>
      <trkpt lat="45.04511" lon="5.48314">
        <ele>1528</ele>
        <time>2020-07-12T10:58:15Z</time>
      </trkpt>
      <trkpt lat="45.0451" lon="5.48311">
        <ele>1528.1999511719</ele>
        <time>2020-07-12T10:58:17Z</time>
      </trkpt>
      <trkpt lat="45.04509" lon="5.48311">
        <ele>1528.4000244141</ele>
        <time>2020-07-12T10:58:18Z</time>
      </trkpt>
      <trkpt lat="45.04509" lon="5.48311">
        <ele>1528.8000488281</ele>
        <time>2020-07-12T10:58:19Z</time>
      </trkpt>
      <trkpt lat="45.04509" lon="5.48311">
        <ele>1528.5999755859</ele>
        <time>2020-07-12T10:58:20Z</time>
      </trkpt>
      <trkpt lat="45.04509" lon="5.48311">
        <ele>1528.8000488281</ele>
        <time>2020-07-12T10:58:21Z</time>
      </trkpt>
      <trkpt lat="45.04509" lon="5.48311">
        <ele>1529.1999511719</ele>
        <time>2020-07-12T10:58:23Z</time>
      </trkpt>
      <trkpt lat="45.04509" lon="5.48311">
        <ele>1529</ele>
        <time>2020-07-12T10:58:28Z</time>
      </trkpt>
      <trkpt lat="45.04509" lon="5.48311">
        <ele>1529</ele>
        <time>2020-07-12T10:58:31Z</time>
      </trkpt>
      <trkpt lat="45.04509" lon="5.48311">
        <ele>1529</ele>
        <time>2020-07-12T10:58:37Z</time>
      </trkpt>
      <trkpt lat="45.0451" lon="5.48311">
        <ele>1527.5999755859</ele>
        <time>2020-07-12T10:58:43Z</time>
      </trkpt>
      <trkpt lat="45.04509" lon="5.48312">
        <ele>1527.4000244141</ele>
        <time>2020-07-12T10:58:47Z</time>
      </trkpt>
      <trkpt lat="45.0451" lon="5.48312">
        <ele>1527</ele>
        <time>2020-07-12T10:58:53Z</time>
      </trkpt>
      <trkpt lat="45.0451" lon="5.48312">
        <ele>1528</ele>
        <time>2020-07-12T10:58:56Z</time>
      </trkpt>
      <trkpt lat="45.0451" lon="5.48312">
        <ele>1528</ele>
        <time>2020-07-12T10:58:59Z</time>
      </trkpt>
      <trkpt lat="45.0451" lon="5.48312">
        <ele>1528</ele>
        <time>2020-07-12T10:59:01Z</time>
      </trkpt>
      <trkpt lat="45.0451" lon="5.48312">
        <ele>1528</ele>
        <time>2020-07-12T10:59:02Z</time>
      </trkpt>
      <trkpt lat="45.0451" lon="5.48312">
        <ele>1528</ele>
        <time>2020-07-12T10:59:03Z</time>
      </trkpt>
      <trkpt lat="45.0451" lon="5.48312">
        <ele>1528.1999511719</ele>
        <time>2020-07-12T10:59:05Z</time>
      </trkpt>
      <trkpt lat="45.0451" lon="5.48312">
        <ele>1527.8000488281</ele>
        <time>2020-07-12T10:59:08Z</time>
      </trkpt>
      <trkpt lat="45.0451" lon="5.48312">
        <ele>1527.5999755859</ele>
        <time>2020-07-12T10:59:10Z</time>
      </trkpt>
      <trkpt lat="45.0451" lon="5.48311">
        <ele>1527</ele>
        <time>2020-07-12T10:59:13Z</time>
      </trkpt>
      <trkpt lat="45.04509" lon="5.48311">
        <ele>1526.5999755859</ele>
        <time>2020-07-12T10:59:17Z</time>
      </trkpt>
      <trkpt lat="45.04509" lon="5.4831">
        <ele>1527</ele>
        <time>2020-07-12T10:59:24Z</time>
      </trkpt>
      <trkpt lat="45.04508" lon="5.4831">
        <ele>1526.5999755859</ele>
        <time>2020-07-12T10:59:28Z</time>
      </trkpt>
      <trkpt lat="45.04507" lon="5.48309">
        <ele>1525.8000488281</ele>
        <time>2020-07-12T10:59:34Z</time>
      </trkpt>
      <trkpt lat="45.04508" lon="5.48308">
        <ele>1526</ele>
        <time>2020-07-12T10:59:40Z</time>
      </trkpt>
      <trkpt lat="45.04511" lon="5.48302">
        <ele>1525.5999755859</ele>
        <time>2020-07-12T10:59:46Z</time>
      </trkpt>
      <trkpt lat="45.04511" lon="5.48298">
        <ele>1526</ele>
        <time>2020-07-12T10:59:49Z</time>
      </trkpt>
      <trkpt lat="45.04513" lon="5.48289">
        <ele>1526.5999755859</ele>
        <time>2020-07-12T10:59:55Z</time>
      </trkpt>
      <trkpt lat="45.04513" lon="5.48285">
        <ele>1527.4000244141</ele>
        <time>2020-07-12T10:59:58Z</time>
      </trkpt>
      <trkpt lat="45.04513" lon="5.48279">
        <ele>1528</ele>
        <time>2020-07-12T11:00:03Z</time>
      </trkpt>
      <trkpt lat="45.04513" lon="5.48279">
        <ele>1528.1999511719</ele>
        <time>2020-07-12T11:00:04Z</time>
      </trkpt>
      <trkpt lat="45.04512" lon="5.48278">
        <ele>1528.1999511719</ele>
        <time>2020-07-12T11:00:05Z</time>
      </trkpt>
      <trkpt lat="45.04511" lon="5.48278">
        <ele>1528.4000244141</ele>
        <time>2020-07-12T11:00:06Z</time>
      </trkpt>
      <trkpt lat="45.04511" lon="5.48277">
        <ele>1528.1999511719</ele>
        <time>2020-07-12T11:00:07Z</time>
      </trkpt>
      <trkpt lat="45.0451" lon="5.48277">
        <ele>1531.1999511719</ele>
        <time>2020-07-12T11:00:20Z</time>
      </trkpt>
      <trkpt lat="45.04511" lon="5.48276">
        <ele>1532</ele>
        <time>2020-07-12T11:00:30Z</time>
      </trkpt>
      <trkpt lat="45.04511" lon="5.48276">
        <ele>1532</ele>
        <time>2020-07-12T11:00:41Z</time>
      </trkpt>
      <trkpt lat="45.04511" lon="5.48275">
        <ele>1532.1999511719</ele>
        <time>2020-07-12T11:00:46Z</time>
      </trkpt>
      <trkpt lat="45.04509" lon="5.48278">
        <ele>1529</ele>
        <time>2020-07-12T11:01:21Z</time>
      </trkpt>
      <trkpt lat="45.04508" lon="5.48278">
        <ele>1529.1999511719</ele>
        <time>2020-07-12T11:01:24Z</time>
      </trkpt>
      <trkpt lat="45.04508" lon="5.48277">
        <ele>1531.4000244141</ele>
        <time>2020-07-12T11:01:33Z</time>
      </trkpt>
      <trkpt lat="45.04508" lon="5.48277">
        <ele>1530.8000488281</ele>
        <time>2020-07-12T11:01:37Z</time>
      </trkpt>
      <trkpt lat="45.04508" lon="5.48252">
        <ele>1523.1999511719</ele>
        <time>2020-07-12T11:58:16Z</time>
      </trkpt>
      <trkpt lat="45.04513" lon="5.48258">
        <ele>1525.1999511719</ele>
        <time>2020-07-12T11:58:24Z</time>
      </trkpt>
      <trkpt lat="45.04511" lon="5.48315">
        <ele>1521</ele>
        <time>2020-07-12T11:58:44Z</time>
      </trkpt>
      <trkpt lat="45.04508" lon="5.48314">
        <ele>1520.8000488281</ele>
        <time>2020-07-12T11:58:46Z</time>
      </trkpt>
      <trkpt lat="45.04504" lon="5.48311">
        <ele>1520.8000488281</ele>
        <time>2020-07-12T11:58:49Z</time>
      </trkpt>
      <trkpt lat="45.04499" lon="5.48306">
        <ele>1521.1999511719</ele>
        <time>2020-07-12T11:58:53Z</time>
      </trkpt>
      <trkpt lat="45.04492" lon="5.48302">
        <ele>1521.1999511719</ele>
        <time>2020-07-12T11:58:56Z</time>
      </trkpt>
      <trkpt lat="45.04486" lon="5.48298">
        <ele>1520.5999755859</ele>
        <time>2020-07-12T11:58:59Z</time>
      </trkpt>
      <trkpt lat="45.04484" lon="5.48299">
        <ele>1520.4000244141</ele>
        <time>2020-07-12T11:59:00Z</time>
      </trkpt>
      <trkpt lat="45.04487" lon="5.48335">
        <ele>1517.1999511719</ele>
        <time>2020-07-12T11:59:10Z</time>
      </trkpt>
      <trkpt lat="45.0449" lon="5.48341">
        <ele>1517</ele>
        <time>2020-07-12T11:59:11Z</time>
      </trkpt>
      <trkpt lat="45.04495" lon="5.48352">
        <ele>1516.1999511719</ele>
        <time>2020-07-12T11:59:13Z</time>
      </trkpt>
      <trkpt lat="45.045" lon="5.48362">
        <ele>1515.4000244141</ele>
        <time>2020-07-12T11:59:15Z</time>
      </trkpt>
      <trkpt lat="45.04501" lon="5.48374">
        <ele>1514.4000244141</ele>
        <time>2020-07-12T11:59:18Z</time>
      </trkpt>
      <trkpt lat="45.04496" lon="5.48375">
        <ele>1513.5999755859</ele>
        <time>2020-07-12T11:59:21Z</time>
      </trkpt>
      <trkpt lat="45.04495" lon="5.48373">
        <ele>1513.1999511719</ele>
        <time>2020-07-12T11:59:22Z</time>
      </trkpt>
      <trkpt lat="45.0449" lon="5.48366">
        <ele>1512.1999511719</ele>
        <time>2020-07-12T11:59:25Z</time>
      </trkpt>
      <trkpt lat="45.04486" lon="5.4836">
        <ele>1511.4000244141</ele>
        <time>2020-07-12T11:59:27Z</time>
      </trkpt>
      <trkpt lat="45.04475" lon="5.48347">
        <ele>1509</ele>
        <time>2020-07-12T11:59:32Z</time>
      </trkpt>
      <trkpt lat="45.04467" lon="5.48339">
        <ele>1507.4000244141</ele>
        <time>2020-07-12T11:59:35Z</time>
      </trkpt>
      <trkpt lat="45.04464" lon="5.48336">
        <ele>1506.8000488281</ele>
        <time>2020-07-12T11:59:36Z</time>
      </trkpt>
      <trkpt lat="45.04439" lon="5.48306">
        <ele>1502.5999755859</ele>
        <time>2020-07-12T11:59:43Z</time>
      </trkpt>
      <trkpt lat="45.04421" lon="5.48282">
        <ele>1498.5999755859</ele>
        <time>2020-07-12T11:59:48Z</time>
      </trkpt>
      <trkpt lat="45.04413" lon="5.48274">
        <ele>1496.5999755859</ele>
        <time>2020-07-12T11:59:51Z</time>
      </trkpt>
      <trkpt lat="45.04411" lon="5.48272">
        <ele>1496</ele>
        <time>2020-07-12T11:59:52Z</time>
      </trkpt>
      <trkpt lat="45.04408" lon="5.48259">
        <ele>1493.5999755859</ele>
        <time>2020-07-12T11:59:55Z</time>
      </trkpt>
      <trkpt lat="45.04406" lon="5.48255">
        <ele>1492.5999755859</ele>
        <time>2020-07-12T11:59:56Z</time>
      </trkpt>
      <trkpt lat="45.04392" lon="5.48225">
        <ele>1488.1999511719</ele>
        <time>2020-07-12T12:00:03Z</time>
      </trkpt>
      <trkpt lat="45.04391" lon="5.4822">
        <ele>1487.5999755859</ele>
        <time>2020-07-12T12:00:04Z</time>
      </trkpt>
      <trkpt lat="45.04391" lon="5.48188">
        <ele>1483.8000488281</ele>
        <time>2020-07-12T12:00:10Z</time>
      </trkpt>
      <trkpt lat="45.04392" lon="5.48181">
        <ele>1483.1999511719</ele>
        <time>2020-07-12T12:00:11Z</time>
      </trkpt>
      <trkpt lat="45.04393" lon="5.48168">
        <ele>1481.8000488281</ele>
        <time>2020-07-12T12:00:13Z</time>
      </trkpt>
      <trkpt lat="45.04396" lon="5.48157">
        <ele>1480</ele>
        <time>2020-07-12T12:00:15Z</time>
      </trkpt>
      <trkpt lat="45.04401" lon="5.48147">
        <ele>1478.5999755859</ele>
        <time>2020-07-12T12:00:17Z</time>
      </trkpt>
      <trkpt lat="45.04412" lon="5.48134">
        <ele>1476.1999511719</ele>
        <time>2020-07-12T12:00:20Z</time>
      </trkpt>
      <trkpt lat="45.04421" lon="5.48128">
        <ele>1475</ele>
        <time>2020-07-12T12:00:22Z</time>
      </trkpt>
      <trkpt lat="45.04443" lon="5.48118">
        <ele>1471.5999755859</ele>
        <time>2020-07-12T12:00:27Z</time>
      </trkpt>
      <trkpt lat="45.04468" lon="5.48107">
        <ele>1467.8000488281</ele>
        <time>2020-07-12T12:00:33Z</time>
      </trkpt>
      <trkpt lat="45.04507" lon="5.48092">
        <ele>1462</ele>
        <time>2020-07-12T12:00:44Z</time>
      </trkpt>
      <trkpt lat="45.04535" lon="5.4808">
        <ele>1458.5999755859</ele>
        <time>2020-07-12T12:00:50Z</time>
      </trkpt>
      <trkpt lat="45.04582" lon="5.48067">
        <ele>1454</ele>
        <time>2020-07-12T12:00:58Z</time>
      </trkpt>
      <trkpt lat="45.04628" lon="5.48056">
        <ele>1449.4000244141</ele>
        <time>2020-07-12T12:01:06Z</time>
      </trkpt>
      <trkpt lat="45.04677" lon="5.48047">
        <ele>1447.4000244141</ele>
        <time>2020-07-12T12:01:15Z</time>
      </trkpt>
      <trkpt lat="45.04715" lon="5.48037">
        <ele>1449.1999511719</ele>
        <time>2020-07-12T12:01:23Z</time>
      </trkpt>
      <trkpt lat="45.0473" lon="5.48035">
        <ele>1450.4000244141</ele>
        <time>2020-07-12T12:01:26Z</time>
      </trkpt>
      <trkpt lat="45.04746" lon="5.48032">
        <ele>1450.5999755859</ele>
        <time>2020-07-12T12:01:29Z</time>
      </trkpt>
      <trkpt lat="45.04762" lon="5.4803">
        <ele>1450</ele>
        <time>2020-07-12T12:01:32Z</time>
      </trkpt>
      <trkpt lat="45.04805" lon="5.48022">
        <ele>1448.8000488281</ele>
        <time>2020-07-12T12:01:40Z</time>
      </trkpt>
      <trkpt lat="45.0485" lon="5.48012">
        <ele>1446</ele>
        <time>2020-07-12T12:01:49Z</time>
      </trkpt>
      <trkpt lat="45.049" lon="5.48011">
        <ele>1440</ele>
        <time>2020-07-12T12:01:57Z</time>
      </trkpt>
      <trkpt lat="45.04946" lon="5.48008">
        <ele>1434.8000488281</ele>
        <time>2020-07-12T12:02:04Z</time>
      </trkpt>
      <trkpt lat="45.04996" lon="5.48003">
        <ele>1430.8000488281</ele>
        <time>2020-07-12T12:02:11Z</time>
      </trkpt>
      <trkpt lat="45.05044" lon="5.48006">
        <ele>1428.4000244141</ele>
        <time>2020-07-12T12:02:18Z</time>
      </trkpt>
      <trkpt lat="45.05056" lon="5.48006">
        <ele>1428.5999755859</ele>
        <time>2020-07-12T12:02:20Z</time>
      </trkpt>
      <trkpt lat="45.05098" lon="5.48005">
        <ele>1426.1999511719</ele>
        <time>2020-07-12T12:02:46Z</time>
      </trkpt>
      <trkpt lat="45.05097" lon="5.48004">
        <ele>1426.1999511719</ele>
        <time>2020-07-12T12:03:03Z</time>
      </trkpt>
      <trkpt lat="45.05097" lon="5.48004">
        <ele>1426.1999511719</ele>
        <time>2020-07-12T12:03:13Z</time>
      </trkpt>
      <trkpt lat="45.05096" lon="5.48004">
        <ele>1426.1999511719</ele>
        <time>2020-07-12T12:03:16Z</time>
      </trkpt>
      <trkpt lat="45.05096" lon="5.48004">
        <ele>1426.4000244141</ele>
        <time>2020-07-12T12:03:19Z</time>
      </trkpt>
      <trkpt lat="45.05096" lon="5.48004">
        <ele>1426.1999511719</ele>
        <time>2020-07-12T12:03:22Z</time>
      </trkpt>
      <trkpt lat="45.05095" lon="5.48005">
        <ele>1425.1999511719</ele>
        <time>2020-07-12T12:03:25Z</time>
      </trkpt>
      <trkpt lat="45.05095" lon="5.48005">
        <ele>1424.1999511719</ele>
        <time>2020-07-12T12:03:27Z</time>
      </trkpt>
      <trkpt lat="45.05096" lon="5.48006">
        <ele>1423.1999511719</ele>
        <time>2020-07-12T12:03:31Z</time>
      </trkpt>
      <trkpt lat="45.05096" lon="5.48006">
        <ele>1422.5999755859</ele>
        <time>2020-07-12T12:03:36Z</time>
      </trkpt>
      <trkpt lat="45.05096" lon="5.48007">
        <ele>1422.1999511719</ele>
        <time>2020-07-12T12:03:45Z</time>
      </trkpt>
      <trkpt lat="45.05096" lon="5.48007">
        <ele>1422</ele>
        <time>2020-07-12T12:03:51Z</time>
      </trkpt>
      <trkpt lat="45.05096" lon="5.48007">
        <ele>1421.1999511719</ele>
        <time>2020-07-12T12:03:56Z</time>
      </trkpt>
      <trkpt lat="45.05095" lon="5.48004">
        <ele>1418.8000488281</ele>
        <time>2020-07-12T12:04:06Z</time>
      </trkpt>
      <trkpt lat="45.05095" lon="5.48002">
        <ele>1416.4000244141</ele>
        <time>2020-07-12T12:04:12Z</time>
      </trkpt>
      <trkpt lat="45.05096" lon="5.48001">
        <ele>1414.4000244141</ele>
        <time>2020-07-12T12:04:16Z</time>
      </trkpt>
      <trkpt lat="45.05097" lon="5.48004">
        <ele>1411.5999755859</ele>
        <time>2020-07-12T12:04:41Z</time>
      </trkpt>
      <trkpt lat="45.05092" lon="5.48">
        <ele>1407.8000488281</ele>
        <time>2020-07-12T12:04:51Z</time>
      </trkpt>
      <trkpt lat="45.05046" lon="5.47984">
        <ele>1395</ele>
        <time>2020-07-12T12:05:06Z</time>
      </trkpt>
      <trkpt lat="45.05017" lon="5.47976">
        <ele>1384.4000244141</ele>
        <time>2020-07-12T12:05:14Z</time>
      </trkpt>
      <trkpt lat="45.05012" lon="5.47976">
        <ele>1382.4000244141</ele>
        <time>2020-07-12T12:05:15Z</time>
      </trkpt>
      <trkpt lat="45.05002" lon="5.47974">
        <ele>1378.8000488281</ele>
        <time>2020-07-12T12:05:17Z</time>
      </trkpt>
      <trkpt lat="45.04997" lon="5.47974">
        <ele>1377.4000244141</ele>
        <time>2020-07-12T12:05:18Z</time>
      </trkpt>
      <trkpt lat="45.04992" lon="5.47974">
        <ele>1375.8000488281</ele>
        <time>2020-07-12T12:05:19Z</time>
      </trkpt>
      <trkpt lat="45.04986" lon="5.47973">
        <ele>1374.1999511719</ele>
        <time>2020-07-12T12:05:20Z</time>
      </trkpt>
      <trkpt lat="45.04953" lon="5.47964">
        <ele>1369</ele>
        <time>2020-07-12T12:05:25Z</time>
      </trkpt>
      <trkpt lat="45.04945" lon="5.4796">
        <ele>1369.5999755859</ele>
        <time>2020-07-12T12:05:26Z</time>
      </trkpt>
      <trkpt lat="45.04921" lon="5.4795">
        <ele>1369.1999511719</ele>
        <time>2020-07-12T12:05:29Z</time>
      </trkpt>
      <trkpt lat="45.04903" lon="5.47941">
        <ele>1370.5999755859</ele>
        <time>2020-07-12T12:05:31Z</time>
      </trkpt>
      <trkpt lat="45.04869" lon="5.47927">
        <ele>1373.5999755859</ele>
        <time>2020-07-12T12:05:35Z</time>
      </trkpt>
      <trkpt lat="45.04861" lon="5.47923">
        <ele>1373.4000244141</ele>
        <time>2020-07-12T12:05:36Z</time>
      </trkpt>
      <trkpt lat="45.04845" lon="5.47916">
        <ele>1372.8000488281</ele>
        <time>2020-07-12T12:05:38Z</time>
      </trkpt>
      <trkpt lat="45.04837" lon="5.47912">
        <ele>1372.4000244141</ele>
        <time>2020-07-12T12:05:39Z</time>
      </trkpt>
      <trkpt lat="45.04828" lon="5.47908">
        <ele>1372</ele>
        <time>2020-07-12T12:05:40Z</time>
      </trkpt>
      <trkpt lat="45.0482" lon="5.47904">
        <ele>1371.1999511719</ele>
        <time>2020-07-12T12:05:41Z</time>
      </trkpt>
      <trkpt lat="45.04774" lon="5.47881">
        <ele>1368.1999511719</ele>
        <time>2020-07-12T12:05:46Z</time>
      </trkpt>
      <trkpt lat="45.04746" lon="5.4787">
        <ele>1365.5999755859</ele>
        <time>2020-07-12T12:05:49Z</time>
      </trkpt>
      <trkpt lat="45.0473" lon="5.47862">
        <ele>1364.4000244141</ele>
        <time>2020-07-12T12:05:51Z</time>
      </trkpt>
      <trkpt lat="45.04699" lon="5.47846">
        <ele>1362.8000488281</ele>
        <time>2020-07-12T12:05:55Z</time>
      </trkpt>
      <trkpt lat="45.04692" lon="5.47844">
        <ele>1362.5999755859</ele>
        <time>2020-07-12T12:05:56Z</time>
      </trkpt>
      <trkpt lat="45.04685" lon="5.47841">
        <ele>1362.1999511719</ele>
        <time>2020-07-12T12:05:57Z</time>
      </trkpt>
      <trkpt lat="45.04678" lon="5.47838">
        <ele>1361.4000244141</ele>
        <time>2020-07-12T12:05:58Z</time>
      </trkpt>
      <trkpt lat="45.04665" lon="5.47832">
        <ele>1360.1999511719</ele>
        <time>2020-07-12T12:06:00Z</time>
      </trkpt>
      <trkpt lat="45.04659" lon="5.47829">
        <ele>1359.5999755859</ele>
        <time>2020-07-12T12:06:01Z</time>
      </trkpt>
      <trkpt lat="45.04653" lon="5.47827">
        <ele>1359.1999511719</ele>
        <time>2020-07-12T12:06:02Z</time>
      </trkpt>
      <trkpt lat="45.04648" lon="5.47824">
        <ele>1358.4000244141</ele>
        <time>2020-07-12T12:06:03Z</time>
      </trkpt>
      <trkpt lat="45.0462" lon="5.47811">
        <ele>1356.4000244141</ele>
        <time>2020-07-12T12:06:08Z</time>
      </trkpt>
      <trkpt lat="45.04605" lon="5.47799">
        <ele>1354.5999755859</ele>
        <time>2020-07-12T12:06:11Z</time>
      </trkpt>
      <trkpt lat="45.04566" lon="5.47765">
        <ele>1351.5999755859</ele>
        <time>2020-07-12T12:06:18Z</time>
      </trkpt>
      <trkpt lat="45.04551" lon="5.47747">
        <ele>1349.5999755859</ele>
        <time>2020-07-12T12:06:21Z</time>
      </trkpt>
      <trkpt lat="45.04539" lon="5.47731">
        <ele>1348.4000244141</ele>
        <time>2020-07-12T12:06:24Z</time>
      </trkpt>
      <trkpt lat="45.04529" lon="5.4767">
        <ele>1347.5999755859</ele>
        <time>2020-07-12T12:06:44Z</time>
      </trkpt>
      <trkpt lat="45.04529" lon="5.47664">
        <ele>1349</ele>
        <time>2020-07-12T12:06:52Z</time>
      </trkpt>
      <trkpt lat="45.04529" lon="5.47664">
        <ele>1349</ele>
        <time>2020-07-12T12:06:56Z</time>
      </trkpt>
      <trkpt lat="45.04529" lon="5.47664">
        <ele>1349</ele>
        <time>2020-07-12T12:07:02Z</time>
      </trkpt>
      <trkpt lat="45.04529" lon="5.47664">
        <ele>1349</ele>
        <time>2020-07-12T12:07:10Z</time>
      </trkpt>
      <trkpt lat="45.04529" lon="5.47664">
        <ele>1349</ele>
        <time>2020-07-12T12:07:16Z</time>
      </trkpt>
      <trkpt lat="45.04529" lon="5.47664">
        <ele>1349</ele>
        <time>2020-07-12T12:07:22Z</time>
      </trkpt>
      <trkpt lat="45.04529" lon="5.47664">
        <ele>1349</ele>
        <time>2020-07-12T12:07:26Z</time>
      </trkpt>
      <trkpt lat="45.04529" lon="5.47664">
        <ele>1349</ele>
        <time>2020-07-12T12:07:34Z</time>
      </trkpt>
      <trkpt lat="45.04529" lon="5.47664">
        <ele>1349</ele>
        <time>2020-07-12T12:07:38Z</time>
      </trkpt>
      <trkpt lat="45.04527" lon="5.47663">
        <ele>1349</ele>
        <time>2020-07-12T12:07:41Z</time>
      </trkpt>
      <trkpt lat="45.04522" lon="5.4766">
        <ele>1348.8000488281</ele>
        <time>2020-07-12T12:07:44Z</time>
      </trkpt>
      <trkpt lat="45.04505" lon="5.47655">
        <ele>1348.8000488281</ele>
        <time>2020-07-12T12:07:51Z</time>
      </trkpt>
      <trkpt lat="45.04495" lon="5.47653">
        <ele>1348.8000488281</ele>
        <time>2020-07-12T12:07:54Z</time>
      </trkpt>
      <trkpt lat="45.04472" lon="5.47649">
        <ele>1348.1999511719</ele>
        <time>2020-07-12T12:08:02Z</time>
      </trkpt>
      <trkpt lat="45.04454" lon="5.47646">
        <ele>1347.5999755859</ele>
        <time>2020-07-12T12:08:08Z</time>
      </trkpt>
      <trkpt lat="45.04451" lon="5.47645">
        <ele>1347.4000244141</ele>
        <time>2020-07-12T12:08:09Z</time>
      </trkpt>
      <trkpt lat="45.04447" lon="5.47644">
        <ele>1347.4000244141</ele>
        <time>2020-07-12T12:08:10Z</time>
      </trkpt>
      <trkpt lat="45.04436" lon="5.47642">
        <ele>1346.8000488281</ele>
        <time>2020-07-12T12:08:13Z</time>
      </trkpt>
      <trkpt lat="45.04427" lon="5.47641">
        <ele>1346.5999755859</ele>
        <time>2020-07-12T12:08:15Z</time>
      </trkpt>
      <trkpt lat="45.04423" lon="5.4764">
        <ele>1346.5999755859</ele>
        <time>2020-07-12T12:08:16Z</time>
      </trkpt>
      <trkpt lat="45.04418" lon="5.4764">
        <ele>1346.4000244141</ele>
        <time>2020-07-12T12:08:17Z</time>
      </trkpt>
      <trkpt lat="45.04414" lon="5.47641">
        <ele>1346.4000244141</ele>
        <time>2020-07-12T12:08:18Z</time>
      </trkpt>
      <trkpt lat="45.04409" lon="5.47642">
        <ele>1346.1999511719</ele>
        <time>2020-07-12T12:08:19Z</time>
      </trkpt>
      <trkpt lat="45.04399" lon="5.47643">
        <ele>1346</ele>
        <time>2020-07-12T12:08:21Z</time>
      </trkpt>
      <trkpt lat="45.04395" lon="5.47643">
        <ele>1345.8000488281</ele>
        <time>2020-07-12T12:08:22Z</time>
      </trkpt>
      <trkpt lat="45.04389" lon="5.47642">
        <ele>1345.5999755859</ele>
        <time>2020-07-12T12:08:23Z</time>
      </trkpt>
      <trkpt lat="45.04383" lon="5.47643">
        <ele>1345.4000244141</ele>
        <time>2020-07-12T12:08:24Z</time>
      </trkpt>
      <trkpt lat="45.04377" lon="5.47644">
        <ele>1345</ele>
        <time>2020-07-12T12:08:25Z</time>
      </trkpt>
      <trkpt lat="45.04359" lon="5.47644">
        <ele>1344</ele>
        <time>2020-07-12T12:08:28Z</time>
      </trkpt>
      <trkpt lat="45.04347" lon="5.47643">
        <ele>1343.4000244141</ele>
        <time>2020-07-12T12:08:30Z</time>
      </trkpt>
      <trkpt lat="45.04341" lon="5.47643">
        <ele>1343</ele>
        <time>2020-07-12T12:08:31Z</time>
      </trkpt>
      <trkpt lat="45.04334" lon="5.47642">
        <ele>1342.5999755859</ele>
        <time>2020-07-12T12:08:32Z</time>
      </trkpt>
      <trkpt lat="45.04289" lon="5.47632">
        <ele>1340</ele>
        <time>2020-07-12T12:08:40Z</time>
      </trkpt>
      <trkpt lat="45.04263" lon="5.47627">
        <ele>1338.1999511719</ele>
        <time>2020-07-12T12:08:47Z</time>
      </trkpt>
      <trkpt lat="45.04257" lon="5.47627">
        <ele>1338</ele>
        <time>2020-07-12T12:08:49Z</time>
      </trkpt>
      <trkpt lat="45.0424" lon="5.47636">
        <ele>1336.5999755859</ele>
        <time>2020-07-12T12:08:55Z</time>
      </trkpt>
      <trkpt lat="45.04229" lon="5.47641">
        <ele>1335.5999755859</ele>
        <time>2020-07-12T12:08:58Z</time>
      </trkpt>
      <trkpt lat="45.04203" lon="5.47648">
        <ele>1333.8000488281</ele>
        <time>2020-07-12T12:09:05Z</time>
      </trkpt>
      <trkpt lat="45.04194" lon="5.47646">
        <ele>1332.8000488281</ele>
        <time>2020-07-12T12:09:08Z</time>
      </trkpt>
      <trkpt lat="45.04191" lon="5.47647">
        <ele>1332.4000244141</ele>
        <time>2020-07-12T12:09:09Z</time>
      </trkpt>
      <trkpt lat="45.04187" lon="5.47647">
        <ele>1332</ele>
        <time>2020-07-12T12:09:10Z</time>
      </trkpt>
      <trkpt lat="45.04179" lon="5.47648">
        <ele>1331.1999511719</ele>
        <time>2020-07-12T12:09:12Z</time>
      </trkpt>
      <trkpt lat="45.04175" lon="5.47649">
        <ele>1330.8000488281</ele>
        <time>2020-07-12T12:09:13Z</time>
      </trkpt>
      <trkpt lat="45.04125" lon="5.47655">
        <ele>1326</ele>
        <time>2020-07-12T12:09:22Z</time>
      </trkpt>
      <trkpt lat="45.04089" lon="5.47666">
        <ele>1321.8000488281</ele>
        <time>2020-07-12T12:09:28Z</time>
      </trkpt>
      <trkpt lat="45.04047" lon="5.47691">
        <ele>1317.5999755859</ele>
        <time>2020-07-12T12:09:34Z</time>
      </trkpt>
      <trkpt lat="45.03998" lon="5.47708">
        <ele>1312.5999755859</ele>
        <time>2020-07-12T12:09:40Z</time>
      </trkpt>
      <trkpt lat="45.03951" lon="5.47729">
        <ele>1308.8000488281</ele>
        <time>2020-07-12T12:09:45Z</time>
      </trkpt>
      <trkpt lat="45.03904" lon="5.47746">
        <ele>1305.4000244141</ele>
        <time>2020-07-12T12:09:50Z</time>
      </trkpt>
      <trkpt lat="45.03858" lon="5.47768">
        <ele>1301</ele>
        <time>2020-07-12T12:09:57Z</time>
      </trkpt>
      <trkpt lat="45.0383" lon="5.47784">
        <ele>1298.4000244141</ele>
        <time>2020-07-12T12:10:02Z</time>
      </trkpt>
      <trkpt lat="45.03799" lon="5.47798">
        <ele>1294.8000488281</ele>
        <time>2020-07-12T12:10:08Z</time>
      </trkpt>
      <trkpt lat="45.03759" lon="5.4784">
        <ele>1291</ele>
        <time>2020-07-12T12:10:16Z</time>
      </trkpt>
      <trkpt lat="45.03722" lon="5.4788">
        <ele>1290.4000244141</ele>
        <time>2020-07-12T12:10:23Z</time>
      </trkpt>
      <trkpt lat="45.03687" lon="5.47919">
        <ele>1291.5999755859</ele>
        <time>2020-07-12T12:10:31Z</time>
      </trkpt>
      <trkpt lat="45.03674" lon="5.47932">
        <ele>1298.1999511719</ele>
        <time>2020-07-12T12:10:48Z</time>
      </trkpt>
      <trkpt lat="45.03674" lon="5.47932">
        <ele>1297.5999755859</ele>
        <time>2020-07-12T12:11:21Z</time>
      </trkpt>
      <trkpt lat="45.03674" lon="5.47932">
        <ele>1298</ele>
        <time>2020-07-12T12:11:24Z</time>
      </trkpt>
      <trkpt lat="45.03674" lon="5.47932">
        <ele>1298</ele>
        <time>2020-07-12T12:11:28Z</time>
      </trkpt>
      <trkpt lat="45.03674" lon="5.47932">
        <ele>1298.1999511719</ele>
        <time>2020-07-12T12:11:32Z</time>
      </trkpt>
      <trkpt lat="45.03674" lon="5.47932">
        <ele>1299</ele>
        <time>2020-07-12T12:11:35Z</time>
      </trkpt>
      <trkpt lat="45.03674" lon="5.47933">
        <ele>1299</ele>
        <time>2020-07-12T12:11:37Z</time>
      </trkpt>
      <trkpt lat="45.03673" lon="5.47934">
        <ele>1299</ele>
        <time>2020-07-12T12:11:40Z</time>
      </trkpt>
      <trkpt lat="45.03673" lon="5.47934">
        <ele>1299</ele>
        <time>2020-07-12T12:11:43Z</time>
      </trkpt>
      <trkpt lat="45.0367" lon="5.47937">
        <ele>1299</ele>
        <time>2020-07-12T12:11:50Z</time>
      </trkpt>
      <trkpt lat="45.03662" lon="5.47947">
        <ele>1299.1999511719</ele>
        <time>2020-07-12T12:11:56Z</time>
      </trkpt>
      <trkpt lat="45.03648" lon="5.47955">
        <ele>1299.4000244141</ele>
        <time>2020-07-12T12:12:02Z</time>
      </trkpt>
      <trkpt lat="45.03635" lon="5.47961">
        <ele>1299.8000488281</ele>
        <time>2020-07-12T12:12:06Z</time>
      </trkpt>
      <trkpt lat="45.03622" lon="5.47963">
        <ele>1298.4000244141</ele>
        <time>2020-07-12T12:12:11Z</time>
      </trkpt>
      <trkpt lat="45.03602" lon="5.47964">
        <ele>1298.4000244141</ele>
        <time>2020-07-12T12:12:17Z</time>
      </trkpt>
      <trkpt lat="45.03585" lon="5.47961">
        <ele>1298</ele>
        <time>2020-07-12T12:12:21Z</time>
      </trkpt>
      <trkpt lat="45.03533" lon="5.47962">
        <ele>1296.5999755859</ele>
        <time>2020-07-12T12:12:30Z</time>
      </trkpt>
      <trkpt lat="45.03486" lon="5.47964">
        <ele>1294.8000488281</ele>
        <time>2020-07-12T12:12:37Z</time>
      </trkpt>
      <trkpt lat="45.03473" lon="5.47963">
        <ele>1294.1999511719</ele>
        <time>2020-07-12T12:12:39Z</time>
      </trkpt>
      <trkpt lat="45.03459" lon="5.47962">
        <ele>1293.4000244141</ele>
        <time>2020-07-12T12:12:41Z</time>
      </trkpt>
      <trkpt lat="45.03446" lon="5.47962">
        <ele>1292.5999755859</ele>
        <time>2020-07-12T12:12:43Z</time>
      </trkpt>
      <trkpt lat="45.0344" lon="5.47961">
        <ele>1292.1999511719</ele>
        <time>2020-07-12T12:12:44Z</time>
      </trkpt>
      <trkpt lat="45.03433" lon="5.47962">
        <ele>1291.8000488281</ele>
        <time>2020-07-12T12:12:45Z</time>
      </trkpt>
      <trkpt lat="45.03427" lon="5.47961">
        <ele>1291.1999511719</ele>
        <time>2020-07-12T12:12:46Z</time>
      </trkpt>
      <trkpt lat="45.03421" lon="5.47961">
        <ele>1290.8000488281</ele>
        <time>2020-07-12T12:12:47Z</time>
      </trkpt>
      <trkpt lat="45.03408" lon="5.47958">
        <ele>1289.8000488281</ele>
        <time>2020-07-12T12:12:49Z</time>
      </trkpt>
      <trkpt lat="45.03389" lon="5.4795">
        <ele>1288.4000244141</ele>
        <time>2020-07-12T12:12:52Z</time>
      </trkpt>
      <trkpt lat="45.03379" lon="5.4794">
        <ele>1287</ele>
        <time>2020-07-12T12:12:55Z</time>
      </trkpt>
      <trkpt lat="45.03376" lon="5.47937">
        <ele>1286</ele>
        <time>2020-07-12T12:12:58Z</time>
      </trkpt>
      <trkpt lat="45.03376" lon="5.47938">
        <ele>1285.8000488281</ele>
        <time>2020-07-12T12:12:59Z</time>
      </trkpt>
      <trkpt lat="45.03376" lon="5.47939">
        <ele>1285.5999755859</ele>
        <time>2020-07-12T12:13:01Z</time>
      </trkpt>
      <trkpt lat="45.03376" lon="5.47939">
        <ele>1285.4000244141</ele>
        <time>2020-07-12T12:13:03Z</time>
      </trkpt>
      <trkpt lat="45.03377" lon="5.47938">
        <ele>1285.4000244141</ele>
        <time>2020-07-12T12:13:31Z</time>
      </trkpt>
      <trkpt lat="45.03377" lon="5.47938">
        <ele>1285.4000244141</ele>
        <time>2020-07-12T12:13:36Z</time>
      </trkpt>
      <trkpt lat="45.03377" lon="5.47938">
        <ele>1285.4000244141</ele>
        <time>2020-07-12T12:13:37Z</time>
      </trkpt>
      <trkpt lat="45.03374" lon="5.47935">
        <ele>1285.4000244141</ele>
        <time>2020-07-12T12:13:40Z</time>
      </trkpt>
      <trkpt lat="45.03369" lon="5.47929">
        <ele>1285.1999511719</ele>
        <time>2020-07-12T12:13:45Z</time>
      </trkpt>
      <trkpt lat="45.03363" lon="5.47924">
        <ele>1285.1999511719</ele>
        <time>2020-07-12T12:13:51Z</time>
      </trkpt>
      <trkpt lat="45.03345" lon="5.47898">
        <ele>1284.5999755859</ele>
        <time>2020-07-12T12:14:01Z</time>
      </trkpt>
      <trkpt lat="45.03312" lon="5.47854">
        <ele>1282.5999755859</ele>
        <time>2020-07-12T12:14:11Z</time>
      </trkpt>
      <trkpt lat="45.03276" lon="5.47805">
        <ele>1280.4000244141</ele>
        <time>2020-07-12T12:14:21Z</time>
      </trkpt>
      <trkpt lat="45.03264" lon="5.47793">
        <ele>1279.8000488281</ele>
        <time>2020-07-12T12:14:24Z</time>
      </trkpt>
      <trkpt lat="45.03247" lon="5.47786">
        <ele>1280</ele>
        <time>2020-07-12T12:14:28Z</time>
      </trkpt>
      <trkpt lat="45.03198" lon="5.47783">
        <ele>1279.8000488281</ele>
        <time>2020-07-12T12:14:39Z</time>
      </trkpt>
      <trkpt lat="45.03179" lon="5.47781">
        <ele>1281.1999511719</ele>
        <time>2020-07-12T12:14:43Z</time>
      </trkpt>
      <trkpt lat="45.03165" lon="5.4778">
        <ele>1281.5999755859</ele>
        <time>2020-07-12T12:14:46Z</time>
      </trkpt>
      <trkpt lat="45.03156" lon="5.4778">
        <ele>1281.8000488281</ele>
        <time>2020-07-12T12:14:48Z</time>
      </trkpt>
      <trkpt lat="45.03151" lon="5.47779">
        <ele>1282</ele>
        <time>2020-07-12T12:14:49Z</time>
      </trkpt>
      <trkpt lat="45.03142" lon="5.47778">
        <ele>1282.1999511719</ele>
        <time>2020-07-12T12:14:51Z</time>
      </trkpt>
      <trkpt lat="45.03133" lon="5.47776">
        <ele>1282.4000244141</ele>
        <time>2020-07-12T12:14:53Z</time>
      </trkpt>
      <trkpt lat="45.03112" lon="5.47769">
        <ele>1283</ele>
        <time>2020-07-12T12:14:58Z</time>
      </trkpt>
      <trkpt lat="45.03098" lon="5.4776">
        <ele>1283.1999511719</ele>
        <time>2020-07-12T12:15:02Z</time>
      </trkpt>
      <trkpt lat="45.03094" lon="5.47758">
        <ele>1283.1999511719</ele>
        <time>2020-07-12T12:15:03Z</time>
      </trkpt>
      <trkpt lat="45.03073" lon="5.47747">
        <ele>1284.5999755859</ele>
        <time>2020-07-12T12:15:10Z</time>
      </trkpt>
      <trkpt lat="45.03052" lon="5.47741">
        <ele>1284.5999755859</ele>
        <time>2020-07-12T12:15:16Z</time>
      </trkpt>
      <trkpt lat="45.03038" lon="5.47738">
        <ele>1284.8000488281</ele>
        <time>2020-07-12T12:15:20Z</time>
      </trkpt>
      <trkpt lat="45.03027" lon="5.47734">
        <ele>1285.1999511719</ele>
        <time>2020-07-12T12:15:23Z</time>
      </trkpt>
      <trkpt lat="45.0302" lon="5.47732">
        <ele>1285.1999511719</ele>
        <time>2020-07-12T12:15:25Z</time>
      </trkpt>
      <trkpt lat="45.03016" lon="5.47731">
        <ele>1285.1999511719</ele>
        <time>2020-07-12T12:15:26Z</time>
      </trkpt>
      <trkpt lat="45.03012" lon="5.47729">
        <ele>1285.1999511719</ele>
        <time>2020-07-12T12:15:27Z</time>
      </trkpt>
      <trkpt lat="45.03009" lon="5.47728">
        <ele>1285</ele>
        <time>2020-07-12T12:15:28Z</time>
      </trkpt>
      <trkpt lat="45.02997" lon="5.47726">
        <ele>1284.5999755859</ele>
        <time>2020-07-12T12:15:31Z</time>
      </trkpt>
      <trkpt lat="45.02992" lon="5.47725">
        <ele>1284.5999755859</ele>
        <time>2020-07-12T12:15:32Z</time>
      </trkpt>
      <trkpt lat="45.02984" lon="5.47723">
        <ele>1284.5999755859</ele>
        <time>2020-07-12T12:15:34Z</time>
      </trkpt>
      <trkpt lat="45.02972" lon="5.47722">
        <ele>1284.5999755859</ele>
        <time>2020-07-12T12:15:37Z</time>
      </trkpt>
      <trkpt lat="45.02964" lon="5.47721">
        <ele>1284.8000488281</ele>
        <time>2020-07-12T12:15:39Z</time>
      </trkpt>
      <trkpt lat="45.02948" lon="5.4772">
        <ele>1284.8000488281</ele>
        <time>2020-07-12T12:15:43Z</time>
      </trkpt>
      <trkpt lat="45.02945" lon="5.47719">
        <ele>1284.8000488281</ele>
        <time>2020-07-12T12:15:44Z</time>
      </trkpt>
      <trkpt lat="45.02935" lon="5.47719">
        <ele>1285</ele>
        <time>2020-07-12T12:15:50Z</time>
      </trkpt>
      <trkpt lat="45.02935" lon="5.47719">
        <ele>1285</ele>
        <time>2020-07-12T12:15:54Z</time>
      </trkpt>
      <trkpt lat="45.02935" lon="5.47718">
        <ele>1285.5999755859</ele>
        <time>2020-07-12T12:16:11Z</time>
      </trkpt>
      <trkpt lat="45.02935" lon="5.47718">
        <ele>1285.5999755859</ele>
        <time>2020-07-12T12:16:14Z</time>
      </trkpt>
      <trkpt lat="45.02935" lon="5.47718">
        <ele>1285.5999755859</ele>
        <time>2020-07-12T12:16:17Z</time>
      </trkpt>
      <trkpt lat="45.02935" lon="5.47719">
        <ele>1285.8000488281</ele>
        <time>2020-07-12T12:16:23Z</time>
      </trkpt>
      <trkpt lat="45.02935" lon="5.47719">
        <ele>1285.8000488281</ele>
        <time>2020-07-12T12:16:28Z</time>
      </trkpt>
      <trkpt lat="45.02935" lon="5.47719">
        <ele>1285.8000488281</ele>
        <time>2020-07-12T12:16:32Z</time>
      </trkpt>
      <trkpt lat="45.02935" lon="5.47719">
        <ele>1285.8000488281</ele>
        <time>2020-07-12T12:16:36Z</time>
      </trkpt>
      <trkpt lat="45.02935" lon="5.47719">
        <ele>1285.8000488281</ele>
        <time>2020-07-12T12:16:43Z</time>
      </trkpt>
      <trkpt lat="45.02934" lon="5.47718">
        <ele>1285.8000488281</ele>
        <time>2020-07-12T12:16:46Z</time>
      </trkpt>
      <trkpt lat="45.02929" lon="5.47716">
        <ele>1285.5999755859</ele>
        <time>2020-07-12T12:16:50Z</time>
      </trkpt>
      <trkpt lat="45.02916" lon="5.47714">
        <ele>1285.5999755859</ele>
        <time>2020-07-12T12:16:57Z</time>
      </trkpt>
      <trkpt lat="45.02898" lon="5.4771">
        <ele>1285.1999511719</ele>
        <time>2020-07-12T12:17:06Z</time>
      </trkpt>
      <trkpt lat="45.0288" lon="5.47705">
        <ele>1284.8000488281</ele>
        <time>2020-07-12T12:17:14Z</time>
      </trkpt>
      <trkpt lat="45.02869" lon="5.47703">
        <ele>1284.8000488281</ele>
        <time>2020-07-12T12:17:19Z</time>
      </trkpt>
      <trkpt lat="45.02867" lon="5.47702">
        <ele>1284.8000488281</ele>
        <time>2020-07-12T12:17:20Z</time>
      </trkpt>
      <trkpt lat="45.02862" lon="5.47702">
        <ele>1284.8000488281</ele>
        <time>2020-07-12T12:17:22Z</time>
      </trkpt>
      <trkpt lat="45.0285" lon="5.477">
        <ele>1284.1999511719</ele>
        <time>2020-07-12T12:17:27Z</time>
      </trkpt>
      <trkpt lat="45.02842" lon="5.47698">
        <ele>1284</ele>
        <time>2020-07-12T12:17:30Z</time>
      </trkpt>
      <trkpt lat="45.0284" lon="5.47698">
        <ele>1283.8000488281</ele>
        <time>2020-07-12T12:17:31Z</time>
      </trkpt>
      <trkpt lat="45.02837" lon="5.47697">
        <ele>1283.5999755859</ele>
        <time>2020-07-12T12:17:32Z</time>
      </trkpt>
      <trkpt lat="45.02834" lon="5.47697">
        <ele>1283.4000244141</ele>
        <time>2020-07-12T12:17:33Z</time>
      </trkpt>
      <trkpt lat="45.02829" lon="5.47697">
        <ele>1283</ele>
        <time>2020-07-12T12:17:35Z</time>
      </trkpt>
      <trkpt lat="45.0282" lon="5.47697">
        <ele>1282.4000244141</ele>
        <time>2020-07-12T12:17:38Z</time>
      </trkpt>
      <trkpt lat="45.02814" lon="5.47698">
        <ele>1282</ele>
        <time>2020-07-12T12:17:40Z</time>
      </trkpt>
      <trkpt lat="45.02808" lon="5.47699">
        <ele>1281.4000244141</ele>
        <time>2020-07-12T12:17:42Z</time>
      </trkpt>
      <trkpt lat="45.02783" lon="5.47707">
        <ele>1279.5999755859</ele>
        <time>2020-07-12T12:17:49Z</time>
      </trkpt>
      <trkpt lat="45.02744" lon="5.47718">
        <ele>1277.5999755859</ele>
        <time>2020-07-12T12:17:57Z</time>
      </trkpt>
      <trkpt lat="45.02734" lon="5.4772">
        <ele>1277.5999755859</ele>
        <time>2020-07-12T12:17:59Z</time>
      </trkpt>
      <trkpt lat="45.02718" lon="5.47721">
        <ele>1277.5999755859</ele>
        <time>2020-07-12T12:18:03Z</time>
      </trkpt>
      <trkpt lat="45.0269" lon="5.47721">
        <ele>1276.5999755859</ele>
        <time>2020-07-12T12:18:09Z</time>
      </trkpt>
      <trkpt lat="45.02681" lon="5.47719">
        <ele>1276.1999511719</ele>
        <time>2020-07-12T12:18:11Z</time>
      </trkpt>
      <trkpt lat="45.02672" lon="5.47717">
        <ele>1275.8000488281</ele>
        <time>2020-07-12T12:18:13Z</time>
      </trkpt>
      <trkpt lat="45.02664" lon="5.47715">
        <ele>1275.8000488281</ele>
        <time>2020-07-12T12:18:15Z</time>
      </trkpt>
      <trkpt lat="45.0266" lon="5.47714">
        <ele>1275.8000488281</ele>
        <time>2020-07-12T12:18:16Z</time>
      </trkpt>
      <trkpt lat="45.02629" lon="5.47706">
        <ele>1274</ele>
        <time>2020-07-12T12:18:23Z</time>
      </trkpt>
      <trkpt lat="45.02604" lon="5.47699">
        <ele>1272.8000488281</ele>
        <time>2020-07-12T12:18:28Z</time>
      </trkpt>
      <trkpt lat="45.02594" lon="5.47695">
        <ele>1272.4000244141</ele>
        <time>2020-07-12T12:18:30Z</time>
      </trkpt>
      <trkpt lat="45.02579" lon="5.47691">
        <ele>1271.8000488281</ele>
        <time>2020-07-12T12:18:33Z</time>
      </trkpt>
      <trkpt lat="45.02558" lon="5.47686">
        <ele>1271.4000244141</ele>
        <time>2020-07-12T12:18:38Z</time>
      </trkpt>
      <trkpt lat="45.02512" lon="5.47673">
        <ele>1274.5999755859</ele>
        <time>2020-07-12T12:18:52Z</time>
      </trkpt>
      <trkpt lat="45.02475" lon="5.4767">
        <ele>1277.4000244141</ele>
        <time>2020-07-12T12:19:06Z</time>
      </trkpt>
      <trkpt lat="45.02435" lon="5.47666">
        <ele>1277</ele>
        <time>2020-07-12T12:19:17Z</time>
      </trkpt>
      <trkpt lat="45.02419" lon="5.47662">
        <ele>1278</ele>
        <time>2020-07-12T12:19:23Z</time>
      </trkpt>
      <trkpt lat="45.02412" lon="5.47661">
        <ele>1278.5999755859</ele>
        <time>2020-07-12T12:19:26Z</time>
      </trkpt>
      <trkpt lat="45.02409" lon="5.47661">
        <ele>1278</ele>
        <time>2020-07-12T12:19:27Z</time>
      </trkpt>
      <trkpt lat="45.02402" lon="5.47658">
        <ele>1278.8000488281</ele>
        <time>2020-07-12T12:19:30Z</time>
      </trkpt>
      <trkpt lat="45.02399" lon="5.47657">
        <ele>1279</ele>
        <time>2020-07-12T12:19:31Z</time>
      </trkpt>
      <trkpt lat="45.02354" lon="5.47642">
        <ele>1281</ele>
        <time>2020-07-12T12:19:49Z</time>
      </trkpt>
      <trkpt lat="45.02342" lon="5.4764">
        <ele>1281.4000244141</ele>
        <time>2020-07-12T12:19:54Z</time>
      </trkpt>
      <trkpt lat="45.02339" lon="5.4764">
        <ele>1281.5999755859</ele>
        <time>2020-07-12T12:19:55Z</time>
      </trkpt>
      <trkpt lat="45.02334" lon="5.4764">
        <ele>1282</ele>
        <time>2020-07-12T12:19:57Z</time>
      </trkpt>
      <trkpt lat="45.02332" lon="5.4764">
        <ele>1282.1999511719</ele>
        <time>2020-07-12T12:19:58Z</time>
      </trkpt>
      <trkpt lat="45.02321" lon="5.47637">
        <ele>1282.5999755859</ele>
        <time>2020-07-12T12:20:03Z</time>
      </trkpt>
      <trkpt lat="45.02317" lon="5.47636">
        <ele>1283</ele>
        <time>2020-07-12T12:20:05Z</time>
      </trkpt>
      <trkpt lat="45.02308" lon="5.47633">
        <ele>1283.4000244141</ele>
        <time>2020-07-12T12:20:09Z</time>
      </trkpt>
      <trkpt lat="45.02293" lon="5.47626">
        <ele>1284</ele>
        <time>2020-07-12T12:20:15Z</time>
      </trkpt>
      <trkpt lat="45.02287" lon="5.47625">
        <ele>1284.1999511719</ele>
        <time>2020-07-12T12:20:17Z</time>
      </trkpt>
      <trkpt lat="45.02282" lon="5.47624">
        <ele>1284.4000244141</ele>
        <time>2020-07-12T12:20:19Z</time>
      </trkpt>
      <trkpt lat="45.02277" lon="5.47623">
        <ele>1284.1999511719</ele>
        <time>2020-07-12T12:20:21Z</time>
      </trkpt>
      <trkpt lat="45.02271" lon="5.47622">
        <ele>1284</ele>
        <time>2020-07-12T12:20:23Z</time>
      </trkpt>
      <trkpt lat="45.02266" lon="5.4762">
        <ele>1283.8000488281</ele>
        <time>2020-07-12T12:20:25Z</time>
      </trkpt>
      <trkpt lat="45.02252" lon="5.47615">
        <ele>1284.1999511719</ele>
        <time>2020-07-12T12:20:30Z</time>
      </trkpt>
      <trkpt lat="45.02238" lon="5.47611">
        <ele>1284.4000244141</ele>
        <time>2020-07-12T12:20:35Z</time>
      </trkpt>
      <trkpt lat="45.02233" lon="5.4761">
        <ele>1284.4000244141</ele>
        <time>2020-07-12T12:20:37Z</time>
      </trkpt>
      <trkpt lat="45.02231" lon="5.4761">
        <ele>1284.4000244141</ele>
        <time>2020-07-12T12:20:38Z</time>
      </trkpt>
      <trkpt lat="45.02223" lon="5.4761">
        <ele>1284.4000244141</ele>
        <time>2020-07-12T12:20:41Z</time>
      </trkpt>
      <trkpt lat="45.02219" lon="5.4761">
        <ele>1284.5999755859</ele>
        <time>2020-07-12T12:20:43Z</time>
      </trkpt>
      <trkpt lat="45.02209" lon="5.47608">
        <ele>1285.8000488281</ele>
        <time>2020-07-12T12:20:47Z</time>
      </trkpt>
      <trkpt lat="45.02169" lon="5.47595">
        <ele>1288.1999511719</ele>
        <time>2020-07-12T12:21:00Z</time>
      </trkpt>
      <trkpt lat="45.02158" lon="5.47592">
        <ele>1288</ele>
        <time>2020-07-12T12:21:03Z</time>
      </trkpt>
      <trkpt lat="45.02134" lon="5.4758">
        <ele>1288.4000244141</ele>
        <time>2020-07-12T12:21:10Z</time>
      </trkpt>
      <trkpt lat="45.02121" lon="5.47576">
        <ele>1288.4000244141</ele>
        <time>2020-07-12T12:21:14Z</time>
      </trkpt>
      <trkpt lat="45.02103" lon="5.47571">
        <ele>1288.5999755859</ele>
        <time>2020-07-12T12:21:20Z</time>
      </trkpt>
      <trkpt lat="45.02072" lon="5.47564">
        <ele>1288</ele>
        <time>2020-07-12T12:21:30Z</time>
      </trkpt>
      <trkpt lat="45.02041" lon="5.4752">
        <ele>1288.1999511719</ele>
        <time>2020-07-12T12:21:46Z</time>
      </trkpt>
      <trkpt lat="45.02039" lon="5.47504">
        <ele>1288.4000244141</ele>
        <time>2020-07-12T12:21:50Z</time>
      </trkpt>
      <trkpt lat="45.02024" lon="5.47444">
        <ele>1290.1999511719</ele>
        <time>2020-07-12T12:22:08Z</time>
      </trkpt>
      <trkpt lat="45.02014" lon="5.47426">
        <ele>1292</ele>
        <time>2020-07-12T12:22:15Z</time>
      </trkpt>
      <trkpt lat="45.0201" lon="5.47413">
        <ele>1293</ele>
        <time>2020-07-12T12:22:20Z</time>
      </trkpt>
      <trkpt lat="45.01994" lon="5.47379">
        <ele>1295</ele>
        <time>2020-07-12T12:22:30Z</time>
      </trkpt>
      <trkpt lat="45.01988" lon="5.47366">
        <ele>1295.8000488281</ele>
        <time>2020-07-12T12:22:36Z</time>
      </trkpt>
      <trkpt lat="45.01979" lon="5.47352">
        <ele>1297.5999755859</ele>
        <time>2020-07-12T12:22:43Z</time>
      </trkpt>
      <trkpt lat="45.01976" lon="5.47345">
        <ele>1298</ele>
        <time>2020-07-12T12:22:46Z</time>
      </trkpt>
      <trkpt lat="45.0197" lon="5.4734">
        <ele>1298.5999755859</ele>
        <time>2020-07-12T12:22:50Z</time>
      </trkpt>
      <trkpt lat="45.01966" lon="5.47337">
        <ele>1298.8000488281</ele>
        <time>2020-07-12T12:22:53Z</time>
      </trkpt>
      <trkpt lat="45.01957" lon="5.47337">
        <ele>1299.4000244141</ele>
        <time>2020-07-12T12:22:59Z</time>
      </trkpt>
      <trkpt lat="45.01954" lon="5.47337">
        <ele>1299.5999755859</ele>
        <time>2020-07-12T12:23:01Z</time>
      </trkpt>
      <trkpt lat="45.01951" lon="5.47336">
        <ele>1300</ele>
        <time>2020-07-12T12:23:03Z</time>
      </trkpt>
      <trkpt lat="45.01947" lon="5.47334">
        <ele>1300.1999511719</ele>
        <time>2020-07-12T12:23:05Z</time>
      </trkpt>
      <trkpt lat="45.01946" lon="5.47334">
        <ele>1300.4000244141</ele>
        <time>2020-07-12T12:23:06Z</time>
      </trkpt>
      <trkpt lat="45.01944" lon="5.47333">
        <ele>1300.5999755859</ele>
        <time>2020-07-12T12:23:07Z</time>
      </trkpt>
      <trkpt lat="45.01935" lon="5.4733">
        <ele>1301.1999511719</ele>
        <time>2020-07-12T12:23:12Z</time>
      </trkpt>
      <trkpt lat="45.01934" lon="5.47329">
        <ele>1301.4000244141</ele>
        <time>2020-07-12T12:23:13Z</time>
      </trkpt>
      <trkpt lat="45.01913" lon="5.4732">
        <ele>1303</ele>
        <time>2020-07-12T12:23:23Z</time>
      </trkpt>
      <trkpt lat="45.01905" lon="5.47316">
        <ele>1303.8000488281</ele>
        <time>2020-07-12T12:23:38Z</time>
      </trkpt>
      <trkpt lat="45.01905" lon="5.47316">
        <ele>1303.8000488281</ele>
        <time>2020-07-12T12:23:44Z</time>
      </trkpt>
      <trkpt lat="45.01905" lon="5.47316">
        <ele>1303.8000488281</ele>
        <time>2020-07-12T12:23:53Z</time>
      </trkpt>
      <trkpt lat="45.01905" lon="5.47316">
        <ele>1303.8000488281</ele>
        <time>2020-07-12T12:24:00Z</time>
      </trkpt>
      <trkpt lat="45.01905" lon="5.47316">
        <ele>1303.8000488281</ele>
        <time>2020-07-12T12:24:04Z</time>
      </trkpt>
      <trkpt lat="45.01905" lon="5.47316">
        <ele>1303.8000488281</ele>
        <time>2020-07-12T12:24:08Z</time>
      </trkpt>
      <trkpt lat="45.01904" lon="5.47315">
        <ele>1303.8000488281</ele>
        <time>2020-07-12T12:24:14Z</time>
      </trkpt>
      <trkpt lat="45.01904" lon="5.47312">
        <ele>1304</ele>
        <time>2020-07-12T12:24:17Z</time>
      </trkpt>
      <trkpt lat="45.019" lon="5.47306">
        <ele>1304.4000244141</ele>
        <time>2020-07-12T12:24:20Z</time>
      </trkpt>
      <trkpt lat="45.01898" lon="5.47305">
        <ele>1304.5999755859</ele>
        <time>2020-07-12T12:24:21Z</time>
      </trkpt>
      <trkpt lat="45.01896" lon="5.47304">
        <ele>1304.8000488281</ele>
        <time>2020-07-12T12:24:22Z</time>
      </trkpt>
      <trkpt lat="45.01894" lon="5.47303">
        <ele>1305.1999511719</ele>
        <time>2020-07-12T12:24:23Z</time>
      </trkpt>
      <trkpt lat="45.01891" lon="5.47301">
        <ele>1305.4000244141</ele>
        <time>2020-07-12T12:24:24Z</time>
      </trkpt>
      <trkpt lat="45.01883" lon="5.47296">
        <ele>1306.4000244141</ele>
        <time>2020-07-12T12:24:27Z</time>
      </trkpt>
      <trkpt lat="45.01856" lon="5.47278">
        <ele>1308.4000244141</ele>
        <time>2020-07-12T12:24:36Z</time>
      </trkpt>
      <trkpt lat="45.01853" lon="5.47276">
        <ele>1308.5999755859</ele>
        <time>2020-07-12T12:24:37Z</time>
      </trkpt>
      <trkpt lat="45.01847" lon="5.47272">
        <ele>1309</ele>
        <time>2020-07-12T12:24:39Z</time>
      </trkpt>
      <trkpt lat="45.01837" lon="5.47267">
        <ele>1309.4000244141</ele>
        <time>2020-07-12T12:24:42Z</time>
      </trkpt>
      <trkpt lat="45.01834" lon="5.47264">
        <ele>1309.5999755859</ele>
        <time>2020-07-12T12:24:43Z</time>
      </trkpt>
      <trkpt lat="45.01831" lon="5.47262">
        <ele>1309.8000488281</ele>
        <time>2020-07-12T12:24:44Z</time>
      </trkpt>
      <trkpt lat="45.01828" lon="5.4726">
        <ele>1310</ele>
        <time>2020-07-12T12:24:45Z</time>
      </trkpt>
      <trkpt lat="45.01824" lon="5.47258">
        <ele>1310</ele>
        <time>2020-07-12T12:24:46Z</time>
      </trkpt>
      <trkpt lat="45.01821" lon="5.47256">
        <ele>1310.1999511719</ele>
        <time>2020-07-12T12:24:47Z</time>
      </trkpt>
      <trkpt lat="45.01818" lon="5.47255">
        <ele>1310.1999511719</ele>
        <time>2020-07-12T12:24:48Z</time>
      </trkpt>
      <trkpt lat="45.01814" lon="5.47253">
        <ele>1310</ele>
        <time>2020-07-12T12:24:49Z</time>
      </trkpt>
      <trkpt lat="45.01811" lon="5.47252">
        <ele>1310</ele>
        <time>2020-07-12T12:24:50Z</time>
      </trkpt>
      <trkpt lat="45.01798" lon="5.47248">
        <ele>1310</ele>
        <time>2020-07-12T12:24:54Z</time>
      </trkpt>
      <trkpt lat="45.01773" lon="5.47242">
        <ele>1309.1999511719</ele>
        <time>2020-07-12T12:25:01Z</time>
      </trkpt>
      <trkpt lat="45.01766" lon="5.47241">
        <ele>1309.1999511719</ele>
        <time>2020-07-12T12:25:03Z</time>
      </trkpt>
      <trkpt lat="45.01762" lon="5.4724">
        <ele>1309.1999511719</ele>
        <time>2020-07-12T12:25:04Z</time>
      </trkpt>
      <trkpt lat="45.01758" lon="5.47239">
        <ele>1309.1999511719</ele>
        <time>2020-07-12T12:25:05Z</time>
      </trkpt>
      <trkpt lat="45.0175" lon="5.47237">
        <ele>1309.1999511719</ele>
        <time>2020-07-12T12:25:07Z</time>
      </trkpt>
      <trkpt lat="45.01747" lon="5.47235">
        <ele>1309.1999511719</ele>
        <time>2020-07-12T12:25:08Z</time>
      </trkpt>
      <trkpt lat="45.01744" lon="5.47232">
        <ele>1308.8000488281</ele>
        <time>2020-07-12T12:25:10Z</time>
      </trkpt>
      <trkpt lat="45.01744" lon="5.47232">
        <ele>1308.8000488281</ele>
        <time>2020-07-12T12:25:11Z</time>
      </trkpt>
      <trkpt lat="45.01743" lon="5.47231">
        <ele>1308.5999755859</ele>
        <time>2020-07-12T12:25:13Z</time>
      </trkpt>
      <trkpt lat="45.01743" lon="5.47231">
        <ele>1308.5999755859</ele>
        <time>2020-07-12T12:25:14Z</time>
      </trkpt>
      <trkpt lat="45.01743" lon="5.4723">
        <ele>1308.5999755859</ele>
        <time>2020-07-12T12:25:15Z</time>
      </trkpt>
      <trkpt lat="45.01743" lon="5.4723">
        <ele>1308.5999755859</ele>
        <time>2020-07-12T12:25:16Z</time>
      </trkpt>
      <trkpt lat="45.01743" lon="5.4723">
        <ele>1308.5999755859</ele>
        <time>2020-07-12T12:25:18Z</time>
      </trkpt>
      <trkpt lat="45.01743" lon="5.4723">
        <ele>1308.5999755859</ele>
        <time>2020-07-12T12:25:19Z</time>
      </trkpt>
      <trkpt lat="45.01743" lon="5.4723">
        <ele>1308.5999755859</ele>
        <time>2020-07-12T12:25:20Z</time>
      </trkpt>
      <trkpt lat="45.01743" lon="5.4723">
        <ele>1308.5999755859</ele>
        <time>2020-07-12T12:25:23Z</time>
      </trkpt>
      <trkpt lat="45.01743" lon="5.4723">
        <ele>1308.5999755859</ele>
        <time>2020-07-12T12:25:31Z</time>
      </trkpt>
      <trkpt lat="45.01743" lon="5.4723">
        <ele>1308.5999755859</ele>
        <time>2020-07-12T12:25:34Z</time>
      </trkpt>
      <trkpt lat="45.01743" lon="5.4723">
        <ele>1308.5999755859</ele>
        <time>2020-07-12T12:25:38Z</time>
      </trkpt>
      <trkpt lat="45.01743" lon="5.4723">
        <ele>1308.5999755859</ele>
        <time>2020-07-12T12:25:41Z</time>
      </trkpt>
      <trkpt lat="45.01743" lon="5.4723">
        <ele>1308.5999755859</ele>
        <time>2020-07-12T12:25:42Z</time>
      </trkpt>
      <trkpt lat="45.01743" lon="5.4723">
        <ele>1308.5999755859</ele>
        <time>2020-07-12T12:25:44Z</time>
      </trkpt>
      <trkpt lat="45.01743" lon="5.4723">
        <ele>1308.5999755859</ele>
        <time>2020-07-12T12:25:49Z</time>
      </trkpt>
      <trkpt lat="45.01743" lon="5.4723">
        <ele>1308.5999755859</ele>
        <time>2020-07-12T12:25:52Z</time>
      </trkpt>
      <trkpt lat="45.01743" lon="5.4723">
        <ele>1308.5999755859</ele>
        <time>2020-07-12T12:25:54Z</time>
      </trkpt>
      <trkpt lat="45.01743" lon="5.4723">
        <ele>1308.5999755859</ele>
        <time>2020-07-12T12:25:57Z</time>
      </trkpt>
      <trkpt lat="45.01743" lon="5.4723">
        <ele>1308.5999755859</ele>
        <time>2020-07-12T12:26:00Z</time>
      </trkpt>
      <trkpt lat="45.01743" lon="5.4723">
        <ele>1308.5999755859</ele>
        <time>2020-07-12T12:26:05Z</time>
      </trkpt>
      <trkpt lat="45.01743" lon="5.4723">
        <ele>1308.5999755859</ele>
        <time>2020-07-12T12:26:09Z</time>
      </trkpt>
      <trkpt lat="45.01743" lon="5.4723">
        <ele>1308.5999755859</ele>
        <time>2020-07-12T12:26:14Z</time>
      </trkpt>
      <trkpt lat="45.01743" lon="5.4723">
        <ele>1308.5999755859</ele>
        <time>2020-07-12T12:26:19Z</time>
      </trkpt>
      <trkpt lat="45.01743" lon="5.4723">
        <ele>1308.5999755859</ele>
        <time>2020-07-12T12:26:24Z</time>
      </trkpt>
      <trkpt lat="45.01743" lon="5.4723">
        <ele>1308.5999755859</ele>
        <time>2020-07-12T12:26:30Z</time>
      </trkpt>
      <trkpt lat="45.01743" lon="5.4723">
        <ele>1308.5999755859</ele>
        <time>2020-07-12T12:26:36Z</time>
      </trkpt>
      <trkpt lat="45.01743" lon="5.4723">
        <ele>1308.5999755859</ele>
        <time>2020-07-12T12:26:56Z</time>
      </trkpt>
      <trkpt lat="45.01743" lon="5.4723">
        <ele>1308.5999755859</ele>
        <time>2020-07-12T12:27:05Z</time>
      </trkpt>
      <trkpt lat="45.01743" lon="5.4723">
        <ele>1308.5999755859</ele>
        <time>2020-07-12T12:27:41Z</time>
      </trkpt>
      <trkpt lat="45.01743" lon="5.4723">
        <ele>1308.5999755859</ele>
        <time>2020-07-12T12:27:57Z</time>
      </trkpt>
      <trkpt lat="45.01743" lon="5.4723">
        <ele>1308.5999755859</ele>
        <time>2020-07-12T12:27:58Z</time>
      </trkpt>
      <trkpt lat="45.01743" lon="5.4723">
        <ele>1308.5999755859</ele>
        <time>2020-07-12T12:28:00Z</time>
      </trkpt>
      <trkpt lat="45.01743" lon="5.4723">
        <ele>1308.4000244141</ele>
        <time>2020-07-12T12:29:20Z</time>
      </trkpt>
      <trkpt lat="45.01742" lon="5.47228">
        <ele>1308.4000244141</ele>
        <time>2020-07-12T12:29:34Z</time>
      </trkpt>
      <trkpt lat="45.01725" lon="5.4722">
        <ele>1308.4000244141</ele>
        <time>2020-07-12T12:29:44Z</time>
      </trkpt>
      <trkpt lat="45.01723" lon="5.47219">
        <ele>1308.4000244141</ele>
        <time>2020-07-12T12:29:45Z</time>
      </trkpt>
      <trkpt lat="45.0172" lon="5.47218">
        <ele>1308.4000244141</ele>
        <time>2020-07-12T12:29:46Z</time>
      </trkpt>
      <trkpt lat="45.0171" lon="5.47218">
        <ele>1308.4000244141</ele>
        <time>2020-07-12T12:29:50Z</time>
      </trkpt>
      <trkpt lat="45.01699" lon="5.47226">
        <ele>1308.4000244141</ele>
        <time>2020-07-12T12:29:56Z</time>
      </trkpt>
      <trkpt lat="45.01695" lon="5.47229">
        <ele>1308.4000244141</ele>
        <time>2020-07-12T12:29:58Z</time>
      </trkpt>
      <trkpt lat="45.01694" lon="5.47231">
        <ele>1308.4000244141</ele>
        <time>2020-07-12T12:29:59Z</time>
      </trkpt>
      <trkpt lat="45.0169" lon="5.47238">
        <ele>1308.1999511719</ele>
        <time>2020-07-12T12:30:03Z</time>
      </trkpt>
      <trkpt lat="45.01679" lon="5.47239">
        <ele>1307.5999755859</ele>
        <time>2020-07-12T12:30:11Z</time>
      </trkpt>
      <trkpt lat="45.01667" lon="5.47232">
        <ele>1307.1999511719</ele>
        <time>2020-07-12T12:30:17Z</time>
      </trkpt>
      <trkpt lat="45.01663" lon="5.4723">
        <ele>1307</ele>
        <time>2020-07-12T12:30:19Z</time>
      </trkpt>
      <trkpt lat="45.01661" lon="5.47229">
        <ele>1307</ele>
        <time>2020-07-12T12:30:20Z</time>
      </trkpt>
      <trkpt lat="45.01656" lon="5.47228">
        <ele>1306.8000488281</ele>
        <time>2020-07-12T12:30:22Z</time>
      </trkpt>
      <trkpt lat="45.01653" lon="5.47228">
        <ele>1306.8000488281</ele>
        <time>2020-07-12T12:30:23Z</time>
      </trkpt>
      <trkpt lat="45.01639" lon="5.47225">
        <ele>1306.4000244141</ele>
        <time>2020-07-12T12:30:29Z</time>
      </trkpt>
      <trkpt lat="45.01638" lon="5.47226">
        <ele>1306.1999511719</ele>
        <time>2020-07-12T12:30:30Z</time>
      </trkpt>
      <trkpt lat="45.01636" lon="5.47227">
        <ele>1306.1999511719</ele>
        <time>2020-07-12T12:30:31Z</time>
      </trkpt>
      <trkpt lat="45.01634" lon="5.47227">
        <ele>1306</ele>
        <time>2020-07-12T12:30:32Z</time>
      </trkpt>
      <trkpt lat="45.01629" lon="5.47228">
        <ele>1305.8000488281</ele>
        <time>2020-07-12T12:30:34Z</time>
      </trkpt>
      <trkpt lat="45.0162" lon="5.47228">
        <ele>1305</ele>
        <time>2020-07-12T12:30:38Z</time>
      </trkpt>
      <trkpt lat="45.01617" lon="5.47229">
        <ele>1304.5999755859</ele>
        <time>2020-07-12T12:30:40Z</time>
      </trkpt>
      <trkpt lat="45.01609" lon="5.47233">
        <ele>1304</ele>
        <time>2020-07-12T12:30:44Z</time>
      </trkpt>
      <trkpt lat="45.01601" lon="5.47237">
        <ele>1303.4000244141</ele>
        <time>2020-07-12T12:30:48Z</time>
      </trkpt>
      <trkpt lat="45.01595" lon="5.4724">
        <ele>1302.8000488281</ele>
        <time>2020-07-12T12:30:51Z</time>
      </trkpt>
      <trkpt lat="45.01592" lon="5.47242">
        <ele>1302.5999755859</ele>
        <time>2020-07-12T12:30:53Z</time>
      </trkpt>
      <trkpt lat="45.01588" lon="5.47245">
        <ele>1302</ele>
        <time>2020-07-12T12:30:55Z</time>
      </trkpt>
      <trkpt lat="45.01587" lon="5.47246">
        <ele>1302</ele>
        <time>2020-07-12T12:30:56Z</time>
      </trkpt>
      <trkpt lat="45.01586" lon="5.47247">
        <ele>1301.8000488281</ele>
        <time>2020-07-12T12:30:57Z</time>
      </trkpt>
      <trkpt lat="45.01582" lon="5.47249">
        <ele>1301.5999755859</ele>
        <time>2020-07-12T12:30:59Z</time>
      </trkpt>
      <trkpt lat="45.0158" lon="5.47251">
        <ele>1301.4000244141</ele>
        <time>2020-07-12T12:31:01Z</time>
      </trkpt>
      <trkpt lat="45.01571" lon="5.47255">
        <ele>1300.8000488281</ele>
        <time>2020-07-12T12:31:05Z</time>
      </trkpt>
      <trkpt lat="45.01569" lon="5.47256">
        <ele>1300.5999755859</ele>
        <time>2020-07-12T12:31:06Z</time>
      </trkpt>
      <trkpt lat="45.01561" lon="5.47256">
        <ele>1300.1999511719</ele>
        <time>2020-07-12T12:31:10Z</time>
      </trkpt>
      <trkpt lat="45.0156" lon="5.47256">
        <ele>1300</ele>
        <time>2020-07-12T12:31:11Z</time>
      </trkpt>
      <trkpt lat="45.01558" lon="5.47255">
        <ele>1299.5999755859</ele>
        <time>2020-07-12T12:31:14Z</time>
      </trkpt>
      <trkpt lat="45.01556" lon="5.47254">
        <ele>1299.4000244141</ele>
        <time>2020-07-12T12:31:15Z</time>
      </trkpt>
      <trkpt lat="45.01552" lon="5.47247">
        <ele>1298.5999755859</ele>
        <time>2020-07-12T12:31:19Z</time>
      </trkpt>
      <trkpt lat="45.0155" lon="5.47242">
        <ele>1298</ele>
        <time>2020-07-12T12:31:21Z</time>
      </trkpt>
      <trkpt lat="45.01548" lon="5.47233">
        <ele>1296.8000488281</ele>
        <time>2020-07-12T12:31:26Z</time>
      </trkpt>
      <trkpt lat="45.01533" lon="5.47191">
        <ele>1294.8000488281</ele>
        <time>2020-07-12T12:31:42Z</time>
      </trkpt>
      <trkpt lat="45.01515" lon="5.47171">
        <ele>1295.1999511719</ele>
        <time>2020-07-12T12:31:51Z</time>
      </trkpt>
      <trkpt lat="45.01496" lon="5.4716">
        <ele>1296.1999511719</ele>
        <time>2020-07-12T12:32:02Z</time>
      </trkpt>
      <trkpt lat="45.01463" lon="5.4714">
        <ele>1298</ele>
        <time>2020-07-12T12:32:21Z</time>
      </trkpt>
      <trkpt lat="45.01457" lon="5.47134">
        <ele>1298.8000488281</ele>
        <time>2020-07-12T12:32:25Z</time>
      </trkpt>
      <trkpt lat="45.01449" lon="5.47123">
        <ele>1299.8000488281</ele>
        <time>2020-07-12T12:32:30Z</time>
      </trkpt>
      <trkpt lat="45.01447" lon="5.47116">
        <ele>1299.8000488281</ele>
        <time>2020-07-12T12:32:32Z</time>
      </trkpt>
      <trkpt lat="45.01446" lon="5.4711">
        <ele>1299.8000488281</ele>
        <time>2020-07-12T12:32:34Z</time>
      </trkpt>
      <trkpt lat="45.01445" lon="5.47106">
        <ele>1299.8000488281</ele>
        <time>2020-07-12T12:32:36Z</time>
      </trkpt>
      <trkpt lat="45.01444" lon="5.47103">
        <ele>1299.8000488281</ele>
        <time>2020-07-12T12:32:37Z</time>
      </trkpt>
      <trkpt lat="45.01444" lon="5.47098">
        <ele>1299.5999755859</ele>
        <time>2020-07-12T12:32:38Z</time>
      </trkpt>
      <trkpt lat="45.01443" lon="5.47079">
        <ele>1299.4000244141</ele>
        <time>2020-07-12T12:32:43Z</time>
      </trkpt>
      <trkpt lat="45.01447" lon="5.47061">
        <ele>1299.4000244141</ele>
        <time>2020-07-12T12:32:48Z</time>
      </trkpt>
      <trkpt lat="45.01447" lon="5.47005">
        <ele>1298.8000488281</ele>
        <time>2020-07-12T12:33:15Z</time>
      </trkpt>
      <trkpt lat="45.01447" lon="5.47004">
        <ele>1298.8000488281</ele>
        <time>2020-07-12T12:33:30Z</time>
      </trkpt>
      <trkpt lat="45.01447" lon="5.47004">
        <ele>1298.8000488281</ele>
        <time>2020-07-12T12:33:35Z</time>
      </trkpt>
      <trkpt lat="45.01447" lon="5.47004">
        <ele>1298.8000488281</ele>
        <time>2020-07-12T12:33:37Z</time>
      </trkpt>
      <trkpt lat="45.01447" lon="5.47004">
        <ele>1298.8000488281</ele>
        <time>2020-07-12T12:33:39Z</time>
      </trkpt>
      <trkpt lat="45.01448" lon="5.47004">
        <ele>1298.8000488281</ele>
        <time>2020-07-12T12:33:44Z</time>
      </trkpt>
      <trkpt lat="45.01449" lon="5.47004">
        <ele>1298.8000488281</ele>
        <time>2020-07-12T12:33:48Z</time>
      </trkpt>
      <trkpt lat="45.01451" lon="5.47001">
        <ele>1299</ele>
        <time>2020-07-12T12:33:52Z</time>
      </trkpt>
      <trkpt lat="45.01472" lon="5.46976">
        <ele>1299</ele>
        <time>2020-07-12T12:34:00Z</time>
      </trkpt>
      <trkpt lat="45.01497" lon="5.46949">
        <ele>1298.5999755859</ele>
        <time>2020-07-12T12:34:08Z</time>
      </trkpt>
      <trkpt lat="45.01512" lon="5.46935">
        <ele>1297.8000488281</ele>
        <time>2020-07-12T12:34:14Z</time>
      </trkpt>
      <trkpt lat="45.01542" lon="5.46892">
        <ele>1294</ele>
        <time>2020-07-12T12:34:26Z</time>
      </trkpt>
      <trkpt lat="45.01552" lon="5.46885">
        <ele>1293</ele>
        <time>2020-07-12T12:34:29Z</time>
      </trkpt>
      <trkpt lat="45.01557" lon="5.46882">
        <ele>1292.8000488281</ele>
        <time>2020-07-12T12:34:30Z</time>
      </trkpt>
      <trkpt lat="45.01566" lon="5.46878">
        <ele>1292.1999511719</ele>
        <time>2020-07-12T12:34:32Z</time>
      </trkpt>
      <trkpt lat="45.01575" lon="5.46874">
        <ele>1291.5999755859</ele>
        <time>2020-07-12T12:34:34Z</time>
      </trkpt>
      <trkpt lat="45.01575" lon="5.46874">
        <ele>1291.5999755859</ele>
        <time>2020-07-12T12:34:35Z</time>
      </trkpt>
      <trkpt lat="45.01589" lon="5.4687">
        <ele>1290.8000488281</ele>
        <time>2020-07-12T12:34:37Z</time>
      </trkpt>
      <trkpt lat="45.016" lon="5.46864">
        <ele>1289.5999755859</ele>
        <time>2020-07-12T12:34:40Z</time>
      </trkpt>
      <trkpt lat="45.01608" lon="5.46854">
        <ele>1288.4000244141</ele>
        <time>2020-07-12T12:34:43Z</time>
      </trkpt>
      <trkpt lat="45.01618" lon="5.46843">
        <ele>1287</ele>
        <time>2020-07-12T12:34:47Z</time>
      </trkpt>
      <trkpt lat="45.01621" lon="5.4684">
        <ele>1286.4000244141</ele>
        <time>2020-07-12T12:34:48Z</time>
      </trkpt>
      <trkpt lat="45.0163" lon="5.46831">
        <ele>1285.1999511719</ele>
        <time>2020-07-12T12:34:50Z</time>
      </trkpt>
      <trkpt lat="45.01633" lon="5.46828">
        <ele>1284.8000488281</ele>
        <time>2020-07-12T12:34:51Z</time>
      </trkpt>
      <trkpt lat="45.01637" lon="5.46825">
        <ele>1284.1999511719</ele>
        <time>2020-07-12T12:34:52Z</time>
      </trkpt>
      <trkpt lat="45.01645" lon="5.46817">
        <ele>1282.8000488281</ele>
        <time>2020-07-12T12:34:54Z</time>
      </trkpt>
      <trkpt lat="45.01649" lon="5.46813">
        <ele>1282.1999511719</ele>
        <time>2020-07-12T12:34:55Z</time>
      </trkpt>
      <trkpt lat="45.01655" lon="5.46805">
        <ele>1281</ele>
        <time>2020-07-12T12:34:57Z</time>
      </trkpt>
      <trkpt lat="45.01661" lon="5.46798">
        <ele>1279.5999755859</ele>
        <time>2020-07-12T12:34:58Z</time>
      </trkpt>
      <trkpt lat="45.01661" lon="5.46798">
        <ele>1279.5999755859</ele>
        <time>2020-07-12T12:34:59Z</time>
      </trkpt>
      <trkpt lat="45.01672" lon="5.46781">
        <ele>1276.5999755859</ele>
        <time>2020-07-12T12:35:03Z</time>
      </trkpt>
      <trkpt lat="45.01677" lon="5.46773">
        <ele>1275</ele>
        <time>2020-07-12T12:35:05Z</time>
      </trkpt>
      <trkpt lat="45.01687" lon="5.46759">
        <ele>1272.5999755859</ele>
        <time>2020-07-12T12:35:08Z</time>
      </trkpt>
      <trkpt lat="45.017" lon="5.46743">
        <ele>1269.1999511719</ele>
        <time>2020-07-12T12:35:12Z</time>
      </trkpt>
      <trkpt lat="45.01706" lon="5.46733">
        <ele>1267.5999755859</ele>
        <time>2020-07-12T12:35:14Z</time>
      </trkpt>
      <trkpt lat="45.01712" lon="5.46723">
        <ele>1266.1999511719</ele>
        <time>2020-07-12T12:35:16Z</time>
      </trkpt>
      <trkpt lat="45.01715" lon="5.46719">
        <ele>1265.4000244141</ele>
        <time>2020-07-12T12:35:17Z</time>
      </trkpt>
      <trkpt lat="45.01721" lon="5.4671">
        <ele>1263.8000488281</ele>
        <time>2020-07-12T12:35:18Z</time>
      </trkpt>
      <trkpt lat="45.01729" lon="5.46698">
        <ele>1261.4000244141</ele>
        <time>2020-07-12T12:35:21Z</time>
      </trkpt>
      <trkpt lat="45.01729" lon="5.46698">
        <ele>1261.4000244141</ele>
        <time>2020-07-12T12:35:22Z</time>
      </trkpt>
      <trkpt lat="45.01731" lon="5.46694">
        <ele>1260.5999755859</ele>
        <time>2020-07-12T12:35:23Z</time>
      </trkpt>
      <trkpt lat="45.01736" lon="5.46686">
        <ele>1259.1999511719</ele>
        <time>2020-07-12T12:35:25Z</time>
      </trkpt>
      <trkpt lat="45.01753" lon="5.46661">
        <ele>1254.4000244141</ele>
        <time>2020-07-12T12:35:31Z</time>
      </trkpt>
      <trkpt lat="45.01788" lon="5.4662">
        <ele>1244.1999511719</ele>
        <time>2020-07-12T12:35:43Z</time>
      </trkpt>
      <trkpt lat="45.0179" lon="5.46618">
        <ele>1240.4000244141</ele>
        <time>2020-07-12T12:35:50Z</time>
      </trkpt>
      <trkpt lat="45.0179" lon="5.46618">
        <ele>1239.8000488281</ele>
        <time>2020-07-12T12:36:13Z</time>
      </trkpt>
      <trkpt lat="45.0179" lon="5.46618">
        <ele>1239.8000488281</ele>
        <time>2020-07-12T12:36:19Z</time>
      </trkpt>
      <trkpt lat="45.0179" lon="5.46618">
        <ele>1239.8000488281</ele>
        <time>2020-07-12T12:36:23Z</time>
      </trkpt>
      <trkpt lat="45.0179" lon="5.46618">
        <ele>1239.8000488281</ele>
        <time>2020-07-12T12:36:27Z</time>
      </trkpt>
      <trkpt lat="45.0179" lon="5.46618">
        <ele>1239.8000488281</ele>
        <time>2020-07-12T12:36:29Z</time>
      </trkpt>
      <trkpt lat="45.0179" lon="5.46618">
        <ele>1239.8000488281</ele>
        <time>2020-07-12T12:36:32Z</time>
      </trkpt>
      <trkpt lat="45.0179" lon="5.46618">
        <ele>1239.8000488281</ele>
        <time>2020-07-12T12:36:36Z</time>
      </trkpt>
      <trkpt lat="45.0179" lon="5.46618">
        <ele>1239.8000488281</ele>
        <time>2020-07-12T12:36:41Z</time>
      </trkpt>
      <trkpt lat="45.0179" lon="5.46618">
        <ele>1239.8000488281</ele>
        <time>2020-07-12T12:36:43Z</time>
      </trkpt>
      <trkpt lat="45.0179" lon="5.46618">
        <ele>1239.8000488281</ele>
        <time>2020-07-12T12:36:45Z</time>
      </trkpt>
      <trkpt lat="45.0179" lon="5.46618">
        <ele>1239.8000488281</ele>
        <time>2020-07-12T12:36:48Z</time>
      </trkpt>
      <trkpt lat="45.0179" lon="5.46618">
        <ele>1239.8000488281</ele>
        <time>2020-07-12T12:36:52Z</time>
      </trkpt>
      <trkpt lat="45.01792" lon="5.46616">
        <ele>1239.8000488281</ele>
        <time>2020-07-12T12:36:54Z</time>
      </trkpt>
      <trkpt lat="45.01798" lon="5.46594">
        <ele>1239</ele>
        <time>2020-07-12T12:37:00Z</time>
      </trkpt>
      <trkpt lat="45.01807" lon="5.46564">
        <ele>1237.8000488281</ele>
        <time>2020-07-12T12:37:06Z</time>
      </trkpt>
      <trkpt lat="45.01815" lon="5.46529">
        <ele>1236.5999755859</ele>
        <time>2020-07-12T12:37:09Z</time>
      </trkpt>
      <trkpt lat="45.0182" lon="5.46496">
        <ele>1235.1999511719</ele>
        <time>2020-07-12T12:37:14Z</time>
      </trkpt>
      <trkpt lat="45.01817" lon="5.46466">
        <ele>1233.1999511719</ele>
        <time>2020-07-12T12:37:19Z</time>
      </trkpt>
      <trkpt lat="45.01812" lon="5.46456">
        <ele>1231.4000244141</ele>
        <time>2020-07-12T12:37:22Z</time>
      </trkpt>
      <trkpt lat="45.01809" lon="5.46453">
        <ele>1230.5999755859</ele>
        <time>2020-07-12T12:37:24Z</time>
      </trkpt>
      <trkpt lat="45.01808" lon="5.46452">
        <ele>1230.1999511719</ele>
        <time>2020-07-12T12:37:25Z</time>
      </trkpt>
      <trkpt lat="45.01808" lon="5.46452">
        <ele>1230.1999511719</ele>
        <time>2020-07-12T12:37:26Z</time>
      </trkpt>
      <trkpt lat="45.01807" lon="5.46451">
        <ele>1229.8000488281</ele>
        <time>2020-07-12T12:37:27Z</time>
      </trkpt>
      <trkpt lat="45.01806" lon="5.46451">
        <ele>1229.4000244141</ele>
        <time>2020-07-12T12:37:30Z</time>
      </trkpt>
      <trkpt lat="45.01805" lon="5.46451">
        <ele>1229.4000244141</ele>
        <time>2020-07-12T12:37:31Z</time>
      </trkpt>
      <trkpt lat="45.01805" lon="5.46451">
        <ele>1229.4000244141</ele>
        <time>2020-07-12T12:37:32Z</time>
      </trkpt>
      <trkpt lat="45.01805" lon="5.46451">
        <ele>1229.4000244141</ele>
        <time>2020-07-12T12:37:33Z</time>
      </trkpt>
      <trkpt lat="45.01805" lon="5.46451">
        <ele>1229.4000244141</ele>
        <time>2020-07-12T12:37:40Z</time>
      </trkpt>
      <trkpt lat="45.01805" lon="5.4645">
        <ele>1229.4000244141</ele>
        <time>2020-07-12T12:37:46Z</time>
      </trkpt>
      <trkpt lat="45.01801" lon="5.46449">
        <ele>1229.1999511719</ele>
        <time>2020-07-12T12:37:48Z</time>
      </trkpt>
      <trkpt lat="45.01796" lon="5.46448">
        <ele>1229</ele>
        <time>2020-07-12T12:37:50Z</time>
      </trkpt>
      <trkpt lat="45.01793" lon="5.46448">
        <ele>1228.8000488281</ele>
        <time>2020-07-12T12:37:51Z</time>
      </trkpt>
      <trkpt lat="45.01778" lon="5.46446">
        <ele>1228.4000244141</ele>
        <time>2020-07-12T12:37:56Z</time>
      </trkpt>
      <trkpt lat="45.01756" lon="5.46446">
        <ele>1227</ele>
        <time>2020-07-12T12:38:01Z</time>
      </trkpt>
      <trkpt lat="45.01748" lon="5.46448">
        <ele>1226.1999511719</ele>
        <time>2020-07-12T12:38:05Z</time>
      </trkpt>
      <trkpt lat="45.01746" lon="5.4645">
        <ele>1225.8000488281</ele>
        <time>2020-07-12T12:38:06Z</time>
      </trkpt>
      <trkpt lat="45.01745" lon="5.46457">
        <ele>1225</ele>
        <time>2020-07-12T12:38:08Z</time>
      </trkpt>
      <trkpt lat="45.01747" lon="5.46467">
        <ele>1224.1999511719</ele>
        <time>2020-07-12T12:38:10Z</time>
      </trkpt>
      <trkpt lat="45.01747" lon="5.46472">
        <ele>1223.8000488281</ele>
        <time>2020-07-12T12:38:11Z</time>
      </trkpt>
      <trkpt lat="45.01748" lon="5.46477">
        <ele>1223.5999755859</ele>
        <time>2020-07-12T12:38:12Z</time>
      </trkpt>
      <trkpt lat="45.01748" lon="5.46486">
        <ele>1222.8000488281</ele>
        <time>2020-07-12T12:38:13Z</time>
      </trkpt>
      <trkpt lat="45.01745" lon="5.46502">
        <ele>1221</ele>
        <time>2020-07-12T12:38:18Z</time>
      </trkpt>
      <trkpt lat="45.01744" lon="5.46507">
        <ele>1220.1999511719</ele>
        <time>2020-07-12T12:38:20Z</time>
      </trkpt>
      <trkpt lat="45.01743" lon="5.46513">
        <ele>1219.5999755859</ele>
        <time>2020-07-12T12:38:22Z</time>
      </trkpt>
      <trkpt lat="45.0174" lon="5.46522">
        <ele>1218.4000244141</ele>
        <time>2020-07-12T12:38:25Z</time>
      </trkpt>
      <trkpt lat="45.01738" lon="5.46526">
        <ele>1218</ele>
        <time>2020-07-12T12:38:26Z</time>
      </trkpt>
      <trkpt lat="45.01733" lon="5.46534">
        <ele>1217.1999511719</ele>
        <time>2020-07-12T12:38:28Z</time>
      </trkpt>
      <trkpt lat="45.01697" lon="5.46581">
        <ele>1212.1999511719</ele>
        <time>2020-07-12T12:38:38Z</time>
      </trkpt>
      <trkpt lat="45.0168" lon="5.46599">
        <ele>1209.8000488281</ele>
        <time>2020-07-12T12:38:42Z</time>
      </trkpt>
      <trkpt lat="45.01662" lon="5.46611">
        <ele>1207.4000244141</ele>
        <time>2020-07-12T12:38:46Z</time>
      </trkpt>
      <trkpt lat="45.01643" lon="5.46625">
        <ele>1204.8000488281</ele>
        <time>2020-07-12T12:38:50Z</time>
      </trkpt>
      <trkpt lat="45.01639" lon="5.46628">
        <ele>1204.1999511719</ele>
        <time>2020-07-12T12:38:51Z</time>
      </trkpt>
      <trkpt lat="45.01614" lon="5.46642">
        <ele>1200</ele>
        <time>2020-07-12T12:38:57Z</time>
      </trkpt>
      <trkpt lat="45.01589" lon="5.4665">
        <ele>1195.5999755859</ele>
        <time>2020-07-12T12:39:03Z</time>
      </trkpt>
      <trkpt lat="45.01581" lon="5.46653">
        <ele>1193.5999755859</ele>
        <time>2020-07-12T12:39:05Z</time>
      </trkpt>
      <trkpt lat="45.01578" lon="5.46654">
        <ele>1192.8000488281</ele>
        <time>2020-07-12T12:39:06Z</time>
      </trkpt>
      <trkpt lat="45.01575" lon="5.46654">
        <ele>1192</ele>
        <time>2020-07-12T12:39:07Z</time>
      </trkpt>
      <trkpt lat="45.01572" lon="5.46655">
        <ele>1191</ele>
        <time>2020-07-12T12:39:08Z</time>
      </trkpt>
      <trkpt lat="45.01569" lon="5.46656">
        <ele>1190.4000244141</ele>
        <time>2020-07-12T12:39:09Z</time>
      </trkpt>
      <trkpt lat="45.01563" lon="5.46658">
        <ele>1188.8000488281</ele>
        <time>2020-07-12T12:39:11Z</time>
      </trkpt>
      <trkpt lat="45.01556" lon="5.46659">
        <ele>1187.4000244141</ele>
        <time>2020-07-12T12:39:13Z</time>
      </trkpt>
      <trkpt lat="45.01549" lon="5.46662">
        <ele>1185.8000488281</ele>
        <time>2020-07-12T12:39:15Z</time>
      </trkpt>
      <trkpt lat="45.01546" lon="5.46663">
        <ele>1185.1999511719</ele>
        <time>2020-07-12T12:39:16Z</time>
      </trkpt>
      <trkpt lat="45.01539" lon="5.46666">
        <ele>1183.4000244141</ele>
        <time>2020-07-12T12:39:18Z</time>
      </trkpt>
      <trkpt lat="45.01533" lon="5.46668">
        <ele>1182</ele>
        <time>2020-07-12T12:39:20Z</time>
      </trkpt>
      <trkpt lat="45.01508" lon="5.4668">
        <ele>1175.1999511719</ele>
        <time>2020-07-12T12:39:28Z</time>
      </trkpt>
      <trkpt lat="45.01494" lon="5.46686">
        <ele>1169.8000488281</ele>
        <time>2020-07-12T12:39:34Z</time>
      </trkpt>
      <trkpt lat="45.01492" lon="5.46689">
        <ele>1168.4000244141</ele>
        <time>2020-07-12T12:39:59Z</time>
      </trkpt>
      <trkpt lat="45.01492" lon="5.46689">
        <ele>1168.4000244141</ele>
        <time>2020-07-12T12:40:04Z</time>
      </trkpt>
      <trkpt lat="45.01492" lon="5.46689">
        <ele>1168.4000244141</ele>
        <time>2020-07-12T12:40:07Z</time>
      </trkpt>
      <trkpt lat="45.01492" lon="5.46689">
        <ele>1168.4000244141</ele>
        <time>2020-07-12T12:40:11Z</time>
      </trkpt>
      <trkpt lat="45.01492" lon="5.46689">
        <ele>1168.4000244141</ele>
        <time>2020-07-12T12:40:13Z</time>
      </trkpt>
      <trkpt lat="45.01492" lon="5.46689">
        <ele>1168.4000244141</ele>
        <time>2020-07-12T12:40:16Z</time>
      </trkpt>
      <trkpt lat="45.01492" lon="5.46689">
        <ele>1168.4000244141</ele>
        <time>2020-07-12T12:40:20Z</time>
      </trkpt>
      <trkpt lat="45.01492" lon="5.46689">
        <ele>1168.4000244141</ele>
        <time>2020-07-12T12:40:23Z</time>
      </trkpt>
      <trkpt lat="45.01492" lon="5.46689">
        <ele>1168.4000244141</ele>
        <time>2020-07-12T12:40:27Z</time>
      </trkpt>
      <trkpt lat="45.01492" lon="5.46689">
        <ele>1168.4000244141</ele>
        <time>2020-07-12T12:40:30Z</time>
      </trkpt>
      <trkpt lat="45.01492" lon="5.46689">
        <ele>1168.4000244141</ele>
        <time>2020-07-12T12:40:35Z</time>
      </trkpt>
      <trkpt lat="45.01492" lon="5.46689">
        <ele>1168.4000244141</ele>
        <time>2020-07-12T12:40:40Z</time>
      </trkpt>
      <trkpt lat="45.01492" lon="5.46689">
        <ele>1168.4000244141</ele>
        <time>2020-07-12T12:40:49Z</time>
      </trkpt>
      <trkpt lat="45.01492" lon="5.46689">
        <ele>1168.4000244141</ele>
        <time>2020-07-12T12:40:54Z</time>
      </trkpt>
      <trkpt lat="45.01492" lon="5.46689">
        <ele>1168.4000244141</ele>
        <time>2020-07-12T12:41:18Z</time>
      </trkpt>
      <trkpt lat="45.01492" lon="5.46689">
        <ele>1168.4000244141</ele>
        <time>2020-07-12T12:41:26Z</time>
      </trkpt>
      <trkpt lat="45.01492" lon="5.46689">
        <ele>1168.4000244141</ele>
        <time>2020-07-12T12:41:35Z</time>
      </trkpt>
      <trkpt lat="45.01494" lon="5.46687">
        <ele>1168</ele>
        <time>2020-07-12T12:41:53Z</time>
      </trkpt>
      <trkpt lat="45.01498" lon="5.46681">
        <ele>1167.8000488281</ele>
        <time>2020-07-12T12:41:57Z</time>
      </trkpt>
      <trkpt lat="45.0153" lon="5.46633">
        <ele>1165</ele>
        <time>2020-07-12T12:42:08Z</time>
      </trkpt>
      <trkpt lat="45.01541" lon="5.46611">
        <ele>1163.1999511719</ele>
        <time>2020-07-12T12:42:12Z</time>
      </trkpt>
      <trkpt lat="45.01552" lon="5.46585">
        <ele>1161.4000244141</ele>
        <time>2020-07-12T12:42:16Z</time>
      </trkpt>
      <trkpt lat="45.01557" lon="5.46564">
        <ele>1160</ele>
        <time>2020-07-12T12:42:19Z</time>
      </trkpt>
      <trkpt lat="45.01559" lon="5.46557">
        <ele>1159.5999755859</ele>
        <time>2020-07-12T12:42:20Z</time>
      </trkpt>
      <trkpt lat="45.0156" lon="5.46551">
        <ele>1159</ele>
        <time>2020-07-12T12:42:21Z</time>
      </trkpt>
      <trkpt lat="45.01561" lon="5.46547">
        <ele>1158.5999755859</ele>
        <time>2020-07-12T12:42:22Z</time>
      </trkpt>
      <trkpt lat="45.01559" lon="5.46544">
        <ele>1157.1999511719</ele>
        <time>2020-07-12T12:42:24Z</time>
      </trkpt>
      <trkpt lat="45.01557" lon="5.46544">
        <ele>1156.5999755859</ele>
        <time>2020-07-12T12:42:25Z</time>
      </trkpt>
      <trkpt lat="45.01554" lon="5.46546">
        <ele>1156</ele>
        <time>2020-07-12T12:42:26Z</time>
      </trkpt>
      <trkpt lat="45.01551" lon="5.46548">
        <ele>1155.4000244141</ele>
        <time>2020-07-12T12:42:27Z</time>
      </trkpt>
      <trkpt lat="45.01548" lon="5.4655">
        <ele>1154.8000488281</ele>
        <time>2020-07-12T12:42:28Z</time>
      </trkpt>
      <trkpt lat="45.01518" lon="5.46572">
        <ele>1150.1999511719</ele>
        <time>2020-07-12T12:42:35Z</time>
      </trkpt>
      <trkpt lat="45.01514" lon="5.46575">
        <ele>1149.5999755859</ele>
        <time>2020-07-12T12:42:36Z</time>
      </trkpt>
      <trkpt lat="45.015" lon="5.46584">
        <ele>1147.4000244141</ele>
        <time>2020-07-12T12:42:39Z</time>
      </trkpt>
      <trkpt lat="45.01496" lon="5.46586">
        <ele>1146.8000488281</ele>
        <time>2020-07-12T12:42:40Z</time>
      </trkpt>
      <trkpt lat="45.01491" lon="5.46589">
        <ele>1146</ele>
        <time>2020-07-12T12:42:41Z</time>
      </trkpt>
      <trkpt lat="45.01487" lon="5.46593">
        <ele>1145.4000244141</ele>
        <time>2020-07-12T12:42:42Z</time>
      </trkpt>
      <trkpt lat="45.01482" lon="5.46597">
        <ele>1144.5999755859</ele>
        <time>2020-07-12T12:42:43Z</time>
      </trkpt>
      <trkpt lat="45.01472" lon="5.46603">
        <ele>1143</ele>
        <time>2020-07-12T12:42:45Z</time>
      </trkpt>
      <trkpt lat="45.01464" lon="5.46608">
        <ele>1141.4000244141</ele>
        <time>2020-07-12T12:42:47Z</time>
      </trkpt>
      <trkpt lat="45.01459" lon="5.46609">
        <ele>1140</ele>
        <time>2020-07-12T12:42:49Z</time>
      </trkpt>
      <trkpt lat="45.01458" lon="5.46603">
        <ele>1137.5999755859</ele>
        <time>2020-07-12T12:42:52Z</time>
      </trkpt>
      <trkpt lat="45.01459" lon="5.46595">
        <ele>1135.5999755859</ele>
        <time>2020-07-12T12:42:55Z</time>
      </trkpt>
      <trkpt lat="45.01462" lon="5.46585">
        <ele>1132.5999755859</ele>
        <time>2020-07-12T12:42:59Z</time>
      </trkpt>
      <trkpt lat="45.01466" lon="5.4657">
        <ele>1126.8000488281</ele>
        <time>2020-07-12T12:43:07Z</time>
      </trkpt>
      <trkpt lat="45.01466" lon="5.46567">
        <ele>1126.1999511719</ele>
        <time>2020-07-12T12:43:08Z</time>
      </trkpt>
      <trkpt lat="45.01467" lon="5.46559">
        <ele>1124.8000488281</ele>
        <time>2020-07-12T12:43:10Z</time>
      </trkpt>
      <trkpt lat="45.01466" lon="5.46544">
        <ele>1121.1999511719</ele>
        <time>2020-07-12T12:43:15Z</time>
      </trkpt>
      <trkpt lat="45.01461" lon="5.46534">
        <ele>1117.4000244141</ele>
        <time>2020-07-12T12:43:20Z</time>
      </trkpt>
      <trkpt lat="45.01438" lon="5.46523">
        <ele>1112.5999755859</ele>
        <time>2020-07-12T12:43:27Z</time>
      </trkpt>
      <trkpt lat="45.01398" lon="5.46532">
        <ele>1101.1999511719</ele>
        <time>2020-07-12T12:43:42Z</time>
      </trkpt>
      <trkpt lat="45.01396" lon="5.46526">
        <ele>1099.4000244141</ele>
        <time>2020-07-12T12:43:44Z</time>
      </trkpt>
      <trkpt lat="45.014" lon="5.46516">
        <ele>1095.5999755859</ele>
        <time>2020-07-12T12:44:11Z</time>
      </trkpt>
      <trkpt lat="45.014" lon="5.46516">
        <ele>1095.5999755859</ele>
        <time>2020-07-12T12:44:23Z</time>
      </trkpt>
      <trkpt lat="45.014" lon="5.46516">
        <ele>1095.5999755859</ele>
        <time>2020-07-12T12:44:29Z</time>
      </trkpt>
      <trkpt lat="45.014" lon="5.46516">
        <ele>1095.5999755859</ele>
        <time>2020-07-12T12:44:32Z</time>
      </trkpt>
      <trkpt lat="45.014" lon="5.46516">
        <ele>1095.5999755859</ele>
        <time>2020-07-12T12:44:35Z</time>
      </trkpt>
      <trkpt lat="45.014" lon="5.46516">
        <ele>1095.5999755859</ele>
        <time>2020-07-12T12:44:40Z</time>
      </trkpt>
      <trkpt lat="45.014" lon="5.46516">
        <ele>1095.5999755859</ele>
        <time>2020-07-12T12:44:45Z</time>
      </trkpt>
      <trkpt lat="45.014" lon="5.46516">
        <ele>1095.5999755859</ele>
        <time>2020-07-12T12:44:50Z</time>
      </trkpt>
      <trkpt lat="45.014" lon="5.46516">
        <ele>1095.5999755859</ele>
        <time>2020-07-12T12:44:53Z</time>
      </trkpt>
      <trkpt lat="45.014" lon="5.46516">
        <ele>1095.5999755859</ele>
        <time>2020-07-12T12:44:55Z</time>
      </trkpt>
      <trkpt lat="45.014" lon="5.46516">
        <ele>1095.5999755859</ele>
        <time>2020-07-12T12:44:58Z</time>
      </trkpt>
      <trkpt lat="45.014" lon="5.46516">
        <ele>1095.5999755859</ele>
        <time>2020-07-12T12:45:01Z</time>
      </trkpt>
      <trkpt lat="45.014" lon="5.46516">
        <ele>1095.5999755859</ele>
        <time>2020-07-12T12:45:02Z</time>
      </trkpt>
      <trkpt lat="45.01392" lon="5.46527">
        <ele>1095.1999511719</ele>
        <time>2020-07-12T12:45:13Z</time>
      </trkpt>
      <trkpt lat="45.01385" lon="5.4654">
        <ele>1094.8000488281</ele>
        <time>2020-07-12T12:45:19Z</time>
      </trkpt>
      <trkpt lat="45.01382" lon="5.46544">
        <ele>1094.4000244141</ele>
        <time>2020-07-12T12:45:21Z</time>
      </trkpt>
      <trkpt lat="45.01381" lon="5.46545">
        <ele>1094.4000244141</ele>
        <time>2020-07-12T12:45:22Z</time>
      </trkpt>
      <trkpt lat="45.01382" lon="5.46546">
        <ele>1094</ele>
        <time>2020-07-12T12:45:23Z</time>
      </trkpt>
      <trkpt lat="45.01382" lon="5.46547">
        <ele>1093.8000488281</ele>
        <time>2020-07-12T12:45:24Z</time>
      </trkpt>
      <trkpt lat="45.01382" lon="5.46548">
        <ele>1093.8000488281</ele>
        <time>2020-07-12T12:45:25Z</time>
      </trkpt>
      <trkpt lat="45.01382" lon="5.46549">
        <ele>1093.4000244141</ele>
        <time>2020-07-12T12:45:27Z</time>
      </trkpt>
      <trkpt lat="45.01384" lon="5.4655">
        <ele>1092.8000488281</ele>
        <time>2020-07-12T12:45:29Z</time>
      </trkpt>
      <trkpt lat="45.01384" lon="5.46551">
        <ele>1092.4000244141</ele>
        <time>2020-07-12T12:45:30Z</time>
      </trkpt>
      <trkpt lat="45.01387" lon="5.46553">
        <ele>1091.5999755859</ele>
        <time>2020-07-12T12:45:36Z</time>
      </trkpt>
      <trkpt lat="45.01387" lon="5.46553">
        <ele>1091.5999755859</ele>
        <time>2020-07-12T12:45:39Z</time>
      </trkpt>
      <trkpt lat="45.01387" lon="5.46553">
        <ele>1091.5999755859</ele>
        <time>2020-07-12T12:45:40Z</time>
      </trkpt>
      <trkpt lat="45.01387" lon="5.46553">
        <ele>1091.5999755859</ele>
        <time>2020-07-12T12:45:41Z</time>
      </trkpt>
      <trkpt lat="45.01387" lon="5.46553">
        <ele>1091.5999755859</ele>
        <time>2020-07-12T12:45:42Z</time>
      </trkpt>
      <trkpt lat="45.01387" lon="5.46553">
        <ele>1091.5999755859</ele>
        <time>2020-07-12T12:45:44Z</time>
      </trkpt>
      <trkpt lat="45.01387" lon="5.46553">
        <ele>1091.5999755859</ele>
        <time>2020-07-12T12:45:55Z</time>
      </trkpt>
      <trkpt lat="45.01387" lon="5.46554">
        <ele>1091.8000488281</ele>
        <time>2020-07-12T12:46:01Z</time>
      </trkpt>
      <trkpt lat="45.01387" lon="5.46554">
        <ele>1091.5999755859</ele>
        <time>2020-07-12T12:46:03Z</time>
      </trkpt>
      <trkpt lat="45.01387" lon="5.46554">
        <ele>1091.5999755859</ele>
        <time>2020-07-12T12:46:04Z</time>
      </trkpt>
      <trkpt lat="45.01387" lon="5.46554">
        <ele>1091.5999755859</ele>
        <time>2020-07-12T12:46:07Z</time>
      </trkpt>
      <trkpt lat="45.01387" lon="5.46554">
        <ele>1091.5999755859</ele>
        <time>2020-07-12T12:46:08Z</time>
      </trkpt>
      <trkpt lat="45.01387" lon="5.46554">
        <ele>1091.5999755859</ele>
        <time>2020-07-12T12:46:09Z</time>
      </trkpt>
      <trkpt lat="45.01387" lon="5.46554">
        <ele>1091.5999755859</ele>
        <time>2020-07-12T12:46:11Z</time>
      </trkpt>
      <trkpt lat="45.01388" lon="5.46554">
        <ele>1091.5999755859</ele>
        <time>2020-07-12T12:46:12Z</time>
      </trkpt>
      <trkpt lat="45.01388" lon="5.46554">
        <ele>1091.8000488281</ele>
        <time>2020-07-12T12:46:17Z</time>
      </trkpt>
      <trkpt lat="45.01388" lon="5.46555">
        <ele>1091.4000244141</ele>
        <time>2020-07-12T12:46:26Z</time>
      </trkpt>
      <trkpt lat="45.01388" lon="5.46554">
        <ele>1091.4000244141</ele>
        <time>2020-07-12T12:46:29Z</time>
      </trkpt>
      <trkpt lat="45.01388" lon="5.46555">
        <ele>1091.4000244141</ele>
        <time>2020-07-12T12:46:33Z</time>
      </trkpt>
      <trkpt lat="45.01387" lon="5.46555">
        <ele>1091.4000244141</ele>
        <time>2020-07-12T12:46:36Z</time>
      </trkpt>
      <trkpt lat="45.01386" lon="5.46555">
        <ele>1091.4000244141</ele>
        <time>2020-07-12T12:46:37Z</time>
      </trkpt>
      <trkpt lat="45.01377" lon="5.46557">
        <ele>1091.1999511719</ele>
        <time>2020-07-12T12:46:41Z</time>
      </trkpt>
      <trkpt lat="45.01357" lon="5.46561">
        <ele>1090.8000488281</ele>
        <time>2020-07-12T12:46:45Z</time>
      </trkpt>
      <trkpt lat="45.01313" lon="5.46574">
        <ele>1090</ele>
        <time>2020-07-12T12:46:52Z</time>
      </trkpt>
      <trkpt lat="45.01264" lon="5.46583">
        <ele>1088.5999755859</ele>
        <time>2020-07-12T12:47:00Z</time>
      </trkpt>
      <trkpt lat="45.01248" lon="5.46585">
        <ele>1088</ele>
        <time>2020-07-12T12:47:03Z</time>
      </trkpt>
      <trkpt lat="45.01236" lon="5.46587">
        <ele>1087.8000488281</ele>
        <time>2020-07-12T12:47:05Z</time>
      </trkpt>
      <trkpt lat="45.01223" lon="5.46588">
        <ele>1087.4000244141</ele>
        <time>2020-07-12T12:47:07Z</time>
      </trkpt>
      <trkpt lat="45.01217" lon="5.46589">
        <ele>1087.1999511719</ele>
        <time>2020-07-12T12:47:08Z</time>
      </trkpt>
      <trkpt lat="45.01211" lon="5.4659">
        <ele>1087</ele>
        <time>2020-07-12T12:47:09Z</time>
      </trkpt>
      <trkpt lat="45.01204" lon="5.46591">
        <ele>1086.8000488281</ele>
        <time>2020-07-12T12:47:10Z</time>
      </trkpt>
      <trkpt lat="45.01198" lon="5.46592">
        <ele>1086.5999755859</ele>
        <time>2020-07-12T12:47:11Z</time>
      </trkpt>
      <trkpt lat="45.01188" lon="5.46594">
        <ele>1086.1999511719</ele>
        <time>2020-07-12T12:47:13Z</time>
      </trkpt>
      <trkpt lat="45.01164" lon="5.46598">
        <ele>1085.1999511719</ele>
        <time>2020-07-12T12:47:17Z</time>
      </trkpt>
      <trkpt lat="45.01136" lon="5.46602">
        <ele>1083.8000488281</ele>
        <time>2020-07-12T12:47:22Z</time>
      </trkpt>
      <trkpt lat="45.01126" lon="5.46604">
        <ele>1083.1999511719</ele>
        <time>2020-07-12T12:47:24Z</time>
      </trkpt>
      <trkpt lat="45.011" lon="5.46603">
        <ele>1080.4000244141</ele>
        <time>2020-07-12T12:47:32Z</time>
      </trkpt>
      <trkpt lat="45.01082" lon="5.46603">
        <ele>1078</ele>
        <time>2020-07-12T12:47:37Z</time>
      </trkpt>
      <trkpt lat="45.01066" lon="5.46602">
        <ele>1075.8000488281</ele>
        <time>2020-07-12T12:47:41Z</time>
      </trkpt>
      <trkpt lat="45.01047" lon="5.46601">
        <ele>1072.4000244141</ele>
        <time>2020-07-12T12:47:47Z</time>
      </trkpt>
      <trkpt lat="45.01045" lon="5.46601">
        <ele>1071.8000488281</ele>
        <time>2020-07-12T12:47:48Z</time>
      </trkpt>
      <trkpt lat="45.01035" lon="5.46602">
        <ele>1070</ele>
        <time>2020-07-12T12:47:51Z</time>
      </trkpt>
      <trkpt lat="45.01031" lon="5.46602">
        <ele>1069.4000244141</ele>
        <time>2020-07-12T12:47:52Z</time>
      </trkpt>
      <trkpt lat="45.01027" lon="5.46602">
        <ele>1068.8000488281</ele>
        <time>2020-07-12T12:47:53Z</time>
      </trkpt>
      <trkpt lat="45.01023" lon="5.46602">
        <ele>1068</ele>
        <time>2020-07-12T12:47:54Z</time>
      </trkpt>
      <trkpt lat="45.01019" lon="5.46602">
        <ele>1067.5999755859</ele>
        <time>2020-07-12T12:47:55Z</time>
      </trkpt>
      <trkpt lat="45.01006" lon="5.46601">
        <ele>1065.1999511719</ele>
        <time>2020-07-12T12:47:58Z</time>
      </trkpt>
      <trkpt lat="45.00997" lon="5.466">
        <ele>1063.8000488281</ele>
        <time>2020-07-12T12:48:00Z</time>
      </trkpt>
      <trkpt lat="45.00993" lon="5.466">
        <ele>1063.1999511719</ele>
        <time>2020-07-12T12:48:01Z</time>
      </trkpt>
      <trkpt lat="45.00984" lon="5.46599">
        <ele>1061.8000488281</ele>
        <time>2020-07-12T12:48:03Z</time>
      </trkpt>
      <trkpt lat="45.0098" lon="5.46599">
        <ele>1061.1999511719</ele>
        <time>2020-07-12T12:48:04Z</time>
      </trkpt>
      <trkpt lat="45.0097" lon="5.46597">
        <ele>1059.8000488281</ele>
        <time>2020-07-12T12:48:06Z</time>
      </trkpt>
      <trkpt lat="45.00923" lon="5.46586">
        <ele>1052.8000488281</ele>
        <time>2020-07-12T12:48:16Z</time>
      </trkpt>
      <trkpt lat="45.0088" lon="5.46575">
        <ele>1047</ele>
        <time>2020-07-12T12:48:24Z</time>
      </trkpt>
      <trkpt lat="45.00866" lon="5.4657">
        <ele>1044.4000244141</ele>
        <time>2020-07-12T12:48:27Z</time>
      </trkpt>
      <trkpt lat="45.00831" lon="5.46558">
        <ele>1036.5999755859</ele>
        <time>2020-07-12T12:48:36Z</time>
      </trkpt>
      <trkpt lat="45.00798" lon="5.46553">
        <ele>1026.4000244141</ele>
        <time>2020-07-12T12:49:00Z</time>
      </trkpt>
      <trkpt lat="45.00798" lon="5.46553">
        <ele>1026.4000244141</ele>
        <time>2020-07-12T12:49:07Z</time>
      </trkpt>
      <trkpt lat="45.00798" lon="5.46553">
        <ele>1026.4000244141</ele>
        <time>2020-07-12T12:49:12Z</time>
      </trkpt>
      <trkpt lat="45.00798" lon="5.46553">
        <ele>1026.4000244141</ele>
        <time>2020-07-12T12:49:17Z</time>
      </trkpt>
      <trkpt lat="45.00798" lon="5.46553">
        <ele>1026.4000244141</ele>
        <time>2020-07-12T12:49:24Z</time>
      </trkpt>
      <trkpt lat="45.00798" lon="5.46553">
        <ele>1026.4000244141</ele>
        <time>2020-07-12T12:49:25Z</time>
      </trkpt>
      <trkpt lat="45.00798" lon="5.46553">
        <ele>1026.4000244141</ele>
        <time>2020-07-12T12:49:28Z</time>
      </trkpt>
      <trkpt lat="45.00798" lon="5.46553">
        <ele>1026.4000244141</ele>
        <time>2020-07-12T12:49:31Z</time>
      </trkpt>
      <trkpt lat="45.00798" lon="5.46553">
        <ele>1026.4000244141</ele>
        <time>2020-07-12T12:49:37Z</time>
      </trkpt>
      <trkpt lat="45.00798" lon="5.46553">
        <ele>1026.4000244141</ele>
        <time>2020-07-12T12:49:42Z</time>
      </trkpt>
      <trkpt lat="45.00798" lon="5.46553">
        <ele>1026.4000244141</ele>
        <time>2020-07-12T12:49:44Z</time>
      </trkpt>
      <trkpt lat="45.00798" lon="5.46553">
        <ele>1026.4000244141</ele>
        <time>2020-07-12T12:49:48Z</time>
      </trkpt>
      <trkpt lat="45.00798" lon="5.46553">
        <ele>1026.4000244141</ele>
        <time>2020-07-12T12:49:49Z</time>
      </trkpt>
      <trkpt lat="45.00798" lon="5.46553">
        <ele>1026.4000244141</ele>
        <time>2020-07-12T12:49:53Z</time>
      </trkpt>
      <trkpt lat="45.00798" lon="5.46553">
        <ele>1026.4000244141</ele>
        <time>2020-07-12T12:49:57Z</time>
      </trkpt>
      <trkpt lat="45.00798" lon="5.46553">
        <ele>1026.4000244141</ele>
        <time>2020-07-12T12:49:58Z</time>
      </trkpt>
      <trkpt lat="45.00798" lon="5.46553">
        <ele>1026.4000244141</ele>
        <time>2020-07-12T12:50:01Z</time>
      </trkpt>
      <trkpt lat="45.00798" lon="5.46552">
        <ele>1026</ele>
        <time>2020-07-12T12:50:06Z</time>
      </trkpt>
      <trkpt lat="45.008" lon="5.46549">
        <ele>1026.5999755859</ele>
        <time>2020-07-12T12:50:08Z</time>
      </trkpt>
      <trkpt lat="45.0082" lon="5.46549">
        <ele>1024.8000488281</ele>
        <time>2020-07-12T12:50:16Z</time>
      </trkpt>
      <trkpt lat="45.00823" lon="5.46548">
        <ele>1024.4000244141</ele>
        <time>2020-07-12T12:50:17Z</time>
      </trkpt>
      <trkpt lat="45.00826" lon="5.46547">
        <ele>1023.799987793</ele>
        <time>2020-07-12T12:50:18Z</time>
      </trkpt>
      <trkpt lat="45.0083" lon="5.46546">
        <ele>1023.200012207</ele>
        <time>2020-07-12T12:50:19Z</time>
      </trkpt>
      <trkpt lat="45.00833" lon="5.46546">
        <ele>1022.799987793</ele>
        <time>2020-07-12T12:50:20Z</time>
      </trkpt>
      <trkpt lat="45.00837" lon="5.46545">
        <ele>1022.4000244141</ele>
        <time>2020-07-12T12:50:21Z</time>
      </trkpt>
      <trkpt lat="45.00841" lon="5.46545">
        <ele>1022</ele>
        <time>2020-07-12T12:50:22Z</time>
      </trkpt>
      <trkpt lat="45.00851" lon="5.46544">
        <ele>1020.4000244141</ele>
        <time>2020-07-12T12:50:24Z</time>
      </trkpt>
      <trkpt lat="45.00856" lon="5.46544">
        <ele>1019.799987793</ele>
        <time>2020-07-12T12:50:25Z</time>
      </trkpt>
      <trkpt lat="45.00866" lon="5.46543">
        <ele>1018.799987793</ele>
        <time>2020-07-12T12:50:27Z</time>
      </trkpt>
      <trkpt lat="45.00871" lon="5.46543">
        <ele>1018.200012207</ele>
        <time>2020-07-12T12:50:28Z</time>
      </trkpt>
      <trkpt lat="45.009" lon="5.46536">
        <ele>1014.200012207</ele>
        <time>2020-07-12T12:50:34Z</time>
      </trkpt>
      <trkpt lat="45.00914" lon="5.46535">
        <ele>1011.4000244141</ele>
        <time>2020-07-12T12:50:37Z</time>
      </trkpt>
      <trkpt lat="45.00925" lon="5.46531">
        <ele>1010</ele>
        <time>2020-07-12T12:50:39Z</time>
      </trkpt>
      <trkpt lat="45.00946" lon="5.46524">
        <ele>1008.4000244141</ele>
        <time>2020-07-12T12:50:43Z</time>
      </trkpt>
      <trkpt lat="45.00953" lon="5.4652">
        <ele>1007.4000244141</ele>
        <time>2020-07-12T12:50:44Z</time>
      </trkpt>
      <trkpt lat="45.00973" lon="5.46512">
        <ele>1004.5999755859</ele>
        <time>2020-07-12T12:50:47Z</time>
      </trkpt>
      <trkpt lat="45.00986" lon="5.46509">
        <ele>1003</ele>
        <time>2020-07-12T12:50:49Z</time>
      </trkpt>
      <trkpt lat="45.01018" lon="5.46506">
        <ele>1000.799987793</ele>
        <time>2020-07-12T12:50:54Z</time>
      </trkpt>
      <trkpt lat="45.01045" lon="5.46496">
        <ele>998</ele>
        <time>2020-07-12T12:50:59Z</time>
      </trkpt>
      <trkpt lat="45.01055" lon="5.46489">
        <ele>996.79998779297</ele>
        <time>2020-07-12T12:51:01Z</time>
      </trkpt>
      <trkpt lat="45.01065" lon="5.46479">
        <ele>995.59997558594</ele>
        <time>2020-07-12T12:51:03Z</time>
      </trkpt>
      <trkpt lat="45.01076" lon="5.46461">
        <ele>989.20001220703</ele>
        <time>2020-07-12T12:51:11Z</time>
      </trkpt>
      <trkpt lat="45.01047" lon="5.46472">
        <ele>983.40002441406</ele>
        <time>2020-07-12T12:51:20Z</time>
      </trkpt>
      <trkpt lat="45.01043" lon="5.46471">
        <ele>983</ele>
        <time>2020-07-12T12:51:21Z</time>
      </trkpt>
      <trkpt lat="45.01032" lon="5.46467">
        <ele>981.40002441406</ele>
        <time>2020-07-12T12:51:24Z</time>
      </trkpt>
      <trkpt lat="45.01021" lon="5.46458">
        <ele>979</ele>
        <time>2020-07-12T12:51:27Z</time>
      </trkpt>
      <trkpt lat="45.01009" lon="5.4645">
        <ele>976.79998779297</ele>
        <time>2020-07-12T12:51:30Z</time>
      </trkpt>
      <trkpt lat="45.01" lon="5.46446">
        <ele>975</ele>
        <time>2020-07-12T12:51:32Z</time>
      </trkpt>
      <trkpt lat="45.00951" lon="5.46435">
        <ele>965.79998779297</ele>
        <time>2020-07-12T12:51:41Z</time>
      </trkpt>
      <trkpt lat="45.00904" lon="5.46429">
        <ele>956.40002441406</ele>
        <time>2020-07-12T12:51:50Z</time>
      </trkpt>
      <trkpt lat="45.00889" lon="5.46425">
        <ele>953</ele>
        <time>2020-07-12T12:51:53Z</time>
      </trkpt>
      <trkpt lat="45.00842" lon="5.46404">
        <ele>945.20001220703</ele>
        <time>2020-07-12T12:52:02Z</time>
      </trkpt>
      <trkpt lat="45.00815" lon="5.46392">
        <ele>939.59997558594</ele>
        <time>2020-07-12T12:52:07Z</time>
      </trkpt>
      <trkpt lat="45.00764" lon="5.46388">
        <ele>930.59997558594</ele>
        <time>2020-07-12T12:52:15Z</time>
      </trkpt>
      <trkpt lat="45.00714" lon="5.46385">
        <ele>921.79998779297</ele>
        <time>2020-07-12T12:52:23Z</time>
      </trkpt>
      <trkpt lat="45.00667" lon="5.46373">
        <ele>913.40002441406</ele>
        <time>2020-07-12T12:52:31Z</time>
      </trkpt>
      <trkpt lat="45.0064" lon="5.4636">
        <ele>907.79998779297</ele>
        <time>2020-07-12T12:52:36Z</time>
      </trkpt>
      <trkpt lat="45.00592" lon="5.46345">
        <ele>898</ele>
        <time>2020-07-12T12:52:45Z</time>
      </trkpt>
      <trkpt lat="45.00547" lon="5.46313">
        <ele>891.79998779297</ele>
        <time>2020-07-12T12:52:53Z</time>
      </trkpt>
      <trkpt lat="45.00538" lon="5.46307">
        <ele>890</ele>
        <time>2020-07-12T12:52:55Z</time>
      </trkpt>
      <trkpt lat="45.00495" lon="5.46274">
        <ele>880.79998779297</ele>
        <time>2020-07-12T12:53:04Z</time>
      </trkpt>
      <trkpt lat="45.00455" lon="5.4624">
        <ele>869.79998779297</ele>
        <time>2020-07-12T12:53:15Z</time>
      </trkpt>
      <trkpt lat="45.00433" lon="5.46215">
        <ele>863</ele>
        <time>2020-07-12T12:53:21Z</time>
      </trkpt>
      <trkpt lat="45.00423" lon="5.46207">
        <ele>861</ele>
        <time>2020-07-12T12:53:23Z</time>
      </trkpt>
      <trkpt lat="45.00405" lon="5.46192">
        <ele>857</ele>
        <time>2020-07-12T12:53:27Z</time>
      </trkpt>
      <trkpt lat="45.00369" lon="5.46167">
        <ele>848.79998779297</ele>
        <time>2020-07-12T12:54:20Z</time>
      </trkpt>
      <trkpt lat="45.00369" lon="5.46167">
        <ele>848.79998779297</ele>
        <time>2020-07-12T12:54:23Z</time>
      </trkpt>
      <trkpt lat="45.00369" lon="5.46167">
        <ele>848.79998779297</ele>
        <time>2020-07-12T12:54:25Z</time>
      </trkpt>
      <trkpt lat="45.00369" lon="5.46167">
        <ele>848.79998779297</ele>
        <time>2020-07-12T12:54:28Z</time>
      </trkpt>
      <trkpt lat="45.00366" lon="5.46166">
        <ele>848.59997558594</ele>
        <time>2020-07-12T12:54:32Z</time>
      </trkpt>
      <trkpt lat="45.00359" lon="5.46165">
        <ele>848.40002441406</ele>
        <time>2020-07-12T12:54:36Z</time>
      </trkpt>
      <trkpt lat="45.00354" lon="5.46164">
        <ele>848</ele>
        <time>2020-07-12T12:54:38Z</time>
      </trkpt>
      <trkpt lat="45.00347" lon="5.46161">
        <ele>847.40002441406</ele>
        <time>2020-07-12T12:54:41Z</time>
      </trkpt>
      <trkpt lat="45.00342" lon="5.46158">
        <ele>846.79998779297</ele>
        <time>2020-07-12T12:54:45Z</time>
      </trkpt>
      <trkpt lat="45.00339" lon="5.4616">
        <ele>846.59997558594</ele>
        <time>2020-07-12T12:54:50Z</time>
      </trkpt>
      <trkpt lat="45.00339" lon="5.46161">
        <ele>846.40002441406</ele>
        <time>2020-07-12T12:54:53Z</time>
      </trkpt>
      <trkpt lat="45.00339" lon="5.46161">
        <ele>846.40002441406</ele>
        <time>2020-07-12T12:54:56Z</time>
      </trkpt>
      <trkpt lat="45.00338" lon="5.4616">
        <ele>846.40002441406</ele>
        <time>2020-07-12T12:55:02Z</time>
      </trkpt>
      <trkpt lat="45.00338" lon="5.4616">
        <ele>846.40002441406</ele>
        <time>2020-07-12T12:55:06Z</time>
      </trkpt>
      <trkpt lat="45.00338" lon="5.46159">
        <ele>846.40002441406</ele>
        <time>2020-07-12T12:55:12Z</time>
      </trkpt>
      <trkpt lat="45.00338" lon="5.46157">
        <ele>846.59997558594</ele>
        <time>2020-07-12T12:55:22Z</time>
      </trkpt>
      <trkpt lat="45.0034" lon="5.46157">
        <ele>846.79998779297</ele>
        <time>2020-07-12T12:55:33Z</time>
      </trkpt>
      <trkpt lat="45.0034" lon="5.46158">
        <ele>847</ele>
        <time>2020-07-12T12:55:52Z</time>
      </trkpt>
      <trkpt lat="45.00339" lon="5.46158">
        <ele>847</ele>
        <time>2020-07-12T12:56:03Z</time>
      </trkpt>
      <trkpt lat="45.0034" lon="5.46158">
        <ele>847</ele>
        <time>2020-07-12T12:56:11Z</time>
      </trkpt>
      <trkpt lat="45.00339" lon="5.46152">
        <ele>846.79998779297</ele>
        <time>2020-07-12T12:56:18Z</time>
      </trkpt>
      <trkpt lat="45.00318" lon="5.46135">
        <ele>846</ele>
        <time>2020-07-12T12:56:25Z</time>
      </trkpt>
      <trkpt lat="45.0031" lon="5.46127">
        <ele>845.59997558594</ele>
        <time>2020-07-12T12:56:27Z</time>
      </trkpt>
      <trkpt lat="45.00294" lon="5.46107">
        <ele>844.79998779297</ele>
        <time>2020-07-12T12:56:31Z</time>
      </trkpt>
      <trkpt lat="45.0028" lon="5.46098">
        <ele>843.79998779297</ele>
        <time>2020-07-12T12:56:34Z</time>
      </trkpt>
      <trkpt lat="45.00261" lon="5.46092">
        <ele>842.79998779297</ele>
        <time>2020-07-12T12:56:37Z</time>
      </trkpt>
      <trkpt lat="45.00254" lon="5.4609">
        <ele>842.40002441406</ele>
        <time>2020-07-12T12:56:38Z</time>
      </trkpt>
      <trkpt lat="45.00249" lon="5.46087">
        <ele>842</ele>
        <time>2020-07-12T12:56:39Z</time>
      </trkpt>
      <trkpt lat="45.00244" lon="5.46085">
        <ele>841.59997558594</ele>
        <time>2020-07-12T12:56:40Z</time>
      </trkpt>
      <trkpt lat="45.00239" lon="5.46084">
        <ele>841.20001220703</ele>
        <time>2020-07-12T12:56:41Z</time>
      </trkpt>
      <trkpt lat="45.00234" lon="5.46083">
        <ele>840.79998779297</ele>
        <time>2020-07-12T12:56:42Z</time>
      </trkpt>
      <trkpt lat="45.0023" lon="5.46084">
        <ele>840.40002441406</ele>
        <time>2020-07-12T12:56:43Z</time>
      </trkpt>
      <trkpt lat="45.00222" lon="5.46086">
        <ele>839.59997558594</ele>
        <time>2020-07-12T12:56:45Z</time>
      </trkpt>
      <trkpt lat="45.00213" lon="5.46089">
        <ele>838.79998779297</ele>
        <time>2020-07-12T12:56:47Z</time>
      </trkpt>
      <trkpt lat="45.00205" lon="5.46087">
        <ele>837.79998779297</ele>
        <time>2020-07-12T12:56:49Z</time>
      </trkpt>
      <trkpt lat="45.00196" lon="5.4608">
        <ele>836.79998779297</ele>
        <time>2020-07-12T12:56:51Z</time>
      </trkpt>
      <trkpt lat="45.00192" lon="5.46075">
        <ele>836.20001220703</ele>
        <time>2020-07-12T12:56:52Z</time>
      </trkpt>
      <trkpt lat="45.00188" lon="5.4607">
        <ele>835.59997558594</ele>
        <time>2020-07-12T12:56:53Z</time>
      </trkpt>
      <trkpt lat="45.00184" lon="5.46065">
        <ele>835</ele>
        <time>2020-07-12T12:56:54Z</time>
      </trkpt>
      <trkpt lat="45.00182" lon="5.46059">
        <ele>834.40002441406</ele>
        <time>2020-07-12T12:56:55Z</time>
      </trkpt>
      <trkpt lat="45.00176" lon="5.46047">
        <ele>833.20001220703</ele>
        <time>2020-07-12T12:56:57Z</time>
      </trkpt>
      <trkpt lat="45.00174" lon="5.4604">
        <ele>832.59997558594</ele>
        <time>2020-07-12T12:56:58Z</time>
      </trkpt>
      <trkpt lat="45.00155" lon="5.45996">
        <ele>827.59997558594</ele>
        <time>2020-07-12T12:57:06Z</time>
      </trkpt>
      <trkpt lat="45.00151" lon="5.45981">
        <ele>826.20001220703</ele>
        <time>2020-07-12T12:57:08Z</time>
      </trkpt>
      <trkpt lat="45.00149" lon="5.45974">
        <ele>825.40002441406</ele>
        <time>2020-07-12T12:57:09Z</time>
      </trkpt>
      <trkpt lat="45.00144" lon="5.45933">
        <ele>821.20001220703</ele>
        <time>2020-07-12T12:57:15Z</time>
      </trkpt>
      <trkpt lat="45.00142" lon="5.45925">
        <ele>820.40002441406</ele>
        <time>2020-07-12T12:57:16Z</time>
      </trkpt>
      <trkpt lat="45.00138" lon="5.45911">
        <ele>818.79998779297</ele>
        <time>2020-07-12T12:57:18Z</time>
      </trkpt>
      <trkpt lat="45.00137" lon="5.45897">
        <ele>817.20001220703</ele>
        <time>2020-07-12T12:57:20Z</time>
      </trkpt>
      <trkpt lat="45.00137" lon="5.45883">
        <ele>816</ele>
        <time>2020-07-12T12:57:22Z</time>
      </trkpt>
      <trkpt lat="45.0014" lon="5.45861">
        <ele>812.20001220703</ele>
        <time>2020-07-12T12:57:28Z</time>
      </trkpt>
      <trkpt lat="45.0014" lon="5.45858">
        <ele>811.59997558594</ele>
        <time>2020-07-12T12:57:29Z</time>
      </trkpt>
      <trkpt lat="45.00137" lon="5.4585">
        <ele>808.40002441406</ele>
        <time>2020-07-12T12:57:36Z</time>
      </trkpt>
      <trkpt lat="45.00137" lon="5.4585">
        <ele>808.20001220703</ele>
        <time>2020-07-12T12:57:40Z</time>
      </trkpt>
      <trkpt lat="45.00137" lon="5.4585">
        <ele>808.20001220703</ele>
        <time>2020-07-12T12:57:46Z</time>
      </trkpt>
      <trkpt lat="45.00137" lon="5.4585">
        <ele>808.20001220703</ele>
        <time>2020-07-12T12:57:56Z</time>
      </trkpt>
      <trkpt lat="45.00137" lon="5.4585">
        <ele>808.20001220703</ele>
        <time>2020-07-12T12:58:01Z</time>
      </trkpt>
      <trkpt lat="45.00137" lon="5.4585">
        <ele>808.20001220703</ele>
        <time>2020-07-12T12:58:05Z</time>
      </trkpt>
      <trkpt lat="45.00137" lon="5.4585">
        <ele>808.20001220703</ele>
        <time>2020-07-12T12:58:09Z</time>
      </trkpt>
      <trkpt lat="45.00137" lon="5.4585">
        <ele>808.20001220703</ele>
        <time>2020-07-12T12:58:13Z</time>
      </trkpt>
      <trkpt lat="45.00137" lon="5.4585">
        <ele>808.20001220703</ele>
        <time>2020-07-12T12:58:16Z</time>
      </trkpt>
      <trkpt lat="45.00138" lon="5.45848">
        <ele>808.20001220703</ele>
        <time>2020-07-12T12:58:21Z</time>
      </trkpt>
      <trkpt lat="45.00142" lon="5.45839">
        <ele>808.20001220703</ele>
        <time>2020-07-12T12:58:24Z</time>
      </trkpt>
      <trkpt lat="45.00153" lon="5.45798">
        <ele>807.20001220703</ele>
        <time>2020-07-12T12:58:30Z</time>
      </trkpt>
      <trkpt lat="45.00161" lon="5.45768">
        <ele>806.40002441406</ele>
        <time>2020-07-12T12:58:33Z</time>
      </trkpt>
      <trkpt lat="45.00181" lon="5.45722">
        <ele>805.40002441406</ele>
        <time>2020-07-12T12:58:38Z</time>
      </trkpt>
      <trkpt lat="45.00215" lon="5.45676">
        <ele>804</ele>
        <time>2020-07-12T12:58:43Z</time>
      </trkpt>
      <trkpt lat="45.00251" lon="5.45633">
        <ele>802.20001220703</ele>
        <time>2020-07-12T12:58:48Z</time>
      </trkpt>
      <trkpt lat="45.00284" lon="5.45587">
        <ele>799.79998779297</ele>
        <time>2020-07-12T12:58:53Z</time>
      </trkpt>
      <trkpt lat="45.00298" lon="5.45552">
        <ele>798.40002441406</ele>
        <time>2020-07-12T12:58:56Z</time>
      </trkpt>
      <trkpt lat="45.00319" lon="5.4549">
        <ele>795.40002441406</ele>
        <time>2020-07-12T12:59:01Z</time>
      </trkpt>
      <trkpt lat="45.0033" lon="5.45411">
        <ele>791</ele>
        <time>2020-07-12T12:59:06Z</time>
      </trkpt>
      <trkpt lat="45.00332" lon="5.45338">
        <ele>786.40002441406</ele>
        <time>2020-07-12T12:59:10Z</time>
      </trkpt>
      <trkpt lat="45.0034" lon="5.45266">
        <ele>781.79998779297</ele>
        <time>2020-07-12T12:59:14Z</time>
      </trkpt>
      <trkpt lat="45.00343" lon="5.45234">
        <ele>779.40002441406</ele>
        <time>2020-07-12T12:59:16Z</time>
      </trkpt>
      <trkpt lat="45.00345" lon="5.45221">
        <ele>778.20001220703</ele>
        <time>2020-07-12T12:59:17Z</time>
      </trkpt>
      <trkpt lat="45.00347" lon="5.45209">
        <ele>777</ele>
        <time>2020-07-12T12:59:18Z</time>
      </trkpt>
      <trkpt lat="45.00348" lon="5.4518">
        <ele>773.59997558594</ele>
        <time>2020-07-12T12:59:21Z</time>
      </trkpt>
      <trkpt lat="45.00344" lon="5.45165">
        <ele>771.59997558594</ele>
        <time>2020-07-12T12:59:23Z</time>
      </trkpt>
      <trkpt lat="45.00319" lon="5.45114">
        <ele>760.79998779297</ele>
        <time>2020-07-12T12:59:31Z</time>
      </trkpt>
      <trkpt lat="45.00333" lon="5.45115">
        <ele>754.20001220703</ele>
        <time>2020-07-12T12:59:35Z</time>
      </trkpt>
      <trkpt lat="45.0037" lon="5.45159">
        <ele>746.59997558594</ele>
        <time>2020-07-12T12:59:44Z</time>
      </trkpt>
      <trkpt lat="45.00387" lon="5.45177">
        <ele>738.59997558594</ele>
        <time>2020-07-12T13:00:10Z</time>
      </trkpt>
      <trkpt lat="45.00387" lon="5.45178">
        <ele>739.40002441406</ele>
        <time>2020-07-12T13:00:26Z</time>
      </trkpt>
      <trkpt lat="45.00387" lon="5.45178">
        <ele>739.40002441406</ele>
        <time>2020-07-12T13:00:31Z</time>
      </trkpt>
      <trkpt lat="45.00387" lon="5.45178">
        <ele>739.40002441406</ele>
        <time>2020-07-12T13:00:32Z</time>
      </trkpt>
      <trkpt lat="45.00403" lon="5.45205">
        <ele>736.59997558594</ele>
        <time>2020-07-12T13:00:39Z</time>
      </trkpt>
      <trkpt lat="45.00419" lon="5.45232">
        <ele>734.59997558594</ele>
        <time>2020-07-12T13:00:43Z</time>
      </trkpt>
      <trkpt lat="45.00433" lon="5.45271">
        <ele>731.40002441406</ele>
        <time>2020-07-12T13:00:47Z</time>
      </trkpt>
      <trkpt lat="45.00444" lon="5.45288">
        <ele>729.40002441406</ele>
        <time>2020-07-12T13:00:49Z</time>
      </trkpt>
      <trkpt lat="45.00456" lon="5.45296">
        <ele>727.40002441406</ele>
        <time>2020-07-12T13:00:51Z</time>
      </trkpt>
      <trkpt lat="45.00461" lon="5.45296">
        <ele>726.59997558594</ele>
        <time>2020-07-12T13:00:52Z</time>
      </trkpt>
      <trkpt lat="45.00466" lon="5.45295">
        <ele>726.59997558594</ele>
        <time>2020-07-12T13:00:53Z</time>
      </trkpt>
      <trkpt lat="45.00471" lon="5.45291">
        <ele>726</ele>
        <time>2020-07-12T13:00:54Z</time>
      </trkpt>
      <trkpt lat="45.00475" lon="5.45286">
        <ele>725.40002441406</ele>
        <time>2020-07-12T13:00:55Z</time>
      </trkpt>
      <trkpt lat="45.00479" lon="5.45279">
        <ele>724.79998779297</ele>
        <time>2020-07-12T13:00:56Z</time>
      </trkpt>
      <trkpt lat="45.00481" lon="5.45271">
        <ele>724.20001220703</ele>
        <time>2020-07-12T13:00:57Z</time>
      </trkpt>
      <trkpt lat="45.00484" lon="5.4526">
        <ele>723.40002441406</ele>
        <time>2020-07-12T13:00:58Z</time>
      </trkpt>
      <trkpt lat="45.00499" lon="5.45218">
        <ele>720.79998779297</ele>
        <time>2020-07-12T13:01:02Z</time>
      </trkpt>
      <trkpt lat="45.00505" lon="5.45202">
        <ele>719.40002441406</ele>
        <time>2020-07-12T13:01:04Z</time>
      </trkpt>
      <trkpt lat="45.00507" lon="5.45195">
        <ele>718.79998779297</ele>
        <time>2020-07-12T13:01:05Z</time>
      </trkpt>
      <trkpt lat="45.00509" lon="5.4518">
        <ele>717.59997558594</ele>
        <time>2020-07-12T13:01:07Z</time>
      </trkpt>
      <trkpt lat="45.00507" lon="5.45162">
        <ele>716.40002441406</ele>
        <time>2020-07-12T13:01:09Z</time>
      </trkpt>
      <trkpt lat="45.00502" lon="5.45145">
        <ele>715</ele>
        <time>2020-07-12T13:01:11Z</time>
      </trkpt>
      <trkpt lat="45.00499" lon="5.45133">
        <ele>713.79998779297</ele>
        <time>2020-07-12T13:01:13Z</time>
      </trkpt>
      <trkpt lat="45.005" lon="5.45121">
        <ele>712.59997558594</ele>
        <time>2020-07-12T13:01:15Z</time>
      </trkpt>
      <trkpt lat="45.00503" lon="5.45115">
        <ele>712</ele>
        <time>2020-07-12T13:01:16Z</time>
      </trkpt>
      <trkpt lat="45.00508" lon="5.45104">
        <ele>711</ele>
        <time>2020-07-12T13:01:18Z</time>
      </trkpt>
      <trkpt lat="45.00508" lon="5.45093">
        <ele>710.40002441406</ele>
        <time>2020-07-12T13:01:20Z</time>
      </trkpt>
      <trkpt lat="45.00507" lon="5.45086">
        <ele>709.79998779297</ele>
        <time>2020-07-12T13:01:22Z</time>
      </trkpt>
      <trkpt lat="45.00506" lon="5.45085">
        <ele>709.79998779297</ele>
        <time>2020-07-12T13:01:25Z</time>
      </trkpt>
      <trkpt lat="45.00505" lon="5.45085">
        <ele>710.79998779297</ele>
        <time>2020-07-12T13:01:29Z</time>
      </trkpt>
      <trkpt lat="45.00505" lon="5.45085">
        <ele>710.79998779297</ele>
        <time>2020-07-12T13:01:30Z</time>
      </trkpt>
      <trkpt lat="45.00505" lon="5.45085">
        <ele>710.79998779297</ele>
        <time>2020-07-12T13:01:32Z</time>
      </trkpt>
      <trkpt lat="45.00505" lon="5.45085">
        <ele>711</ele>
        <time>2020-07-12T13:01:34Z</time>
      </trkpt>
      <trkpt lat="45.00505" lon="5.45085">
        <ele>711</ele>
        <time>2020-07-12T13:01:35Z</time>
      </trkpt>
      <trkpt lat="45.00505" lon="5.45085">
        <ele>711</ele>
        <time>2020-07-12T13:01:36Z</time>
      </trkpt>
      <trkpt lat="45.00505" lon="5.45085">
        <ele>711</ele>
        <time>2020-07-12T13:01:37Z</time>
      </trkpt>
      <trkpt lat="45.00505" lon="5.45085">
        <ele>711</ele>
        <time>2020-07-12T13:01:53Z</time>
      </trkpt>
      <trkpt lat="45.00505" lon="5.45085">
        <ele>711</ele>
        <time>2020-07-12T13:01:57Z</time>
      </trkpt>
      <trkpt lat="45.00505" lon="5.45085">
        <ele>711</ele>
        <time>2020-07-12T13:02:34Z</time>
      </trkpt>
      <trkpt lat="45.00505" lon="5.45085">
        <ele>711</ele>
        <time>2020-07-12T13:02:36Z</time>
      </trkpt>
      <trkpt lat="45.00505" lon="5.45084">
        <ele>710.79998779297</ele>
        <time>2020-07-12T13:02:40Z</time>
      </trkpt>
      <trkpt lat="45.00505" lon="5.45084">
        <ele>710.79998779297</ele>
        <time>2020-07-12T13:02:44Z</time>
      </trkpt>
      <trkpt lat="45.00505" lon="5.45084">
        <ele>710.79998779297</ele>
        <time>2020-07-12T13:02:47Z</time>
      </trkpt>
      <trkpt lat="45.00505" lon="5.45084">
        <ele>710.79998779297</ele>
        <time>2020-07-12T13:02:49Z</time>
      </trkpt>
      <trkpt lat="45.00505" lon="5.45084">
        <ele>710.79998779297</ele>
        <time>2020-07-12T13:02:52Z</time>
      </trkpt>
      <trkpt lat="45.00505" lon="5.45084">
        <ele>710.79998779297</ele>
        <time>2020-07-12T13:02:55Z</time>
      </trkpt>
      <trkpt lat="45.00505" lon="5.45084">
        <ele>710.79998779297</ele>
        <time>2020-07-12T13:03:01Z</time>
      </trkpt>
      <trkpt lat="45.00505" lon="5.45084">
        <ele>710.79998779297</ele>
        <time>2020-07-12T13:03:07Z</time>
      </trkpt>
      <trkpt lat="45.00505" lon="5.45084">
        <ele>710.79998779297</ele>
        <time>2020-07-12T13:03:12Z</time>
      </trkpt>
      <trkpt lat="45.00505" lon="5.45084">
        <ele>710.79998779297</ele>
        <time>2020-07-12T13:03:17Z</time>
      </trkpt>
      <trkpt lat="45.00505" lon="5.45084">
        <ele>710.79998779297</ele>
        <time>2020-07-12T13:03:46Z</time>
      </trkpt>
      <trkpt lat="45.00505" lon="5.45084">
        <ele>710.79998779297</ele>
        <time>2020-07-12T13:04:00Z</time>
      </trkpt>
      <trkpt lat="45.00505" lon="5.45084">
        <ele>710.79998779297</ele>
        <time>2020-07-12T13:04:19Z</time>
      </trkpt>
      <trkpt lat="45.00505" lon="5.45084">
        <ele>710.79998779297</ele>
        <time>2020-07-12T13:04:52Z</time>
      </trkpt>
      <trkpt lat="45.00505" lon="5.45084">
        <ele>710.79998779297</ele>
        <time>2020-07-12T13:05:02Z</time>
      </trkpt>
      <trkpt lat="45.00499" lon="5.45083">
        <ele>711.59997558594</ele>
        <time>2020-07-12T13:05:07Z</time>
      </trkpt>
      <trkpt lat="45.00497" lon="5.45083">
        <ele>711.59997558594</ele>
        <time>2020-07-12T13:05:08Z</time>
      </trkpt>
      <trkpt lat="45.00488" lon="5.45083">
        <ele>712</ele>
        <time>2020-07-12T13:05:13Z</time>
      </trkpt>
      <trkpt lat="45.00487" lon="5.45082">
        <ele>712.20001220703</ele>
        <time>2020-07-12T13:05:14Z</time>
      </trkpt>
      <trkpt lat="45.00485" lon="5.45081">
        <ele>712.40002441406</ele>
        <time>2020-07-12T13:05:15Z</time>
      </trkpt>
      <trkpt lat="45.00484" lon="5.4508">
        <ele>712.59997558594</ele>
        <time>2020-07-12T13:05:16Z</time>
      </trkpt>
      <trkpt lat="45.00483" lon="5.45079">
        <ele>712.79998779297</ele>
        <time>2020-07-12T13:05:17Z</time>
      </trkpt>
      <trkpt lat="45.00481" lon="5.45074">
        <ele>713.20001220703</ele>
        <time>2020-07-12T13:05:20Z</time>
      </trkpt>
      <trkpt lat="45.0048" lon="5.45068">
        <ele>713.79998779297</ele>
        <time>2020-07-12T13:05:23Z</time>
      </trkpt>
      <trkpt lat="45.0048" lon="5.45066">
        <ele>714</ele>
        <time>2020-07-12T13:05:24Z</time>
      </trkpt>
      <trkpt lat="45.0048" lon="5.45063">
        <ele>714.20001220703</ele>
        <time>2020-07-12T13:05:25Z</time>
      </trkpt>
      <trkpt lat="45.00479" lon="5.45059">
        <ele>714.40002441406</ele>
        <time>2020-07-12T13:05:27Z</time>
      </trkpt>
      <trkpt lat="45.00478" lon="5.45047">
        <ele>714.40002441406</ele>
        <time>2020-07-12T13:05:33Z</time>
      </trkpt>
      <trkpt lat="45.00482" lon="5.45032">
        <ele>714.40002441406</ele>
        <time>2020-07-12T13:05:38Z</time>
      </trkpt>
      <trkpt lat="45.00481" lon="5.45022">
        <ele>714</ele>
        <time>2020-07-12T13:05:41Z</time>
      </trkpt>
      <trkpt lat="45.0048" lon="5.4501">
        <ele>713.79998779297</ele>
        <time>2020-07-12T13:05:44Z</time>
      </trkpt>
      <trkpt lat="45.0048" lon="5.44998">
        <ele>713.79998779297</ele>
        <time>2020-07-12T13:05:47Z</time>
      </trkpt>
      <trkpt lat="45.0048" lon="5.44994">
        <ele>713.79998779297</ele>
        <time>2020-07-12T13:05:48Z</time>
      </trkpt>
      <trkpt lat="45.0048" lon="5.44985">
        <ele>713.79998779297</ele>
        <time>2020-07-12T13:05:50Z</time>
      </trkpt>
      <trkpt lat="45.00479" lon="5.44971">
        <ele>713.40002441406</ele>
        <time>2020-07-12T13:05:53Z</time>
      </trkpt>
      <trkpt lat="45.00475" lon="5.44952">
        <ele>713.20001220703</ele>
        <time>2020-07-12T13:05:58Z</time>
      </trkpt>
      <trkpt lat="45.00474" lon="5.44948">
        <ele>713.40002441406</ele>
        <time>2020-07-12T13:05:59Z</time>
      </trkpt>
      <trkpt lat="45.00473" lon="5.44945">
        <ele>713.20001220703</ele>
        <time>2020-07-12T13:06:00Z</time>
      </trkpt>
      <trkpt lat="45.0047" lon="5.44937">
        <ele>713</ele>
        <time>2020-07-12T13:06:02Z</time>
      </trkpt>
      <trkpt lat="45.00467" lon="5.44928">
        <ele>712.59997558594</ele>
        <time>2020-07-12T13:06:04Z</time>
      </trkpt>
      <trkpt lat="45.0046" lon="5.44906">
        <ele>712.79998779297</ele>
        <time>2020-07-12T13:06:08Z</time>
      </trkpt>
      <trkpt lat="45.00459" lon="5.449">
        <ele>712.79998779297</ele>
        <time>2020-07-12T13:06:09Z</time>
      </trkpt>
      <trkpt lat="45.00441" lon="5.44838">
        <ele>713.20001220703</ele>
        <time>2020-07-12T13:06:20Z</time>
      </trkpt>
      <trkpt lat="45.0043" lon="5.44811">
        <ele>713</ele>
        <time>2020-07-12T13:06:25Z</time>
      </trkpt>
      <trkpt lat="45.00405" lon="5.44755">
        <ele>713.20001220703</ele>
        <time>2020-07-12T13:06:36Z</time>
      </trkpt>
      <trkpt lat="45.00399" lon="5.44745">
        <ele>713</ele>
        <time>2020-07-12T13:06:39Z</time>
      </trkpt>
      <trkpt lat="45.00396" lon="5.44745">
        <ele>713</ele>
        <time>2020-07-12T13:06:40Z</time>
      </trkpt>
      <trkpt lat="45.00386" lon="5.44746">
        <ele>712.59997558594</ele>
        <time>2020-07-12T13:06:55Z</time>
      </trkpt>
      <trkpt lat="45.00342" lon="5.44756">
        <ele>712</ele>
        <time>2020-07-12T13:07:17Z</time>
      </trkpt>
      <trkpt lat="45.0033" lon="5.4476">
        <ele>713</ele>
        <time>2020-07-12T13:07:24Z</time>
      </trkpt>
      <trkpt lat="45.00322" lon="5.44763">
        <ele>713.40002441406</ele>
        <time>2020-07-12T13:07:29Z</time>
      </trkpt>
      <trkpt lat="45.00309" lon="5.4476">
        <ele>715.20001220703</ele>
        <time>2020-07-12T13:07:35Z</time>
      </trkpt>
      <trkpt lat="45.00299" lon="5.44757">
        <ele>716.59997558594</ele>
        <time>2020-07-12T13:07:40Z</time>
      </trkpt>
      <trkpt lat="45.0028" lon="5.44754">
        <ele>718.20001220703</ele>
        <time>2020-07-12T13:07:48Z</time>
      </trkpt>
      <trkpt lat="45.00251" lon="5.4475">
        <ele>719.59997558594</ele>
        <time>2020-07-12T13:07:58Z</time>
      </trkpt>
      <trkpt lat="45.00248" lon="5.4475">
        <ele>719.79998779297</ele>
        <time>2020-07-12T13:07:59Z</time>
      </trkpt>
      <trkpt lat="45.00219" lon="5.4475">
        <ele>720.79998779297</ele>
        <time>2020-07-12T13:08:09Z</time>
      </trkpt>
      <trkpt lat="45.00211" lon="5.44748">
        <ele>721.79998779297</ele>
        <time>2020-07-12T13:08:12Z</time>
      </trkpt>
      <trkpt lat="45.00202" lon="5.44741">
        <ele>723.20001220703</ele>
        <time>2020-07-12T13:08:16Z</time>
      </trkpt>
      <trkpt lat="45.00194" lon="5.44729">
        <ele>724.59997558594</ele>
        <time>2020-07-12T13:08:21Z</time>
      </trkpt>
      <trkpt lat="45.00188" lon="5.44718">
        <ele>726</ele>
        <time>2020-07-12T13:08:26Z</time>
      </trkpt>
      <trkpt lat="45.0018" lon="5.44709">
        <ele>726.79998779297</ele>
        <time>2020-07-12T13:08:31Z</time>
      </trkpt>
      <trkpt lat="45.00162" lon="5.44699">
        <ele>729.20001220703</ele>
        <time>2020-07-12T13:08:41Z</time>
      </trkpt>
      <trkpt lat="45.00147" lon="5.44693">
        <ele>729.79998779297</ele>
        <time>2020-07-12T13:08:48Z</time>
      </trkpt>
      <trkpt lat="45.00138" lon="5.44692">
        <ele>730.20001220703</ele>
        <time>2020-07-12T13:08:52Z</time>
      </trkpt>
      <trkpt lat="45.00116" lon="5.44695">
        <ele>731.40002441406</ele>
        <time>2020-07-12T13:09:01Z</time>
      </trkpt>
      <trkpt lat="45.001" lon="5.44698">
        <ele>732.40002441406</ele>
        <time>2020-07-12T13:09:07Z</time>
      </trkpt>
      <trkpt lat="45.00098" lon="5.44699">
        <ele>732.59997558594</ele>
        <time>2020-07-12T13:09:08Z</time>
      </trkpt>
      <trkpt lat="45.00095" lon="5.447">
        <ele>732.59997558594</ele>
        <time>2020-07-12T13:09:09Z</time>
      </trkpt>
      <trkpt lat="45.00092" lon="5.447">
        <ele>732.79998779297</ele>
        <time>2020-07-12T13:09:10Z</time>
      </trkpt>
      <trkpt lat="45.00078" lon="5.44703">
        <ele>733.59997558594</ele>
        <time>2020-07-12T13:09:15Z</time>
      </trkpt>
      <trkpt lat="45.00071" lon="5.44704">
        <ele>734.20001220703</ele>
        <time>2020-07-12T13:09:18Z</time>
      </trkpt>
      <trkpt lat="45.00068" lon="5.44705">
        <ele>734.40002441406</ele>
        <time>2020-07-12T13:09:19Z</time>
      </trkpt>
      <trkpt lat="45.00063" lon="5.44706">
        <ele>734.79998779297</ele>
        <time>2020-07-12T13:09:21Z</time>
      </trkpt>
      <trkpt lat="45.00056" lon="5.44707">
        <ele>735.40002441406</ele>
        <time>2020-07-12T13:09:24Z</time>
      </trkpt>
      <trkpt lat="45.00053" lon="5.44707">
        <ele>735.40002441406</ele>
        <time>2020-07-12T13:09:25Z</time>
      </trkpt>
      <trkpt lat="45.0004" lon="5.44695">
        <ele>736.79998779297</ele>
        <time>2020-07-12T13:09:32Z</time>
      </trkpt>
      <trkpt lat="45.00037" lon="5.44671">
        <ele>738.20001220703</ele>
        <time>2020-07-12T13:09:39Z</time>
      </trkpt>
      <trkpt lat="45.00036" lon="5.44648">
        <ele>739.20001220703</ele>
        <time>2020-07-12T13:09:45Z</time>
      </trkpt>
      <trkpt lat="45.00031" lon="5.44613">
        <ele>741.59997558594</ele>
        <time>2020-07-12T13:09:55Z</time>
      </trkpt>
      <trkpt lat="45.00024" lon="5.44585">
        <ele>743</ele>
        <time>2020-07-12T13:10:06Z</time>
      </trkpt>
      <trkpt lat="45.00023" lon="5.44581">
        <ele>743</ele>
        <time>2020-07-12T13:10:08Z</time>
      </trkpt>
      <trkpt lat="45.0002" lon="5.44578">
        <ele>742.59997558594</ele>
        <time>2020-07-12T13:10:13Z</time>
      </trkpt>
      <trkpt lat="45.0002" lon="5.44578">
        <ele>742.59997558594</ele>
        <time>2020-07-12T13:10:25Z</time>
      </trkpt>
      <trkpt lat="45.0002" lon="5.44578">
        <ele>742.59997558594</ele>
        <time>2020-07-12T13:10:35Z</time>
      </trkpt>
      <trkpt lat="45.0002" lon="5.44578">
        <ele>742.59997558594</ele>
        <time>2020-07-12T13:10:41Z</time>
      </trkpt>
      <trkpt lat="45.0002" lon="5.44578">
        <ele>742.59997558594</ele>
        <time>2020-07-12T13:10:46Z</time>
      </trkpt>
      <trkpt lat="45.0002" lon="5.44578">
        <ele>742.59997558594</ele>
        <time>2020-07-12T13:10:50Z</time>
      </trkpt>
      <trkpt lat="45.0002" lon="5.44578">
        <ele>742.59997558594</ele>
        <time>2020-07-12T13:10:55Z</time>
      </trkpt>
      <trkpt lat="45.0002" lon="5.44578">
        <ele>742.59997558594</ele>
        <time>2020-07-12T13:10:58Z</time>
      </trkpt>
      <trkpt lat="45.0002" lon="5.44578">
        <ele>742.59997558594</ele>
        <time>2020-07-12T13:11:00Z</time>
      </trkpt>
      <trkpt lat="45.0002" lon="5.44578">
        <ele>742.59997558594</ele>
        <time>2020-07-12T13:11:01Z</time>
      </trkpt>
      <trkpt lat="45.0002" lon="5.44578">
        <ele>742.59997558594</ele>
        <time>2020-07-12T13:11:02Z</time>
      </trkpt>
      <trkpt lat="45.0002" lon="5.44578">
        <ele>742.59997558594</ele>
        <time>2020-07-12T13:11:26Z</time>
      </trkpt>
      <trkpt lat="45.0002" lon="5.44578">
        <ele>742.59997558594</ele>
        <time>2020-07-12T13:11:33Z</time>
      </trkpt>
      <trkpt lat="45.0002" lon="5.44578">
        <ele>742.59997558594</ele>
        <time>2020-07-12T13:11:39Z</time>
      </trkpt>
      <trkpt lat="45.0002" lon="5.44578">
        <ele>742.59997558594</ele>
        <time>2020-07-12T13:11:57Z</time>
      </trkpt>
      <trkpt lat="45.0002" lon="5.44578">
        <ele>742.59997558594</ele>
        <time>2020-07-12T13:12:11Z</time>
      </trkpt>
      <trkpt lat="45.0002" lon="5.44578">
        <ele>742.59997558594</ele>
        <time>2020-07-12T13:12:40Z</time>
      </trkpt>
      <trkpt lat="45.00019" lon="5.44572">
        <ele>742.20001220703</ele>
        <time>2020-07-12T13:13:07Z</time>
      </trkpt>
      <trkpt lat="45.00015" lon="5.44557">
        <ele>742</ele>
        <time>2020-07-12T13:13:11Z</time>
      </trkpt>
      <trkpt lat="45.00009" lon="5.44545">
        <ele>741.79998779297</ele>
        <time>2020-07-12T13:13:14Z</time>
      </trkpt>
      <trkpt lat="45.00006" lon="5.44537">
        <ele>741</ele>
        <time>2020-07-12T13:13:16Z</time>
      </trkpt>
      <trkpt lat="45.00004" lon="5.44532">
        <ele>740.79998779297</ele>
        <time>2020-07-12T13:13:17Z</time>
      </trkpt>
      <trkpt lat="44.99997" lon="5.44519">
        <ele>740</ele>
        <time>2020-07-12T13:13:20Z</time>
      </trkpt>
      <trkpt lat="44.9999" lon="5.44505">
        <ele>739.20001220703</ele>
        <time>2020-07-12T13:13:23Z</time>
      </trkpt>
      <trkpt lat="44.9998" lon="5.44474">
        <ele>738.20001220703</ele>
        <time>2020-07-12T13:13:28Z</time>
      </trkpt>
      <trkpt lat="44.9998" lon="5.44451">
        <ele>739.20001220703</ele>
        <time>2020-07-12T13:13:32Z</time>
      </trkpt>
      <trkpt lat="44.99985" lon="5.44434">
        <ele>741</ele>
        <time>2020-07-12T13:13:36Z</time>
      </trkpt>
      <trkpt lat="44.99998" lon="5.44416">
        <ele>744.59997558594</ele>
        <time>2020-07-12T13:13:47Z</time>
      </trkpt>
      <trkpt lat="44.99998" lon="5.44414">
        <ele>744.59997558594</ele>
        <time>2020-07-12T13:13:48Z</time>
      </trkpt>
      <trkpt lat="44.99998" lon="5.44408">
        <ele>744.79998779297</ele>
        <time>2020-07-12T13:13:51Z</time>
      </trkpt>
      <trkpt lat="44.99998" lon="5.44407">
        <ele>745</ele>
        <time>2020-07-12T13:13:56Z</time>
      </trkpt>
      <trkpt lat="44.99998" lon="5.44408">
        <ele>744.59997558594</ele>
        <time>2020-07-12T13:14:03Z</time>
      </trkpt>
      <trkpt lat="44.99998" lon="5.44408">
        <ele>744.59997558594</ele>
        <time>2020-07-12T13:14:05Z</time>
      </trkpt>
      <trkpt lat="44.99997" lon="5.44408">
        <ele>744.20001220703</ele>
        <time>2020-07-12T13:14:06Z</time>
      </trkpt>
      <trkpt lat="44.99997" lon="5.44408">
        <ele>744.40002441406</ele>
        <time>2020-07-12T13:14:18Z</time>
      </trkpt>
      <trkpt lat="44.99997" lon="5.44409">
        <ele>744.20001220703</ele>
        <time>2020-07-12T13:14:23Z</time>
      </trkpt>
      <trkpt lat="44.99996" lon="5.44408">
        <ele>745</ele>
        <time>2020-07-12T13:14:37Z</time>
      </trkpt>
      <trkpt lat="44.99996" lon="5.44408">
        <ele>744.40002441406</ele>
        <time>2020-07-12T13:14:43Z</time>
      </trkpt>
      <trkpt lat="44.99997" lon="5.44408">
        <ele>744.59997558594</ele>
        <time>2020-07-12T13:14:47Z</time>
      </trkpt>
      <trkpt lat="44.99997" lon="5.44408">
        <ele>744.40002441406</ele>
        <time>2020-07-12T13:14:50Z</time>
      </trkpt>
      <trkpt lat="44.99997" lon="5.44408">
        <ele>744.40002441406</ele>
        <time>2020-07-12T13:14:51Z</time>
      </trkpt>
      <trkpt lat="44.99998" lon="5.44408">
        <ele>745.40002441406</ele>
        <time>2020-07-12T13:15:39Z</time>
      </trkpt>
      <trkpt lat="44.99998" lon="5.44408">
        <ele>745</ele>
        <time>2020-07-12T13:15:43Z</time>
      </trkpt>
      <trkpt lat="44.99998" lon="5.44408">
        <ele>744.79998779297</ele>
        <time>2020-07-12T13:15:44Z</time>
      </trkpt>
      <trkpt lat="44.99998" lon="5.44408">
        <ele>744.79998779297</ele>
        <time>2020-07-12T13:15:45Z</time>
      </trkpt>
      <trkpt lat="45" lon="5.44405">
        <ele>745</ele>
        <time>2020-07-12T13:15:57Z</time>
      </trkpt>
      <trkpt lat="45.00017" lon="5.44389">
        <ele>743.40002441406</ele>
        <time>2020-07-12T13:16:03Z</time>
      </trkpt>
      <trkpt lat="45.0003" lon="5.4438">
        <ele>742.20001220703</ele>
        <time>2020-07-12T13:16:06Z</time>
      </trkpt>
      <trkpt lat="45.00075" lon="5.4435">
        <ele>737.40002441406</ele>
        <time>2020-07-12T13:16:15Z</time>
      </trkpt>
      <trkpt lat="45.00079" lon="5.44346">
        <ele>736.59997558594</ele>
        <time>2020-07-12T13:16:16Z</time>
      </trkpt>
      <trkpt lat="45.0009" lon="5.44329">
        <ele>734</ele>
        <time>2020-07-12T13:16:19Z</time>
      </trkpt>
      <trkpt lat="45.00106" lon="5.44299">
        <ele>729.79998779297</ele>
        <time>2020-07-12T13:16:23Z</time>
      </trkpt>
      <trkpt lat="45.0011" lon="5.44291">
        <ele>729</ele>
        <time>2020-07-12T13:16:24Z</time>
      </trkpt>
      <trkpt lat="45.00113" lon="5.44281">
        <ele>728</ele>
        <time>2020-07-12T13:16:25Z</time>
      </trkpt>
      <trkpt lat="45.00115" lon="5.44271">
        <ele>727.40002441406</ele>
        <time>2020-07-12T13:16:26Z</time>
      </trkpt>
      <trkpt lat="45.00117" lon="5.4425">
        <ele>727.40002441406</ele>
        <time>2020-07-12T13:16:28Z</time>
      </trkpt>
      <trkpt lat="45.00117" lon="5.4423">
        <ele>726.79998779297</ele>
        <time>2020-07-12T13:16:30Z</time>
      </trkpt>
      <trkpt lat="45.00116" lon="5.44212">
        <ele>726.59997558594</ele>
        <time>2020-07-12T13:16:32Z</time>
      </trkpt>
      <trkpt lat="45.00115" lon="5.44195">
        <ele>726.40002441406</ele>
        <time>2020-07-12T13:16:34Z</time>
      </trkpt>
      <trkpt lat="45.00114" lon="5.4418">
        <ele>726.59997558594</ele>
        <time>2020-07-12T13:16:36Z</time>
      </trkpt>
      <trkpt lat="45.00114" lon="5.4417">
        <ele>727</ele>
        <time>2020-07-12T13:16:38Z</time>
      </trkpt>
      <trkpt lat="45.00114" lon="5.44167">
        <ele>727.40002441406</ele>
        <time>2020-07-12T13:16:39Z</time>
      </trkpt>
      <trkpt lat="45.00113" lon="5.44165">
        <ele>727.79998779297</ele>
        <time>2020-07-12T13:16:40Z</time>
      </trkpt>
      <trkpt lat="45.00107" lon="5.44161">
        <ele>728.79998779297</ele>
        <time>2020-07-12T13:16:44Z</time>
      </trkpt>
      <trkpt lat="45.00105" lon="5.44161">
        <ele>729</ele>
        <time>2020-07-12T13:16:45Z</time>
      </trkpt>
      <trkpt lat="45.00103" lon="5.44161">
        <ele>729.20001220703</ele>
        <time>2020-07-12T13:16:46Z</time>
      </trkpt>
      <trkpt lat="45.00095" lon="5.44162">
        <ele>730</ele>
        <time>2020-07-12T13:16:50Z</time>
      </trkpt>
      <trkpt lat="45.00093" lon="5.44163">
        <ele>730.20001220703</ele>
        <time>2020-07-12T13:16:51Z</time>
      </trkpt>
      <trkpt lat="45.0008" lon="5.44165">
        <ele>731</ele>
        <time>2020-07-12T13:17:01Z</time>
      </trkpt>
      <trkpt lat="45.0008" lon="5.44165">
        <ele>731</ele>
        <time>2020-07-12T13:17:02Z</time>
      </trkpt>
      <trkpt lat="45.0008" lon="5.44166">
        <ele>730.59997558594</ele>
        <time>2020-07-12T13:17:04Z</time>
      </trkpt>
      <trkpt lat="45.0008" lon="5.44166">
        <ele>730.40002441406</ele>
        <time>2020-07-12T13:17:13Z</time>
      </trkpt>
      <trkpt lat="45.0008" lon="5.44166">
        <ele>730.40002441406</ele>
        <time>2020-07-12T13:17:16Z</time>
      </trkpt>
      <trkpt lat="45.0008" lon="5.44166">
        <ele>730.40002441406</ele>
        <time>2020-07-12T13:17:20Z</time>
      </trkpt>
      <trkpt lat="45.0008" lon="5.44166">
        <ele>730.40002441406</ele>
        <time>2020-07-12T13:17:26Z</time>
      </trkpt>
      <trkpt lat="45.0008" lon="5.44166">
        <ele>730.40002441406</ele>
        <time>2020-07-12T13:17:30Z</time>
      </trkpt>
      <trkpt lat="45.0008" lon="5.44166">
        <ele>730.40002441406</ele>
        <time>2020-07-12T13:17:34Z</time>
      </trkpt>
      <trkpt lat="45.0008" lon="5.44166">
        <ele>730.40002441406</ele>
        <time>2020-07-12T13:17:35Z</time>
      </trkpt>
      <trkpt lat="45.0008" lon="5.44166">
        <ele>730.40002441406</ele>
        <time>2020-07-12T13:17:39Z</time>
      </trkpt>
      <trkpt lat="45.0008" lon="5.44166">
        <ele>730.40002441406</ele>
        <time>2020-07-12T13:17:43Z</time>
      </trkpt>
      <trkpt lat="45.0008" lon="5.44166">
        <ele>730.59997558594</ele>
        <time>2020-07-12T13:17:45Z</time>
      </trkpt>
      <trkpt lat="45.00078" lon="5.44166">
        <ele>730.59997558594</ele>
        <time>2020-07-12T13:17:47Z</time>
      </trkpt>
      <trkpt lat="45.00061" lon="5.44166">
        <ele>730</ele>
        <time>2020-07-12T13:17:52Z</time>
      </trkpt>
      <trkpt lat="45.00041" lon="5.44165">
        <ele>729.40002441406</ele>
        <time>2020-07-12T13:17:56Z</time>
      </trkpt>
      <trkpt lat="44.99992" lon="5.44181">
        <ele>725.59997558594</ele>
        <time>2020-07-12T13:18:04Z</time>
      </trkpt>
      <trkpt lat="44.99976" lon="5.44191">
        <ele>723.79998779297</ele>
        <time>2020-07-12T13:18:07Z</time>
      </trkpt>
      <trkpt lat="44.99953" lon="5.44191">
        <ele>721.40002441406</ele>
        <time>2020-07-12T13:18:11Z</time>
      </trkpt>
      <trkpt lat="44.99929" lon="5.44188">
        <ele>718.40002441406</ele>
        <time>2020-07-12T13:18:16Z</time>
      </trkpt>
      <trkpt lat="44.99911" lon="5.44189">
        <ele>715.40002441406</ele>
        <time>2020-07-12T13:18:20Z</time>
      </trkpt>
      <trkpt lat="44.99903" lon="5.44193">
        <ele>712.20001220703</ele>
        <time>2020-07-12T13:18:22Z</time>
      </trkpt>
      <trkpt lat="44.99895" lon="5.44201">
        <ele>710.20001220703</ele>
        <time>2020-07-12T13:18:24Z</time>
      </trkpt>
      <trkpt lat="44.99882" lon="5.44217">
        <ele>706</ele>
        <time>2020-07-12T13:18:29Z</time>
      </trkpt>
      <trkpt lat="44.99877" lon="5.44204">
        <ele>703.79998779297</ele>
        <time>2020-07-12T13:18:32Z</time>
      </trkpt>
      <trkpt lat="44.99877" lon="5.44197">
        <ele>703</ele>
        <time>2020-07-12T13:18:33Z</time>
      </trkpt>
      <trkpt lat="44.99886" lon="5.44152">
        <ele>699.20001220703</ele>
        <time>2020-07-12T13:18:38Z</time>
      </trkpt>
      <trkpt lat="44.99912" lon="5.44092">
        <ele>694.20001220703</ele>
        <time>2020-07-12T13:18:44Z</time>
      </trkpt>
      <trkpt lat="44.99915" lon="5.44084">
        <ele>693.59997558594</ele>
        <time>2020-07-12T13:18:45Z</time>
      </trkpt>
      <trkpt lat="44.99915" lon="5.4407">
        <ele>692.79998779297</ele>
        <time>2020-07-12T13:18:47Z</time>
      </trkpt>
      <trkpt lat="44.99894" lon="5.44041">
        <ele>692</ele>
        <time>2020-07-12T13:18:59Z</time>
      </trkpt>
      <trkpt lat="44.9989" lon="5.44041">
        <ele>691.40002441406</ele>
        <time>2020-07-12T13:19:09Z</time>
      </trkpt>
      <trkpt lat="44.9989" lon="5.44041">
        <ele>691.40002441406</ele>
        <time>2020-07-12T13:19:10Z</time>
      </trkpt>
      <trkpt lat="44.9989" lon="5.44041">
        <ele>691.40002441406</ele>
        <time>2020-07-12T13:19:11Z</time>
      </trkpt>
      <trkpt lat="44.9989" lon="5.44041">
        <ele>691.40002441406</ele>
        <time>2020-07-12T13:19:12Z</time>
      </trkpt>
      <trkpt lat="44.9989" lon="5.44041">
        <ele>691.40002441406</ele>
        <time>2020-07-12T13:19:13Z</time>
      </trkpt>
      <trkpt lat="44.9989" lon="5.44041">
        <ele>691.40002441406</ele>
        <time>2020-07-12T13:19:14Z</time>
      </trkpt>
      <trkpt lat="44.9989" lon="5.44041">
        <ele>691.40002441406</ele>
        <time>2020-07-12T13:19:15Z</time>
      </trkpt>
      <trkpt lat="44.9989" lon="5.44041">
        <ele>691.40002441406</ele>
        <time>2020-07-12T13:19:16Z</time>
      </trkpt>
      <trkpt lat="44.99892" lon="5.44039">
        <ele>691.40002441406</ele>
        <time>2020-07-12T13:19:18Z</time>
      </trkpt>
      <trkpt lat="44.999" lon="5.44022">
        <ele>691.40002441406</ele>
        <time>2020-07-12T13:19:25Z</time>
      </trkpt>
      <trkpt lat="44.99903" lon="5.44013">
        <ele>691.40002441406</ele>
        <time>2020-07-12T13:19:28Z</time>
      </trkpt>
      <trkpt lat="44.99909" lon="5.43978">
        <ele>691</ele>
        <time>2020-07-12T13:19:37Z</time>
      </trkpt>
      <trkpt lat="44.99914" lon="5.43953">
        <ele>690.20001220703</ele>
        <time>2020-07-12T13:19:43Z</time>
      </trkpt>
      <trkpt lat="44.99915" lon="5.4395">
        <ele>690</ele>
        <time>2020-07-12T13:19:44Z</time>
      </trkpt>
      <trkpt lat="44.99914" lon="5.43946">
        <ele>689.79998779297</ele>
        <time>2020-07-12T13:19:45Z</time>
      </trkpt>
      <trkpt lat="44.99914" lon="5.43939">
        <ele>689.59997558594</ele>
        <time>2020-07-12T13:19:47Z</time>
      </trkpt>
      <trkpt lat="44.99914" lon="5.43932">
        <ele>689.40002441406</ele>
        <time>2020-07-12T13:19:49Z</time>
      </trkpt>
      <trkpt lat="44.99915" lon="5.43907">
        <ele>689</ele>
        <time>2020-07-12T13:19:56Z</time>
      </trkpt>
      <trkpt lat="44.99913" lon="5.43901">
        <ele>689</ele>
        <time>2020-07-12T13:19:57Z</time>
      </trkpt>
      <trkpt lat="44.99912" lon="5.43892">
        <ele>689.20001220703</ele>
        <time>2020-07-12T13:19:59Z</time>
      </trkpt>
      <trkpt lat="44.99915" lon="5.43881">
        <ele>689</ele>
        <time>2020-07-12T13:20:03Z</time>
      </trkpt>
      <trkpt lat="44.99918" lon="5.43874">
        <ele>689</ele>
        <time>2020-07-12T13:20:06Z</time>
      </trkpt>
      <trkpt lat="44.9993" lon="5.43813">
        <ele>691.59997558594</ele>
        <time>2020-07-12T13:20:30Z</time>
      </trkpt>
      <trkpt lat="44.99931" lon="5.43803">
        <ele>692.79998779297</ele>
        <time>2020-07-12T13:20:34Z</time>
      </trkpt>
      <trkpt lat="44.99934" lon="5.4379">
        <ele>694.79998779297</ele>
        <time>2020-07-12T13:20:40Z</time>
      </trkpt>
      <trkpt lat="44.99933" lon="5.43781">
        <ele>695.79998779297</ele>
        <time>2020-07-12T13:20:43Z</time>
      </trkpt>
      <trkpt lat="44.99933" lon="5.43773">
        <ele>697</ele>
        <time>2020-07-12T13:20:47Z</time>
      </trkpt>
      <trkpt lat="44.99941" lon="5.43759">
        <ele>699</ele>
        <time>2020-07-12T13:20:54Z</time>
      </trkpt>
      <trkpt lat="44.99947" lon="5.43748">
        <ele>700.59997558594</ele>
        <time>2020-07-12T13:21:00Z</time>
      </trkpt>
      <trkpt lat="44.99952" lon="5.43732">
        <ele>703.59997558594</ele>
        <time>2020-07-12T13:21:09Z</time>
      </trkpt>
      <trkpt lat="44.99957" lon="5.43728">
        <ele>705.40002441406</ele>
        <time>2020-07-12T13:21:14Z</time>
      </trkpt>
      <trkpt lat="44.99962" lon="5.43725">
        <ele>707</ele>
        <time>2020-07-12T13:21:19Z</time>
      </trkpt>
      <trkpt lat="44.99977" lon="5.43716">
        <ele>708.79998779297</ele>
        <time>2020-07-12T13:21:31Z</time>
      </trkpt>
      <trkpt lat="44.99989" lon="5.43712">
        <ele>710.20001220703</ele>
        <time>2020-07-12T13:21:40Z</time>
      </trkpt>
      <trkpt lat="44.99995" lon="5.43706">
        <ele>711.20001220703</ele>
        <time>2020-07-12T13:22:01Z</time>
      </trkpt>
      <trkpt lat="44.99996" lon="5.43705">
        <ele>711.40002441406</ele>
        <time>2020-07-12T13:22:05Z</time>
      </trkpt>
      <trkpt lat="44.99996" lon="5.43705">
        <ele>711.40002441406</ele>
        <time>2020-07-12T13:22:09Z</time>
      </trkpt>
      <trkpt lat="44.99996" lon="5.43703">
        <ele>711.79998779297</ele>
        <time>2020-07-12T13:22:14Z</time>
      </trkpt>
      <trkpt lat="44.99996" lon="5.43701">
        <ele>712</ele>
        <time>2020-07-12T13:22:20Z</time>
      </trkpt>
      <trkpt lat="44.99998" lon="5.43697">
        <ele>712</ele>
        <time>2020-07-12T13:22:42Z</time>
      </trkpt>
      <trkpt lat="44.99999" lon="5.43691">
        <ele>712.20001220703</ele>
        <time>2020-07-12T13:22:45Z</time>
      </trkpt>
      <trkpt lat="44.99999" lon="5.43674">
        <ele>712.59997558594</ele>
        <time>2020-07-12T13:22:50Z</time>
      </trkpt>
      <trkpt lat="44.99998" lon="5.43671">
        <ele>712.59997558594</ele>
        <time>2020-07-12T13:22:51Z</time>
      </trkpt>
      <trkpt lat="44.99983" lon="5.43637">
        <ele>712</ele>
        <time>2020-07-12T13:23:02Z</time>
      </trkpt>
      <trkpt lat="44.99977" lon="5.43626">
        <ele>711.79998779297</ele>
        <time>2020-07-12T13:23:07Z</time>
      </trkpt>
      <trkpt lat="44.99975" lon="5.43623">
        <ele>711.79998779297</ele>
        <time>2020-07-12T13:23:09Z</time>
      </trkpt>
      <trkpt lat="44.99972" lon="5.43619">
        <ele>711.79998779297</ele>
        <time>2020-07-12T13:23:12Z</time>
      </trkpt>
      <trkpt lat="44.99969" lon="5.43615">
        <ele>711.79998779297</ele>
        <time>2020-07-12T13:23:15Z</time>
      </trkpt>
      <trkpt lat="44.99965" lon="5.43613">
        <ele>711.79998779297</ele>
        <time>2020-07-12T13:23:17Z</time>
      </trkpt>
      <trkpt lat="44.99964" lon="5.43612">
        <ele>712</ele>
        <time>2020-07-12T13:23:18Z</time>
      </trkpt>
      <trkpt lat="44.99963" lon="5.43611">
        <ele>712</ele>
        <time>2020-07-12T13:23:19Z</time>
      </trkpt>
      <trkpt lat="44.9996" lon="5.43609">
        <ele>712.40002441406</ele>
        <time>2020-07-12T13:23:22Z</time>
      </trkpt>
      <trkpt lat="44.99958" lon="5.43606">
        <ele>712.59997558594</ele>
        <time>2020-07-12T13:23:25Z</time>
      </trkpt>
      <trkpt lat="44.9995" lon="5.43598">
        <ele>713.79998779297</ele>
        <time>2020-07-12T13:23:33Z</time>
      </trkpt>
      <trkpt lat="44.99947" lon="5.43595">
        <ele>714.20001220703</ele>
        <time>2020-07-12T13:23:35Z</time>
      </trkpt>
      <trkpt lat="44.99946" lon="5.43594">
        <ele>714.40002441406</ele>
        <time>2020-07-12T13:23:36Z</time>
      </trkpt>
      <trkpt lat="44.99944" lon="5.43593">
        <ele>714.59997558594</ele>
        <time>2020-07-12T13:23:37Z</time>
      </trkpt>
      <trkpt lat="44.99938" lon="5.43588">
        <ele>715.59997558594</ele>
        <time>2020-07-12T13:23:43Z</time>
      </trkpt>
      <trkpt lat="44.99924" lon="5.4357">
        <ele>718.79998779297</ele>
        <time>2020-07-12T13:24:00Z</time>
      </trkpt>
      <trkpt lat="44.9992" lon="5.4357">
        <ele>719.40002441406</ele>
        <time>2020-07-12T13:24:03Z</time>
      </trkpt>
      <trkpt lat="44.99916" lon="5.4357">
        <ele>720</ele>
        <time>2020-07-12T13:24:06Z</time>
      </trkpt>
      <trkpt lat="44.99909" lon="5.43572">
        <ele>721.20001220703</ele>
        <time>2020-07-12T13:24:12Z</time>
      </trkpt>
      <trkpt lat="44.99909" lon="5.43572">
        <ele>721.40002441406</ele>
        <time>2020-07-12T13:24:13Z</time>
      </trkpt>
      <trkpt lat="44.99908" lon="5.43572">
        <ele>721.40002441406</ele>
        <time>2020-07-12T13:24:14Z</time>
      </trkpt>
      <trkpt lat="44.99905" lon="5.43574">
        <ele>722</ele>
        <time>2020-07-12T13:24:22Z</time>
      </trkpt>
      <trkpt lat="44.99904" lon="5.43574">
        <ele>721.79998779297</ele>
        <time>2020-07-12T13:24:46Z</time>
      </trkpt>
      <trkpt lat="44.99904" lon="5.43575">
        <ele>721.59997558594</ele>
        <time>2020-07-12T13:24:50Z</time>
      </trkpt>
      <trkpt lat="44.99904" lon="5.43576">
        <ele>721.79998779297</ele>
        <time>2020-07-12T13:24:57Z</time>
      </trkpt>
      <trkpt lat="44.99903" lon="5.43575">
        <ele>721.79998779297</ele>
        <time>2020-07-12T13:25:01Z</time>
      </trkpt>
      <trkpt lat="44.99903" lon="5.43577">
        <ele>722.20001220703</ele>
        <time>2020-07-12T13:25:07Z</time>
      </trkpt>
      <trkpt lat="44.99903" lon="5.43577">
        <ele>722.20001220703</ele>
        <time>2020-07-12T13:25:12Z</time>
      </trkpt>
      <trkpt lat="44.99903" lon="5.43576">
        <ele>722.79998779297</ele>
        <time>2020-07-12T13:25:23Z</time>
      </trkpt>
      <trkpt lat="44.99902" lon="5.43577">
        <ele>723</ele>
        <time>2020-07-12T13:25:28Z</time>
      </trkpt>
      <trkpt lat="44.99902" lon="5.43577">
        <ele>723.20001220703</ele>
        <time>2020-07-12T13:25:32Z</time>
      </trkpt>
      <trkpt lat="44.99902" lon="5.43577">
        <ele>723.20001220703</ele>
        <time>2020-07-12T13:25:44Z</time>
      </trkpt>
      <trkpt lat="44.99902" lon="5.43577">
        <ele>723.20001220703</ele>
        <time>2020-07-12T13:26:00Z</time>
      </trkpt>
      <trkpt lat="44.99902" lon="5.43576">
        <ele>723.20001220703</ele>
        <time>2020-07-12T13:26:10Z</time>
      </trkpt>
      <trkpt lat="44.99902" lon="5.43576">
        <ele>723</ele>
        <time>2020-07-12T13:26:18Z</time>
      </trkpt>
      <trkpt lat="44.99903" lon="5.43574">
        <ele>723</ele>
        <time>2020-07-12T13:26:37Z</time>
      </trkpt>
      <trkpt lat="44.99901" lon="5.43574">
        <ele>722.59997558594</ele>
        <time>2020-07-12T13:27:51Z</time>
      </trkpt>
      <trkpt lat="44.99898" lon="5.43574">
        <ele>722.40002441406</ele>
        <time>2020-07-12T13:27:53Z</time>
      </trkpt>
      <trkpt lat="44.99886" lon="5.43567">
        <ele>722</ele>
        <time>2020-07-12T13:28:01Z</time>
      </trkpt>
      <trkpt lat="44.99885" lon="5.43566">
        <ele>721.79998779297</ele>
        <time>2020-07-12T13:28:02Z</time>
      </trkpt>
      <trkpt lat="44.99881" lon="5.43563">
        <ele>721.79998779297</ele>
        <time>2020-07-12T13:28:04Z</time>
      </trkpt>
      <trkpt lat="44.99878" lon="5.43561">
        <ele>721.59997558594</ele>
        <time>2020-07-12T13:28:06Z</time>
      </trkpt>
      <trkpt lat="44.99864" lon="5.4356">
        <ele>721.20001220703</ele>
        <time>2020-07-12T13:28:12Z</time>
      </trkpt>
      <trkpt lat="44.99862" lon="5.4356">
        <ele>721</ele>
        <time>2020-07-12T13:28:13Z</time>
      </trkpt>
      <trkpt lat="44.9986" lon="5.4356">
        <ele>721</ele>
        <time>2020-07-12T13:28:14Z</time>
      </trkpt>
      <trkpt lat="44.99859" lon="5.4356">
        <ele>721</ele>
        <time>2020-07-12T13:28:15Z</time>
      </trkpt>
      <trkpt lat="44.99857" lon="5.4356">
        <ele>721</ele>
        <time>2020-07-12T13:28:16Z</time>
      </trkpt>
      <trkpt lat="44.99855" lon="5.4356">
        <ele>720.79998779297</ele>
        <time>2020-07-12T13:28:17Z</time>
      </trkpt>
      <trkpt lat="44.99853" lon="5.4356">
        <ele>720.79998779297</ele>
        <time>2020-07-12T13:28:18Z</time>
      </trkpt>
      <trkpt lat="44.9985" lon="5.4356">
        <ele>720.79998779297</ele>
        <time>2020-07-12T13:28:19Z</time>
      </trkpt>
      <trkpt lat="44.99847" lon="5.4356">
        <ele>720.59997558594</ele>
        <time>2020-07-12T13:28:20Z</time>
      </trkpt>
      <trkpt lat="44.99842" lon="5.43558">
        <ele>720.40002441406</ele>
        <time>2020-07-12T13:28:22Z</time>
      </trkpt>
      <trkpt lat="44.99832" lon="5.43551">
        <ele>720.20001220703</ele>
        <time>2020-07-12T13:28:26Z</time>
      </trkpt>
      <trkpt lat="44.99829" lon="5.43549">
        <ele>720.20001220703</ele>
        <time>2020-07-12T13:28:27Z</time>
      </trkpt>
      <trkpt lat="44.99828" lon="5.43548">
        <ele>720.20001220703</ele>
        <time>2020-07-12T13:28:28Z</time>
      </trkpt>
      <trkpt lat="44.99826" lon="5.43547">
        <ele>720.20001220703</ele>
        <time>2020-07-12T13:28:29Z</time>
      </trkpt>
      <trkpt lat="44.99824" lon="5.43546">
        <ele>720.20001220703</ele>
        <time>2020-07-12T13:28:30Z</time>
      </trkpt>
      <trkpt lat="44.99818" lon="5.43544">
        <ele>720.20001220703</ele>
        <time>2020-07-12T13:28:33Z</time>
      </trkpt>
      <trkpt lat="44.99812" lon="5.43545">
        <ele>720</ele>
        <time>2020-07-12T13:28:36Z</time>
      </trkpt>
      <trkpt lat="44.99804" lon="5.43551">
        <ele>720</ele>
        <time>2020-07-12T13:28:40Z</time>
      </trkpt>
      <trkpt lat="44.99798" lon="5.43556">
        <ele>720.20001220703</ele>
        <time>2020-07-12T13:28:42Z</time>
      </trkpt>
      <trkpt lat="44.99795" lon="5.43557">
        <ele>720.20001220703</ele>
        <time>2020-07-12T13:28:43Z</time>
      </trkpt>
      <trkpt lat="44.99789" lon="5.43558">
        <ele>720</ele>
        <time>2020-07-12T13:28:45Z</time>
      </trkpt>
      <trkpt lat="44.9978" lon="5.43559">
        <ele>719.79998779297</ele>
        <time>2020-07-12T13:28:48Z</time>
      </trkpt>
      <trkpt lat="44.99765" lon="5.43562">
        <ele>719.40002441406</ele>
        <time>2020-07-12T13:28:54Z</time>
      </trkpt>
      <trkpt lat="44.99756" lon="5.43568">
        <ele>719.20001220703</ele>
        <time>2020-07-12T13:28:58Z</time>
      </trkpt>
      <trkpt lat="44.9975" lon="5.43571">
        <ele>719</ele>
        <time>2020-07-12T13:29:01Z</time>
      </trkpt>
      <trkpt lat="44.99738" lon="5.43571">
        <ele>718.59997558594</ele>
        <time>2020-07-12T13:29:07Z</time>
      </trkpt>
      <trkpt lat="44.99731" lon="5.43574">
        <ele>718.20001220703</ele>
        <time>2020-07-12T13:29:12Z</time>
      </trkpt>
      <trkpt lat="44.99725" lon="5.43577">
        <ele>718.40002441406</ele>
        <time>2020-07-12T13:29:15Z</time>
      </trkpt>
      <trkpt lat="44.99723" lon="5.43577">
        <ele>718.40002441406</ele>
        <time>2020-07-12T13:29:16Z</time>
      </trkpt>
      <trkpt lat="44.99721" lon="5.43578">
        <ele>718.59997558594</ele>
        <time>2020-07-12T13:29:17Z</time>
      </trkpt>
      <trkpt lat="44.9972" lon="5.43579">
        <ele>718.79998779297</ele>
        <time>2020-07-12T13:29:18Z</time>
      </trkpt>
      <trkpt lat="44.99718" lon="5.4358">
        <ele>718.79998779297</ele>
        <time>2020-07-12T13:29:19Z</time>
      </trkpt>
      <trkpt lat="44.99708" lon="5.43584">
        <ele>719</ele>
        <time>2020-07-12T13:29:24Z</time>
      </trkpt>
      <trkpt lat="44.99698" lon="5.4359">
        <ele>719</ele>
        <time>2020-07-12T13:29:29Z</time>
      </trkpt>
      <trkpt lat="44.99689" lon="5.43591">
        <ele>718.79998779297</ele>
        <time>2020-07-12T13:29:34Z</time>
      </trkpt>
      <trkpt lat="44.99643" lon="5.43605">
        <ele>720.40002441406</ele>
        <time>2020-07-12T13:29:58Z</time>
      </trkpt>
      <trkpt lat="44.99628" lon="5.43603">
        <ele>721.40002441406</ele>
        <time>2020-07-12T13:30:06Z</time>
      </trkpt>
      <trkpt lat="44.99617" lon="5.43602">
        <ele>722</ele>
        <time>2020-07-12T13:30:12Z</time>
      </trkpt>
      <trkpt lat="44.99607" lon="5.43604">
        <ele>722.59997558594</ele>
        <time>2020-07-12T13:30:18Z</time>
      </trkpt>
      <trkpt lat="44.99588" lon="5.43608">
        <ele>724.59997558594</ele>
        <time>2020-07-12T13:30:27Z</time>
      </trkpt>
      <trkpt lat="44.99587" lon="5.43608">
        <ele>724.79998779297</ele>
        <time>2020-07-12T13:30:28Z</time>
      </trkpt>
      <trkpt lat="44.9958" lon="5.43609">
        <ele>725.59997558594</ele>
        <time>2020-07-12T13:30:39Z</time>
      </trkpt>
      <trkpt lat="44.9958" lon="5.43609">
        <ele>725.59997558594</ele>
        <time>2020-07-12T13:30:43Z</time>
      </trkpt>
      <trkpt lat="44.9958" lon="5.43609">
        <ele>725.79998779297</ele>
        <time>2020-07-12T13:30:48Z</time>
      </trkpt>
      <trkpt lat="44.9958" lon="5.4361">
        <ele>725.79998779297</ele>
        <time>2020-07-12T13:30:55Z</time>
      </trkpt>
      <trkpt lat="44.9958" lon="5.4361">
        <ele>725.79998779297</ele>
        <time>2020-07-12T13:30:58Z</time>
      </trkpt>
      <trkpt lat="44.9958" lon="5.4361">
        <ele>725.79998779297</ele>
        <time>2020-07-12T13:31:00Z</time>
      </trkpt>
      <trkpt lat="44.99579" lon="5.4361">
        <ele>725.79998779297</ele>
        <time>2020-07-12T13:31:01Z</time>
      </trkpt>
      <trkpt lat="44.99579" lon="5.43611">
        <ele>725.79998779297</ele>
        <time>2020-07-12T13:31:03Z</time>
      </trkpt>
      <trkpt lat="44.99579" lon="5.43611">
        <ele>725.79998779297</ele>
        <time>2020-07-12T13:31:11Z</time>
      </trkpt>
      <trkpt lat="44.99579" lon="5.43611">
        <ele>725.79998779297</ele>
        <time>2020-07-12T13:31:16Z</time>
      </trkpt>
      <trkpt lat="44.99579" lon="5.43611">
        <ele>725.79998779297</ele>
        <time>2020-07-12T13:31:18Z</time>
      </trkpt>
      <trkpt lat="44.99579" lon="5.43611">
        <ele>725.79998779297</ele>
        <time>2020-07-12T13:31:35Z</time>
      </trkpt>
      <trkpt lat="44.99579" lon="5.43611">
        <ele>725.79998779297</ele>
        <time>2020-07-12T13:31:41Z</time>
      </trkpt>
      <trkpt lat="44.99579" lon="5.43611">
        <ele>725.79998779297</ele>
        <time>2020-07-12T13:31:48Z</time>
      </trkpt>
      <trkpt lat="44.99579" lon="5.43611">
        <ele>725.79998779297</ele>
        <time>2020-07-12T13:31:54Z</time>
      </trkpt>
      <trkpt lat="44.99577" lon="5.43607">
        <ele>725.59997558594</ele>
        <time>2020-07-12T13:32:04Z</time>
      </trkpt>
      <trkpt lat="44.99575" lon="5.43605">
        <ele>725.59997558594</ele>
        <time>2020-07-12T13:32:06Z</time>
      </trkpt>
      <trkpt lat="44.99557" lon="5.43593">
        <ele>725.20001220703</ele>
        <time>2020-07-12T13:32:18Z</time>
      </trkpt>
      <trkpt lat="44.99553" lon="5.43589">
        <ele>725.20001220703</ele>
        <time>2020-07-12T13:32:21Z</time>
      </trkpt>
      <trkpt lat="44.99547" lon="5.43585">
        <ele>725</ele>
        <time>2020-07-12T13:32:26Z</time>
      </trkpt>
      <trkpt lat="44.99546" lon="5.43584">
        <ele>725</ele>
        <time>2020-07-12T13:32:27Z</time>
      </trkpt>
      <trkpt lat="44.99545" lon="5.43584">
        <ele>725</ele>
        <time>2020-07-12T13:32:28Z</time>
      </trkpt>
      <trkpt lat="44.99543" lon="5.43584">
        <ele>724.79998779297</ele>
        <time>2020-07-12T13:32:29Z</time>
      </trkpt>
      <trkpt lat="44.99535" lon="5.43581">
        <ele>724.59997558594</ele>
        <time>2020-07-12T13:32:35Z</time>
      </trkpt>
      <trkpt lat="44.99532" lon="5.4358">
        <ele>724.59997558594</ele>
        <time>2020-07-12T13:32:37Z</time>
      </trkpt>
      <trkpt lat="44.9953" lon="5.4358">
        <ele>724.59997558594</ele>
        <time>2020-07-12T13:32:38Z</time>
      </trkpt>
      <trkpt lat="44.99528" lon="5.43581">
        <ele>724.59997558594</ele>
        <time>2020-07-12T13:32:39Z</time>
      </trkpt>
      <trkpt lat="44.9952" lon="5.43583">
        <ele>724.40002441406</ele>
        <time>2020-07-12T13:32:43Z</time>
      </trkpt>
      <trkpt lat="44.99506" lon="5.43583">
        <ele>724.20001220703</ele>
        <time>2020-07-12T13:32:52Z</time>
      </trkpt>
      <trkpt lat="44.99504" lon="5.43583">
        <ele>724.20001220703</ele>
        <time>2020-07-12T13:32:53Z</time>
      </trkpt>
      <trkpt lat="44.99502" lon="5.43582">
        <ele>724.20001220703</ele>
        <time>2020-07-12T13:32:54Z</time>
      </trkpt>
      <trkpt lat="44.99498" lon="5.43582">
        <ele>724.20001220703</ele>
        <time>2020-07-12T13:32:56Z</time>
      </trkpt>
      <trkpt lat="44.99485" lon="5.43584">
        <ele>725</ele>
        <time>2020-07-12T13:33:03Z</time>
      </trkpt>
      <trkpt lat="44.99485" lon="5.43585">
        <ele>726</ele>
        <time>2020-07-12T13:33:28Z</time>
      </trkpt>
      <trkpt lat="44.99485" lon="5.43585">
        <ele>726</ele>
        <time>2020-07-12T13:33:33Z</time>
      </trkpt>
      <trkpt lat="44.99483" lon="5.43584">
        <ele>726.20001220703</ele>
        <time>2020-07-12T13:33:40Z</time>
      </trkpt>
      <trkpt lat="44.99482" lon="5.43583">
        <ele>726.20001220703</ele>
        <time>2020-07-12T13:33:41Z</time>
      </trkpt>
      <trkpt lat="44.99478" lon="5.43582">
        <ele>726.20001220703</ele>
        <time>2020-07-12T13:33:45Z</time>
      </trkpt>
      <trkpt lat="44.99474" lon="5.4358">
        <ele>726.20001220703</ele>
        <time>2020-07-12T13:33:50Z</time>
      </trkpt>
      <trkpt lat="44.9947" lon="5.43579">
        <ele>726.40002441406</ele>
        <time>2020-07-12T13:33:54Z</time>
      </trkpt>
      <trkpt lat="44.99464" lon="5.43576">
        <ele>726.79998779297</ele>
        <time>2020-07-12T13:34:00Z</time>
      </trkpt>
      <trkpt lat="44.9946" lon="5.43571">
        <ele>727</ele>
        <time>2020-07-12T13:34:07Z</time>
      </trkpt>
      <trkpt lat="44.9946" lon="5.43571">
        <ele>727</ele>
        <time>2020-07-12T13:34:08Z</time>
      </trkpt>
      <trkpt lat="44.99458" lon="5.4357">
        <ele>727.20001220703</ele>
        <time>2020-07-12T13:34:11Z</time>
      </trkpt>
      <trkpt lat="44.99457" lon="5.43568">
        <ele>727.20001220703</ele>
        <time>2020-07-12T13:34:14Z</time>
      </trkpt>
      <trkpt lat="44.99455" lon="5.4356">
        <ele>727.79998779297</ele>
        <time>2020-07-12T13:34:26Z</time>
      </trkpt>
      <trkpt lat="44.99454" lon="5.4356">
        <ele>727.79998779297</ele>
        <time>2020-07-12T13:34:27Z</time>
      </trkpt>
      <trkpt lat="44.99454" lon="5.43559">
        <ele>728</ele>
        <time>2020-07-12T13:34:33Z</time>
      </trkpt>
      <trkpt lat="44.99455" lon="5.4356">
        <ele>728.79998779297</ele>
        <time>2020-07-12T13:34:49Z</time>
      </trkpt>
      <trkpt lat="44.99455" lon="5.4356">
        <ele>728.79998779297</ele>
        <time>2020-07-12T13:34:57Z</time>
      </trkpt>
      <trkpt lat="44.99455" lon="5.4356">
        <ele>728.59997558594</ele>
        <time>2020-07-12T13:35:02Z</time>
      </trkpt>
      <trkpt lat="44.99456" lon="5.4356">
        <ele>728.59997558594</ele>
        <time>2020-07-12T13:35:07Z</time>
      </trkpt>
      <trkpt lat="44.99455" lon="5.4356">
        <ele>728.59997558594</ele>
        <time>2020-07-12T13:35:13Z</time>
      </trkpt>
      <trkpt lat="44.99456" lon="5.43559">
        <ele>728.79998779297</ele>
        <time>2020-07-12T13:35:21Z</time>
      </trkpt>
      <trkpt lat="44.99455" lon="5.4356">
        <ele>728.79998779297</ele>
        <time>2020-07-12T13:35:27Z</time>
      </trkpt>
      <trkpt lat="44.99455" lon="5.43559">
        <ele>728.79998779297</ele>
        <time>2020-07-12T13:35:31Z</time>
      </trkpt>
      <trkpt lat="44.99455" lon="5.4356">
        <ele>728.79998779297</ele>
        <time>2020-07-12T13:35:44Z</time>
      </trkpt>
      <trkpt lat="44.99454" lon="5.43557">
        <ele>729.40002441406</ele>
        <time>2020-07-12T13:36:41Z</time>
      </trkpt>
      <trkpt lat="44.99455" lon="5.43558">
        <ele>729.59997558594</ele>
        <time>2020-07-12T13:36:54Z</time>
      </trkpt>
      <trkpt lat="44.99455" lon="5.43558">
        <ele>729.79998779297</ele>
        <time>2020-07-12T13:36:57Z</time>
      </trkpt>
      <trkpt lat="44.99454" lon="5.43558">
        <ele>730</ele>
        <time>2020-07-12T13:37:01Z</time>
      </trkpt>
      <trkpt lat="44.99455" lon="5.43557">
        <ele>730</ele>
        <time>2020-07-12T13:37:02Z</time>
      </trkpt>
      <trkpt lat="44.99455" lon="5.43558">
        <ele>730</ele>
        <time>2020-07-12T13:37:03Z</time>
      </trkpt>
      <trkpt lat="44.99454" lon="5.43558">
        <ele>730.40002441406</ele>
        <time>2020-07-12T13:37:14Z</time>
      </trkpt>
      <trkpt lat="44.99454" lon="5.4356">
        <ele>730.40002441406</ele>
        <time>2020-07-12T13:37:24Z</time>
      </trkpt>
      <trkpt lat="44.99454" lon="5.4356">
        <ele>730.40002441406</ele>
        <time>2020-07-12T13:37:25Z</time>
      </trkpt>
      <trkpt lat="44.99454" lon="5.4356">
        <ele>730.40002441406</ele>
        <time>2020-07-12T13:37:26Z</time>
      </trkpt>
      <trkpt lat="44.99454" lon="5.4356">
        <ele>730.40002441406</ele>
        <time>2020-07-12T13:37:27Z</time>
      </trkpt>
      <trkpt lat="44.99454" lon="5.43559">
        <ele>730.40002441406</ele>
        <time>2020-07-12T13:37:51Z</time>
      </trkpt>
      <trkpt lat="44.99454" lon="5.43559">
        <ele>730.59997558594</ele>
        <time>2020-07-12T13:37:57Z</time>
      </trkpt>
      <trkpt lat="44.99453" lon="5.43557">
        <ele>730.59997558594</ele>
        <time>2020-07-12T13:38:18Z</time>
      </trkpt>
      <trkpt lat="44.99453" lon="5.43556">
        <ele>730.59997558594</ele>
        <time>2020-07-12T13:38:25Z</time>
      </trkpt>
      <trkpt lat="44.99452" lon="5.43555">
        <ele>730.59997558594</ele>
        <time>2020-07-12T13:38:35Z</time>
      </trkpt>
      <trkpt lat="44.99452" lon="5.43555">
        <ele>730.59997558594</ele>
        <time>2020-07-12T13:39:15Z</time>
      </trkpt>
      <trkpt lat="44.99454" lon="5.43555">
        <ele>730.59997558594</ele>
        <time>2020-07-12T13:40:08Z</time>
      </trkpt>
      <trkpt lat="44.99453" lon="5.43557">
        <ele>730.59997558594</ele>
        <time>2020-07-12T13:40:15Z</time>
      </trkpt>
      <trkpt lat="44.99453" lon="5.43558">
        <ele>730.79998779297</ele>
        <time>2020-07-12T13:40:19Z</time>
      </trkpt>
      <trkpt lat="44.99453" lon="5.43558">
        <ele>730.79998779297</ele>
        <time>2020-07-12T13:40:20Z</time>
      </trkpt>
      <trkpt lat="44.99453" lon="5.43558">
        <ele>730.79998779297</ele>
        <time>2020-07-12T13:40:21Z</time>
      </trkpt>
      <trkpt lat="44.99453" lon="5.43558">
        <ele>730.79998779297</ele>
        <time>2020-07-12T13:40:26Z</time>
      </trkpt>
      <trkpt lat="44.99452" lon="5.43558">
        <ele>730.79998779297</ele>
        <time>2020-07-12T13:40:30Z</time>
      </trkpt>
      <trkpt lat="44.99452" lon="5.43558">
        <ele>730.79998779297</ele>
        <time>2020-07-12T13:40:31Z</time>
      </trkpt>
      <trkpt lat="44.99452" lon="5.43558">
        <ele>730.79998779297</ele>
        <time>2020-07-12T13:40:33Z</time>
      </trkpt>
      <trkpt lat="44.99452" lon="5.43558">
        <ele>730.79998779297</ele>
        <time>2020-07-12T13:40:34Z</time>
      </trkpt>
      <trkpt lat="44.99452" lon="5.43558">
        <ele>730.79998779297</ele>
        <time>2020-07-12T13:40:37Z</time>
      </trkpt>
      <trkpt lat="44.99451" lon="5.43558">
        <ele>730.79998779297</ele>
        <time>2020-07-12T13:40:44Z</time>
      </trkpt>
      <trkpt lat="44.99451" lon="5.43557">
        <ele>730.59997558594</ele>
        <time>2020-07-12T13:40:59Z</time>
      </trkpt>
      <trkpt lat="44.99451" lon="5.43558">
        <ele>730.79998779297</ele>
        <time>2020-07-12T13:41:11Z</time>
      </trkpt>
      <trkpt lat="44.99451" lon="5.43558">
        <ele>730.79998779297</ele>
        <time>2020-07-12T13:41:26Z</time>
      </trkpt>
      <trkpt lat="44.99451" lon="5.43558">
        <ele>730.79998779297</ele>
        <time>2020-07-12T13:41:34Z</time>
      </trkpt>
      <trkpt lat="44.99452" lon="5.43558">
        <ele>731.79998779297</ele>
        <time>2020-07-12T13:42:05Z</time>
      </trkpt>
      <trkpt lat="44.99452" lon="5.43558">
        <ele>731.79998779297</ele>
        <time>2020-07-12T13:42:07Z</time>
      </trkpt>
      <trkpt lat="44.99452" lon="5.43558">
        <ele>731.79998779297</ele>
        <time>2020-07-12T13:42:08Z</time>
      </trkpt>
      <trkpt lat="44.99453" lon="5.43557">
        <ele>732.20001220703</ele>
        <time>2020-07-12T13:42:17Z</time>
      </trkpt>
      <trkpt lat="44.99453" lon="5.43557">
        <ele>732.40002441406</ele>
        <time>2020-07-12T13:42:25Z</time>
      </trkpt>
      <trkpt lat="44.99452" lon="5.43557">
        <ele>732.40002441406</ele>
        <time>2020-07-12T13:42:27Z</time>
      </trkpt>
      <trkpt lat="44.99452" lon="5.43557">
        <ele>732.40002441406</ele>
        <time>2020-07-12T13:42:29Z</time>
      </trkpt>
      <trkpt lat="44.99452" lon="5.43557">
        <ele>732.59997558594</ele>
        <time>2020-07-12T13:42:31Z</time>
      </trkpt>
      <trkpt lat="44.99452" lon="5.43557">
        <ele>732.40002441406</ele>
        <time>2020-07-12T13:42:32Z</time>
      </trkpt>
      <trkpt lat="44.99452" lon="5.43557">
        <ele>732.40002441406</ele>
        <time>2020-07-12T13:42:33Z</time>
      </trkpt>
      <trkpt lat="44.99451" lon="5.43558">
        <ele>732.59997558594</ele>
        <time>2020-07-12T13:42:42Z</time>
      </trkpt>
      <trkpt lat="44.99451" lon="5.43559">
        <ele>732.79998779297</ele>
        <time>2020-07-12T13:43:10Z</time>
      </trkpt>
      <trkpt lat="44.99451" lon="5.43558">
        <ele>732.79998779297</ele>
        <time>2020-07-12T13:43:17Z</time>
      </trkpt>
      <trkpt lat="44.99451" lon="5.43558">
        <ele>732.79998779297</ele>
        <time>2020-07-12T13:43:25Z</time>
      </trkpt>
      <trkpt lat="44.99451" lon="5.43558">
        <ele>733</ele>
        <time>2020-07-12T13:43:30Z</time>
      </trkpt>
      <trkpt lat="44.99451" lon="5.43558">
        <ele>733</ele>
        <time>2020-07-12T13:43:36Z</time>
      </trkpt>
      <trkpt lat="44.99451" lon="5.43558">
        <ele>733</ele>
        <time>2020-07-12T13:43:37Z</time>
      </trkpt>
      <trkpt lat="44.99451" lon="5.43558">
        <ele>733</ele>
        <time>2020-07-12T13:43:42Z</time>
      </trkpt>
      <trkpt lat="44.99451" lon="5.43558">
        <ele>733</ele>
        <time>2020-07-12T13:43:43Z</time>
      </trkpt>
      <trkpt lat="44.99451" lon="5.43558">
        <ele>733</ele>
        <time>2020-07-12T13:43:44Z</time>
      </trkpt>
      <trkpt lat="44.99451" lon="5.43558">
        <ele>733</ele>
        <time>2020-07-12T13:43:45Z</time>
      </trkpt>
      <trkpt lat="44.99452" lon="5.43558">
        <ele>733</ele>
        <time>2020-07-12T13:43:47Z</time>
      </trkpt>
      <trkpt lat="44.99452" lon="5.43558">
        <ele>732.79998779297</ele>
        <time>2020-07-12T13:43:50Z</time>
      </trkpt>
      <trkpt lat="44.99452" lon="5.43557">
        <ele>733</ele>
        <time>2020-07-12T13:43:58Z</time>
      </trkpt>
      <trkpt lat="44.99451" lon="5.43557">
        <ele>732.79998779297</ele>
        <time>2020-07-12T13:44:02Z</time>
      </trkpt>
      <trkpt lat="44.9945" lon="5.43556">
        <ele>732.79998779297</ele>
        <time>2020-07-12T13:44:03Z</time>
      </trkpt>
      <trkpt lat="44.99445" lon="5.4355">
        <ele>732.79998779297</ele>
        <time>2020-07-12T13:44:11Z</time>
      </trkpt>
      <trkpt lat="44.99441" lon="5.43546">
        <ele>732.79998779297</ele>
        <time>2020-07-12T13:44:14Z</time>
      </trkpt>
      <trkpt lat="44.99432" lon="5.43539">
        <ele>732.79998779297</ele>
        <time>2020-07-12T13:44:20Z</time>
      </trkpt>
      <trkpt lat="44.99431" lon="5.43538">
        <ele>732.79998779297</ele>
        <time>2020-07-12T13:44:21Z</time>
      </trkpt>
      <trkpt lat="44.99429" lon="5.43537">
        <ele>733</ele>
        <time>2020-07-12T13:44:22Z</time>
      </trkpt>
      <trkpt lat="44.99427" lon="5.43537">
        <ele>733</ele>
        <time>2020-07-12T13:44:23Z</time>
      </trkpt>
      <trkpt lat="44.99423" lon="5.43535">
        <ele>733</ele>
        <time>2020-07-12T13:44:26Z</time>
      </trkpt>
      <trkpt lat="44.99421" lon="5.43534">
        <ele>733</ele>
        <time>2020-07-12T13:44:27Z</time>
      </trkpt>
      <trkpt lat="44.9942" lon="5.43533">
        <ele>733.20001220703</ele>
        <time>2020-07-12T13:44:28Z</time>
      </trkpt>
      <trkpt lat="44.99419" lon="5.43532">
        <ele>733.20001220703</ele>
        <time>2020-07-12T13:44:29Z</time>
      </trkpt>
      <trkpt lat="44.99417" lon="5.43532">
        <ele>733.20001220703</ele>
        <time>2020-07-12T13:44:30Z</time>
      </trkpt>
      <trkpt lat="44.9941" lon="5.4353">
        <ele>733.59997558594</ele>
        <time>2020-07-12T13:44:35Z</time>
      </trkpt>
      <trkpt lat="44.99403" lon="5.43526">
        <ele>734</ele>
        <time>2020-07-12T13:44:40Z</time>
      </trkpt>
      <trkpt lat="44.99401" lon="5.43526">
        <ele>734</ele>
        <time>2020-07-12T13:44:41Z</time>
      </trkpt>
      <trkpt lat="44.99396" lon="5.43521">
        <ele>734.59997558594</ele>
        <time>2020-07-12T13:44:46Z</time>
      </trkpt>
      <trkpt lat="44.99395" lon="5.4352">
        <ele>734.79998779297</ele>
        <time>2020-07-12T13:44:47Z</time>
      </trkpt>
      <trkpt lat="44.99391" lon="5.43517">
        <ele>735.40002441406</ele>
        <time>2020-07-12T13:44:50Z</time>
      </trkpt>
      <trkpt lat="44.99389" lon="5.43516">
        <ele>735.59997558594</ele>
        <time>2020-07-12T13:44:51Z</time>
      </trkpt>
      <trkpt lat="44.99389" lon="5.43515">
        <ele>735.59997558594</ele>
        <time>2020-07-12T13:44:52Z</time>
      </trkpt>
      <trkpt lat="44.99388" lon="5.43514">
        <ele>735.79998779297</ele>
        <time>2020-07-12T13:44:53Z</time>
      </trkpt>
      <trkpt lat="44.99382" lon="5.43505">
        <ele>737</ele>
        <time>2020-07-12T13:45:00Z</time>
      </trkpt>
      <trkpt lat="44.99381" lon="5.43504">
        <ele>737.20001220703</ele>
        <time>2020-07-12T13:45:01Z</time>
      </trkpt>
      <trkpt lat="44.9938" lon="5.43501">
        <ele>737.40002441406</ele>
        <time>2020-07-12T13:45:03Z</time>
      </trkpt>
      <trkpt lat="44.99378" lon="5.43499">
        <ele>738</ele>
        <time>2020-07-12T13:45:06Z</time>
      </trkpt>
      <trkpt lat="44.99376" lon="5.43497">
        <ele>738.40002441406</ele>
        <time>2020-07-12T13:45:08Z</time>
      </trkpt>
      <trkpt lat="44.99375" lon="5.43497">
        <ele>738.59997558594</ele>
        <time>2020-07-12T13:45:09Z</time>
      </trkpt>
      <trkpt lat="44.99369" lon="5.43496">
        <ele>739.20001220703</ele>
        <time>2020-07-12T13:45:12Z</time>
      </trkpt>
      <trkpt lat="44.99367" lon="5.43496">
        <ele>739.20001220703</ele>
        <time>2020-07-12T13:45:13Z</time>
      </trkpt>
      <trkpt lat="44.99361" lon="5.43495">
        <ele>739.79998779297</ele>
        <time>2020-07-12T13:45:16Z</time>
      </trkpt>
      <trkpt lat="44.99337" lon="5.43491">
        <ele>742.40002441406</ele>
        <time>2020-07-12T13:45:31Z</time>
      </trkpt>
      <trkpt lat="44.99328" lon="5.4349">
        <ele>744.20001220703</ele>
        <time>2020-07-12T13:45:37Z</time>
      </trkpt>
      <trkpt lat="44.99319" lon="5.4349">
        <ele>746.20001220703</ele>
        <time>2020-07-12T13:45:45Z</time>
      </trkpt>
      <trkpt lat="44.99314" lon="5.4349">
        <ele>747.40002441406</ele>
        <time>2020-07-12T13:45:49Z</time>
      </trkpt>
      <trkpt lat="44.99311" lon="5.43489">
        <ele>748.79998779297</ele>
        <time>2020-07-12T13:45:53Z</time>
      </trkpt>
      <trkpt lat="44.99309" lon="5.43489">
        <ele>749.20001220703</ele>
        <time>2020-07-12T13:45:54Z</time>
      </trkpt>
      <trkpt lat="44.99304" lon="5.43489">
        <ele>751.20001220703</ele>
        <time>2020-07-12T13:45:59Z</time>
      </trkpt>
      <trkpt lat="44.99297" lon="5.43488">
        <ele>753.59997558594</ele>
        <time>2020-07-12T13:46:05Z</time>
      </trkpt>
      <trkpt lat="44.99293" lon="5.43488">
        <ele>755.40002441406</ele>
        <time>2020-07-12T13:46:09Z</time>
      </trkpt>
      <trkpt lat="44.9929" lon="5.43488">
        <ele>756.40002441406</ele>
        <time>2020-07-12T13:46:12Z</time>
      </trkpt>
      <trkpt lat="44.99285" lon="5.43487">
        <ele>758.40002441406</ele>
        <time>2020-07-12T13:46:17Z</time>
      </trkpt>
      <trkpt lat="44.9928" lon="5.43486">
        <ele>760</ele>
        <time>2020-07-12T13:46:21Z</time>
      </trkpt>
      <trkpt lat="44.99277" lon="5.43486">
        <ele>761</ele>
        <time>2020-07-12T13:46:24Z</time>
      </trkpt>
      <trkpt lat="44.99268" lon="5.43482">
        <ele>764</ele>
        <time>2020-07-12T13:46:34Z</time>
      </trkpt>
      <trkpt lat="44.99264" lon="5.43481">
        <ele>765</ele>
        <time>2020-07-12T13:46:38Z</time>
      </trkpt>
      <trkpt lat="44.99257" lon="5.43476">
        <ele>767.79998779297</ele>
        <time>2020-07-12T13:46:47Z</time>
      </trkpt>
      <trkpt lat="44.9925" lon="5.43476">
        <ele>770.40002441406</ele>
        <time>2020-07-12T13:46:55Z</time>
      </trkpt>
      <trkpt lat="44.99242" lon="5.43471">
        <ele>772.40002441406</ele>
        <time>2020-07-12T13:47:02Z</time>
      </trkpt>
      <trkpt lat="44.99225" lon="5.43464">
        <ele>778</ele>
        <time>2020-07-12T13:47:20Z</time>
      </trkpt>
      <trkpt lat="44.99196" lon="5.43461">
        <ele>785.79998779297</ele>
        <time>2020-07-12T13:47:44Z</time>
      </trkpt>
      <trkpt lat="44.99178" lon="5.43457">
        <ele>787.40002441406</ele>
        <time>2020-07-12T13:48:16Z</time>
      </trkpt>
      <trkpt lat="44.99169" lon="5.43453">
        <ele>787.59997558594</ele>
        <time>2020-07-12T13:48:41Z</time>
      </trkpt>
      <trkpt lat="44.99156" lon="5.43452">
        <ele>788.79998779297</ele>
        <time>2020-07-12T13:48:53Z</time>
      </trkpt>
      <trkpt lat="44.99155" lon="5.43452">
        <ele>789</ele>
        <time>2020-07-12T13:48:54Z</time>
      </trkpt>
      <trkpt lat="44.99152" lon="5.43452">
        <ele>789.20001220703</ele>
        <time>2020-07-12T13:48:57Z</time>
      </trkpt>
      <trkpt lat="44.9915" lon="5.43452">
        <ele>789.20001220703</ele>
        <time>2020-07-12T13:48:58Z</time>
      </trkpt>
      <trkpt lat="44.99138" lon="5.43447">
        <ele>790.40002441406</ele>
        <time>2020-07-12T13:49:08Z</time>
      </trkpt>
      <trkpt lat="44.99135" lon="5.43447">
        <ele>790.59997558594</ele>
        <time>2020-07-12T13:49:10Z</time>
      </trkpt>
      <trkpt lat="44.99129" lon="5.43445">
        <ele>791.40002441406</ele>
        <time>2020-07-12T13:49:14Z</time>
      </trkpt>
      <trkpt lat="44.99124" lon="5.43446">
        <ele>791.79998779297</ele>
        <time>2020-07-12T13:49:18Z</time>
      </trkpt>
      <trkpt lat="44.99122" lon="5.43447">
        <ele>791.79998779297</ele>
        <time>2020-07-12T13:49:20Z</time>
      </trkpt>
      <trkpt lat="44.99119" lon="5.43446">
        <ele>792</ele>
        <time>2020-07-12T13:49:22Z</time>
      </trkpt>
      <trkpt lat="44.99107" lon="5.43449">
        <ele>793.59997558594</ele>
        <time>2020-07-12T13:49:32Z</time>
      </trkpt>
      <trkpt lat="44.99104" lon="5.43449">
        <ele>793.79998779297</ele>
        <time>2020-07-12T13:49:34Z</time>
      </trkpt>
      <trkpt lat="44.99099" lon="5.43449">
        <ele>794.59997558594</ele>
        <time>2020-07-12T13:49:38Z</time>
      </trkpt>
      <trkpt lat="44.99097" lon="5.4345">
        <ele>794.79998779297</ele>
        <time>2020-07-12T13:49:40Z</time>
      </trkpt>
      <trkpt lat="44.99086" lon="5.43451">
        <ele>796.79998779297</ele>
        <time>2020-07-12T13:49:49Z</time>
      </trkpt>
      <trkpt lat="44.99085" lon="5.43452">
        <ele>797</ele>
        <time>2020-07-12T13:49:50Z</time>
      </trkpt>
      <trkpt lat="44.99083" lon="5.43452">
        <ele>797.40002441406</ele>
        <time>2020-07-12T13:49:52Z</time>
      </trkpt>
      <trkpt lat="44.99078" lon="5.43452">
        <ele>798.20001220703</ele>
        <time>2020-07-12T13:49:56Z</time>
      </trkpt>
      <trkpt lat="44.99074" lon="5.43451">
        <ele>798.79998779297</ele>
        <time>2020-07-12T13:50:00Z</time>
      </trkpt>
      <trkpt lat="44.99073" lon="5.43451">
        <ele>799.20001220703</ele>
        <time>2020-07-12T13:50:01Z</time>
      </trkpt>
      <trkpt lat="44.99068" lon="5.43454">
        <ele>800.20001220703</ele>
        <time>2020-07-12T13:50:06Z</time>
      </trkpt>
      <trkpt lat="44.99067" lon="5.43454">
        <ele>800.40002441406</ele>
        <time>2020-07-12T13:50:07Z</time>
      </trkpt>
      <trkpt lat="44.99065" lon="5.43454">
        <ele>800.79998779297</ele>
        <time>2020-07-12T13:50:08Z</time>
      </trkpt>
      <trkpt lat="44.99064" lon="5.43454">
        <ele>801</ele>
        <time>2020-07-12T13:50:09Z</time>
      </trkpt>
      <trkpt lat="44.99061" lon="5.43455">
        <ele>801.20001220703</ele>
        <time>2020-07-12T13:50:11Z</time>
      </trkpt>
      <trkpt lat="44.9904" lon="5.43463">
        <ele>803.79998779297</ele>
        <time>2020-07-12T13:50:25Z</time>
      </trkpt>
      <trkpt lat="44.99038" lon="5.43464">
        <ele>804</ele>
        <time>2020-07-12T13:50:27Z</time>
      </trkpt>
      <trkpt lat="44.99033" lon="5.43463">
        <ele>804.40002441406</ele>
        <time>2020-07-12T13:50:30Z</time>
      </trkpt>
      <trkpt lat="44.99028" lon="5.43464">
        <ele>804.79998779297</ele>
        <time>2020-07-12T13:50:33Z</time>
      </trkpt>
      <trkpt lat="44.99024" lon="5.43464">
        <ele>805</ele>
        <time>2020-07-12T13:50:35Z</time>
      </trkpt>
      <trkpt lat="44.99021" lon="5.43464">
        <ele>805.40002441406</ele>
        <time>2020-07-12T13:50:37Z</time>
      </trkpt>
      <trkpt lat="44.9902" lon="5.43464">
        <ele>805.59997558594</ele>
        <time>2020-07-12T13:50:38Z</time>
      </trkpt>
      <trkpt lat="44.99018" lon="5.43464">
        <ele>805.59997558594</ele>
        <time>2020-07-12T13:50:39Z</time>
      </trkpt>
      <trkpt lat="44.99017" lon="5.43464">
        <ele>805.79998779297</ele>
        <time>2020-07-12T13:50:40Z</time>
      </trkpt>
      <trkpt lat="44.99012" lon="5.43464">
        <ele>806.20001220703</ele>
        <time>2020-07-12T13:50:43Z</time>
      </trkpt>
      <trkpt lat="44.99008" lon="5.43464">
        <ele>806.59997558594</ele>
        <time>2020-07-12T13:50:47Z</time>
      </trkpt>
      <trkpt lat="44.99005" lon="5.43465">
        <ele>807</ele>
        <time>2020-07-12T13:50:49Z</time>
      </trkpt>
      <trkpt lat="44.99002" lon="5.43466">
        <ele>807.20001220703</ele>
        <time>2020-07-12T13:50:51Z</time>
      </trkpt>
      <trkpt lat="44.98999" lon="5.43467">
        <ele>807.59997558594</ele>
        <time>2020-07-12T13:50:53Z</time>
      </trkpt>
      <trkpt lat="44.98992" lon="5.43466">
        <ele>808.20001220703</ele>
        <time>2020-07-12T13:50:57Z</time>
      </trkpt>
      <trkpt lat="44.98982" lon="5.43462">
        <ele>809.40002441406</ele>
        <time>2020-07-12T13:51:05Z</time>
      </trkpt>
      <trkpt lat="44.98978" lon="5.43463">
        <ele>809.79998779297</ele>
        <time>2020-07-12T13:51:08Z</time>
      </trkpt>
      <trkpt lat="44.98952" lon="5.43447">
        <ele>811.79998779297</ele>
        <time>2020-07-12T13:51:24Z</time>
      </trkpt>
      <trkpt lat="44.98947" lon="5.43444">
        <ele>812</ele>
        <time>2020-07-12T13:51:27Z</time>
      </trkpt>
      <trkpt lat="44.98943" lon="5.43443">
        <ele>812</ele>
        <time>2020-07-12T13:51:29Z</time>
      </trkpt>
      <trkpt lat="44.98927" lon="5.43443">
        <ele>812.79998779297</ele>
        <time>2020-07-12T13:51:36Z</time>
      </trkpt>
      <trkpt lat="44.98918" lon="5.43444">
        <ele>813</ele>
        <time>2020-07-12T13:51:41Z</time>
      </trkpt>
      <trkpt lat="44.98917" lon="5.43444">
        <ele>813.20001220703</ele>
        <time>2020-07-12T13:51:42Z</time>
      </trkpt>
      <trkpt lat="44.98871" lon="5.43438">
        <ele>816.59997558594</ele>
        <time>2020-07-12T13:52:10Z</time>
      </trkpt>
      <trkpt lat="44.98851" lon="5.43432">
        <ele>818</ele>
        <time>2020-07-12T13:52:21Z</time>
      </trkpt>
      <trkpt lat="44.98827" lon="5.43427">
        <ele>818</ele>
        <time>2020-07-12T13:52:31Z</time>
      </trkpt>
      <trkpt lat="44.98807" lon="5.43417">
        <ele>818.20001220703</ele>
        <time>2020-07-12T13:52:43Z</time>
      </trkpt>
      <trkpt lat="44.98792" lon="5.43413">
        <ele>818.59997558594</ele>
        <time>2020-07-12T13:52:52Z</time>
      </trkpt>
      <trkpt lat="44.98783" lon="5.4341">
        <ele>818.59997558594</ele>
        <time>2020-07-12T13:52:57Z</time>
      </trkpt>
      <trkpt lat="44.98776" lon="5.4341">
        <ele>819.20001220703</ele>
        <time>2020-07-12T13:53:02Z</time>
      </trkpt>
      <trkpt lat="44.98754" lon="5.43399">
        <ele>821.20001220703</ele>
        <time>2020-07-12T13:53:16Z</time>
      </trkpt>
      <trkpt lat="44.98745" lon="5.43399">
        <ele>822</ele>
        <time>2020-07-12T13:53:21Z</time>
      </trkpt>
      <trkpt lat="44.98736" lon="5.43399">
        <ele>822.40002441406</ele>
        <time>2020-07-12T13:53:25Z</time>
      </trkpt>
      <trkpt lat="44.98725" lon="5.43401">
        <ele>823.40002441406</ele>
        <time>2020-07-12T13:53:30Z</time>
      </trkpt>
      <trkpt lat="44.98703" lon="5.43406">
        <ele>827.20001220703</ele>
        <time>2020-07-12T13:53:45Z</time>
      </trkpt>
      <trkpt lat="44.98692" lon="5.43402">
        <ele>829.79998779297</ele>
        <time>2020-07-12T13:54:15Z</time>
      </trkpt>
      <trkpt lat="44.98689" lon="5.43398">
        <ele>830.20001220703</ele>
        <time>2020-07-12T13:54:32Z</time>
      </trkpt>
      <trkpt lat="44.98689" lon="5.43398">
        <ele>830.20001220703</ele>
        <time>2020-07-12T13:54:33Z</time>
      </trkpt>
      <trkpt lat="44.98688" lon="5.43398">
        <ele>830.20001220703</ele>
        <time>2020-07-12T13:54:34Z</time>
      </trkpt>
      <trkpt lat="44.98688" lon="5.43397">
        <ele>830.20001220703</ele>
        <time>2020-07-12T13:54:35Z</time>
      </trkpt>
      <trkpt lat="44.98688" lon="5.43397">
        <ele>830.20001220703</ele>
        <time>2020-07-12T13:54:36Z</time>
      </trkpt>
      <trkpt lat="44.98688" lon="5.43397">
        <ele>830.20001220703</ele>
        <time>2020-07-12T13:54:37Z</time>
      </trkpt>
      <trkpt lat="44.98688" lon="5.43397">
        <ele>830.40002441406</ele>
        <time>2020-07-12T13:54:39Z</time>
      </trkpt>
      <trkpt lat="44.98688" lon="5.43396">
        <ele>830.59997558594</ele>
        <time>2020-07-12T13:54:48Z</time>
      </trkpt>
      <trkpt lat="44.98687" lon="5.43393">
        <ele>831</ele>
        <time>2020-07-12T13:54:58Z</time>
      </trkpt>
      <trkpt lat="44.98685" lon="5.43391">
        <ele>831.40002441406</ele>
        <time>2020-07-12T13:55:14Z</time>
      </trkpt>
      <trkpt lat="44.98685" lon="5.43391">
        <ele>831.40002441406</ele>
        <time>2020-07-12T13:55:15Z</time>
      </trkpt>
      <trkpt lat="44.98685" lon="5.43392">
        <ele>831.40002441406</ele>
        <time>2020-07-12T13:55:18Z</time>
      </trkpt>
      <trkpt lat="44.98683" lon="5.43394">
        <ele>831.59997558594</ele>
        <time>2020-07-12T13:55:23Z</time>
      </trkpt>
      <trkpt lat="44.98678" lon="5.43392">
        <ele>831.79998779297</ele>
        <time>2020-07-12T13:56:05Z</time>
      </trkpt>
      <trkpt lat="44.98676" lon="5.43396">
        <ele>832.40002441406</ele>
        <time>2020-07-12T13:56:13Z</time>
      </trkpt>
      <trkpt lat="44.98675" lon="5.43396">
        <ele>832.40002441406</ele>
        <time>2020-07-12T13:56:14Z</time>
      </trkpt>
      <trkpt lat="44.98668" lon="5.43398">
        <ele>833</ele>
        <time>2020-07-12T13:56:20Z</time>
      </trkpt>
      <trkpt lat="44.98666" lon="5.43399">
        <ele>833.20001220703</ele>
        <time>2020-07-12T13:56:22Z</time>
      </trkpt>
      <trkpt lat="44.98664" lon="5.43399">
        <ele>833.40002441406</ele>
        <time>2020-07-12T13:56:25Z</time>
      </trkpt>
      <trkpt lat="44.98663" lon="5.43399">
        <ele>833.40002441406</ele>
        <time>2020-07-12T13:56:26Z</time>
      </trkpt>
      <trkpt lat="44.98661" lon="5.43399">
        <ele>833.59997558594</ele>
        <time>2020-07-12T13:56:28Z</time>
      </trkpt>
      <trkpt lat="44.98659" lon="5.43399">
        <ele>833.59997558594</ele>
        <time>2020-07-12T13:56:29Z</time>
      </trkpt>
      <trkpt lat="44.98658" lon="5.43398">
        <ele>833.79998779297</ele>
        <time>2020-07-12T13:56:30Z</time>
      </trkpt>
      <trkpt lat="44.98649" lon="5.43393">
        <ele>833.79998779297</ele>
        <time>2020-07-12T13:56:37Z</time>
      </trkpt>
      <trkpt lat="44.98648" lon="5.43392">
        <ele>834</ele>
        <time>2020-07-12T13:56:38Z</time>
      </trkpt>
      <trkpt lat="44.98647" lon="5.43392">
        <ele>834</ele>
        <time>2020-07-12T13:56:39Z</time>
      </trkpt>
      <trkpt lat="44.98646" lon="5.43392">
        <ele>834.20001220703</ele>
        <time>2020-07-12T13:56:40Z</time>
      </trkpt>
      <trkpt lat="44.98645" lon="5.43391">
        <ele>834.20001220703</ele>
        <time>2020-07-12T13:56:41Z</time>
      </trkpt>
      <trkpt lat="44.98642" lon="5.43387">
        <ele>834.40002441406</ele>
        <time>2020-07-12T13:56:44Z</time>
      </trkpt>
      <trkpt lat="44.98641" lon="5.43385">
        <ele>834.59997558594</ele>
        <time>2020-07-12T13:56:46Z</time>
      </trkpt>
      <trkpt lat="44.9864" lon="5.43385">
        <ele>834.59997558594</ele>
        <time>2020-07-12T13:56:47Z</time>
      </trkpt>
      <trkpt lat="44.98633" lon="5.43383">
        <ele>835</ele>
        <time>2020-07-12T13:56:52Z</time>
      </trkpt>
      <trkpt lat="44.98627" lon="5.43384">
        <ele>835.20001220703</ele>
        <time>2020-07-12T13:56:56Z</time>
      </trkpt>
      <trkpt lat="44.98626" lon="5.43384">
        <ele>835.20001220703</ele>
        <time>2020-07-12T13:56:57Z</time>
      </trkpt>
      <trkpt lat="44.98623" lon="5.43386">
        <ele>835.40002441406</ele>
        <time>2020-07-12T13:56:58Z</time>
      </trkpt>
      <trkpt lat="44.98616" lon="5.43387">
        <ele>835.79998779297</ele>
        <time>2020-07-12T13:57:03Z</time>
      </trkpt>
      <trkpt lat="44.98615" lon="5.43386">
        <ele>836</ele>
        <time>2020-07-12T13:57:04Z</time>
      </trkpt>
      <trkpt lat="44.98614" lon="5.43386">
        <ele>836.20001220703</ele>
        <time>2020-07-12T13:57:05Z</time>
      </trkpt>
      <trkpt lat="44.98613" lon="5.43385">
        <ele>836.20001220703</ele>
        <time>2020-07-12T13:57:06Z</time>
      </trkpt>
      <trkpt lat="44.98612" lon="5.43385">
        <ele>836.40002441406</ele>
        <time>2020-07-12T13:57:08Z</time>
      </trkpt>
      <trkpt lat="44.98609" lon="5.43384">
        <ele>837</ele>
        <time>2020-07-12T13:57:11Z</time>
      </trkpt>
      <trkpt lat="44.98607" lon="5.43383">
        <ele>837.20001220703</ele>
        <time>2020-07-12T13:57:12Z</time>
      </trkpt>
      <trkpt lat="44.98604" lon="5.43383">
        <ele>837.40002441406</ele>
        <time>2020-07-12T13:57:14Z</time>
      </trkpt>
      <trkpt lat="44.98595" lon="5.43383">
        <ele>838.40002441406</ele>
        <time>2020-07-12T13:57:19Z</time>
      </trkpt>
      <trkpt lat="44.98594" lon="5.43383">
        <ele>838.59997558594</ele>
        <time>2020-07-12T13:57:20Z</time>
      </trkpt>
      <trkpt lat="44.98588" lon="5.43381">
        <ele>839.59997558594</ele>
        <time>2020-07-12T13:57:24Z</time>
      </trkpt>
      <trkpt lat="44.98584" lon="5.4338">
        <ele>840.40002441406</ele>
        <time>2020-07-12T13:57:27Z</time>
      </trkpt>
      <trkpt lat="44.98581" lon="5.43381">
        <ele>841.20001220703</ele>
        <time>2020-07-12T13:57:30Z</time>
      </trkpt>
      <trkpt lat="44.98579" lon="5.43383">
        <ele>841.59997558594</ele>
        <time>2020-07-12T13:57:32Z</time>
      </trkpt>
      <trkpt lat="44.98577" lon="5.43383">
        <ele>842.40002441406</ele>
        <time>2020-07-12T13:57:34Z</time>
      </trkpt>
      <trkpt lat="44.98576" lon="5.43383">
        <ele>842.59997558594</ele>
        <time>2020-07-12T13:57:35Z</time>
      </trkpt>
      <trkpt lat="44.98574" lon="5.43384">
        <ele>843</ele>
        <time>2020-07-12T13:57:36Z</time>
      </trkpt>
      <trkpt lat="44.9857" lon="5.43384">
        <ele>844</ele>
        <time>2020-07-12T13:57:41Z</time>
      </trkpt>
      <trkpt lat="44.98568" lon="5.43384">
        <ele>844.59997558594</ele>
        <time>2020-07-12T13:57:43Z</time>
      </trkpt>
      <trkpt lat="44.98557" lon="5.43386">
        <ele>847.40002441406</ele>
        <time>2020-07-12T13:57:53Z</time>
      </trkpt>
      <trkpt lat="44.98546" lon="5.43387">
        <ele>849.40002441406</ele>
        <time>2020-07-12T13:58:03Z</time>
      </trkpt>
      <trkpt lat="44.98528" lon="5.43384">
        <ele>852</ele>
        <time>2020-07-12T13:58:19Z</time>
      </trkpt>
      <trkpt lat="44.98522" lon="5.43383">
        <ele>852.40002441406</ele>
        <time>2020-07-12T13:58:24Z</time>
      </trkpt>
      <trkpt lat="44.9852" lon="5.43381">
        <ele>852.20001220703</ele>
        <time>2020-07-12T13:58:31Z</time>
      </trkpt>
      <trkpt lat="44.9852" lon="5.43381">
        <ele>852.20001220703</ele>
        <time>2020-07-12T13:58:46Z</time>
      </trkpt>
      <trkpt lat="44.98516" lon="5.4338">
        <ele>852.20001220703</ele>
        <time>2020-07-12T13:59:07Z</time>
      </trkpt>
      <trkpt lat="44.98514" lon="5.43381">
        <ele>852.20001220703</ele>
        <time>2020-07-12T13:59:24Z</time>
      </trkpt>
      <trkpt lat="44.98514" lon="5.43381">
        <ele>852.20001220703</ele>
        <time>2020-07-12T13:59:27Z</time>
      </trkpt>
      <trkpt lat="44.98513" lon="5.43381">
        <ele>852.20001220703</ele>
        <time>2020-07-12T13:59:31Z</time>
      </trkpt>
      <trkpt lat="44.98514" lon="5.43381">
        <ele>852.20001220703</ele>
        <time>2020-07-12T13:59:36Z</time>
      </trkpt>
      <trkpt lat="44.98514" lon="5.43381">
        <ele>852.20001220703</ele>
        <time>2020-07-12T13:59:43Z</time>
      </trkpt>
      <trkpt lat="44.98514" lon="5.43382">
        <ele>852.20001220703</ele>
        <time>2020-07-12T13:59:45Z</time>
      </trkpt>
      <trkpt lat="44.98514" lon="5.43382">
        <ele>852.20001220703</ele>
        <time>2020-07-12T13:59:48Z</time>
      </trkpt>
      <trkpt lat="44.98514" lon="5.43382">
        <ele>852.20001220703</ele>
        <time>2020-07-12T13:59:50Z</time>
      </trkpt>
      <trkpt lat="44.98514" lon="5.43381">
        <ele>852.20001220703</ele>
        <time>2020-07-12T13:59:59Z</time>
      </trkpt>
      <trkpt lat="44.98514" lon="5.43381">
        <ele>852.20001220703</ele>
        <time>2020-07-12T14:00:03Z</time>
      </trkpt>
      <trkpt lat="44.98513" lon="5.4338">
        <ele>852.20001220703</ele>
        <time>2020-07-12T14:00:21Z</time>
      </trkpt>
      <trkpt lat="44.98513" lon="5.4338">
        <ele>852.59997558594</ele>
        <time>2020-07-12T14:00:42Z</time>
      </trkpt>
      <trkpt lat="44.98512" lon="5.4338">
        <ele>852.40002441406</ele>
        <time>2020-07-12T14:01:00Z</time>
      </trkpt>
      <trkpt lat="44.98512" lon="5.43381">
        <ele>852.59997558594</ele>
        <time>2020-07-12T14:01:02Z</time>
      </trkpt>
      <trkpt lat="44.98512" lon="5.4338">
        <ele>852.59997558594</ele>
        <time>2020-07-12T14:01:05Z</time>
      </trkpt>
      <trkpt lat="44.98509" lon="5.43379">
        <ele>852.59997558594</ele>
        <time>2020-07-12T14:01:09Z</time>
      </trkpt>
      <trkpt lat="44.98506" lon="5.43376">
        <ele>852.59997558594</ele>
        <time>2020-07-12T14:01:11Z</time>
      </trkpt>
      <trkpt lat="44.98493" lon="5.43367">
        <ele>852.40002441406</ele>
        <time>2020-07-12T14:01:17Z</time>
      </trkpt>
      <trkpt lat="44.98484" lon="5.43361">
        <ele>852.20001220703</ele>
        <time>2020-07-12T14:01:22Z</time>
      </trkpt>
      <trkpt lat="44.98476" lon="5.43355">
        <ele>852</ele>
        <time>2020-07-12T14:01:26Z</time>
      </trkpt>
      <trkpt lat="44.98454" lon="5.43354">
        <ele>851.20001220703</ele>
        <time>2020-07-12T14:01:35Z</time>
      </trkpt>
      <trkpt lat="44.98451" lon="5.43355">
        <ele>851</ele>
        <time>2020-07-12T14:01:36Z</time>
      </trkpt>
      <trkpt lat="44.98448" lon="5.43356">
        <ele>851</ele>
        <time>2020-07-12T14:01:37Z</time>
      </trkpt>
      <trkpt lat="44.98444" lon="5.43357">
        <ele>850.79998779297</ele>
        <time>2020-07-12T14:01:38Z</time>
      </trkpt>
      <trkpt lat="44.98436" lon="5.43362">
        <ele>850.59997558594</ele>
        <time>2020-07-12T14:01:41Z</time>
      </trkpt>
      <trkpt lat="44.98433" lon="5.43364">
        <ele>850.40002441406</ele>
        <time>2020-07-12T14:01:42Z</time>
      </trkpt>
      <trkpt lat="44.98427" lon="5.43365">
        <ele>850.20001220703</ele>
        <time>2020-07-12T14:01:44Z</time>
      </trkpt>
      <trkpt lat="44.98424" lon="5.43366">
        <ele>850</ele>
        <time>2020-07-12T14:01:45Z</time>
      </trkpt>
      <trkpt lat="44.9842" lon="5.43366">
        <ele>850</ele>
        <time>2020-07-12T14:01:46Z</time>
      </trkpt>
      <trkpt lat="44.98412" lon="5.43365">
        <ele>849.59997558594</ele>
        <time>2020-07-12T14:01:48Z</time>
      </trkpt>
      <trkpt lat="44.98403" lon="5.43363">
        <ele>849.40002441406</ele>
        <time>2020-07-12T14:01:50Z</time>
      </trkpt>
      <trkpt lat="44.98384" lon="5.43363">
        <ele>848.20001220703</ele>
        <time>2020-07-12T14:01:56Z</time>
      </trkpt>
      <trkpt lat="44.98375" lon="5.43365">
        <ele>847.79998779297</ele>
        <time>2020-07-12T14:01:59Z</time>
      </trkpt>
      <trkpt lat="44.98365" lon="5.43366">
        <ele>847</ele>
        <time>2020-07-12T14:02:02Z</time>
      </trkpt>
      <trkpt lat="44.98362" lon="5.43366">
        <ele>846.79998779297</ele>
        <time>2020-07-12T14:02:03Z</time>
      </trkpt>
      <trkpt lat="44.98356" lon="5.43366">
        <ele>846.20001220703</ele>
        <time>2020-07-12T14:02:05Z</time>
      </trkpt>
      <trkpt lat="44.98353" lon="5.43365">
        <ele>846</ele>
        <time>2020-07-12T14:02:06Z</time>
      </trkpt>
      <trkpt lat="44.98349" lon="5.43365">
        <ele>845.59997558594</ele>
        <time>2020-07-12T14:02:07Z</time>
      </trkpt>
      <trkpt lat="44.98346" lon="5.43364">
        <ele>845.40002441406</ele>
        <time>2020-07-12T14:02:08Z</time>
      </trkpt>
      <trkpt lat="44.98342" lon="5.43364">
        <ele>845.20001220703</ele>
        <time>2020-07-12T14:02:09Z</time>
      </trkpt>
      <trkpt lat="44.98332" lon="5.43362">
        <ele>844.20001220703</ele>
        <time>2020-07-12T14:02:12Z</time>
      </trkpt>
      <trkpt lat="44.98319" lon="5.4336">
        <ele>843.40002441406</ele>
        <time>2020-07-12T14:02:15Z</time>
      </trkpt>
      <trkpt lat="44.98311" lon="5.43359">
        <ele>843</ele>
        <time>2020-07-12T14:02:17Z</time>
      </trkpt>
      <trkpt lat="44.98303" lon="5.43359">
        <ele>842.20001220703</ele>
        <time>2020-07-12T14:02:19Z</time>
      </trkpt>
      <trkpt lat="44.98299" lon="5.43361">
        <ele>841.79998779297</ele>
        <time>2020-07-12T14:02:20Z</time>
      </trkpt>
      <trkpt lat="44.98282" lon="5.43361">
        <ele>840.59997558594</ele>
        <time>2020-07-12T14:02:24Z</time>
      </trkpt>
      <trkpt lat="44.98272" lon="5.4336">
        <ele>840</ele>
        <time>2020-07-12T14:02:26Z</time>
      </trkpt>
      <trkpt lat="44.98235" lon="5.43348">
        <ele>837</ele>
        <time>2020-07-12T14:02:35Z</time>
      </trkpt>
      <trkpt lat="44.9823" lon="5.43347">
        <ele>836.59997558594</ele>
        <time>2020-07-12T14:02:36Z</time>
      </trkpt>
      <trkpt lat="44.98183" lon="5.43337">
        <ele>834.40002441406</ele>
        <time>2020-07-12T14:02:44Z</time>
      </trkpt>
      <trkpt lat="44.98137" lon="5.43329">
        <ele>834</ele>
        <time>2020-07-12T14:02:53Z</time>
      </trkpt>
      <trkpt lat="44.98114" lon="5.43323">
        <ele>833.79998779297</ele>
        <time>2020-07-12T14:02:59Z</time>
      </trkpt>
      <trkpt lat="44.98069" lon="5.43307">
        <ele>834.20001220703</ele>
        <time>2020-07-12T14:03:20Z</time>
      </trkpt>
      <trkpt lat="44.9806" lon="5.43297">
        <ele>834.59997558594</ele>
        <time>2020-07-12T14:03:26Z</time>
      </trkpt>
      <trkpt lat="44.98054" lon="5.43291">
        <ele>835.79998779297</ele>
        <time>2020-07-12T14:03:31Z</time>
      </trkpt>
      <trkpt lat="44.9805" lon="5.43289">
        <ele>836.40002441406</ele>
        <time>2020-07-12T14:03:34Z</time>
      </trkpt>
      <trkpt lat="44.98044" lon="5.43286">
        <ele>837</ele>
        <time>2020-07-12T14:03:38Z</time>
      </trkpt>
      <trkpt lat="44.98039" lon="5.43284">
        <ele>837.40002441406</ele>
        <time>2020-07-12T14:03:41Z</time>
      </trkpt>
      <trkpt lat="44.9801" lon="5.43276">
        <ele>839.79998779297</ele>
        <time>2020-07-12T14:03:54Z</time>
      </trkpt>
      <trkpt lat="44.98005" lon="5.43275">
        <ele>840</ele>
        <time>2020-07-12T14:03:56Z</time>
      </trkpt>
      <trkpt lat="44.97999" lon="5.43275">
        <ele>840.59997558594</ele>
        <time>2020-07-12T14:03:59Z</time>
      </trkpt>
      <trkpt lat="44.97997" lon="5.43275">
        <ele>840.79998779297</ele>
        <time>2020-07-12T14:04:00Z</time>
      </trkpt>
      <trkpt lat="44.97984" lon="5.43272">
        <ele>842</ele>
        <time>2020-07-12T14:04:07Z</time>
      </trkpt>
      <trkpt lat="44.97982" lon="5.43273">
        <ele>842.40002441406</ele>
        <time>2020-07-12T14:04:08Z</time>
      </trkpt>
      <trkpt lat="44.97978" lon="5.43273">
        <ele>842.79998779297</ele>
        <time>2020-07-12T14:04:10Z</time>
      </trkpt>
      <trkpt lat="44.97965" lon="5.43271">
        <ele>844</ele>
        <time>2020-07-12T14:04:15Z</time>
      </trkpt>
      <trkpt lat="44.97937" lon="5.43267">
        <ele>846.59997558594</ele>
        <time>2020-07-12T14:04:28Z</time>
      </trkpt>
      <trkpt lat="44.9793" lon="5.43264">
        <ele>847.20001220703</ele>
        <time>2020-07-12T14:04:31Z</time>
      </trkpt>
      <trkpt lat="44.97917" lon="5.43257">
        <ele>848.79998779297</ele>
        <time>2020-07-12T14:04:37Z</time>
      </trkpt>
      <trkpt lat="44.97913" lon="5.43257">
        <ele>849</ele>
        <time>2020-07-12T14:04:39Z</time>
      </trkpt>
      <trkpt lat="44.97909" lon="5.43256">
        <ele>849.40002441406</ele>
        <time>2020-07-12T14:04:41Z</time>
      </trkpt>
      <trkpt lat="44.97872" lon="5.43244">
        <ele>851.40002441406</ele>
        <time>2020-07-12T14:04:56Z</time>
      </trkpt>
      <trkpt lat="44.97846" lon="5.43231">
        <ele>852.79998779297</ele>
        <time>2020-07-12T14:05:07Z</time>
      </trkpt>
      <trkpt lat="44.97816" lon="5.4323">
        <ele>854.20001220703</ele>
        <time>2020-07-12T14:05:18Z</time>
      </trkpt>
      <trkpt lat="44.97793" lon="5.43223">
        <ele>854.59997558594</ele>
        <time>2020-07-12T14:05:27Z</time>
      </trkpt>
      <trkpt lat="44.97749" lon="5.43208">
        <ele>857.40002441406</ele>
        <time>2020-07-12T14:05:43Z</time>
      </trkpt>
      <trkpt lat="44.97732" lon="5.43198">
        <ele>858.40002441406</ele>
        <time>2020-07-12T14:05:51Z</time>
      </trkpt>
      <trkpt lat="44.97721" lon="5.43192">
        <ele>860.40002441406</ele>
        <time>2020-07-12T14:05:59Z</time>
      </trkpt>
      <trkpt lat="44.97687" lon="5.43176">
        <ele>867.79998779297</ele>
        <time>2020-07-12T14:06:21Z</time>
      </trkpt>
      <trkpt lat="44.97679" lon="5.43175">
        <ele>869.40002441406</ele>
        <time>2020-07-12T14:06:25Z</time>
      </trkpt>
      <trkpt lat="44.97668" lon="5.43173">
        <ele>872.79998779297</ele>
        <time>2020-07-12T14:06:33Z</time>
      </trkpt>
      <trkpt lat="44.97662" lon="5.43173">
        <ele>874.79998779297</ele>
        <time>2020-07-12T14:06:37Z</time>
      </trkpt>
      <trkpt lat="44.97635" lon="5.43167">
        <ele>881</ele>
        <time>2020-07-12T14:06:52Z</time>
      </trkpt>
      <trkpt lat="44.97633" lon="5.43167">
        <ele>881.40002441406</ele>
        <time>2020-07-12T14:06:53Z</time>
      </trkpt>
      <trkpt lat="44.97626" lon="5.43164">
        <ele>883</ele>
        <time>2020-07-12T14:06:57Z</time>
      </trkpt>
      <trkpt lat="44.97613" lon="5.43159">
        <ele>885.40002441406</ele>
        <time>2020-07-12T14:07:04Z</time>
      </trkpt>
      <trkpt lat="44.97611" lon="5.43158">
        <ele>886</ele>
        <time>2020-07-12T14:07:05Z</time>
      </trkpt>
      <trkpt lat="44.97609" lon="5.43156">
        <ele>886.20001220703</ele>
        <time>2020-07-12T14:07:06Z</time>
      </trkpt>
      <trkpt lat="44.97603" lon="5.43152">
        <ele>887.40002441406</ele>
        <time>2020-07-12T14:07:10Z</time>
      </trkpt>
      <trkpt lat="44.97599" lon="5.43151">
        <ele>888.40002441406</ele>
        <time>2020-07-12T14:07:12Z</time>
      </trkpt>
      <trkpt lat="44.97592" lon="5.43149">
        <ele>890</ele>
        <time>2020-07-12T14:07:16Z</time>
      </trkpt>
      <trkpt lat="44.9759" lon="5.43149">
        <ele>890.20001220703</ele>
        <time>2020-07-12T14:07:17Z</time>
      </trkpt>
      <trkpt lat="44.97588" lon="5.43149">
        <ele>890.79998779297</ele>
        <time>2020-07-12T14:07:18Z</time>
      </trkpt>
      <trkpt lat="44.97578" lon="5.43148">
        <ele>894.59997558594</ele>
        <time>2020-07-12T14:07:25Z</time>
      </trkpt>
      <trkpt lat="44.97577" lon="5.43147">
        <ele>895.20001220703</ele>
        <time>2020-07-12T14:07:26Z</time>
      </trkpt>
      <trkpt lat="44.97575" lon="5.43146">
        <ele>895.59997558594</ele>
        <time>2020-07-12T14:07:27Z</time>
      </trkpt>
      <trkpt lat="44.97562" lon="5.43145">
        <ele>897.59997558594</ele>
        <time>2020-07-12T14:07:32Z</time>
      </trkpt>
      <trkpt lat="44.97555" lon="5.43146">
        <ele>898.59997558594</ele>
        <time>2020-07-12T14:07:35Z</time>
      </trkpt>
      <trkpt lat="44.97553" lon="5.43146">
        <ele>898.79998779297</ele>
        <time>2020-07-12T14:07:36Z</time>
      </trkpt>
      <trkpt lat="44.97549" lon="5.43148">
        <ele>899.20001220703</ele>
        <time>2020-07-12T14:07:43Z</time>
      </trkpt>
      <trkpt lat="44.97548" lon="5.43149">
        <ele>899.40002441406</ele>
        <time>2020-07-12T14:07:44Z</time>
      </trkpt>
      <trkpt lat="44.97547" lon="5.43151">
        <ele>899.79998779297</ele>
        <time>2020-07-12T14:07:46Z</time>
      </trkpt>
      <trkpt lat="44.97546" lon="5.4315">
        <ele>900</ele>
        <time>2020-07-12T14:07:48Z</time>
      </trkpt>
      <trkpt lat="44.97544" lon="5.4315">
        <ele>900.20001220703</ele>
        <time>2020-07-12T14:07:52Z</time>
      </trkpt>
      <trkpt lat="44.97543" lon="5.43157">
        <ele>900.20001220703</ele>
        <time>2020-07-12T14:08:17Z</time>
      </trkpt>
      <trkpt lat="44.97543" lon="5.43157">
        <ele>900</ele>
        <time>2020-07-12T14:08:18Z</time>
      </trkpt>
      <trkpt lat="44.97543" lon="5.43157">
        <ele>900</ele>
        <time>2020-07-12T14:08:19Z</time>
      </trkpt>
      <trkpt lat="44.97543" lon="5.43157">
        <ele>900.20001220703</ele>
        <time>2020-07-12T14:08:21Z</time>
      </trkpt>
      <trkpt lat="44.97544" lon="5.43157">
        <ele>900.20001220703</ele>
        <time>2020-07-12T14:08:23Z</time>
      </trkpt>
      <trkpt lat="44.97544" lon="5.43157">
        <ele>900.20001220703</ele>
        <time>2020-07-12T14:08:27Z</time>
      </trkpt>
      <trkpt lat="44.97544" lon="5.43157">
        <ele>900.20001220703</ele>
        <time>2020-07-12T14:08:51Z</time>
      </trkpt>
      <trkpt lat="44.97544" lon="5.43157">
        <ele>900.20001220703</ele>
        <time>2020-07-12T14:09:25Z</time>
      </trkpt>
      <trkpt lat="44.97544" lon="5.43157">
        <ele>900.20001220703</ele>
        <time>2020-07-12T14:09:32Z</time>
      </trkpt>
      <trkpt lat="44.97544" lon="5.43156">
        <ele>900.20001220703</ele>
        <time>2020-07-12T14:09:38Z</time>
      </trkpt>
      <trkpt lat="44.97544" lon="5.43154">
        <ele>900</ele>
        <time>2020-07-12T14:09:58Z</time>
      </trkpt>
      <trkpt lat="44.97545" lon="5.43152">
        <ele>899.79998779297</ele>
        <time>2020-07-12T14:10:25Z</time>
      </trkpt>
      <trkpt lat="44.97543" lon="5.43147">
        <ele>900</ele>
        <time>2020-07-12T14:11:26Z</time>
      </trkpt>
      <trkpt lat="44.97527" lon="5.43126">
        <ele>899.40002441406</ele>
        <time>2020-07-12T14:11:34Z</time>
      </trkpt>
      <trkpt lat="44.97521" lon="5.43121">
        <ele>899</ele>
        <time>2020-07-12T14:11:36Z</time>
      </trkpt>
      <trkpt lat="44.9751" lon="5.4311">
        <ele>898.20001220703</ele>
        <time>2020-07-12T14:11:40Z</time>
      </trkpt>
      <trkpt lat="44.97499" lon="5.43099">
        <ele>897.20001220703</ele>
        <time>2020-07-12T14:11:44Z</time>
      </trkpt>
      <trkpt lat="44.97496" lon="5.43097">
        <ele>897</ele>
        <time>2020-07-12T14:11:45Z</time>
      </trkpt>
      <trkpt lat="44.97493" lon="5.43094">
        <ele>896.79998779297</ele>
        <time>2020-07-12T14:11:46Z</time>
      </trkpt>
      <trkpt lat="44.97474" lon="5.43082">
        <ele>895</ele>
        <time>2020-07-12T14:11:52Z</time>
      </trkpt>
      <trkpt lat="44.97462" lon="5.43075">
        <ele>893.59997558594</ele>
        <time>2020-07-12T14:11:56Z</time>
      </trkpt>
      <trkpt lat="44.97443" lon="5.43063">
        <ele>893.79998779297</ele>
        <time>2020-07-12T14:12:02Z</time>
      </trkpt>
      <trkpt lat="44.97429" lon="5.43053">
        <ele>893.79998779297</ele>
        <time>2020-07-12T14:12:07Z</time>
      </trkpt>
      <trkpt lat="44.97414" lon="5.4304">
        <ele>893.79998779297</ele>
        <time>2020-07-12T14:12:12Z</time>
      </trkpt>
      <trkpt lat="44.97408" lon="5.43035">
        <ele>893.79998779297</ele>
        <time>2020-07-12T14:12:14Z</time>
      </trkpt>
      <trkpt lat="44.97405" lon="5.43033">
        <ele>893.79998779297</ele>
        <time>2020-07-12T14:12:15Z</time>
      </trkpt>
      <trkpt lat="44.97401" lon="5.43031">
        <ele>893.79998779297</ele>
        <time>2020-07-12T14:12:16Z</time>
      </trkpt>
      <trkpt lat="44.97398" lon="5.4303">
        <ele>893.59997558594</ele>
        <time>2020-07-12T14:12:17Z</time>
      </trkpt>
      <trkpt lat="44.97395" lon="5.43028">
        <ele>893.59997558594</ele>
        <time>2020-07-12T14:12:18Z</time>
      </trkpt>
      <trkpt lat="44.97393" lon="5.43027">
        <ele>893.40002441406</ele>
        <time>2020-07-12T14:12:19Z</time>
      </trkpt>
      <trkpt lat="44.9739" lon="5.43025">
        <ele>893.20001220703</ele>
        <time>2020-07-12T14:12:20Z</time>
      </trkpt>
      <trkpt lat="44.97385" lon="5.43023">
        <ele>892.79998779297</ele>
        <time>2020-07-12T14:12:22Z</time>
      </trkpt>
      <trkpt lat="44.97374" lon="5.43023">
        <ele>892.40002441406</ele>
        <time>2020-07-12T14:12:26Z</time>
      </trkpt>
      <trkpt lat="44.97358" lon="5.43019">
        <ele>891.59997558594</ele>
        <time>2020-07-12T14:12:31Z</time>
      </trkpt>
      <trkpt lat="44.97342" lon="5.43017">
        <ele>890.79998779297</ele>
        <time>2020-07-12T14:12:36Z</time>
      </trkpt>
      <trkpt lat="44.97317" lon="5.43012">
        <ele>889.59997558594</ele>
        <time>2020-07-12T14:12:44Z</time>
      </trkpt>
      <trkpt lat="44.97311" lon="5.4301">
        <ele>889.59997558594</ele>
        <time>2020-07-12T14:12:46Z</time>
      </trkpt>
      <trkpt lat="44.97306" lon="5.43008">
        <ele>889.40002441406</ele>
        <time>2020-07-12T14:12:48Z</time>
      </trkpt>
      <trkpt lat="44.97296" lon="5.43001">
        <ele>889.40002441406</ele>
        <time>2020-07-12T14:12:52Z</time>
      </trkpt>
      <trkpt lat="44.97293" lon="5.42999">
        <ele>889.40002441406</ele>
        <time>2020-07-12T14:12:53Z</time>
      </trkpt>
      <trkpt lat="44.97275" lon="5.42987">
        <ele>889.40002441406</ele>
        <time>2020-07-12T14:13:00Z</time>
      </trkpt>
      <trkpt lat="44.97272" lon="5.42985">
        <ele>889.40002441406</ele>
        <time>2020-07-12T14:13:01Z</time>
      </trkpt>
      <trkpt lat="44.9727" lon="5.42984">
        <ele>889.40002441406</ele>
        <time>2020-07-12T14:13:02Z</time>
      </trkpt>
      <trkpt lat="44.97268" lon="5.42983">
        <ele>889.40002441406</ele>
        <time>2020-07-12T14:13:03Z</time>
      </trkpt>
      <trkpt lat="44.97263" lon="5.4298">
        <ele>889.59997558594</ele>
        <time>2020-07-12T14:13:05Z</time>
      </trkpt>
      <trkpt lat="44.97254" lon="5.42978">
        <ele>889.59997558594</ele>
        <time>2020-07-12T14:13:10Z</time>
      </trkpt>
      <trkpt lat="44.97252" lon="5.42977">
        <ele>889.59997558594</ele>
        <time>2020-07-12T14:13:11Z</time>
      </trkpt>
      <trkpt lat="44.97205" lon="5.42967">
        <ele>889.20001220703</ele>
        <time>2020-07-12T14:13:25Z</time>
      </trkpt>
      <trkpt lat="44.9716" lon="5.42946">
        <ele>888.59997558594</ele>
        <time>2020-07-12T14:13:38Z</time>
      </trkpt>
      <trkpt lat="44.97136" lon="5.4293">
        <ele>888</ele>
        <time>2020-07-12T14:13:45Z</time>
      </trkpt>
      <trkpt lat="44.97123" lon="5.42922">
        <ele>887.59997558594</ele>
        <time>2020-07-12T14:13:49Z</time>
      </trkpt>
      <trkpt lat="44.9711" lon="5.42914">
        <ele>887</ele>
        <time>2020-07-12T14:13:53Z</time>
      </trkpt>
      <trkpt lat="44.97065" lon="5.42898">
        <ele>885.20001220703</ele>
        <time>2020-07-12T14:14:05Z</time>
      </trkpt>
      <trkpt lat="44.97053" lon="5.42895">
        <ele>885</ele>
        <time>2020-07-12T14:14:08Z</time>
      </trkpt>
      <trkpt lat="44.97041" lon="5.42893">
        <ele>884.79998779297</ele>
        <time>2020-07-12T14:14:11Z</time>
      </trkpt>
      <trkpt lat="44.97021" lon="5.42894">
        <ele>884.20001220703</ele>
        <time>2020-07-12T14:14:16Z</time>
      </trkpt>
      <trkpt lat="44.96985" lon="5.42896">
        <ele>883</ele>
        <time>2020-07-12T14:14:25Z</time>
      </trkpt>
      <trkpt lat="44.96949" lon="5.42898">
        <ele>881.59997558594</ele>
        <time>2020-07-12T14:14:34Z</time>
      </trkpt>
      <trkpt lat="44.96931" lon="5.42898">
        <ele>880.79998779297</ele>
        <time>2020-07-12T14:14:42Z</time>
      </trkpt>
      <trkpt lat="44.96931" lon="5.42898">
        <ele>880.40002441406</ele>
        <time>2020-07-12T14:14:47Z</time>
      </trkpt>
      <trkpt lat="44.9693" lon="5.42899">
        <ele>880.40002441406</ele>
        <time>2020-07-12T14:15:07Z</time>
      </trkpt>
      <trkpt lat="44.96927" lon="5.42899">
        <ele>880.40002441406</ele>
        <time>2020-07-12T14:15:10Z</time>
      </trkpt>
      <trkpt lat="44.96917" lon="5.42903">
        <ele>879.59997558594</ele>
        <time>2020-07-12T14:15:14Z</time>
      </trkpt>
      <trkpt lat="44.96906" lon="5.42901">
        <ele>879.59997558594</ele>
        <time>2020-07-12T14:15:18Z</time>
      </trkpt>
      <trkpt lat="44.96893" lon="5.42895">
        <ele>879.20001220703</ele>
        <time>2020-07-12T14:15:23Z</time>
      </trkpt>
      <trkpt lat="44.96869" lon="5.42883">
        <ele>878.20001220703</ele>
        <time>2020-07-12T14:15:30Z</time>
      </trkpt>
      <trkpt lat="44.96843" lon="5.42886">
        <ele>877.40002441406</ele>
        <time>2020-07-12T14:15:35Z</time>
      </trkpt>
      <trkpt lat="44.96838" lon="5.42887">
        <ele>877.40002441406</ele>
        <time>2020-07-12T14:15:36Z</time>
      </trkpt>
      <trkpt lat="44.96824" lon="5.42891">
        <ele>876.79998779297</ele>
        <time>2020-07-12T14:15:39Z</time>
      </trkpt>
      <trkpt lat="44.96821" lon="5.42892">
        <ele>876.59997558594</ele>
        <time>2020-07-12T14:15:40Z</time>
      </trkpt>
      <trkpt lat="44.96819" lon="5.42893">
        <ele>876.79998779297</ele>
        <time>2020-07-12T14:15:41Z</time>
      </trkpt>
      <trkpt lat="44.96817" lon="5.42894">
        <ele>876.79998779297</ele>
        <time>2020-07-12T14:15:42Z</time>
      </trkpt>
      <trkpt lat="44.96807" lon="5.42896">
        <ele>876.59997558594</ele>
        <time>2020-07-12T14:15:46Z</time>
      </trkpt>
      <trkpt lat="44.96793" lon="5.42899">
        <ele>876.59997558594</ele>
        <time>2020-07-12T14:15:50Z</time>
      </trkpt>
      <trkpt lat="44.96777" lon="5.42904">
        <ele>876.59997558594</ele>
        <time>2020-07-12T14:15:55Z</time>
      </trkpt>
      <trkpt lat="44.96765" lon="5.42903">
        <ele>876.59997558594</ele>
        <time>2020-07-12T14:15:59Z</time>
      </trkpt>
      <trkpt lat="44.96753" lon="5.429">
        <ele>876.79998779297</ele>
        <time>2020-07-12T14:16:03Z</time>
      </trkpt>
      <trkpt lat="44.96745" lon="5.42899">
        <ele>876.79998779297</ele>
        <time>2020-07-12T14:16:05Z</time>
      </trkpt>
      <trkpt lat="44.9673" lon="5.42893">
        <ele>877</ele>
        <time>2020-07-12T14:16:09Z</time>
      </trkpt>
      <trkpt lat="44.96719" lon="5.42885">
        <ele>877</ele>
        <time>2020-07-12T14:16:12Z</time>
      </trkpt>
      <trkpt lat="44.96704" lon="5.42871">
        <ele>877</ele>
        <time>2020-07-12T14:16:16Z</time>
      </trkpt>
      <trkpt lat="44.967" lon="5.42868">
        <ele>877</ele>
        <time>2020-07-12T14:16:17Z</time>
      </trkpt>
      <trkpt lat="44.96697" lon="5.42864">
        <ele>877</ele>
        <time>2020-07-12T14:16:18Z</time>
      </trkpt>
      <trkpt lat="44.96694" lon="5.4286">
        <ele>877</ele>
        <time>2020-07-12T14:16:19Z</time>
      </trkpt>
      <trkpt lat="44.96691" lon="5.42851">
        <ele>876.79998779297</ele>
        <time>2020-07-12T14:16:21Z</time>
      </trkpt>
      <trkpt lat="44.96686" lon="5.42833">
        <ele>876.59997558594</ele>
        <time>2020-07-12T14:16:25Z</time>
      </trkpt>
      <trkpt lat="44.96681" lon="5.42824">
        <ele>876.40002441406</ele>
        <time>2020-07-12T14:16:27Z</time>
      </trkpt>
      <trkpt lat="44.96673" lon="5.42815">
        <ele>876.40002441406</ele>
        <time>2020-07-12T14:16:29Z</time>
      </trkpt>
      <trkpt lat="44.96663" lon="5.42808">
        <ele>876.40002441406</ele>
        <time>2020-07-12T14:16:31Z</time>
      </trkpt>
      <trkpt lat="44.96628" lon="5.42787">
        <ele>875.79998779297</ele>
        <time>2020-07-12T14:16:37Z</time>
      </trkpt>
      <trkpt lat="44.96599" lon="5.4277">
        <ele>874.79998779297</ele>
        <time>2020-07-12T14:16:42Z</time>
      </trkpt>
      <trkpt lat="44.96555" lon="5.42747">
        <ele>873.40002441406</ele>
        <time>2020-07-12T14:16:50Z</time>
      </trkpt>
      <trkpt lat="44.96513" lon="5.42721">
        <ele>872.79998779297</ele>
        <time>2020-07-12T14:16:59Z</time>
      </trkpt>
      <trkpt lat="44.96499" lon="5.42713">
        <ele>872.59997558594</ele>
        <time>2020-07-12T14:17:02Z</time>
      </trkpt>
      <trkpt lat="44.96494" lon="5.42711">
        <ele>872.59997558594</ele>
        <time>2020-07-12T14:17:03Z</time>
      </trkpt>
      <trkpt lat="44.96484" lon="5.42706">
        <ele>872.59997558594</ele>
        <time>2020-07-12T14:17:05Z</time>
      </trkpt>
      <trkpt lat="44.9648" lon="5.42703">
        <ele>872.59997558594</ele>
        <time>2020-07-12T14:17:06Z</time>
      </trkpt>
      <trkpt lat="44.9647" lon="5.42698">
        <ele>872.79998779297</ele>
        <time>2020-07-12T14:17:08Z</time>
      </trkpt>
      <trkpt lat="44.96426" lon="5.42675">
        <ele>873.59997558594</ele>
        <time>2020-07-12T14:17:17Z</time>
      </trkpt>
      <trkpt lat="44.96398" lon="5.42657">
        <ele>873.59997558594</ele>
        <time>2020-07-12T14:17:23Z</time>
      </trkpt>
      <trkpt lat="44.96371" lon="5.42644">
        <ele>874</ele>
        <time>2020-07-12T14:17:29Z</time>
      </trkpt>
      <trkpt lat="44.96324" lon="5.42648">
        <ele>873.59997558594</ele>
        <time>2020-07-12T14:17:41Z</time>
      </trkpt>
      <trkpt lat="44.96322" lon="5.42649">
        <ele>872.40002441406</ele>
        <time>2020-07-12T14:18:04Z</time>
      </trkpt>
      <trkpt lat="44.96321" lon="5.42649">
        <ele>872.20001220703</ele>
        <time>2020-07-12T14:18:07Z</time>
      </trkpt>
      <trkpt lat="44.96318" lon="5.42649">
        <ele>872.79998779297</ele>
        <time>2020-07-12T14:18:10Z</time>
      </trkpt>
      <trkpt lat="44.96311" lon="5.42649">
        <ele>873.59997558594</ele>
        <time>2020-07-12T14:18:13Z</time>
      </trkpt>
      <trkpt lat="44.96288" lon="5.42646">
        <ele>874.79998779297</ele>
        <time>2020-07-12T14:18:19Z</time>
      </trkpt>
      <trkpt lat="44.96274" lon="5.4264">
        <ele>875.40002441406</ele>
        <time>2020-07-12T14:18:22Z</time>
      </trkpt>
      <trkpt lat="44.96233" lon="5.42614">
        <ele>875.79998779297</ele>
        <time>2020-07-12T14:18:31Z</time>
      </trkpt>
      <trkpt lat="44.96201" lon="5.42583">
        <ele>875.40002441406</ele>
        <time>2020-07-12T14:18:39Z</time>
      </trkpt>
      <trkpt lat="44.96197" lon="5.4258">
        <ele>875.40002441406</ele>
        <time>2020-07-12T14:18:40Z</time>
      </trkpt>
      <trkpt lat="44.96191" lon="5.42573">
        <ele>875.40002441406</ele>
        <time>2020-07-12T14:18:42Z</time>
      </trkpt>
      <trkpt lat="44.96173" lon="5.42554">
        <ele>875</ele>
        <time>2020-07-12T14:18:47Z</time>
      </trkpt>
      <trkpt lat="44.96158" lon="5.4254">
        <ele>874.79998779297</ele>
        <time>2020-07-12T14:18:51Z</time>
      </trkpt>
      <trkpt lat="44.96154" lon="5.42538">
        <ele>874.79998779297</ele>
        <time>2020-07-12T14:18:52Z</time>
      </trkpt>
      <trkpt lat="44.96142" lon="5.42532">
        <ele>874.59997558594</ele>
        <time>2020-07-12T14:18:55Z</time>
      </trkpt>
      <trkpt lat="44.96138" lon="5.4253">
        <ele>874.59997558594</ele>
        <time>2020-07-12T14:18:56Z</time>
      </trkpt>
      <trkpt lat="44.96121" lon="5.42525">
        <ele>874.40002441406</ele>
        <time>2020-07-12T14:19:00Z</time>
      </trkpt>
      <trkpt lat="44.96117" lon="5.42525">
        <ele>874.20001220703</ele>
        <time>2020-07-12T14:19:01Z</time>
      </trkpt>
      <trkpt lat="44.96112" lon="5.42525">
        <ele>874</ele>
        <time>2020-07-12T14:19:02Z</time>
      </trkpt>
      <trkpt lat="44.96108" lon="5.42525">
        <ele>874</ele>
        <time>2020-07-12T14:19:03Z</time>
      </trkpt>
      <trkpt lat="44.96103" lon="5.42525">
        <ele>873.79998779297</ele>
        <time>2020-07-12T14:19:04Z</time>
      </trkpt>
      <trkpt lat="44.96093" lon="5.42523">
        <ele>873.59997558594</ele>
        <time>2020-07-12T14:19:06Z</time>
      </trkpt>
      <trkpt lat="44.96088" lon="5.42521">
        <ele>873.40002441406</ele>
        <time>2020-07-12T14:19:07Z</time>
      </trkpt>
      <trkpt lat="44.96042" lon="5.42506">
        <ele>872.79998779297</ele>
        <time>2020-07-12T14:19:16Z</time>
      </trkpt>
      <trkpt lat="44.96028" lon="5.42505">
        <ele>872.59997558594</ele>
        <time>2020-07-12T14:19:19Z</time>
      </trkpt>
      <trkpt lat="44.96014" lon="5.42505">
        <ele>872.40002441406</ele>
        <time>2020-07-12T14:19:22Z</time>
      </trkpt>
      <trkpt lat="44.95997" lon="5.42495">
        <ele>871.59997558594</ele>
        <time>2020-07-12T14:19:26Z</time>
      </trkpt>
      <trkpt lat="44.9599" lon="5.42488">
        <ele>871.20001220703</ele>
        <time>2020-07-12T14:19:28Z</time>
      </trkpt>
      <trkpt lat="44.95982" lon="5.42479">
        <ele>870.79998779297</ele>
        <time>2020-07-12T14:19:30Z</time>
      </trkpt>
      <trkpt lat="44.95972" lon="5.42465">
        <ele>870.40002441406</ele>
        <time>2020-07-12T14:19:33Z</time>
      </trkpt>
      <trkpt lat="44.95969" lon="5.4246">
        <ele>870.40002441406</ele>
        <time>2020-07-12T14:19:34Z</time>
      </trkpt>
      <trkpt lat="44.95966" lon="5.42455">
        <ele>870.20001220703</ele>
        <time>2020-07-12T14:19:35Z</time>
      </trkpt>
      <trkpt lat="44.95963" lon="5.42449">
        <ele>870</ele>
        <time>2020-07-12T14:19:36Z</time>
      </trkpt>
      <trkpt lat="44.95939" lon="5.42396">
        <ele>869.20001220703</ele>
        <time>2020-07-12T14:19:48Z</time>
      </trkpt>
      <trkpt lat="44.95925" lon="5.42331">
        <ele>868.59997558594</ele>
        <time>2020-07-12T14:20:01Z</time>
      </trkpt>
      <trkpt lat="44.95894" lon="5.42307">
        <ele>869.79998779297</ele>
        <time>2020-07-12T14:20:11Z</time>
      </trkpt>
      <trkpt lat="44.95861" lon="5.42288">
        <ele>870.20001220703</ele>
        <time>2020-07-12T14:20:31Z</time>
      </trkpt>
      <trkpt lat="44.95861" lon="5.42288">
        <ele>870.20001220703</ele>
        <time>2020-07-12T14:20:40Z</time>
      </trkpt>
      <trkpt lat="44.95861" lon="5.42288">
        <ele>870.20001220703</ele>
        <time>2020-07-12T14:21:12Z</time>
      </trkpt>
      <trkpt lat="44.95862" lon="5.42287">
        <ele>870.20001220703</ele>
        <time>2020-07-12T14:21:31Z</time>
      </trkpt>
      <trkpt lat="44.95858" lon="5.42282">
        <ele>870.79998779297</ele>
        <time>2020-07-12T14:21:35Z</time>
      </trkpt>
      <trkpt lat="44.95852" lon="5.42278">
        <ele>871</ele>
        <time>2020-07-12T14:21:38Z</time>
      </trkpt>
      <trkpt lat="44.95844" lon="5.42272">
        <ele>871.40002441406</ele>
        <time>2020-07-12T14:21:42Z</time>
      </trkpt>
      <trkpt lat="44.9583" lon="5.42261">
        <ele>872</ele>
        <time>2020-07-12T14:21:49Z</time>
      </trkpt>
      <trkpt lat="44.95803" lon="5.42248">
        <ele>872.79998779297</ele>
        <time>2020-07-12T14:22:02Z</time>
      </trkpt>
      <trkpt lat="44.95801" lon="5.42251">
        <ele>872.59997558594</ele>
        <time>2020-07-12T14:22:04Z</time>
      </trkpt>
      <trkpt lat="44.958" lon="5.42252">
        <ele>872.59997558594</ele>
        <time>2020-07-12T14:22:05Z</time>
      </trkpt>
      <trkpt lat="44.95796" lon="5.42256">
        <ele>872.20001220703</ele>
        <time>2020-07-12T14:22:08Z</time>
      </trkpt>
      <trkpt lat="44.95794" lon="5.42257">
        <ele>872</ele>
        <time>2020-07-12T14:22:09Z</time>
      </trkpt>
      <trkpt lat="44.95789" lon="5.42261">
        <ele>871.59997558594</ele>
        <time>2020-07-12T14:22:12Z</time>
      </trkpt>
      <trkpt lat="44.9578" lon="5.42269">
        <ele>870.79998779297</ele>
        <time>2020-07-12T14:22:17Z</time>
      </trkpt>
      <trkpt lat="44.95778" lon="5.4227">
        <ele>870.79998779297</ele>
        <time>2020-07-12T14:22:18Z</time>
      </trkpt>
      <trkpt lat="44.95776" lon="5.42271">
        <ele>870.59997558594</ele>
        <time>2020-07-12T14:22:19Z</time>
      </trkpt>
      <trkpt lat="44.95753" lon="5.42304">
        <ele>869.20001220703</ele>
        <time>2020-07-12T14:22:29Z</time>
      </trkpt>
      <trkpt lat="44.9574" lon="5.42322">
        <ele>868.79998779297</ele>
        <time>2020-07-12T14:22:36Z</time>
      </trkpt>
      <trkpt lat="44.95736" lon="5.42328">
        <ele>868.59997558594</ele>
        <time>2020-07-12T14:22:38Z</time>
      </trkpt>
      <trkpt lat="44.95734" lon="5.42331">
        <ele>868.40002441406</ele>
        <time>2020-07-12T14:22:39Z</time>
      </trkpt>
      <trkpt lat="44.95712" lon="5.42357">
        <ele>868.79998779297</ele>
        <time>2020-07-12T14:23:06Z</time>
      </trkpt>
      <trkpt lat="44.95708" lon="5.42372">
        <ele>868.59997558594</ele>
        <time>2020-07-12T14:23:16Z</time>
      </trkpt>
      <trkpt lat="44.95704" lon="5.42382">
        <ele>868.59997558594</ele>
        <time>2020-07-12T14:23:20Z</time>
      </trkpt>
      <trkpt lat="44.95689" lon="5.42401">
        <ele>869.40002441406</ele>
        <time>2020-07-12T14:23:28Z</time>
      </trkpt>
      <trkpt lat="44.95682" lon="5.42411">
        <ele>869.79998779297</ele>
        <time>2020-07-12T14:23:32Z</time>
      </trkpt>
      <trkpt lat="44.95679" lon="5.42417">
        <ele>870</ele>
        <time>2020-07-12T14:23:34Z</time>
      </trkpt>
      <trkpt lat="44.95672" lon="5.42428">
        <ele>870.40002441406</ele>
        <time>2020-07-12T14:23:37Z</time>
      </trkpt>
      <trkpt lat="44.95662" lon="5.42445">
        <ele>871</ele>
        <time>2020-07-12T14:23:42Z</time>
      </trkpt>
      <trkpt lat="44.95654" lon="5.42457">
        <ele>871.40002441406</ele>
        <time>2020-07-12T14:23:46Z</time>
      </trkpt>
      <trkpt lat="44.95617" lon="5.42498">
        <ele>873.59997558594</ele>
        <time>2020-07-12T14:24:02Z</time>
      </trkpt>
      <trkpt lat="44.95574" lon="5.42526">
        <ele>876.20001220703</ele>
        <time>2020-07-12T14:24:18Z</time>
      </trkpt>
      <trkpt lat="44.95552" lon="5.42539">
        <ele>877.20001220703</ele>
        <time>2020-07-12T14:24:26Z</time>
      </trkpt>
      <trkpt lat="44.95526" lon="5.42554">
        <ele>878</ele>
        <time>2020-07-12T14:24:35Z</time>
      </trkpt>
      <trkpt lat="44.95523" lon="5.42556">
        <ele>878</ele>
        <time>2020-07-12T14:24:36Z</time>
      </trkpt>
      <trkpt lat="44.9552" lon="5.42557">
        <ele>878</ele>
        <time>2020-07-12T14:24:37Z</time>
      </trkpt>
      <trkpt lat="44.95517" lon="5.42559">
        <ele>878.20001220703</ele>
        <time>2020-07-12T14:24:38Z</time>
      </trkpt>
      <trkpt lat="44.95515" lon="5.4256">
        <ele>878.20001220703</ele>
        <time>2020-07-12T14:24:39Z</time>
      </trkpt>
      <trkpt lat="44.95512" lon="5.42562">
        <ele>878.20001220703</ele>
        <time>2020-07-12T14:24:40Z</time>
      </trkpt>
      <trkpt lat="44.9551" lon="5.42564">
        <ele>878.20001220703</ele>
        <time>2020-07-12T14:24:41Z</time>
      </trkpt>
      <trkpt lat="44.95507" lon="5.42565">
        <ele>878.40002441406</ele>
        <time>2020-07-12T14:24:42Z</time>
      </trkpt>
      <trkpt lat="44.95495" lon="5.4257">
        <ele>878.79998779297</ele>
        <time>2020-07-12T14:24:48Z</time>
      </trkpt>
      <trkpt lat="44.95494" lon="5.4257">
        <ele>878.79998779297</ele>
        <time>2020-07-12T14:24:55Z</time>
      </trkpt>
    </trkseg>
  </trk>
</gpx>